<?xml version="1.0" encoding="UTF-8" standalone="no" ?>
<gpx xmlns="http://www.topografix.com/GPX/1/1" xmlns:xsi="http://www.w3.org/2001/XMLSchema-instance" xsi:schemaLocation="http://www.topografix.com/GPX/1/1 http://www.topografix.com/GPX/1/1/gpx.xsd" version="1.1" creator="VisuGPX - https://www.visugpx.com">
  <metadata>
    <name>cami ramader d\\\'evol</name>
    <desc><![CDATA[cami ramader d\\\'evol
]]></desc>
  </metadata>
  <trk>
    <name><![CDATA[CAMI RAMADER32:46]]></name>
    <trkseg>
      <trkpt lat="42.57093" lon="2.25364">
        <ele>725.93</ele>
        <time>2014-05-09T07:12:13Z</time>
      </trkpt>
      <trkpt lat="42.57093" lon="2.25365">
        <ele>731.22</ele>
        <time>2014-05-09T07:12:15Z</time>
      </trkpt>
      <trkpt lat="42.57093" lon="2.25364">
        <ele>734.58</ele>
        <time>2014-05-09T07:12:17Z</time>
      </trkpt>
      <trkpt lat="42.57093" lon="2.25365">
        <ele>737.95</ele>
        <time>2014-05-09T07:12:19Z</time>
      </trkpt>
      <trkpt lat="42.57092" lon="2.25366">
        <ele>740.83</ele>
        <time>2014-05-09T07:12:21Z</time>
      </trkpt>
      <trkpt lat="42.57093" lon="2.25366">
        <ele>744.68</ele>
        <time>2014-05-09T07:12:23Z</time>
      </trkpt>
      <trkpt lat="42.57092" lon="2.25367">
        <ele>749.49</ele>
        <time>2014-05-09T07:12:26Z</time>
      </trkpt>
      <trkpt lat="42.57092" lon="2.25367">
        <ele>752.85</ele>
        <time>2014-05-09T07:12:29Z</time>
      </trkpt>
      <trkpt lat="42.57092" lon="2.25367">
        <ele>756.69</ele>
        <time>2014-05-09T07:12:32Z</time>
      </trkpt>
      <trkpt lat="42.57092" lon="2.25368">
        <ele>760.54</ele>
        <time>2014-05-09T07:12:36Z</time>
      </trkpt>
      <trkpt lat="42.57092" lon="2.25368">
        <ele>762.94</ele>
        <time>2014-05-09T07:12:39Z</time>
      </trkpt>
      <trkpt lat="42.57092" lon="2.25368">
        <ele>764.39</ele>
        <time>2014-05-09T07:12:41Z</time>
      </trkpt>
      <trkpt lat="42.57092" lon="2.25368">
        <ele>766.79</ele>
        <time>2014-05-09T07:12:45Z</time>
      </trkpt>
      <trkpt lat="42.57092" lon="2.25368">
        <ele>768.71</ele>
        <time>2014-05-09T07:12:47Z</time>
      </trkpt>
      <trkpt lat="42.57092" lon="2.25368">
        <ele>771.6</ele>
        <time>2014-05-09T07:12:51Z</time>
      </trkpt>
      <trkpt lat="42.57091" lon="2.25368">
        <ele>771.11</ele>
        <time>2014-05-09T07:12:52Z</time>
      </trkpt>
      <trkpt lat="42.57091" lon="2.25368">
        <ele>774.96</ele>
        <time>2014-05-09T07:13:00Z</time>
      </trkpt>
      <trkpt lat="42.5709" lon="2.25367">
        <ele>775.92</ele>
        <time>2014-05-09T07:13:02Z</time>
      </trkpt>
      <trkpt lat="42.57091" lon="2.25366">
        <ele>779.29</ele>
        <time>2014-05-09T07:13:15Z</time>
      </trkpt>
      <trkpt lat="42.57093" lon="2.25365">
        <ele>781.69</ele>
        <time>2014-05-09T07:13:26Z</time>
      </trkpt>
      <trkpt lat="42.57094" lon="2.25366">
        <ele>784.57</ele>
        <time>2014-05-09T07:13:40Z</time>
      </trkpt>
      <trkpt lat="42.57094" lon="2.25366">
        <ele>787.94</ele>
        <time>2014-05-09T07:14:10Z</time>
      </trkpt>
      <trkpt lat="42.57101" lon="2.25375">
        <ele>788.42</ele>
        <time>2014-05-09T07:16:03Z</time>
      </trkpt>
      <trkpt lat="42.57105" lon="2.25381">
        <ele>788.42</ele>
        <time>2014-05-09T07:16:09Z</time>
      </trkpt>
      <trkpt lat="42.57107" lon="2.25385">
        <ele>789.38</ele>
        <time>2014-05-09T07:16:17Z</time>
      </trkpt>
      <trkpt lat="42.57114" lon="2.25392">
        <ele>790.34</ele>
        <time>2014-05-09T07:16:25Z</time>
      </trkpt>
      <trkpt lat="42.57123" lon="2.25398">
        <ele>790.34</ele>
        <time>2014-05-09T07:16:34Z</time>
      </trkpt>
      <trkpt lat="42.57127" lon="2.25399">
        <ele>790.82</ele>
        <time>2014-05-09T07:16:42Z</time>
      </trkpt>
      <trkpt lat="42.57134" lon="2.25403">
        <ele>791.3</ele>
        <time>2014-05-09T07:16:51Z</time>
      </trkpt>
      <trkpt lat="42.57139" lon="2.25403">
        <ele>791.3</ele>
        <time>2014-05-09T07:16:56Z</time>
      </trkpt>
      <trkpt lat="42.57144" lon="2.25405">
        <ele>791.78</ele>
        <time>2014-05-09T07:17:02Z</time>
      </trkpt>
      <trkpt lat="42.57147" lon="2.25406">
        <ele>791.78</ele>
        <time>2014-05-09T07:17:05Z</time>
      </trkpt>
      <trkpt lat="42.57156" lon="2.25409">
        <ele>792.26</ele>
        <time>2014-05-09T07:17:13Z</time>
      </trkpt>
      <trkpt lat="42.57167" lon="2.25413">
        <ele>792.74</ele>
        <time>2014-05-09T07:17:24Z</time>
      </trkpt>
      <trkpt lat="42.57175" lon="2.25416">
        <ele>793.22</ele>
        <time>2014-05-09T07:17:32Z</time>
      </trkpt>
      <trkpt lat="42.57181" lon="2.25418">
        <ele>793.71</ele>
        <time>2014-05-09T07:17:37Z</time>
      </trkpt>
      <trkpt lat="42.57187" lon="2.2542">
        <ele>794.19</ele>
        <time>2014-05-09T07:17:44Z</time>
      </trkpt>
      <trkpt lat="42.57192" lon="2.25417">
        <ele>794.67</ele>
        <time>2014-05-09T07:17:51Z</time>
      </trkpt>
      <trkpt lat="42.57196" lon="2.25411">
        <ele>794.67</ele>
        <time>2014-05-09T07:17:57Z</time>
      </trkpt>
      <trkpt lat="42.572" lon="2.25405">
        <ele>795.15</ele>
        <time>2014-05-09T07:18:04Z</time>
      </trkpt>
      <trkpt lat="42.57202" lon="2.25399">
        <ele>795.15</ele>
        <time>2014-05-09T07:18:10Z</time>
      </trkpt>
      <trkpt lat="42.57202" lon="2.25397">
        <ele>795.15</ele>
        <time>2014-05-09T07:18:18Z</time>
      </trkpt>
      <trkpt lat="42.57202" lon="2.25397">
        <ele>795.63</ele>
        <time>2014-05-09T07:18:28Z</time>
      </trkpt>
      <trkpt lat="42.57201" lon="2.25394">
        <ele>795.63</ele>
        <time>2014-05-09T07:18:44Z</time>
      </trkpt>
      <trkpt lat="42.572" lon="2.25383">
        <ele>796.11</ele>
        <time>2014-05-09T07:18:51Z</time>
      </trkpt>
      <trkpt lat="42.57197" lon="2.25376">
        <ele>796.11</ele>
        <time>2014-05-09T07:18:58Z</time>
      </trkpt>
      <trkpt lat="42.57193" lon="2.25369">
        <ele>797.07</ele>
        <time>2014-05-09T07:19:05Z</time>
      </trkpt>
      <trkpt lat="42.57192" lon="2.25368">
        <ele>797.07</ele>
        <time>2014-05-09T07:19:06Z</time>
      </trkpt>
      <trkpt lat="42.57189" lon="2.25362">
        <ele>797.55</ele>
        <time>2014-05-09T07:19:11Z</time>
      </trkpt>
      <trkpt lat="42.57185" lon="2.25353">
        <ele>798.03</ele>
        <time>2014-05-09T07:19:18Z</time>
      </trkpt>
      <trkpt lat="42.5718" lon="2.25345">
        <ele>798.03</ele>
        <time>2014-05-09T07:19:25Z</time>
      </trkpt>
      <trkpt lat="42.57175" lon="2.25341">
        <ele>798.99</ele>
        <time>2014-05-09T07:19:31Z</time>
      </trkpt>
      <trkpt lat="42.57175" lon="2.25339">
        <ele>798.99</ele>
        <time>2014-05-09T07:19:32Z</time>
      </trkpt>
      <trkpt lat="42.57173" lon="2.25337">
        <ele>798.99</ele>
        <time>2014-05-09T07:19:34Z</time>
      </trkpt>
      <trkpt lat="42.57172" lon="2.25326">
        <ele>799.95</ele>
        <time>2014-05-09T07:19:42Z</time>
      </trkpt>
      <trkpt lat="42.57174" lon="2.25318">
        <ele>799.95</ele>
        <time>2014-05-09T07:19:50Z</time>
      </trkpt>
      <trkpt lat="42.57176" lon="2.25314">
        <ele>799.95</ele>
        <time>2014-05-09T07:19:53Z</time>
      </trkpt>
      <trkpt lat="42.57181" lon="2.25309">
        <ele>800.44</ele>
        <time>2014-05-09T07:20:00Z</time>
      </trkpt>
      <trkpt lat="42.57187" lon="2.25306">
        <ele>800.44</ele>
        <time>2014-05-09T07:20:07Z</time>
      </trkpt>
      <trkpt lat="42.57191" lon="2.25307">
        <ele>799.95</ele>
        <time>2014-05-09T07:20:10Z</time>
      </trkpt>
      <trkpt lat="42.57199" lon="2.25307">
        <ele>799.95</ele>
        <time>2014-05-09T07:20:17Z</time>
      </trkpt>
      <trkpt lat="42.5721" lon="2.25305">
        <ele>800.92</ele>
        <time>2014-05-09T07:20:25Z</time>
      </trkpt>
      <trkpt lat="42.57212" lon="2.25305">
        <ele>801.4</ele>
        <time>2014-05-09T07:20:28Z</time>
      </trkpt>
      <trkpt lat="42.57215" lon="2.25302">
        <ele>800.44</ele>
        <time>2014-05-09T07:20:31Z</time>
      </trkpt>
      <trkpt lat="42.5722" lon="2.25297">
        <ele>800.44</ele>
        <time>2014-05-09T07:20:37Z</time>
      </trkpt>
      <trkpt lat="42.57221" lon="2.25296">
        <ele>800.92</ele>
        <time>2014-05-09T07:20:38Z</time>
      </trkpt>
      <trkpt lat="42.57227" lon="2.25287">
        <ele>801.88</ele>
        <time>2014-05-09T07:20:46Z</time>
      </trkpt>
      <trkpt lat="42.57229" lon="2.25285">
        <ele>798.99</ele>
        <time>2014-05-09T07:20:48Z</time>
      </trkpt>
      <trkpt lat="42.57234" lon="2.25276">
        <ele>801.88</ele>
        <time>2014-05-09T07:20:57Z</time>
      </trkpt>
      <trkpt lat="42.57235" lon="2.25275">
        <ele>801.4</ele>
        <time>2014-05-09T07:20:58Z</time>
      </trkpt>
      <trkpt lat="42.57241" lon="2.25272">
        <ele>802.36</ele>
        <time>2014-05-09T07:21:03Z</time>
      </trkpt>
      <trkpt lat="42.57245" lon="2.2527">
        <ele>802.84</ele>
        <time>2014-05-09T07:21:07Z</time>
      </trkpt>
      <trkpt lat="42.5725" lon="2.25263">
        <ele>802.84</ele>
        <time>2014-05-09T07:21:14Z</time>
      </trkpt>
      <trkpt lat="42.57253" lon="2.25262">
        <ele>802.84</ele>
        <time>2014-05-09T07:21:16Z</time>
      </trkpt>
      <trkpt lat="42.57255" lon="2.2526">
        <ele>803.32</ele>
        <time>2014-05-09T07:21:18Z</time>
      </trkpt>
      <trkpt lat="42.57259" lon="2.25257">
        <ele>803.32</ele>
        <time>2014-05-09T07:21:23Z</time>
      </trkpt>
      <trkpt lat="42.57266" lon="2.25252">
        <ele>803.32</ele>
        <time>2014-05-09T07:21:30Z</time>
      </trkpt>
      <trkpt lat="42.5727" lon="2.25248">
        <ele>803.32</ele>
        <time>2014-05-09T07:21:34Z</time>
      </trkpt>
      <trkpt lat="42.57276" lon="2.25242">
        <ele>803.32</ele>
        <time>2014-05-09T07:21:41Z</time>
      </trkpt>
      <trkpt lat="42.57282" lon="2.25237">
        <ele>803.32</ele>
        <time>2014-05-09T07:21:48Z</time>
      </trkpt>
      <trkpt lat="42.57283" lon="2.25236">
        <ele>803.8</ele>
        <time>2014-05-09T07:21:49Z</time>
      </trkpt>
      <trkpt lat="42.57284" lon="2.25233">
        <ele>803.8</ele>
        <time>2014-05-09T07:21:51Z</time>
      </trkpt>
      <trkpt lat="42.57289" lon="2.25228">
        <ele>803.8</ele>
        <time>2014-05-09T07:21:56Z</time>
      </trkpt>
      <trkpt lat="42.57295" lon="2.25224">
        <ele>803.32</ele>
        <time>2014-05-09T07:22:02Z</time>
      </trkpt>
      <trkpt lat="42.57303" lon="2.2522">
        <ele>803.32</ele>
        <time>2014-05-09T07:22:09Z</time>
      </trkpt>
      <trkpt lat="42.57305" lon="2.25217">
        <ele>803.32</ele>
        <time>2014-05-09T07:22:11Z</time>
      </trkpt>
      <trkpt lat="42.57308" lon="2.25214">
        <ele>803.32</ele>
        <time>2014-05-09T07:22:15Z</time>
      </trkpt>
      <trkpt lat="42.57312" lon="2.2521">
        <ele>803.32</ele>
        <time>2014-05-09T07:22:19Z</time>
      </trkpt>
      <trkpt lat="42.57316" lon="2.25206">
        <ele>803.32</ele>
        <time>2014-05-09T07:22:23Z</time>
      </trkpt>
      <trkpt lat="42.57322" lon="2.252">
        <ele>803.32</ele>
        <time>2014-05-09T07:22:30Z</time>
      </trkpt>
      <trkpt lat="42.57331" lon="2.25193">
        <ele>803.32</ele>
        <time>2014-05-09T07:22:39Z</time>
      </trkpt>
      <trkpt lat="42.57339" lon="2.25185">
        <ele>803.8</ele>
        <time>2014-05-09T07:22:48Z</time>
      </trkpt>
      <trkpt lat="42.57343" lon="2.25181">
        <ele>803.8</ele>
        <time>2014-05-09T07:22:53Z</time>
      </trkpt>
      <trkpt lat="42.57348" lon="2.25177">
        <ele>803.8</ele>
        <time>2014-05-09T07:22:58Z</time>
      </trkpt>
      <trkpt lat="42.57353" lon="2.25172">
        <ele>804.28</ele>
        <time>2014-05-09T07:23:03Z</time>
      </trkpt>
      <trkpt lat="42.57356" lon="2.25166">
        <ele>804.28</ele>
        <time>2014-05-09T07:23:08Z</time>
      </trkpt>
      <trkpt lat="42.5736" lon="2.25161">
        <ele>804.76</ele>
        <time>2014-05-09T07:23:12Z</time>
      </trkpt>
      <trkpt lat="42.57367" lon="2.25152">
        <ele>804.28</ele>
        <time>2014-05-09T07:23:20Z</time>
      </trkpt>
      <trkpt lat="42.57368" lon="2.25151">
        <ele>804.28</ele>
        <time>2014-05-09T07:23:21Z</time>
      </trkpt>
      <trkpt lat="42.57376" lon="2.25148">
        <ele>804.76</ele>
        <time>2014-05-09T07:23:29Z</time>
      </trkpt>
      <trkpt lat="42.57384" lon="2.25146">
        <ele>804.28</ele>
        <time>2014-05-09T07:23:37Z</time>
      </trkpt>
      <trkpt lat="42.57389" lon="2.25142">
        <ele>805.24</ele>
        <time>2014-05-09T07:23:43Z</time>
      </trkpt>
      <trkpt lat="42.57391" lon="2.25139">
        <ele>805.72</ele>
        <time>2014-05-09T07:23:45Z</time>
      </trkpt>
      <trkpt lat="42.57393" lon="2.25137">
        <ele>804.76</ele>
        <time>2014-05-09T07:23:47Z</time>
      </trkpt>
      <trkpt lat="42.57397" lon="2.25133">
        <ele>805.72</ele>
        <time>2014-05-09T07:23:54Z</time>
      </trkpt>
      <trkpt lat="42.57397" lon="2.25133">
        <ele>805.72</ele>
        <time>2014-05-09T07:23:56Z</time>
      </trkpt>
      <trkpt lat="42.57402" lon="2.25128">
        <ele>805.72</ele>
        <time>2014-05-09T07:24:01Z</time>
      </trkpt>
      <trkpt lat="42.57407" lon="2.25123">
        <ele>805.24</ele>
        <time>2014-05-09T07:24:07Z</time>
      </trkpt>
      <trkpt lat="42.57412" lon="2.25118">
        <ele>805.72</ele>
        <time>2014-05-09T07:24:12Z</time>
      </trkpt>
      <trkpt lat="42.57417" lon="2.25114">
        <ele>806.2</ele>
        <time>2014-05-09T07:24:18Z</time>
      </trkpt>
      <trkpt lat="42.57423" lon="2.25106">
        <ele>806.2</ele>
        <time>2014-05-09T07:24:25Z</time>
      </trkpt>
      <trkpt lat="42.57428" lon="2.25099">
        <ele>806.68</ele>
        <time>2014-05-09T07:24:32Z</time>
      </trkpt>
      <trkpt lat="42.57434" lon="2.25089">
        <ele>806.68</ele>
        <time>2014-05-09T07:24:41Z</time>
      </trkpt>
      <trkpt lat="42.57435" lon="2.25087">
        <ele>806.68</ele>
        <time>2014-05-09T07:24:42Z</time>
      </trkpt>
      <trkpt lat="42.57437" lon="2.25083">
        <ele>806.68</ele>
        <time>2014-05-09T07:24:46Z</time>
      </trkpt>
      <trkpt lat="42.57438" lon="2.2508">
        <ele>807.16</ele>
        <time>2014-05-09T07:24:48Z</time>
      </trkpt>
      <trkpt lat="42.57442" lon="2.25075">
        <ele>807.16</ele>
        <time>2014-05-09T07:24:53Z</time>
      </trkpt>
      <trkpt lat="42.57444" lon="2.25069">
        <ele>807.64</ele>
        <time>2014-05-09T07:24:58Z</time>
      </trkpt>
      <trkpt lat="42.57449" lon="2.25061">
        <ele>807.64</ele>
        <time>2014-05-09T07:25:05Z</time>
      </trkpt>
      <trkpt lat="42.57454" lon="2.25052">
        <ele>808.61</ele>
        <time>2014-05-09T07:25:14Z</time>
      </trkpt>
      <trkpt lat="42.57458" lon="2.25043">
        <ele>808.61</ele>
        <time>2014-05-09T07:25:21Z</time>
      </trkpt>
      <trkpt lat="42.57464" lon="2.25033">
        <ele>809.09</ele>
        <time>2014-05-09T07:25:29Z</time>
      </trkpt>
      <trkpt lat="42.57465" lon="2.25029">
        <ele>809.57</ele>
        <time>2014-05-09T07:25:32Z</time>
      </trkpt>
      <trkpt lat="42.57471" lon="2.25018">
        <ele>809.57</ele>
        <time>2014-05-09T07:25:41Z</time>
      </trkpt>
      <trkpt lat="42.57475" lon="2.25009">
        <ele>810.05</ele>
        <time>2014-05-09T07:25:47Z</time>
      </trkpt>
      <trkpt lat="42.57477" lon="2.25003">
        <ele>810.05</ele>
        <time>2014-05-09T07:25:51Z</time>
      </trkpt>
      <trkpt lat="42.57483" lon="2.24993">
        <ele>810.53</ele>
        <time>2014-05-09T07:26:00Z</time>
      </trkpt>
      <trkpt lat="42.57484" lon="2.24991">
        <ele>811.01</ele>
        <time>2014-05-09T07:26:06Z</time>
      </trkpt>
      <trkpt lat="42.57484" lon="2.24991">
        <ele>810.53</ele>
        <time>2014-05-09T07:26:10Z</time>
      </trkpt>
      <trkpt lat="42.57487" lon="2.24983">
        <ele>811.01</ele>
        <time>2014-05-09T07:26:15Z</time>
      </trkpt>
      <trkpt lat="42.57493" lon="2.24981">
        <ele>811.49</ele>
        <time>2014-05-09T07:26:21Z</time>
      </trkpt>
      <trkpt lat="42.57499" lon="2.24971">
        <ele>811.49</ele>
        <time>2014-05-09T07:26:30Z</time>
      </trkpt>
      <trkpt lat="42.57501" lon="2.24967">
        <ele>811.49</ele>
        <time>2014-05-09T07:26:34Z</time>
      </trkpt>
      <trkpt lat="42.57504" lon="2.2496">
        <ele>811.97</ele>
        <time>2014-05-09T07:26:39Z</time>
      </trkpt>
      <trkpt lat="42.57509" lon="2.24951">
        <ele>812.45</ele>
        <time>2014-05-09T07:26:47Z</time>
      </trkpt>
      <trkpt lat="42.57511" lon="2.24946">
        <ele>812.45</ele>
        <time>2014-05-09T07:26:51Z</time>
      </trkpt>
      <trkpt lat="42.57518" lon="2.24938">
        <ele>813.41</ele>
        <time>2014-05-09T07:27:00Z</time>
      </trkpt>
      <trkpt lat="42.57523" lon="2.2493">
        <ele>813.41</ele>
        <time>2014-05-09T07:27:06Z</time>
      </trkpt>
      <trkpt lat="42.57527" lon="2.24924">
        <ele>813.41</ele>
        <time>2014-05-09T07:27:12Z</time>
      </trkpt>
      <trkpt lat="42.57531" lon="2.24916">
        <ele>813.89</ele>
        <time>2014-05-09T07:27:19Z</time>
      </trkpt>
      <trkpt lat="42.57534" lon="2.24908">
        <ele>815.34</ele>
        <time>2014-05-09T07:27:26Z</time>
      </trkpt>
      <trkpt lat="42.57538" lon="2.24904">
        <ele>816.3</ele>
        <time>2014-05-09T07:27:32Z</time>
      </trkpt>
      <trkpt lat="42.57541" lon="2.24901">
        <ele>817.26</ele>
        <time>2014-05-09T07:27:39Z</time>
      </trkpt>
      <trkpt lat="42.57545" lon="2.24897">
        <ele>818.22</ele>
        <time>2014-05-09T07:27:46Z</time>
      </trkpt>
      <trkpt lat="42.57548" lon="2.24894">
        <ele>818.22</ele>
        <time>2014-05-09T07:27:54Z</time>
      </trkpt>
      <trkpt lat="42.57553" lon="2.24888">
        <ele>819.66</ele>
        <time>2014-05-09T07:28:00Z</time>
      </trkpt>
      <trkpt lat="42.5756" lon="2.24882">
        <ele>820.14</ele>
        <time>2014-05-09T07:28:10Z</time>
      </trkpt>
      <trkpt lat="42.57564" lon="2.24877">
        <ele>821.1</ele>
        <time>2014-05-09T07:28:17Z</time>
      </trkpt>
      <trkpt lat="42.57568" lon="2.2487">
        <ele>821.58</ele>
        <time>2014-05-09T07:28:24Z</time>
      </trkpt>
      <trkpt lat="42.57572" lon="2.2486">
        <ele>821.58</ele>
        <time>2014-05-09T07:28:32Z</time>
      </trkpt>
      <trkpt lat="42.57574" lon="2.24855">
        <ele>821.58</ele>
        <time>2014-05-09T07:28:39Z</time>
      </trkpt>
      <trkpt lat="42.57575" lon="2.24851">
        <ele>822.06</ele>
        <time>2014-05-09T07:28:43Z</time>
      </trkpt>
      <trkpt lat="42.5758" lon="2.24847">
        <ele>822.06</ele>
        <time>2014-05-09T07:28:50Z</time>
      </trkpt>
      <trkpt lat="42.5758" lon="2.24847">
        <ele>822.06</ele>
        <time>2014-05-09T07:28:51Z</time>
      </trkpt>
      <trkpt lat="42.57583" lon="2.24844">
        <ele>822.06</ele>
        <time>2014-05-09T07:28:54Z</time>
      </trkpt>
      <trkpt lat="42.57584" lon="2.24842">
        <ele>822.06</ele>
        <time>2014-05-09T07:28:56Z</time>
      </trkpt>
      <trkpt lat="42.57588" lon="2.24835">
        <ele>822.06</ele>
        <time>2014-05-09T07:29:04Z</time>
      </trkpt>
      <trkpt lat="42.57588" lon="2.24835">
        <ele>821.58</ele>
        <time>2014-05-09T07:29:16Z</time>
      </trkpt>
      <trkpt lat="42.5759" lon="2.24833">
        <ele>822.06</ele>
        <time>2014-05-09T07:29:24Z</time>
      </trkpt>
      <trkpt lat="42.57592" lon="2.24832">
        <ele>821.58</ele>
        <time>2014-05-09T07:29:33Z</time>
      </trkpt>
      <trkpt lat="42.57596" lon="2.24833">
        <ele>822.55</ele>
        <time>2014-05-09T07:29:55Z</time>
      </trkpt>
      <trkpt lat="42.57594" lon="2.24833">
        <ele>822.06</ele>
        <time>2014-05-09T07:30:02Z</time>
      </trkpt>
      <trkpt lat="42.57594" lon="2.24834">
        <ele>821.58</ele>
        <time>2014-05-09T07:30:09Z</time>
      </trkpt>
      <trkpt lat="42.57592" lon="2.24836">
        <ele>821.58</ele>
        <time>2014-05-09T07:30:16Z</time>
      </trkpt>
      <trkpt lat="42.57593" lon="2.24832">
        <ele>822.06</ele>
        <time>2014-05-09T07:30:23Z</time>
      </trkpt>
      <trkpt lat="42.57594" lon="2.24833">
        <ele>822.06</ele>
        <time>2014-05-09T07:30:30Z</time>
      </trkpt>
      <trkpt lat="42.576" lon="2.24832">
        <ele>823.03</ele>
        <time>2014-05-09T07:30:37Z</time>
      </trkpt>
      <trkpt lat="42.57601" lon="2.24831">
        <ele>823.51</ele>
        <time>2014-05-09T07:30:38Z</time>
      </trkpt>
      <trkpt lat="42.57603" lon="2.24829">
        <ele>823.03</ele>
        <time>2014-05-09T07:30:40Z</time>
      </trkpt>
      <trkpt lat="42.57606" lon="2.24828">
        <ele>823.03</ele>
        <time>2014-05-09T07:30:44Z</time>
      </trkpt>
      <trkpt lat="42.57612" lon="2.24821">
        <ele>824.47</ele>
        <time>2014-05-09T07:30:52Z</time>
      </trkpt>
      <trkpt lat="42.57613" lon="2.2482">
        <ele>823.99</ele>
        <time>2014-05-09T07:30:53Z</time>
      </trkpt>
      <trkpt lat="42.57619" lon="2.24814">
        <ele>823.99</ele>
        <time>2014-05-09T07:30:59Z</time>
      </trkpt>
      <trkpt lat="42.5762" lon="2.24813">
        <ele>823.99</ele>
        <time>2014-05-09T07:31:00Z</time>
      </trkpt>
      <trkpt lat="42.57627" lon="2.24804">
        <ele>824.47</ele>
        <time>2014-05-09T07:31:08Z</time>
      </trkpt>
      <trkpt lat="42.57634" lon="2.24794">
        <ele>824.95</ele>
        <time>2014-05-09T07:31:15Z</time>
      </trkpt>
      <trkpt lat="42.5764" lon="2.24786">
        <ele>824.95</ele>
        <time>2014-05-09T07:31:21Z</time>
      </trkpt>
      <trkpt lat="42.57641" lon="2.2478">
        <ele>825.43</ele>
        <time>2014-05-09T07:31:28Z</time>
      </trkpt>
      <trkpt lat="42.57645" lon="2.24774">
        <ele>825.91</ele>
        <time>2014-05-09T07:31:36Z</time>
      </trkpt>
      <trkpt lat="42.57653" lon="2.24767">
        <ele>826.87</ele>
        <time>2014-05-09T07:31:44Z</time>
      </trkpt>
      <trkpt lat="42.5766" lon="2.24765">
        <ele>827.35</ele>
        <time>2014-05-09T07:31:52Z</time>
      </trkpt>
      <trkpt lat="42.57669" lon="2.24763">
        <ele>827.35</ele>
        <time>2014-05-09T07:31:59Z</time>
      </trkpt>
      <trkpt lat="42.57675" lon="2.24765">
        <ele>829.27</ele>
        <time>2014-05-09T07:32:06Z</time>
      </trkpt>
      <trkpt lat="42.57682" lon="2.24768">
        <ele>829.76</ele>
        <time>2014-05-09T07:32:13Z</time>
      </trkpt>
      <trkpt lat="42.57689" lon="2.2477">
        <ele>831.2</ele>
        <time>2014-05-09T07:32:21Z</time>
      </trkpt>
      <trkpt lat="42.57694" lon="2.24774">
        <ele>831.68</ele>
        <time>2014-05-09T07:32:27Z</time>
      </trkpt>
      <trkpt lat="42.57703" lon="2.24779">
        <ele>832.16</ele>
        <time>2014-05-09T07:32:36Z</time>
      </trkpt>
      <trkpt lat="42.57708" lon="2.24777">
        <ele>832.16</ele>
        <time>2014-05-09T07:32:42Z</time>
      </trkpt>
      <trkpt lat="42.57711" lon="2.24778">
        <ele>832.16</ele>
        <time>2014-05-09T07:32:44Z</time>
      </trkpt>
      <trkpt lat="42.5772" lon="2.24784">
        <ele>833.6</ele>
        <time>2014-05-09T07:32:53Z</time>
      </trkpt>
      <trkpt lat="42.57725" lon="2.24789">
        <ele>834.08</ele>
        <time>2014-05-09T07:33:01Z</time>
      </trkpt>
      <trkpt lat="42.57733" lon="2.24795">
        <ele>835.52</ele>
        <time>2014-05-09T07:33:09Z</time>
      </trkpt>
      <trkpt lat="42.57739" lon="2.24798">
        <ele>836</ele>
        <time>2014-05-09T07:33:19Z</time>
      </trkpt>
      <trkpt lat="42.57744" lon="2.24799">
        <ele>837.45</ele>
        <time>2014-05-09T07:33:26Z</time>
      </trkpt>
      <trkpt lat="42.5775" lon="2.24795">
        <ele>838.41</ele>
        <time>2014-05-09T07:33:36Z</time>
      </trkpt>
      <trkpt lat="42.57753" lon="2.24795">
        <ele>839.37</ele>
        <time>2014-05-09T07:33:43Z</time>
      </trkpt>
      <trkpt lat="42.57761" lon="2.24793">
        <ele>840.81</ele>
        <time>2014-05-09T07:33:52Z</time>
      </trkpt>
      <trkpt lat="42.57765" lon="2.2479">
        <ele>841.29</ele>
        <time>2014-05-09T07:33:59Z</time>
      </trkpt>
      <trkpt lat="42.5777" lon="2.2479">
        <ele>841.77</ele>
        <time>2014-05-09T07:34:06Z</time>
      </trkpt>
      <trkpt lat="42.57774" lon="2.24789">
        <ele>842.73</ele>
        <time>2014-05-09T07:34:14Z</time>
      </trkpt>
      <trkpt lat="42.57779" lon="2.24788">
        <ele>843.21</ele>
        <time>2014-05-09T07:34:20Z</time>
      </trkpt>
      <trkpt lat="42.57785" lon="2.24785">
        <ele>844.18</ele>
        <time>2014-05-09T07:34:28Z</time>
      </trkpt>
      <trkpt lat="42.57789" lon="2.24781">
        <ele>845.14</ele>
        <time>2014-05-09T07:34:35Z</time>
      </trkpt>
      <trkpt lat="42.57794" lon="2.24779">
        <ele>845.14</ele>
        <time>2014-05-09T07:34:39Z</time>
      </trkpt>
      <trkpt lat="42.57798" lon="2.24772">
        <ele>846.1</ele>
        <time>2014-05-09T07:34:47Z</time>
      </trkpt>
      <trkpt lat="42.57801" lon="2.24769">
        <ele>846.58</ele>
        <time>2014-05-09T07:34:53Z</time>
      </trkpt>
      <trkpt lat="42.57805" lon="2.24766">
        <ele>848.02</ele>
        <time>2014-05-09T07:35:01Z</time>
      </trkpt>
      <trkpt lat="42.57811" lon="2.24763">
        <ele>848.5</ele>
        <time>2014-05-09T07:35:09Z</time>
      </trkpt>
      <trkpt lat="42.57811" lon="2.24763">
        <ele>848.98</ele>
        <time>2014-05-09T07:35:20Z</time>
      </trkpt>
      <trkpt lat="42.57811" lon="2.24763">
        <ele>849.94</ele>
        <time>2014-05-09T07:35:29Z</time>
      </trkpt>
      <trkpt lat="42.57813" lon="2.24762">
        <ele>851.38</ele>
        <time>2014-05-09T07:35:37Z</time>
      </trkpt>
      <trkpt lat="42.57823" lon="2.24756">
        <ele>852.35</ele>
        <time>2014-05-09T07:35:46Z</time>
      </trkpt>
      <trkpt lat="42.57826" lon="2.24755">
        <ele>853.31</ele>
        <time>2014-05-09T07:35:53Z</time>
      </trkpt>
      <trkpt lat="42.57826" lon="2.24755">
        <ele>852.83</ele>
        <time>2014-05-09T07:36:07Z</time>
      </trkpt>
      <trkpt lat="42.57826" lon="2.24755">
        <ele>853.79</ele>
        <time>2014-05-09T07:36:20Z</time>
      </trkpt>
      <trkpt lat="42.57826" lon="2.24755">
        <ele>853.31</ele>
        <time>2014-05-09T07:36:28Z</time>
      </trkpt>
      <trkpt lat="42.57826" lon="2.24754">
        <ele>853.79</ele>
        <time>2014-05-09T07:36:38Z</time>
      </trkpt>
      <trkpt lat="42.57831" lon="2.24755">
        <ele>854.27</ele>
        <time>2014-05-09T07:36:45Z</time>
      </trkpt>
      <trkpt lat="42.57831" lon="2.24755">
        <ele>854.75</ele>
        <time>2014-05-09T07:36:52Z</time>
      </trkpt>
      <trkpt lat="42.5784" lon="2.24754">
        <ele>855.23</ele>
        <time>2014-05-09T07:36:59Z</time>
      </trkpt>
      <trkpt lat="42.57849" lon="2.24751">
        <ele>856.19</ele>
        <time>2014-05-09T07:37:07Z</time>
      </trkpt>
      <trkpt lat="42.57854" lon="2.24748">
        <ele>856.67</ele>
        <time>2014-05-09T07:37:13Z</time>
      </trkpt>
      <trkpt lat="42.5786" lon="2.24748">
        <ele>857.15</ele>
        <time>2014-05-09T07:37:21Z</time>
      </trkpt>
      <trkpt lat="42.57865" lon="2.24748">
        <ele>857.63</ele>
        <time>2014-05-09T07:37:27Z</time>
      </trkpt>
      <trkpt lat="42.57872" lon="2.24745">
        <ele>858.59</ele>
        <time>2014-05-09T07:37:35Z</time>
      </trkpt>
      <trkpt lat="42.57873" lon="2.24745">
        <ele>858.59</ele>
        <time>2014-05-09T07:37:37Z</time>
      </trkpt>
      <trkpt lat="42.5788" lon="2.24743">
        <ele>859.56</ele>
        <time>2014-05-09T07:37:45Z</time>
      </trkpt>
      <trkpt lat="42.57881" lon="2.24743">
        <ele>861</ele>
        <time>2014-05-09T07:37:53Z</time>
      </trkpt>
      <trkpt lat="42.57884" lon="2.24744">
        <ele>861.96</ele>
        <time>2014-05-09T07:37:59Z</time>
      </trkpt>
      <trkpt lat="42.57891" lon="2.24749">
        <ele>863.4</ele>
        <time>2014-05-09T07:38:08Z</time>
      </trkpt>
      <trkpt lat="42.57893" lon="2.2475">
        <ele>863.88</ele>
        <time>2014-05-09T07:38:19Z</time>
      </trkpt>
      <trkpt lat="42.57893" lon="2.2475">
        <ele>865.8</ele>
        <time>2014-05-09T07:38:28Z</time>
      </trkpt>
      <trkpt lat="42.57896" lon="2.24752">
        <ele>866.29</ele>
        <time>2014-05-09T07:38:34Z</time>
      </trkpt>
      <trkpt lat="42.57906" lon="2.24759">
        <ele>866.77</ele>
        <time>2014-05-09T07:38:40Z</time>
      </trkpt>
      <trkpt lat="42.57915" lon="2.24759">
        <ele>868.69</ele>
        <time>2014-05-09T07:38:48Z</time>
      </trkpt>
      <trkpt lat="42.57919" lon="2.24762">
        <ele>869.17</ele>
        <time>2014-05-09T07:38:54Z</time>
      </trkpt>
      <trkpt lat="42.57925" lon="2.24764">
        <ele>870.13</ele>
        <time>2014-05-09T07:39:02Z</time>
      </trkpt>
      <trkpt lat="42.57928" lon="2.24766">
        <ele>871.09</ele>
        <time>2014-05-09T07:39:07Z</time>
      </trkpt>
      <trkpt lat="42.57931" lon="2.24766">
        <ele>872.05</ele>
        <time>2014-05-09T07:39:14Z</time>
      </trkpt>
      <trkpt lat="42.57935" lon="2.24764">
        <ele>873.01</ele>
        <time>2014-05-09T07:39:20Z</time>
      </trkpt>
      <trkpt lat="42.57937" lon="2.24765">
        <ele>874.46</ele>
        <time>2014-05-09T07:39:29Z</time>
      </trkpt>
      <trkpt lat="42.57937" lon="2.24765">
        <ele>875.9</ele>
        <time>2014-05-09T07:39:42Z</time>
      </trkpt>
      <trkpt lat="42.57937" lon="2.24765">
        <ele>876.86</ele>
        <time>2014-05-09T07:39:50Z</time>
      </trkpt>
      <trkpt lat="42.57937" lon="2.24765">
        <ele>877.82</ele>
        <time>2014-05-09T07:39:58Z</time>
      </trkpt>
      <trkpt lat="42.57942" lon="2.24759">
        <ele>878.78</ele>
        <time>2014-05-09T07:40:06Z</time>
      </trkpt>
      <trkpt lat="42.57952" lon="2.24754">
        <ele>879.74</ele>
        <time>2014-05-09T07:40:15Z</time>
      </trkpt>
      <trkpt lat="42.57956" lon="2.24748">
        <ele>881.19</ele>
        <time>2014-05-09T07:40:21Z</time>
      </trkpt>
      <trkpt lat="42.57956" lon="2.24748">
        <ele>881.19</ele>
        <time>2014-05-09T07:40:29Z</time>
      </trkpt>
      <trkpt lat="42.57956" lon="2.24748">
        <ele>881.67</ele>
        <time>2014-05-09T07:40:42Z</time>
      </trkpt>
      <trkpt lat="42.57956" lon="2.24748">
        <ele>881.67</ele>
        <time>2014-05-09T07:40:50Z</time>
      </trkpt>
      <trkpt lat="42.57956" lon="2.24748">
        <ele>883.11</ele>
        <time>2014-05-09T07:40:57Z</time>
      </trkpt>
      <trkpt lat="42.57959" lon="2.24747">
        <ele>884.55</ele>
        <time>2014-05-09T07:41:05Z</time>
      </trkpt>
      <trkpt lat="42.57964" lon="2.24743">
        <ele>885.51</ele>
        <time>2014-05-09T07:41:11Z</time>
      </trkpt>
      <trkpt lat="42.57967" lon="2.24738">
        <ele>885.51</ele>
        <time>2014-05-09T07:41:17Z</time>
      </trkpt>
      <trkpt lat="42.57967" lon="2.24738">
        <ele>885.99</ele>
        <time>2014-05-09T07:41:29Z</time>
      </trkpt>
      <trkpt lat="42.57971" lon="2.24735">
        <ele>886.47</ele>
        <time>2014-05-09T07:41:42Z</time>
      </trkpt>
      <trkpt lat="42.57976" lon="2.24732">
        <ele>886.47</ele>
        <time>2014-05-09T07:41:55Z</time>
      </trkpt>
      <trkpt lat="42.57977" lon="2.24731">
        <ele>885.99</ele>
        <time>2014-05-09T07:42:03Z</time>
      </trkpt>
      <trkpt lat="42.57978" lon="2.24732">
        <ele>885.99</ele>
        <time>2014-05-09T07:42:11Z</time>
      </trkpt>
      <trkpt lat="42.5798" lon="2.24732">
        <ele>885.99</ele>
        <time>2014-05-09T07:42:55Z</time>
      </trkpt>
      <trkpt lat="42.5798" lon="2.24732">
        <ele>885.99</ele>
        <time>2014-05-09T07:43:07Z</time>
      </trkpt>
      <trkpt lat="42.5798" lon="2.24732">
        <ele>885.99</ele>
        <time>2014-05-09T07:43:19Z</time>
      </trkpt>
      <trkpt lat="42.5798" lon="2.24732">
        <ele>885.51</ele>
        <time>2014-05-09T07:43:32Z</time>
      </trkpt>
      <trkpt lat="42.5798" lon="2.24732">
        <ele>885.51</ele>
        <time>2014-05-09T07:43:43Z</time>
      </trkpt>
      <trkpt lat="42.57979" lon="2.24731">
        <ele>885.51</ele>
        <time>2014-05-09T07:44:13Z</time>
      </trkpt>
      <trkpt lat="42.5798" lon="2.24731">
        <ele>886.47</ele>
        <time>2014-05-09T07:45:51Z</time>
      </trkpt>
      <trkpt lat="42.5798" lon="2.24731">
        <ele>883.59</ele>
        <time>2014-05-09T07:45:52Z</time>
      </trkpt>
      <trkpt lat="42.5798" lon="2.24731">
        <ele>885.51</ele>
        <time>2014-05-09T07:45:55Z</time>
      </trkpt>
      <trkpt lat="42.5798" lon="2.24731">
        <ele>885.51</ele>
        <time>2014-05-09T07:46:50Z</time>
      </trkpt>
      <trkpt lat="42.5798" lon="2.2473">
        <ele>885.03</ele>
        <time>2014-05-09T07:47:20Z</time>
      </trkpt>
      <trkpt lat="42.5798" lon="2.24729">
        <ele>885.03</ele>
        <time>2014-05-09T07:48:11Z</time>
      </trkpt>
      <trkpt lat="42.5798" lon="2.24728">
        <ele>885.03</ele>
        <time>2014-05-09T07:48:24Z</time>
      </trkpt>
      <trkpt lat="42.57983" lon="2.24725">
        <ele>885.99</ele>
        <time>2014-05-09T07:48:50Z</time>
      </trkpt>
      <trkpt lat="42.57987" lon="2.24722">
        <ele>887.43</ele>
        <time>2014-05-09T07:48:57Z</time>
      </trkpt>
      <trkpt lat="42.57989" lon="2.24716">
        <ele>887.91</ele>
        <time>2014-05-09T07:49:04Z</time>
      </trkpt>
      <trkpt lat="42.57995" lon="2.24713">
        <ele>889.36</ele>
        <time>2014-05-09T07:49:13Z</time>
      </trkpt>
      <trkpt lat="42.57999" lon="2.24711">
        <ele>890.32</ele>
        <time>2014-05-09T07:49:20Z</time>
      </trkpt>
      <trkpt lat="42.58003" lon="2.24708">
        <ele>891.76</ele>
        <time>2014-05-09T07:49:28Z</time>
      </trkpt>
      <trkpt lat="42.58006" lon="2.24706">
        <ele>893.2</ele>
        <time>2014-05-09T07:49:35Z</time>
      </trkpt>
      <trkpt lat="42.5801" lon="2.24703">
        <ele>893.68</ele>
        <time>2014-05-09T07:49:42Z</time>
      </trkpt>
      <trkpt lat="42.58016" lon="2.24699">
        <ele>894.64</ele>
        <time>2014-05-09T07:49:49Z</time>
      </trkpt>
      <trkpt lat="42.5802" lon="2.24699">
        <ele>896.09</ele>
        <time>2014-05-09T07:49:55Z</time>
      </trkpt>
      <trkpt lat="42.58024" lon="2.24695">
        <ele>896.57</ele>
        <time>2014-05-09T07:50:03Z</time>
      </trkpt>
      <trkpt lat="42.58028" lon="2.2469">
        <ele>898.01</ele>
        <time>2014-05-09T07:50:10Z</time>
      </trkpt>
      <trkpt lat="42.58032" lon="2.24685">
        <ele>898.97</ele>
        <time>2014-05-09T07:50:19Z</time>
      </trkpt>
      <trkpt lat="42.58034" lon="2.24687">
        <ele>899.93</ele>
        <time>2014-05-09T07:50:29Z</time>
      </trkpt>
      <trkpt lat="42.58034" lon="2.24687">
        <ele>899.93</ele>
        <time>2014-05-09T07:50:56Z</time>
      </trkpt>
      <trkpt lat="42.58033" lon="2.24686">
        <ele>900.41</ele>
        <time>2014-05-09T07:51:56Z</time>
      </trkpt>
      <trkpt lat="42.58033" lon="2.24686">
        <ele>900.41</ele>
        <time>2014-05-09T07:52:25Z</time>
      </trkpt>
      <trkpt lat="42.58031" lon="2.2469">
        <ele>900.89</ele>
        <time>2014-05-09T07:54:10Z</time>
      </trkpt>
      <trkpt lat="42.58031" lon="2.24698">
        <ele>901.85</ele>
        <time>2014-05-09T07:54:17Z</time>
      </trkpt>
      <trkpt lat="42.5803" lon="2.24706">
        <ele>903.78</ele>
        <time>2014-05-09T07:54:24Z</time>
      </trkpt>
      <trkpt lat="42.58033" lon="2.24703">
        <ele>905.22</ele>
        <time>2014-05-09T07:54:31Z</time>
      </trkpt>
      <trkpt lat="42.58038" lon="2.24701">
        <ele>905.22</ele>
        <time>2014-05-09T07:54:40Z</time>
      </trkpt>
      <trkpt lat="42.5804" lon="2.24703">
        <ele>905.7</ele>
        <time>2014-05-09T07:54:45Z</time>
      </trkpt>
      <trkpt lat="42.58046" lon="2.24708">
        <ele>906.18</ele>
        <time>2014-05-09T07:54:52Z</time>
      </trkpt>
      <trkpt lat="42.5805" lon="2.24711">
        <ele>906.18</ele>
        <time>2014-05-09T07:54:58Z</time>
      </trkpt>
      <trkpt lat="42.58055" lon="2.24712">
        <ele>906.18</ele>
        <time>2014-05-09T07:55:04Z</time>
      </trkpt>
      <trkpt lat="42.58056" lon="2.24713">
        <ele>906.66</ele>
        <time>2014-05-09T07:55:10Z</time>
      </trkpt>
      <trkpt lat="42.58061" lon="2.24715">
        <ele>906.18</ele>
        <time>2014-05-09T07:55:16Z</time>
      </trkpt>
      <trkpt lat="42.58067" lon="2.24718">
        <ele>906.18</ele>
        <time>2014-05-09T07:55:21Z</time>
      </trkpt>
      <trkpt lat="42.58075" lon="2.24721">
        <ele>905.7</ele>
        <time>2014-05-09T07:55:28Z</time>
      </trkpt>
      <trkpt lat="42.58082" lon="2.24724">
        <ele>906.66</ele>
        <time>2014-05-09T07:55:35Z</time>
      </trkpt>
      <trkpt lat="42.58087" lon="2.24725">
        <ele>906.66</ele>
        <time>2014-05-09T07:55:41Z</time>
      </trkpt>
      <trkpt lat="42.58091" lon="2.24723">
        <ele>908.1</ele>
        <time>2014-05-09T07:55:48Z</time>
      </trkpt>
      <trkpt lat="42.58096" lon="2.24725">
        <ele>907.62</ele>
        <time>2014-05-09T07:55:55Z</time>
      </trkpt>
      <trkpt lat="42.58102" lon="2.24732">
        <ele>908.1</ele>
        <time>2014-05-09T07:56:02Z</time>
      </trkpt>
      <trkpt lat="42.58106" lon="2.24731">
        <ele>908.1</ele>
        <time>2014-05-09T07:56:08Z</time>
      </trkpt>
      <trkpt lat="42.58111" lon="2.2473">
        <ele>908.58</ele>
        <time>2014-05-09T07:56:14Z</time>
      </trkpt>
      <trkpt lat="42.58117" lon="2.24731">
        <ele>908.58</ele>
        <time>2014-05-09T07:56:20Z</time>
      </trkpt>
      <trkpt lat="42.58122" lon="2.24725">
        <ele>910.03</ele>
        <time>2014-05-09T07:56:27Z</time>
      </trkpt>
      <trkpt lat="42.58127" lon="2.24724">
        <ele>910.03</ele>
        <time>2014-05-09T07:56:33Z</time>
      </trkpt>
      <trkpt lat="42.58132" lon="2.24725">
        <ele>910.03</ele>
        <time>2014-05-09T07:56:38Z</time>
      </trkpt>
      <trkpt lat="42.58139" lon="2.2472">
        <ele>910.51</ele>
        <time>2014-05-09T07:56:46Z</time>
      </trkpt>
      <trkpt lat="42.58145" lon="2.24719">
        <ele>910.51</ele>
        <time>2014-05-09T07:56:52Z</time>
      </trkpt>
      <trkpt lat="42.58145" lon="2.2472">
        <ele>910.99</ele>
        <time>2014-05-09T07:57:04Z</time>
      </trkpt>
      <trkpt lat="42.58148" lon="2.24722">
        <ele>911.47</ele>
        <time>2014-05-09T07:57:16Z</time>
      </trkpt>
      <trkpt lat="42.58153" lon="2.24718">
        <ele>911.47</ele>
        <time>2014-05-09T07:57:22Z</time>
      </trkpt>
      <trkpt lat="42.58158" lon="2.24718">
        <ele>912.43</ele>
        <time>2014-05-09T07:57:27Z</time>
      </trkpt>
      <trkpt lat="42.5816" lon="2.24716">
        <ele>912.43</ele>
        <time>2014-05-09T07:57:29Z</time>
      </trkpt>
      <trkpt lat="42.58163" lon="2.24707">
        <ele>912.91</ele>
        <time>2014-05-09T07:57:37Z</time>
      </trkpt>
      <trkpt lat="42.58168" lon="2.24702">
        <ele>913.87</ele>
        <time>2014-05-09T07:57:44Z</time>
      </trkpt>
      <trkpt lat="42.58171" lon="2.24699">
        <ele>914.83</ele>
        <time>2014-05-09T07:57:52Z</time>
      </trkpt>
      <trkpt lat="42.58173" lon="2.24695">
        <ele>915.31</ele>
        <time>2014-05-09T07:57:59Z</time>
      </trkpt>
      <trkpt lat="42.58177" lon="2.2469">
        <ele>916.27</ele>
        <time>2014-05-09T07:58:04Z</time>
      </trkpt>
      <trkpt lat="42.5818" lon="2.24686">
        <ele>915.79</ele>
        <time>2014-05-09T07:58:09Z</time>
      </trkpt>
      <trkpt lat="42.58185" lon="2.2468">
        <ele>916.27</ele>
        <time>2014-05-09T07:58:16Z</time>
      </trkpt>
      <trkpt lat="42.58192" lon="2.24673">
        <ele>917.24</ele>
        <time>2014-05-09T07:58:23Z</time>
      </trkpt>
      <trkpt lat="42.58198" lon="2.2467">
        <ele>917.24</ele>
        <time>2014-05-09T07:58:28Z</time>
      </trkpt>
      <trkpt lat="42.58201" lon="2.24667">
        <ele>917.72</ele>
        <time>2014-05-09T07:58:33Z</time>
      </trkpt>
      <trkpt lat="42.58201" lon="2.24666">
        <ele>918.2</ele>
        <time>2014-05-09T07:58:42Z</time>
      </trkpt>
      <trkpt lat="42.58201" lon="2.24667">
        <ele>919.16</ele>
        <time>2014-05-09T08:02:12Z</time>
      </trkpt>
      <trkpt lat="42.58202" lon="2.24664">
        <ele>918.68</ele>
        <time>2014-05-09T08:02:27Z</time>
      </trkpt>
      <trkpt lat="42.58203" lon="2.24658">
        <ele>916.75</ele>
        <time>2014-05-09T08:02:34Z</time>
      </trkpt>
      <trkpt lat="42.58203" lon="2.24657">
        <ele>917.24</ele>
        <time>2014-05-09T08:02:35Z</time>
      </trkpt>
      <trkpt lat="42.58203" lon="2.24655">
        <ele>917.24</ele>
        <time>2014-05-09T08:02:37Z</time>
      </trkpt>
      <trkpt lat="42.58206" lon="2.24655">
        <ele>916.75</ele>
        <time>2014-05-09T08:02:45Z</time>
      </trkpt>
      <trkpt lat="42.5821" lon="2.24655">
        <ele>916.75</ele>
        <time>2014-05-09T08:02:53Z</time>
      </trkpt>
      <trkpt lat="42.58214" lon="2.24651">
        <ele>917.72</ele>
        <time>2014-05-09T08:03:03Z</time>
      </trkpt>
      <trkpt lat="42.58222" lon="2.24647">
        <ele>918.2</ele>
        <time>2014-05-09T08:03:11Z</time>
      </trkpt>
      <trkpt lat="42.58225" lon="2.24646">
        <ele>919.64</ele>
        <time>2014-05-09T08:03:17Z</time>
      </trkpt>
      <trkpt lat="42.58227" lon="2.24646">
        <ele>919.64</ele>
        <time>2014-05-09T08:03:18Z</time>
      </trkpt>
      <trkpt lat="42.58232" lon="2.24641">
        <ele>920.12</ele>
        <time>2014-05-09T08:03:25Z</time>
      </trkpt>
      <trkpt lat="42.58234" lon="2.24638">
        <ele>919.64</ele>
        <time>2014-05-09T08:03:33Z</time>
      </trkpt>
      <trkpt lat="42.58238" lon="2.24635">
        <ele>919.64</ele>
        <time>2014-05-09T08:03:40Z</time>
      </trkpt>
      <trkpt lat="42.58242" lon="2.24632">
        <ele>919.64</ele>
        <time>2014-05-09T08:03:45Z</time>
      </trkpt>
      <trkpt lat="42.58244" lon="2.24629">
        <ele>920.12</ele>
        <time>2014-05-09T08:03:50Z</time>
      </trkpt>
      <trkpt lat="42.58248" lon="2.24624">
        <ele>920.12</ele>
        <time>2014-05-09T08:03:56Z</time>
      </trkpt>
      <trkpt lat="42.58252" lon="2.24618">
        <ele>919.64</ele>
        <time>2014-05-09T08:04:03Z</time>
      </trkpt>
      <trkpt lat="42.58254" lon="2.24614">
        <ele>920.12</ele>
        <time>2014-05-09T08:04:08Z</time>
      </trkpt>
      <trkpt lat="42.58258" lon="2.2461">
        <ele>920.12</ele>
        <time>2014-05-09T08:04:16Z</time>
      </trkpt>
      <trkpt lat="42.5826" lon="2.24609">
        <ele>920.6</ele>
        <time>2014-05-09T08:04:28Z</time>
      </trkpt>
      <trkpt lat="42.5826" lon="2.24608">
        <ele>920.12</ele>
        <time>2014-05-09T08:04:50Z</time>
      </trkpt>
      <trkpt lat="42.58265" lon="2.24602">
        <ele>921.08</ele>
        <time>2014-05-09T08:05:09Z</time>
      </trkpt>
      <trkpt lat="42.58267" lon="2.24599">
        <ele>920.6</ele>
        <time>2014-05-09T08:05:12Z</time>
      </trkpt>
      <trkpt lat="42.58271" lon="2.24589">
        <ele>921.08</ele>
        <time>2014-05-09T08:05:19Z</time>
      </trkpt>
      <trkpt lat="42.58273" lon="2.2458">
        <ele>922.04</ele>
        <time>2014-05-09T08:05:26Z</time>
      </trkpt>
      <trkpt lat="42.58275" lon="2.24573">
        <ele>922.04</ele>
        <time>2014-05-09T08:05:32Z</time>
      </trkpt>
      <trkpt lat="42.58276" lon="2.24566">
        <ele>923</ele>
        <time>2014-05-09T08:05:39Z</time>
      </trkpt>
      <trkpt lat="42.58277" lon="2.24559">
        <ele>923.48</ele>
        <time>2014-05-09T08:05:46Z</time>
      </trkpt>
      <trkpt lat="42.58281" lon="2.24554">
        <ele>923.96</ele>
        <time>2014-05-09T08:05:51Z</time>
      </trkpt>
      <trkpt lat="42.58285" lon="2.24549">
        <ele>924.45</ele>
        <time>2014-05-09T08:05:58Z</time>
      </trkpt>
      <trkpt lat="42.58289" lon="2.24543">
        <ele>926.37</ele>
        <time>2014-05-09T08:06:05Z</time>
      </trkpt>
      <trkpt lat="42.58292" lon="2.24537">
        <ele>927.33</ele>
        <time>2014-05-09T08:06:11Z</time>
      </trkpt>
      <trkpt lat="42.58292" lon="2.24537">
        <ele>927.81</ele>
        <time>2014-05-09T08:06:12Z</time>
      </trkpt>
      <trkpt lat="42.58294" lon="2.24534">
        <ele>928.29</ele>
        <time>2014-05-09T08:06:15Z</time>
      </trkpt>
      <trkpt lat="42.58295" lon="2.24524">
        <ele>929.25</ele>
        <time>2014-05-09T08:06:23Z</time>
      </trkpt>
      <trkpt lat="42.58296" lon="2.24519">
        <ele>929.25</ele>
        <time>2014-05-09T08:06:28Z</time>
      </trkpt>
      <trkpt lat="42.58297" lon="2.24513">
        <ele>930.21</ele>
        <time>2014-05-09T08:06:32Z</time>
      </trkpt>
      <trkpt lat="42.58297" lon="2.24504">
        <ele>931.17</ele>
        <time>2014-05-09T08:06:39Z</time>
      </trkpt>
      <trkpt lat="42.58298" lon="2.245">
        <ele>931.17</ele>
        <time>2014-05-09T08:06:42Z</time>
      </trkpt>
      <trkpt lat="42.58298" lon="2.24495">
        <ele>931.17</ele>
        <time>2014-05-09T08:06:46Z</time>
      </trkpt>
      <trkpt lat="42.58299" lon="2.24491">
        <ele>931.65</ele>
        <time>2014-05-09T08:06:50Z</time>
      </trkpt>
      <trkpt lat="42.58299" lon="2.24484">
        <ele>931.65</ele>
        <time>2014-05-09T08:06:54Z</time>
      </trkpt>
      <trkpt lat="42.58299" lon="2.24474">
        <ele>932.14</ele>
        <time>2014-05-09T08:07:02Z</time>
      </trkpt>
      <trkpt lat="42.583" lon="2.2447">
        <ele>933.1</ele>
        <time>2014-05-09T08:07:05Z</time>
      </trkpt>
      <trkpt lat="42.58303" lon="2.24458">
        <ele>933.1</ele>
        <time>2014-05-09T08:07:13Z</time>
      </trkpt>
      <trkpt lat="42.58306" lon="2.2445">
        <ele>933.58</ele>
        <time>2014-05-09T08:07:20Z</time>
      </trkpt>
      <trkpt lat="42.5831" lon="2.24444">
        <ele>933.58</ele>
        <time>2014-05-09T08:07:26Z</time>
      </trkpt>
      <trkpt lat="42.58315" lon="2.24435">
        <ele>934.54</ele>
        <time>2014-05-09T08:07:34Z</time>
      </trkpt>
      <trkpt lat="42.58316" lon="2.24434">
        <ele>934.54</ele>
        <time>2014-05-09T08:07:35Z</time>
      </trkpt>
      <trkpt lat="42.58318" lon="2.2443">
        <ele>935.02</ele>
        <time>2014-05-09T08:07:39Z</time>
      </trkpt>
      <trkpt lat="42.58319" lon="2.24424">
        <ele>935.5</ele>
        <time>2014-05-09T08:07:44Z</time>
      </trkpt>
      <trkpt lat="42.58323" lon="2.24418">
        <ele>935.98</ele>
        <time>2014-05-09T08:07:51Z</time>
      </trkpt>
      <trkpt lat="42.58327" lon="2.24413">
        <ele>937.42</ele>
        <time>2014-05-09T08:07:59Z</time>
      </trkpt>
      <trkpt lat="42.5833" lon="2.24407">
        <ele>938.38</ele>
        <time>2014-05-09T08:08:05Z</time>
      </trkpt>
      <trkpt lat="42.58332" lon="2.24401">
        <ele>939.35</ele>
        <time>2014-05-09T08:08:11Z</time>
      </trkpt>
      <trkpt lat="42.58334" lon="2.24396">
        <ele>940.79</ele>
        <time>2014-05-09T08:08:18Z</time>
      </trkpt>
      <trkpt lat="42.58337" lon="2.24392">
        <ele>940.79</ele>
        <time>2014-05-09T08:08:25Z</time>
      </trkpt>
      <trkpt lat="42.58337" lon="2.24388">
        <ele>941.27</ele>
        <time>2014-05-09T08:08:32Z</time>
      </trkpt>
      <trkpt lat="42.58338" lon="2.24386">
        <ele>941.75</ele>
        <time>2014-05-09T08:08:38Z</time>
      </trkpt>
      <trkpt lat="42.58341" lon="2.24385">
        <ele>941.27</ele>
        <time>2014-05-09T08:08:44Z</time>
      </trkpt>
      <trkpt lat="42.58341" lon="2.24385">
        <ele>942.23</ele>
        <time>2014-05-09T08:09:12Z</time>
      </trkpt>
      <trkpt lat="42.58341" lon="2.24385">
        <ele>942.23</ele>
        <time>2014-05-09T08:09:17Z</time>
      </trkpt>
      <trkpt lat="42.58344" lon="2.24379">
        <ele>943.19</ele>
        <time>2014-05-09T08:09:23Z</time>
      </trkpt>
      <trkpt lat="42.58346" lon="2.24372">
        <ele>944.15</ele>
        <time>2014-05-09T08:09:29Z</time>
      </trkpt>
      <trkpt lat="42.58349" lon="2.24366">
        <ele>944.63</ele>
        <time>2014-05-09T08:09:36Z</time>
      </trkpt>
      <trkpt lat="42.58352" lon="2.24361">
        <ele>946.07</ele>
        <time>2014-05-09T08:09:42Z</time>
      </trkpt>
      <trkpt lat="42.58351" lon="2.24354">
        <ele>946.56</ele>
        <time>2014-05-09T08:09:48Z</time>
      </trkpt>
      <trkpt lat="42.58352" lon="2.24349">
        <ele>947.04</ele>
        <time>2014-05-09T08:09:54Z</time>
      </trkpt>
      <trkpt lat="42.58354" lon="2.24344">
        <ele>948</ele>
        <time>2014-05-09T08:09:59Z</time>
      </trkpt>
      <trkpt lat="42.58355" lon="2.24335">
        <ele>948.96</ele>
        <time>2014-05-09T08:10:06Z</time>
      </trkpt>
      <trkpt lat="42.58358" lon="2.24328">
        <ele>949.92</ele>
        <time>2014-05-09T08:10:13Z</time>
      </trkpt>
      <trkpt lat="42.58359" lon="2.24321">
        <ele>950.88</ele>
        <time>2014-05-09T08:10:19Z</time>
      </trkpt>
      <trkpt lat="42.5836" lon="2.24313">
        <ele>951.84</ele>
        <time>2014-05-09T08:10:26Z</time>
      </trkpt>
      <trkpt lat="42.5836" lon="2.24307">
        <ele>952.8</ele>
        <time>2014-05-09T08:10:33Z</time>
      </trkpt>
      <trkpt lat="42.58359" lon="2.24299">
        <ele>953.28</ele>
        <time>2014-05-09T08:10:40Z</time>
      </trkpt>
      <trkpt lat="42.58357" lon="2.24294">
        <ele>953.77</ele>
        <time>2014-05-09T08:10:45Z</time>
      </trkpt>
      <trkpt lat="42.58356" lon="2.24291">
        <ele>953.77</ele>
        <time>2014-05-09T08:10:47Z</time>
      </trkpt>
      <trkpt lat="42.58354" lon="2.24287">
        <ele>954.25</ele>
        <time>2014-05-09T08:10:50Z</time>
      </trkpt>
      <trkpt lat="42.58351" lon="2.24278">
        <ele>954.73</ele>
        <time>2014-05-09T08:10:56Z</time>
      </trkpt>
      <trkpt lat="42.5835" lon="2.24274">
        <ele>954.73</ele>
        <time>2014-05-09T08:11:02Z</time>
      </trkpt>
      <trkpt lat="42.58352" lon="2.24268">
        <ele>955.21</ele>
        <time>2014-05-09T08:11:08Z</time>
      </trkpt>
      <trkpt lat="42.58352" lon="2.24262">
        <ele>955.69</ele>
        <time>2014-05-09T08:11:13Z</time>
      </trkpt>
      <trkpt lat="42.58354" lon="2.24256">
        <ele>955.69</ele>
        <time>2014-05-09T08:11:19Z</time>
      </trkpt>
      <trkpt lat="42.58355" lon="2.2425">
        <ele>956.17</ele>
        <time>2014-05-09T08:11:24Z</time>
      </trkpt>
      <trkpt lat="42.58356" lon="2.24245">
        <ele>956.65</ele>
        <time>2014-05-09T08:11:30Z</time>
      </trkpt>
      <trkpt lat="42.58357" lon="2.24237">
        <ele>957.61</ele>
        <time>2014-05-09T08:11:36Z</time>
      </trkpt>
      <trkpt lat="42.58358" lon="2.24229">
        <ele>957.61</ele>
        <time>2014-05-09T08:11:42Z</time>
      </trkpt>
      <trkpt lat="42.58359" lon="2.24223">
        <ele>958.09</ele>
        <time>2014-05-09T08:11:48Z</time>
      </trkpt>
      <trkpt lat="42.58362" lon="2.24217">
        <ele>959.05</ele>
        <time>2014-05-09T08:11:54Z</time>
      </trkpt>
      <trkpt lat="42.58363" lon="2.24215">
        <ele>958.57</ele>
        <time>2014-05-09T08:11:55Z</time>
      </trkpt>
      <trkpt lat="42.58361" lon="2.24208">
        <ele>959.05</ele>
        <time>2014-05-09T08:12:03Z</time>
      </trkpt>
      <trkpt lat="42.58363" lon="2.24197">
        <ele>959.05</ele>
        <time>2014-05-09T08:12:11Z</time>
      </trkpt>
      <trkpt lat="42.58363" lon="2.24193">
        <ele>959.05</ele>
        <time>2014-05-09T08:12:15Z</time>
      </trkpt>
      <trkpt lat="42.58365" lon="2.2419">
        <ele>959.05</ele>
        <time>2014-05-09T08:12:17Z</time>
      </trkpt>
      <trkpt lat="42.58368" lon="2.24181">
        <ele>959.05</ele>
        <time>2014-05-09T08:12:25Z</time>
      </trkpt>
      <trkpt lat="42.58369" lon="2.24178">
        <ele>959.05</ele>
        <time>2014-05-09T08:12:27Z</time>
      </trkpt>
      <trkpt lat="42.58374" lon="2.24172">
        <ele>959.05</ele>
        <time>2014-05-09T08:12:34Z</time>
      </trkpt>
      <trkpt lat="42.58381" lon="2.24164">
        <ele>958.09</ele>
        <time>2014-05-09T08:12:43Z</time>
      </trkpt>
      <trkpt lat="42.58386" lon="2.24157">
        <ele>957.61</ele>
        <time>2014-05-09T08:12:49Z</time>
      </trkpt>
      <trkpt lat="42.58389" lon="2.24149">
        <ele>957.61</ele>
        <time>2014-05-09T08:12:54Z</time>
      </trkpt>
      <trkpt lat="42.58392" lon="2.24141">
        <ele>957.61</ele>
        <time>2014-05-09T08:13:00Z</time>
      </trkpt>
      <trkpt lat="42.58393" lon="2.24143">
        <ele>957.61</ele>
        <time>2014-05-09T08:13:08Z</time>
      </trkpt>
      <trkpt lat="42.58393" lon="2.24143">
        <ele>957.61</ele>
        <time>2014-05-09T08:13:40Z</time>
      </trkpt>
      <trkpt lat="42.58393" lon="2.24143">
        <ele>958.09</ele>
        <time>2014-05-09T08:14:31Z</time>
      </trkpt>
      <trkpt lat="42.58393" lon="2.24148">
        <ele>957.13</ele>
        <time>2014-05-09T08:14:35Z</time>
      </trkpt>
      <trkpt lat="42.58395" lon="2.24153">
        <ele>957.61</ele>
        <time>2014-05-09T08:14:42Z</time>
      </trkpt>
      <trkpt lat="42.58395" lon="2.24152">
        <ele>957.61</ele>
        <time>2014-05-09T08:14:52Z</time>
      </trkpt>
      <trkpt lat="42.58395" lon="2.2415">
        <ele>958.09</ele>
        <time>2014-05-09T08:15:17Z</time>
      </trkpt>
      <trkpt lat="42.58394" lon="2.24149">
        <ele>957.61</ele>
        <time>2014-05-09T08:15:19Z</time>
      </trkpt>
      <trkpt lat="42.58395" lon="2.24145">
        <ele>957.61</ele>
        <time>2014-05-09T08:15:26Z</time>
      </trkpt>
      <trkpt lat="42.58395" lon="2.24142">
        <ele>958.09</ele>
        <time>2014-05-09T08:15:32Z</time>
      </trkpt>
      <trkpt lat="42.58393" lon="2.24137">
        <ele>958.57</ele>
        <time>2014-05-09T08:15:38Z</time>
      </trkpt>
      <trkpt lat="42.58391" lon="2.24135">
        <ele>959.53</ele>
        <time>2014-05-09T08:15:47Z</time>
      </trkpt>
      <trkpt lat="42.58391" lon="2.24126">
        <ele>960.98</ele>
        <time>2014-05-09T08:15:53Z</time>
      </trkpt>
      <trkpt lat="42.58392" lon="2.24122">
        <ele>962.42</ele>
        <time>2014-05-09T08:16:01Z</time>
      </trkpt>
      <trkpt lat="42.58394" lon="2.24119">
        <ele>962.42</ele>
        <time>2014-05-09T08:16:08Z</time>
      </trkpt>
      <trkpt lat="42.58397" lon="2.24117">
        <ele>963.86</ele>
        <time>2014-05-09T08:16:34Z</time>
      </trkpt>
      <trkpt lat="42.584" lon="2.24116">
        <ele>964.34</ele>
        <time>2014-05-09T08:16:43Z</time>
      </trkpt>
      <trkpt lat="42.58406" lon="2.2411">
        <ele>965.3</ele>
        <time>2014-05-09T08:16:50Z</time>
      </trkpt>
      <trkpt lat="42.58406" lon="2.2411">
        <ele>965.78</ele>
        <time>2014-05-09T08:16:58Z</time>
      </trkpt>
      <trkpt lat="42.58412" lon="2.24112">
        <ele>966.74</ele>
        <time>2014-05-09T08:17:05Z</time>
      </trkpt>
      <trkpt lat="42.58417" lon="2.24112">
        <ele>967.7</ele>
        <time>2014-05-09T08:17:13Z</time>
      </trkpt>
      <trkpt lat="42.58423" lon="2.2411">
        <ele>967.7</ele>
        <time>2014-05-09T08:17:20Z</time>
      </trkpt>
      <trkpt lat="42.58431" lon="2.24109">
        <ele>969.15</ele>
        <time>2014-05-09T08:17:27Z</time>
      </trkpt>
      <trkpt lat="42.58434" lon="2.2411">
        <ele>969.63</ele>
        <time>2014-05-09T08:17:34Z</time>
      </trkpt>
      <trkpt lat="42.58438" lon="2.24111">
        <ele>969.63</ele>
        <time>2014-05-09T08:17:42Z</time>
      </trkpt>
      <trkpt lat="42.58445" lon="2.24113">
        <ele>970.11</ele>
        <time>2014-05-09T08:17:48Z</time>
      </trkpt>
      <trkpt lat="42.58451" lon="2.24114">
        <ele>971.07</ele>
        <time>2014-05-09T08:17:55Z</time>
      </trkpt>
      <trkpt lat="42.58457" lon="2.24117">
        <ele>971.55</ele>
        <time>2014-05-09T08:18:00Z</time>
      </trkpt>
      <trkpt lat="42.58466" lon="2.24119">
        <ele>971.55</ele>
        <time>2014-05-09T08:18:06Z</time>
      </trkpt>
      <trkpt lat="42.5847" lon="2.24122">
        <ele>972.03</ele>
        <time>2014-05-09T08:18:12Z</time>
      </trkpt>
      <trkpt lat="42.58475" lon="2.24126">
        <ele>972.51</ele>
        <time>2014-05-09T08:18:18Z</time>
      </trkpt>
      <trkpt lat="42.5848" lon="2.24129">
        <ele>972.99</ele>
        <time>2014-05-09T08:18:25Z</time>
      </trkpt>
      <trkpt lat="42.58484" lon="2.24131">
        <ele>974.43</ele>
        <time>2014-05-09T08:18:31Z</time>
      </trkpt>
      <trkpt lat="42.58486" lon="2.24132">
        <ele>974.91</ele>
        <time>2014-05-09T08:18:34Z</time>
      </trkpt>
      <trkpt lat="42.58492" lon="2.24133">
        <ele>975.88</ele>
        <time>2014-05-09T08:18:41Z</time>
      </trkpt>
      <trkpt lat="42.58497" lon="2.24135">
        <ele>976.36</ele>
        <time>2014-05-09T08:18:48Z</time>
      </trkpt>
      <trkpt lat="42.58504" lon="2.24139">
        <ele>977.8</ele>
        <time>2014-05-09T08:18:56Z</time>
      </trkpt>
      <trkpt lat="42.58511" lon="2.24143">
        <ele>978.28</ele>
        <time>2014-05-09T08:19:03Z</time>
      </trkpt>
      <trkpt lat="42.58517" lon="2.24147">
        <ele>979.72</ele>
        <time>2014-05-09T08:19:12Z</time>
      </trkpt>
      <trkpt lat="42.58522" lon="2.24151">
        <ele>979.24</ele>
        <time>2014-05-09T08:19:18Z</time>
      </trkpt>
      <trkpt lat="42.58529" lon="2.24157">
        <ele>980.2</ele>
        <time>2014-05-09T08:19:26Z</time>
      </trkpt>
      <trkpt lat="42.58533" lon="2.24161">
        <ele>981.64</ele>
        <time>2014-05-09T08:19:33Z</time>
      </trkpt>
      <trkpt lat="42.58538" lon="2.24164">
        <ele>981.64</ele>
        <time>2014-05-09T08:19:39Z</time>
      </trkpt>
      <trkpt lat="42.58541" lon="2.24166">
        <ele>982.6</ele>
        <time>2014-05-09T08:19:45Z</time>
      </trkpt>
      <trkpt lat="42.58546" lon="2.2417">
        <ele>983.09</ele>
        <time>2014-05-09T08:19:52Z</time>
      </trkpt>
      <trkpt lat="42.58551" lon="2.24172">
        <ele>984.05</ele>
        <time>2014-05-09T08:20:00Z</time>
      </trkpt>
      <trkpt lat="42.58556" lon="2.24173">
        <ele>985.01</ele>
        <time>2014-05-09T08:20:07Z</time>
      </trkpt>
      <trkpt lat="42.5856" lon="2.24171">
        <ele>986.45</ele>
        <time>2014-05-09T08:20:15Z</time>
      </trkpt>
      <trkpt lat="42.58564" lon="2.24172">
        <ele>986.93</ele>
        <time>2014-05-09T08:20:20Z</time>
      </trkpt>
      <trkpt lat="42.5857" lon="2.24176">
        <ele>988.85</ele>
        <time>2014-05-09T08:20:29Z</time>
      </trkpt>
      <trkpt lat="42.58573" lon="2.24177">
        <ele>988.85</ele>
        <time>2014-05-09T08:20:37Z</time>
      </trkpt>
      <trkpt lat="42.58573" lon="2.24176">
        <ele>988.85</ele>
        <time>2014-05-09T08:21:31Z</time>
      </trkpt>
      <trkpt lat="42.58575" lon="2.24178">
        <ele>989.81</ele>
        <time>2014-05-09T08:22:12Z</time>
      </trkpt>
      <trkpt lat="42.58579" lon="2.2418">
        <ele>990.3</ele>
        <time>2014-05-09T08:22:20Z</time>
      </trkpt>
      <trkpt lat="42.58579" lon="2.24181">
        <ele>990.78</ele>
        <time>2014-05-09T08:22:26Z</time>
      </trkpt>
      <trkpt lat="42.5858" lon="2.24182">
        <ele>990.78</ele>
        <time>2014-05-09T08:22:38Z</time>
      </trkpt>
      <trkpt lat="42.58583" lon="2.24183">
        <ele>992.22</ele>
        <time>2014-05-09T08:23:08Z</time>
      </trkpt>
      <trkpt lat="42.58589" lon="2.24187">
        <ele>992.7</ele>
        <time>2014-05-09T08:23:15Z</time>
      </trkpt>
      <trkpt lat="42.58594" lon="2.24189">
        <ele>994.14</ele>
        <time>2014-05-09T08:23:22Z</time>
      </trkpt>
      <trkpt lat="42.58599" lon="2.24191">
        <ele>994.14</ele>
        <time>2014-05-09T08:23:27Z</time>
      </trkpt>
      <trkpt lat="42.58604" lon="2.24194">
        <ele>995.58</ele>
        <time>2014-05-09T08:23:35Z</time>
      </trkpt>
      <trkpt lat="42.58611" lon="2.24196">
        <ele>996.06</ele>
        <time>2014-05-09T08:23:41Z</time>
      </trkpt>
      <trkpt lat="42.58616" lon="2.24199">
        <ele>997.02</ele>
        <time>2014-05-09T08:23:47Z</time>
      </trkpt>
      <trkpt lat="42.58621" lon="2.24202">
        <ele>997.51</ele>
        <time>2014-05-09T08:23:54Z</time>
      </trkpt>
      <trkpt lat="42.58623" lon="2.24204">
        <ele>997.99</ele>
        <time>2014-05-09T08:24:03Z</time>
      </trkpt>
      <trkpt lat="42.58629" lon="2.24205">
        <ele>998.47</ele>
        <time>2014-05-09T08:24:20Z</time>
      </trkpt>
      <trkpt lat="42.58633" lon="2.24207">
        <ele>999.43</ele>
        <time>2014-05-09T08:24:26Z</time>
      </trkpt>
      <trkpt lat="42.58639" lon="2.2421">
        <ele>999.91</ele>
        <time>2014-05-09T08:24:34Z</time>
      </trkpt>
      <trkpt lat="42.58647" lon="2.24215">
        <ele>1000.39</ele>
        <time>2014-05-09T08:24:42Z</time>
      </trkpt>
      <trkpt lat="42.58653" lon="2.24217">
        <ele>1001.35</ele>
        <time>2014-05-09T08:24:51Z</time>
      </trkpt>
      <trkpt lat="42.58659" lon="2.24219">
        <ele>1001.83</ele>
        <time>2014-05-09T08:24:58Z</time>
      </trkpt>
      <trkpt lat="42.58665" lon="2.24221">
        <ele>1002.31</ele>
        <time>2014-05-09T08:25:05Z</time>
      </trkpt>
      <trkpt lat="42.58673" lon="2.24221">
        <ele>1002.79</ele>
        <time>2014-05-09T08:25:12Z</time>
      </trkpt>
      <trkpt lat="42.58679" lon="2.24222">
        <ele>1003.27</ele>
        <time>2014-05-09T08:25:19Z</time>
      </trkpt>
      <trkpt lat="42.58684" lon="2.24222">
        <ele>1003.75</ele>
        <time>2014-05-09T08:25:26Z</time>
      </trkpt>
      <trkpt lat="42.58688" lon="2.24219">
        <ele>1003.75</ele>
        <time>2014-05-09T08:25:34Z</time>
      </trkpt>
      <trkpt lat="42.58692" lon="2.24217">
        <ele>1004.23</ele>
        <time>2014-05-09T08:25:41Z</time>
      </trkpt>
      <trkpt lat="42.58697" lon="2.24213">
        <ele>1004.72</ele>
        <time>2014-05-09T08:25:48Z</time>
      </trkpt>
      <trkpt lat="42.58701" lon="2.2421">
        <ele>1005.68</ele>
        <time>2014-05-09T08:25:54Z</time>
      </trkpt>
      <trkpt lat="42.58705" lon="2.24208">
        <ele>1005.68</ele>
        <time>2014-05-09T08:25:59Z</time>
      </trkpt>
      <trkpt lat="42.58709" lon="2.24202">
        <ele>1006.16</ele>
        <time>2014-05-09T08:26:06Z</time>
      </trkpt>
      <trkpt lat="42.58711" lon="2.24197">
        <ele>1007.12</ele>
        <time>2014-05-09T08:26:12Z</time>
      </trkpt>
      <trkpt lat="42.58716" lon="2.24194">
        <ele>1008.56</ele>
        <time>2014-05-09T08:26:20Z</time>
      </trkpt>
      <trkpt lat="42.58719" lon="2.24191">
        <ele>1008.56</ele>
        <time>2014-05-09T08:27:35Z</time>
      </trkpt>
      <trkpt lat="42.58723" lon="2.24186">
        <ele>1009.04</ele>
        <time>2014-05-09T08:27:41Z</time>
      </trkpt>
      <trkpt lat="42.58727" lon="2.24182">
        <ele>1010</ele>
        <time>2014-05-09T08:27:48Z</time>
      </trkpt>
      <trkpt lat="42.58733" lon="2.24177">
        <ele>1010.48</ele>
        <time>2014-05-09T08:27:54Z</time>
      </trkpt>
      <trkpt lat="42.58741" lon="2.24173">
        <ele>1010.48</ele>
        <time>2014-05-09T08:28:02Z</time>
      </trkpt>
      <trkpt lat="42.58745" lon="2.24169">
        <ele>1012.41</ele>
        <time>2014-05-09T08:28:09Z</time>
      </trkpt>
      <trkpt lat="42.58746" lon="2.24167">
        <ele>1012.41</ele>
        <time>2014-05-09T08:28:11Z</time>
      </trkpt>
      <trkpt lat="42.58748" lon="2.24163">
        <ele>1013.37</ele>
        <time>2014-05-09T08:28:18Z</time>
      </trkpt>
      <trkpt lat="42.58751" lon="2.24166">
        <ele>1012.41</ele>
        <time>2014-05-09T08:28:30Z</time>
      </trkpt>
      <trkpt lat="42.58752" lon="2.24168">
        <ele>1011.93</ele>
        <time>2014-05-09T08:28:38Z</time>
      </trkpt>
      <trkpt lat="42.58752" lon="2.24167">
        <ele>1012.41</ele>
        <time>2014-05-09T08:28:55Z</time>
      </trkpt>
      <trkpt lat="42.58753" lon="2.24165">
        <ele>1012.89</ele>
        <time>2014-05-09T08:29:03Z</time>
      </trkpt>
      <trkpt lat="42.58754" lon="2.24169">
        <ele>1013.37</ele>
        <time>2014-05-09T08:29:22Z</time>
      </trkpt>
      <trkpt lat="42.58752" lon="2.24173">
        <ele>1013.85</ele>
        <time>2014-05-09T08:29:28Z</time>
      </trkpt>
      <trkpt lat="42.58753" lon="2.24171">
        <ele>1013.37</ele>
        <time>2014-05-09T08:29:41Z</time>
      </trkpt>
      <trkpt lat="42.58755" lon="2.24167">
        <ele>1012.89</ele>
        <time>2014-05-09T08:29:48Z</time>
      </trkpt>
      <trkpt lat="42.58755" lon="2.24169">
        <ele>1011.93</ele>
        <time>2014-05-09T08:29:56Z</time>
      </trkpt>
      <trkpt lat="42.58755" lon="2.24169">
        <ele>1011.93</ele>
        <time>2014-05-09T08:30:09Z</time>
      </trkpt>
      <trkpt lat="42.58755" lon="2.24166">
        <ele>1012.41</ele>
        <time>2014-05-09T08:30:31Z</time>
      </trkpt>
      <trkpt lat="42.58754" lon="2.24165">
        <ele>1012.89</ele>
        <time>2014-05-09T08:30:37Z</time>
      </trkpt>
      <trkpt lat="42.58753" lon="2.24166">
        <ele>1014.33</ele>
        <time>2014-05-09T08:30:51Z</time>
      </trkpt>
      <trkpt lat="42.58753" lon="2.24161">
        <ele>1015.29</ele>
        <time>2014-05-09T08:30:56Z</time>
      </trkpt>
      <trkpt lat="42.58753" lon="2.24152">
        <ele>1016.25</ele>
        <time>2014-05-09T08:31:05Z</time>
      </trkpt>
      <trkpt lat="42.58754" lon="2.24144">
        <ele>1015.77</ele>
        <time>2014-05-09T08:31:11Z</time>
      </trkpt>
      <trkpt lat="42.58755" lon="2.24143">
        <ele>1016.73</ele>
        <time>2014-05-09T08:31:21Z</time>
      </trkpt>
      <trkpt lat="42.58755" lon="2.24141">
        <ele>1016.25</ele>
        <time>2014-05-09T08:31:28Z</time>
      </trkpt>
      <trkpt lat="42.58754" lon="2.24136">
        <ele>1016.73</ele>
        <time>2014-05-09T08:31:35Z</time>
      </trkpt>
      <trkpt lat="42.58755" lon="2.24135">
        <ele>1018.17</ele>
        <time>2014-05-09T08:31:46Z</time>
      </trkpt>
      <trkpt lat="42.58757" lon="2.2413">
        <ele>1017.21</ele>
        <time>2014-05-09T08:31:52Z</time>
      </trkpt>
      <trkpt lat="42.58757" lon="2.24129">
        <ele>1017.69</ele>
        <time>2014-05-09T08:32:01Z</time>
      </trkpt>
      <trkpt lat="42.58759" lon="2.24124">
        <ele>1017.69</ele>
        <time>2014-05-09T08:32:10Z</time>
      </trkpt>
      <trkpt lat="42.58759" lon="2.24122">
        <ele>1017.69</ele>
        <time>2014-05-09T08:32:19Z</time>
      </trkpt>
      <trkpt lat="42.5876" lon="2.2412">
        <ele>1018.17</ele>
        <time>2014-05-09T08:32:37Z</time>
      </trkpt>
      <trkpt lat="42.58761" lon="2.24118">
        <ele>1018.65</ele>
        <time>2014-05-09T08:32:44Z</time>
      </trkpt>
      <trkpt lat="42.58761" lon="2.24118">
        <ele>1018.65</ele>
        <time>2014-05-09T08:33:02Z</time>
      </trkpt>
      <trkpt lat="42.58761" lon="2.24117">
        <ele>1018.65</ele>
        <time>2014-05-09T08:33:51Z</time>
      </trkpt>
      <trkpt lat="42.58761" lon="2.24116">
        <ele>1018.17</ele>
        <time>2014-05-09T08:34:19Z</time>
      </trkpt>
      <trkpt lat="42.58763" lon="2.24112">
        <ele>1019.13</ele>
        <time>2014-05-09T08:34:21Z</time>
      </trkpt>
      <trkpt lat="42.58764" lon="2.24109">
        <ele>1019.13</ele>
        <time>2014-05-09T08:34:22Z</time>
      </trkpt>
      <trkpt lat="42.58767" lon="2.24106">
        <ele>1019.62</ele>
        <time>2014-05-09T08:34:27Z</time>
      </trkpt>
      <trkpt lat="42.58767" lon="2.24109">
        <ele>1019.13</ele>
        <time>2014-05-09T08:34:33Z</time>
      </trkpt>
      <trkpt lat="42.58766" lon="2.24111">
        <ele>1018.65</ele>
        <time>2014-05-09T08:34:35Z</time>
      </trkpt>
      <trkpt lat="42.58765" lon="2.24113">
        <ele>1018.65</ele>
        <time>2014-05-09T08:34:42Z</time>
      </trkpt>
      <trkpt lat="42.58765" lon="2.24113">
        <ele>1018.65</ele>
        <time>2014-05-09T08:34:52Z</time>
      </trkpt>
      <trkpt lat="42.58766" lon="2.24113">
        <ele>1017.69</ele>
        <time>2014-05-09T08:35:15Z</time>
      </trkpt>
      <trkpt lat="42.58766" lon="2.24113">
        <ele>1018.65</ele>
        <time>2014-05-09T08:35:38Z</time>
      </trkpt>
      <trkpt lat="42.5877" lon="2.24105">
        <ele>1020.1</ele>
        <time>2014-05-09T08:35:43Z</time>
      </trkpt>
      <trkpt lat="42.58772" lon="2.24104">
        <ele>1020.1</ele>
        <time>2014-05-09T08:35:47Z</time>
      </trkpt>
      <trkpt lat="42.58772" lon="2.24104">
        <ele>1019.62</ele>
        <time>2014-05-09T08:35:49Z</time>
      </trkpt>
      <trkpt lat="42.58767" lon="2.24107">
        <ele>1018.65</ele>
        <time>2014-05-09T08:35:55Z</time>
      </trkpt>
      <trkpt lat="42.58767" lon="2.24108">
        <ele>1019.13</ele>
        <time>2014-05-09T08:36:07Z</time>
      </trkpt>
      <trkpt lat="42.58767" lon="2.24106">
        <ele>1019.13</ele>
        <time>2014-05-09T08:36:15Z</time>
      </trkpt>
      <trkpt lat="42.58769" lon="2.24102">
        <ele>1020.1</ele>
        <time>2014-05-09T08:36:23Z</time>
      </trkpt>
      <trkpt lat="42.58771" lon="2.24104">
        <ele>1020.1</ele>
        <time>2014-05-09T08:36:38Z</time>
      </trkpt>
      <trkpt lat="42.58776" lon="2.2411">
        <ele>1020.1</ele>
        <time>2014-05-09T08:37:02Z</time>
      </trkpt>
      <trkpt lat="42.5878" lon="2.24113">
        <ele>1020.58</ele>
        <time>2014-05-09T08:37:09Z</time>
      </trkpt>
      <trkpt lat="42.58782" lon="2.24116">
        <ele>1021.06</ele>
        <time>2014-05-09T08:37:19Z</time>
      </trkpt>
      <trkpt lat="42.58787" lon="2.24124">
        <ele>1022.5</ele>
        <time>2014-05-09T08:37:28Z</time>
      </trkpt>
      <trkpt lat="42.58789" lon="2.24128">
        <ele>1023.94</ele>
        <time>2014-05-09T08:37:35Z</time>
      </trkpt>
      <trkpt lat="42.5879" lon="2.24124">
        <ele>1025.38</ele>
        <time>2014-05-09T08:37:42Z</time>
      </trkpt>
      <trkpt lat="42.58791" lon="2.24116">
        <ele>1026.83</ele>
        <time>2014-05-09T08:37:50Z</time>
      </trkpt>
      <trkpt lat="42.58792" lon="2.24114">
        <ele>1027.79</ele>
        <time>2014-05-09T08:37:58Z</time>
      </trkpt>
      <trkpt lat="42.58798" lon="2.24112">
        <ele>1029.23</ele>
        <time>2014-05-09T08:38:06Z</time>
      </trkpt>
      <trkpt lat="42.58802" lon="2.24111">
        <ele>1030.19</ele>
        <time>2014-05-09T08:38:13Z</time>
      </trkpt>
      <trkpt lat="42.58807" lon="2.24113">
        <ele>1031.63</ele>
        <time>2014-05-09T08:38:23Z</time>
      </trkpt>
      <trkpt lat="42.58813" lon="2.24116">
        <ele>1032.11</ele>
        <time>2014-05-09T08:38:31Z</time>
      </trkpt>
      <trkpt lat="42.5882" lon="2.24118">
        <ele>1033.55</ele>
        <time>2014-05-09T08:38:40Z</time>
      </trkpt>
      <trkpt lat="42.5882" lon="2.24123">
        <ele>1034.04</ele>
        <time>2014-05-09T08:38:46Z</time>
      </trkpt>
      <trkpt lat="42.58819" lon="2.24126">
        <ele>1035.48</ele>
        <time>2014-05-09T08:38:54Z</time>
      </trkpt>
      <trkpt lat="42.58816" lon="2.24129">
        <ele>1035.96</ele>
        <time>2014-05-09T08:39:03Z</time>
      </trkpt>
      <trkpt lat="42.58817" lon="2.24129">
        <ele>1035.96</ele>
        <time>2014-05-09T08:39:28Z</time>
      </trkpt>
      <trkpt lat="42.58817" lon="2.24126">
        <ele>1035.48</ele>
        <time>2014-05-09T08:39:35Z</time>
      </trkpt>
      <trkpt lat="42.58818" lon="2.24123">
        <ele>1035.48</ele>
        <time>2014-05-09T08:39:43Z</time>
      </trkpt>
      <trkpt lat="42.58819" lon="2.24122">
        <ele>1034.04</ele>
        <time>2014-05-09T08:39:49Z</time>
      </trkpt>
      <trkpt lat="42.58819" lon="2.24121">
        <ele>1032.59</ele>
        <time>2014-05-09T08:39:56Z</time>
      </trkpt>
      <trkpt lat="42.58819" lon="2.2412">
        <ele>1032.11</ele>
        <time>2014-05-09T08:40:03Z</time>
      </trkpt>
      <trkpt lat="42.58821" lon="2.24116">
        <ele>1032.11</ele>
        <time>2014-05-09T08:40:30Z</time>
      </trkpt>
      <trkpt lat="42.5882" lon="2.24104">
        <ele>1033.07</ele>
        <time>2014-05-09T08:40:36Z</time>
      </trkpt>
      <trkpt lat="42.58822" lon="2.24099">
        <ele>1033.07</ele>
        <time>2014-05-09T08:40:44Z</time>
      </trkpt>
      <trkpt lat="42.58825" lon="2.24092">
        <ele>1033.55</ele>
        <time>2014-05-09T08:40:51Z</time>
      </trkpt>
      <trkpt lat="42.58825" lon="2.24089">
        <ele>1034.52</ele>
        <time>2014-05-09T08:40:57Z</time>
      </trkpt>
      <trkpt lat="42.58828" lon="2.24084">
        <ele>1034.52</ele>
        <time>2014-05-09T08:41:02Z</time>
      </trkpt>
      <trkpt lat="42.58829" lon="2.2408">
        <ele>1034.52</ele>
        <time>2014-05-09T08:41:07Z</time>
      </trkpt>
      <trkpt lat="42.58831" lon="2.24073">
        <ele>1035</ele>
        <time>2014-05-09T08:41:13Z</time>
      </trkpt>
      <trkpt lat="42.58838" lon="2.24066">
        <ele>1035.48</ele>
        <time>2014-05-09T08:41:21Z</time>
      </trkpt>
      <trkpt lat="42.58845" lon="2.24059">
        <ele>1035.48</ele>
        <time>2014-05-09T08:41:29Z</time>
      </trkpt>
      <trkpt lat="42.58849" lon="2.24051">
        <ele>1035.48</ele>
        <time>2014-05-09T08:41:37Z</time>
      </trkpt>
      <trkpt lat="42.58851" lon="2.24046">
        <ele>1036.44</ele>
        <time>2014-05-09T08:41:44Z</time>
      </trkpt>
      <trkpt lat="42.58858" lon="2.24042">
        <ele>1036.44</ele>
        <time>2014-05-09T08:41:51Z</time>
      </trkpt>
      <trkpt lat="42.58864" lon="2.2404">
        <ele>1036.92</ele>
        <time>2014-05-09T08:41:58Z</time>
      </trkpt>
      <trkpt lat="42.58868" lon="2.24033">
        <ele>1038.36</ele>
        <time>2014-05-09T08:42:06Z</time>
      </trkpt>
      <trkpt lat="42.58871" lon="2.24027">
        <ele>1039.32</ele>
        <time>2014-05-09T08:42:13Z</time>
      </trkpt>
      <trkpt lat="42.58872" lon="2.24022">
        <ele>1039.8</ele>
        <time>2014-05-09T08:42:20Z</time>
      </trkpt>
      <trkpt lat="42.58873" lon="2.24021">
        <ele>1039.32</ele>
        <time>2014-05-09T08:42:21Z</time>
      </trkpt>
      <trkpt lat="42.58879" lon="2.24014">
        <ele>1039.8</ele>
        <time>2014-05-09T08:42:28Z</time>
      </trkpt>
      <trkpt lat="42.58881" lon="2.24004">
        <ele>1040.76</ele>
        <time>2014-05-09T08:42:37Z</time>
      </trkpt>
      <trkpt lat="42.58884" lon="2.23998">
        <ele>1040.76</ele>
        <time>2014-05-09T08:42:43Z</time>
      </trkpt>
      <trkpt lat="42.58886" lon="2.23989">
        <ele>1041.73</ele>
        <time>2014-05-09T08:42:49Z</time>
      </trkpt>
      <trkpt lat="42.58888" lon="2.23983">
        <ele>1042.21</ele>
        <time>2014-05-09T08:42:56Z</time>
      </trkpt>
      <trkpt lat="42.58892" lon="2.23978">
        <ele>1042.21</ele>
        <time>2014-05-09T08:43:02Z</time>
      </trkpt>
      <trkpt lat="42.58894" lon="2.23978">
        <ele>1041.73</ele>
        <time>2014-05-09T08:43:05Z</time>
      </trkpt>
      <trkpt lat="42.58895" lon="2.23972">
        <ele>1043.17</ele>
        <time>2014-05-09T08:43:12Z</time>
      </trkpt>
      <trkpt lat="42.58897" lon="2.23965">
        <ele>1043.65</ele>
        <time>2014-05-09T08:43:19Z</time>
      </trkpt>
      <trkpt lat="42.58897" lon="2.23958">
        <ele>1043.65</ele>
        <time>2014-05-09T08:43:26Z</time>
      </trkpt>
      <trkpt lat="42.58897" lon="2.23952">
        <ele>1045.09</ele>
        <time>2014-05-09T08:43:34Z</time>
      </trkpt>
      <trkpt lat="42.58896" lon="2.23946">
        <ele>1045.57</ele>
        <time>2014-05-09T08:43:41Z</time>
      </trkpt>
      <trkpt lat="42.58896" lon="2.23943">
        <ele>1046.05</ele>
        <time>2014-05-09T08:43:47Z</time>
      </trkpt>
      <trkpt lat="42.58896" lon="2.2394">
        <ele>1046.05</ele>
        <time>2014-05-09T08:43:54Z</time>
      </trkpt>
      <trkpt lat="42.58895" lon="2.2394">
        <ele>1047.49</ele>
        <time>2014-05-09T08:44:01Z</time>
      </trkpt>
      <trkpt lat="42.58894" lon="2.23939">
        <ele>1047.49</ele>
        <time>2014-05-09T08:44:02Z</time>
      </trkpt>
      <trkpt lat="42.5889" lon="2.23931">
        <ele>1048.45</ele>
        <time>2014-05-09T08:44:09Z</time>
      </trkpt>
      <trkpt lat="42.58888" lon="2.23927">
        <ele>1049.42</ele>
        <time>2014-05-09T08:44:16Z</time>
      </trkpt>
      <trkpt lat="42.58886" lon="2.23925">
        <ele>1049.9</ele>
        <time>2014-05-09T08:44:22Z</time>
      </trkpt>
      <trkpt lat="42.58885" lon="2.23924">
        <ele>1050.38</ele>
        <time>2014-05-09T08:44:28Z</time>
      </trkpt>
      <trkpt lat="42.58885" lon="2.23924">
        <ele>1051.34</ele>
        <time>2014-05-09T08:44:35Z</time>
      </trkpt>
      <trkpt lat="42.58882" lon="2.23909">
        <ele>1052.3</ele>
        <time>2014-05-09T08:44:42Z</time>
      </trkpt>
      <trkpt lat="42.58877" lon="2.23899">
        <ele>1053.26</ele>
        <time>2014-05-09T08:44:48Z</time>
      </trkpt>
      <trkpt lat="42.58874" lon="2.23893">
        <ele>1054.22</ele>
        <time>2014-05-09T08:44:55Z</time>
      </trkpt>
      <trkpt lat="42.58872" lon="2.2388">
        <ele>1055.18</ele>
        <time>2014-05-09T08:45:03Z</time>
      </trkpt>
      <trkpt lat="42.5887" lon="2.2387">
        <ele>1056.15</ele>
        <time>2014-05-09T08:45:10Z</time>
      </trkpt>
      <trkpt lat="42.58869" lon="2.23864">
        <ele>1057.11</ele>
        <time>2014-05-09T08:45:17Z</time>
      </trkpt>
      <trkpt lat="42.58869" lon="2.2386">
        <ele>1058.07</ele>
        <time>2014-05-09T08:45:24Z</time>
      </trkpt>
      <trkpt lat="42.5887" lon="2.23856">
        <ele>1059.51</ele>
        <time>2014-05-09T08:45:31Z</time>
      </trkpt>
      <trkpt lat="42.58869" lon="2.23851">
        <ele>1060.47</ele>
        <time>2014-05-09T08:45:37Z</time>
      </trkpt>
      <trkpt lat="42.58869" lon="2.23845">
        <ele>1061.91</ele>
        <time>2014-05-09T08:45:45Z</time>
      </trkpt>
      <trkpt lat="42.58868" lon="2.23841">
        <ele>1063.84</ele>
        <time>2014-05-09T08:45:53Z</time>
      </trkpt>
      <trkpt lat="42.58867" lon="2.23836">
        <ele>1064.32</ele>
        <time>2014-05-09T08:45:58Z</time>
      </trkpt>
      <trkpt lat="42.58865" lon="2.23831">
        <ele>1065.28</ele>
        <time>2014-05-09T08:46:05Z</time>
      </trkpt>
      <trkpt lat="42.58865" lon="2.23831">
        <ele>1066.24</ele>
        <time>2014-05-09T08:46:12Z</time>
      </trkpt>
      <trkpt lat="42.58864" lon="2.23825">
        <ele>1066.72</ele>
        <time>2014-05-09T08:46:19Z</time>
      </trkpt>
      <trkpt lat="42.58863" lon="2.23823">
        <ele>1066.72</ele>
        <time>2014-05-09T08:46:30Z</time>
      </trkpt>
      <trkpt lat="42.58863" lon="2.23823">
        <ele>1066.72</ele>
        <time>2014-05-09T08:47:06Z</time>
      </trkpt>
      <trkpt lat="42.58863" lon="2.23823">
        <ele>1066.72</ele>
        <time>2014-05-09T08:47:23Z</time>
      </trkpt>
      <trkpt lat="42.58863" lon="2.23823">
        <ele>1066.72</ele>
        <time>2014-05-09T08:48:11Z</time>
      </trkpt>
      <trkpt lat="42.58863" lon="2.23823">
        <ele>1067.2</ele>
        <time>2014-05-09T08:48:36Z</time>
      </trkpt>
      <trkpt lat="42.58861" lon="2.2382">
        <ele>1067.68</ele>
        <time>2014-05-09T08:49:22Z</time>
      </trkpt>
      <trkpt lat="42.58858" lon="2.23817">
        <ele>1068.16</ele>
        <time>2014-05-09T08:49:28Z</time>
      </trkpt>
      <trkpt lat="42.58852" lon="2.2381">
        <ele>1069.12</ele>
        <time>2014-05-09T08:49:36Z</time>
      </trkpt>
      <trkpt lat="42.58847" lon="2.23807">
        <ele>1070.08</ele>
        <time>2014-05-09T08:49:42Z</time>
      </trkpt>
      <trkpt lat="42.58844" lon="2.23808">
        <ele>1071.05</ele>
        <time>2014-05-09T08:49:48Z</time>
      </trkpt>
      <trkpt lat="42.58839" lon="2.23806">
        <ele>1072.49</ele>
        <time>2014-05-09T08:49:55Z</time>
      </trkpt>
      <trkpt lat="42.58836" lon="2.23803">
        <ele>1072.97</ele>
        <time>2014-05-09T08:50:00Z</time>
      </trkpt>
      <trkpt lat="42.58833" lon="2.238">
        <ele>1073.45</ele>
        <time>2014-05-09T08:50:07Z</time>
      </trkpt>
      <trkpt lat="42.58832" lon="2.23788">
        <ele>1074.89</ele>
        <time>2014-05-09T08:50:14Z</time>
      </trkpt>
      <trkpt lat="42.58831" lon="2.23786">
        <ele>1074.41</ele>
        <time>2014-05-09T08:50:22Z</time>
      </trkpt>
      <trkpt lat="42.5883" lon="2.23776">
        <ele>1074.41</ele>
        <time>2014-05-09T08:50:34Z</time>
      </trkpt>
      <trkpt lat="42.5883" lon="2.23772">
        <ele>1075.37</ele>
        <time>2014-05-09T08:50:43Z</time>
      </trkpt>
      <trkpt lat="42.58829" lon="2.23773">
        <ele>1075.85</ele>
        <time>2014-05-09T08:50:46Z</time>
      </trkpt>
      <trkpt lat="42.5883" lon="2.23777">
        <ele>1075.37</ele>
        <time>2014-05-09T08:50:50Z</time>
      </trkpt>
      <trkpt lat="42.58828" lon="2.2378">
        <ele>1074.41</ele>
        <time>2014-05-09T08:50:57Z</time>
      </trkpt>
      <trkpt lat="42.58827" lon="2.23779">
        <ele>1073.93</ele>
        <time>2014-05-09T08:51:03Z</time>
      </trkpt>
      <trkpt lat="42.58828" lon="2.23779">
        <ele>1074.41</ele>
        <time>2014-05-09T08:51:13Z</time>
      </trkpt>
      <trkpt lat="42.58827" lon="2.23775">
        <ele>1074.89</ele>
        <time>2014-05-09T08:51:21Z</time>
      </trkpt>
      <trkpt lat="42.58832" lon="2.23765">
        <ele>1075.37</ele>
        <time>2014-05-09T08:51:29Z</time>
      </trkpt>
      <trkpt lat="42.58835" lon="2.2376">
        <ele>1075.85</ele>
        <time>2014-05-09T08:51:35Z</time>
      </trkpt>
      <trkpt lat="42.58839" lon="2.23757">
        <ele>1076.33</ele>
        <time>2014-05-09T08:51:41Z</time>
      </trkpt>
      <trkpt lat="42.58846" lon="2.23748">
        <ele>1076.33</ele>
        <time>2014-05-09T08:51:48Z</time>
      </trkpt>
      <trkpt lat="42.58846" lon="2.23747">
        <ele>1076.33</ele>
        <time>2014-05-09T08:51:49Z</time>
      </trkpt>
      <trkpt lat="42.58852" lon="2.23745">
        <ele>1076.33</ele>
        <time>2014-05-09T08:51:53Z</time>
      </trkpt>
      <trkpt lat="42.58863" lon="2.23745">
        <ele>1076.33</ele>
        <time>2014-05-09T08:52:01Z</time>
      </trkpt>
      <trkpt lat="42.58864" lon="2.23744">
        <ele>1076.81</ele>
        <time>2014-05-09T08:52:10Z</time>
      </trkpt>
      <trkpt lat="42.5887" lon="2.23739">
        <ele>1077.29</ele>
        <time>2014-05-09T08:52:18Z</time>
      </trkpt>
      <trkpt lat="42.58874" lon="2.23735">
        <ele>1077.29</ele>
        <time>2014-05-09T08:52:24Z</time>
      </trkpt>
      <trkpt lat="42.58879" lon="2.2373">
        <ele>1078.26</ele>
        <time>2014-05-09T08:52:31Z</time>
      </trkpt>
      <trkpt lat="42.58879" lon="2.23728">
        <ele>1078.74</ele>
        <time>2014-05-09T08:52:32Z</time>
      </trkpt>
      <trkpt lat="42.58883" lon="2.23722">
        <ele>1080.18</ele>
        <time>2014-05-09T08:52:39Z</time>
      </trkpt>
      <trkpt lat="42.58888" lon="2.23717">
        <ele>1080.66</ele>
        <time>2014-05-09T08:52:46Z</time>
      </trkpt>
      <trkpt lat="42.58893" lon="2.23709">
        <ele>1081.14</ele>
        <time>2014-05-09T08:52:54Z</time>
      </trkpt>
      <trkpt lat="42.58899" lon="2.23706">
        <ele>1080.66</ele>
        <time>2014-05-09T08:53:01Z</time>
      </trkpt>
      <trkpt lat="42.58903" lon="2.23701">
        <ele>1081.62</ele>
        <time>2014-05-09T08:53:07Z</time>
      </trkpt>
      <trkpt lat="42.58909" lon="2.23697">
        <ele>1083.06</ele>
        <time>2014-05-09T08:53:14Z</time>
      </trkpt>
      <trkpt lat="42.58917" lon="2.23694">
        <ele>1084.02</ele>
        <time>2014-05-09T08:53:23Z</time>
      </trkpt>
      <trkpt lat="42.58926" lon="2.23698">
        <ele>1084.5</ele>
        <time>2014-05-09T08:53:29Z</time>
      </trkpt>
      <trkpt lat="42.58935" lon="2.23701">
        <ele>1084.5</ele>
        <time>2014-05-09T08:53:36Z</time>
      </trkpt>
      <trkpt lat="42.5894" lon="2.23706">
        <ele>1086.43</ele>
        <time>2014-05-09T08:53:43Z</time>
      </trkpt>
      <trkpt lat="42.5894" lon="2.23706">
        <ele>1085.95</ele>
        <time>2014-05-09T08:53:54Z</time>
      </trkpt>
      <trkpt lat="42.5894" lon="2.23707">
        <ele>1085.95</ele>
        <time>2014-05-09T08:54:04Z</time>
      </trkpt>
      <trkpt lat="42.58942" lon="2.23713">
        <ele>1086.91</ele>
        <time>2014-05-09T08:54:10Z</time>
      </trkpt>
      <trkpt lat="42.58944" lon="2.23716">
        <ele>1087.39</ele>
        <time>2014-05-09T08:54:16Z</time>
      </trkpt>
      <trkpt lat="42.58945" lon="2.23717">
        <ele>1087.39</ele>
        <time>2014-05-09T08:54:17Z</time>
      </trkpt>
      <trkpt lat="42.58948" lon="2.23717">
        <ele>1087.87</ele>
        <time>2014-05-09T08:54:20Z</time>
      </trkpt>
      <trkpt lat="42.58953" lon="2.23721">
        <ele>1087.87</ele>
        <time>2014-05-09T08:54:25Z</time>
      </trkpt>
      <trkpt lat="42.58958" lon="2.23728">
        <ele>1087.87</ele>
        <time>2014-05-09T08:54:32Z</time>
      </trkpt>
      <trkpt lat="42.58958" lon="2.23728">
        <ele>1088.35</ele>
        <time>2014-05-09T08:54:45Z</time>
      </trkpt>
      <trkpt lat="42.58959" lon="2.23731">
        <ele>1088.35</ele>
        <time>2014-05-09T08:55:05Z</time>
      </trkpt>
      <trkpt lat="42.58961" lon="2.23733">
        <ele>1088.35</ele>
        <time>2014-05-09T08:55:08Z</time>
      </trkpt>
      <trkpt lat="42.58963" lon="2.23738">
        <ele>1089.31</ele>
        <time>2014-05-09T08:55:14Z</time>
      </trkpt>
      <trkpt lat="42.58966" lon="2.23747">
        <ele>1091.23</ele>
        <time>2014-05-09T08:55:21Z</time>
      </trkpt>
      <trkpt lat="42.58965" lon="2.23749">
        <ele>1093.64</ele>
        <time>2014-05-09T08:55:23Z</time>
      </trkpt>
      <trkpt lat="42.58965" lon="2.2375">
        <ele>1087.87</ele>
        <time>2014-05-09T08:55:24Z</time>
      </trkpt>
      <trkpt lat="42.58965" lon="2.23751">
        <ele>1091.23</ele>
        <time>2014-05-09T08:55:25Z</time>
      </trkpt>
      <trkpt lat="42.58965" lon="2.23754">
        <ele>1090.75</ele>
        <time>2014-05-09T08:55:28Z</time>
      </trkpt>
      <trkpt lat="42.58967" lon="2.23761">
        <ele>1090.75</ele>
        <time>2014-05-09T08:55:35Z</time>
      </trkpt>
      <trkpt lat="42.58968" lon="2.23762">
        <ele>1091.71</ele>
        <time>2014-05-09T08:55:37Z</time>
      </trkpt>
      <trkpt lat="42.58967" lon="2.23767">
        <ele>1087.87</ele>
        <time>2014-05-09T08:55:41Z</time>
      </trkpt>
      <trkpt lat="42.58967" lon="2.23767">
        <ele>1087.87</ele>
        <time>2014-05-09T08:55:42Z</time>
      </trkpt>
      <trkpt lat="42.58967" lon="2.23768">
        <ele>1092.2</ele>
        <time>2014-05-09T08:55:43Z</time>
      </trkpt>
      <trkpt lat="42.58966" lon="2.23775">
        <ele>1089.79</ele>
        <time>2014-05-09T08:55:50Z</time>
      </trkpt>
      <trkpt lat="42.58966" lon="2.23776">
        <ele>1089.79</ele>
        <time>2014-05-09T08:55:51Z</time>
      </trkpt>
      <trkpt lat="42.58966" lon="2.23776">
        <ele>1093.64</ele>
        <time>2014-05-09T08:55:52Z</time>
      </trkpt>
      <trkpt lat="42.58966" lon="2.23776">
        <ele>1096.52</ele>
        <time>2014-05-09T08:55:53Z</time>
      </trkpt>
      <trkpt lat="42.58966" lon="2.23776">
        <ele>1093.64</ele>
        <time>2014-05-09T08:55:54Z</time>
      </trkpt>
      <trkpt lat="42.58968" lon="2.23782">
        <ele>1095.08</ele>
        <time>2014-05-09T08:55:59Z</time>
      </trkpt>
      <trkpt lat="42.58968" lon="2.23786">
        <ele>1093.64</ele>
        <time>2014-05-09T08:56:04Z</time>
      </trkpt>
      <trkpt lat="42.58971" lon="2.23795">
        <ele>1095.56</ele>
        <time>2014-05-09T08:56:13Z</time>
      </trkpt>
      <trkpt lat="42.58972" lon="2.23798">
        <ele>1097</ele>
        <time>2014-05-09T08:56:20Z</time>
      </trkpt>
      <trkpt lat="42.58974" lon="2.23804">
        <ele>1097.96</ele>
        <time>2014-05-09T08:56:24Z</time>
      </trkpt>
      <trkpt lat="42.58976" lon="2.23807">
        <ele>1098.92</ele>
        <time>2014-05-09T08:56:29Z</time>
      </trkpt>
      <trkpt lat="42.58983" lon="2.2381">
        <ele>1100.37</ele>
        <time>2014-05-09T08:56:38Z</time>
      </trkpt>
      <trkpt lat="42.58985" lon="2.23812">
        <ele>1101.33</ele>
        <time>2014-05-09T08:56:45Z</time>
      </trkpt>
      <trkpt lat="42.58984" lon="2.23815">
        <ele>1101.81</ele>
        <time>2014-05-09T08:56:47Z</time>
      </trkpt>
      <trkpt lat="42.58986" lon="2.2382">
        <ele>1102.29</ele>
        <time>2014-05-09T08:56:52Z</time>
      </trkpt>
      <trkpt lat="42.58988" lon="2.23823">
        <ele>1102.77</ele>
        <time>2014-05-09T08:56:57Z</time>
      </trkpt>
      <trkpt lat="42.58988" lon="2.23823">
        <ele>1103.25</ele>
        <time>2014-05-09T08:57:04Z</time>
      </trkpt>
      <trkpt lat="42.58989" lon="2.23824">
        <ele>1104.21</ele>
        <time>2014-05-09T08:57:13Z</time>
      </trkpt>
      <trkpt lat="42.58991" lon="2.23828">
        <ele>1104.69</ele>
        <time>2014-05-09T08:57:20Z</time>
      </trkpt>
      <trkpt lat="42.58995" lon="2.23831">
        <ele>1105.65</ele>
        <time>2014-05-09T08:57:26Z</time>
      </trkpt>
      <trkpt lat="42.58998" lon="2.23834">
        <ele>1105.65</ele>
        <time>2014-05-09T08:57:31Z</time>
      </trkpt>
      <trkpt lat="42.59" lon="2.2384">
        <ele>1107.1</ele>
        <time>2014-05-09T08:57:39Z</time>
      </trkpt>
      <trkpt lat="42.59001" lon="2.23842">
        <ele>1107.1</ele>
        <time>2014-05-09T08:57:46Z</time>
      </trkpt>
      <trkpt lat="42.59002" lon="2.23845">
        <ele>1108.06</ele>
        <time>2014-05-09T08:57:54Z</time>
      </trkpt>
      <trkpt lat="42.59005" lon="2.23848">
        <ele>1109.02</ele>
        <time>2014-05-09T08:58:01Z</time>
      </trkpt>
      <trkpt lat="42.59009" lon="2.2385">
        <ele>1109.02</ele>
        <time>2014-05-09T08:58:08Z</time>
      </trkpt>
      <trkpt lat="42.59013" lon="2.23861">
        <ele>1110.94</ele>
        <time>2014-05-09T08:58:15Z</time>
      </trkpt>
      <trkpt lat="42.59016" lon="2.23863">
        <ele>1111.9</ele>
        <time>2014-05-09T08:58:21Z</time>
      </trkpt>
      <trkpt lat="42.59017" lon="2.23863">
        <ele>1112.38</ele>
        <time>2014-05-09T08:58:29Z</time>
      </trkpt>
      <trkpt lat="42.59022" lon="2.23867">
        <ele>1113.34</ele>
        <time>2014-05-09T08:58:36Z</time>
      </trkpt>
      <trkpt lat="42.59023" lon="2.23869">
        <ele>1113.34</ele>
        <time>2014-05-09T08:58:44Z</time>
      </trkpt>
      <trkpt lat="42.59023" lon="2.23869">
        <ele>1113.34</ele>
        <time>2014-05-09T08:59:15Z</time>
      </trkpt>
      <trkpt lat="42.59023" lon="2.23869">
        <ele>1113.34</ele>
        <time>2014-05-09T08:59:29Z</time>
      </trkpt>
      <trkpt lat="42.59054" lon="2.23871">
        <ele>1113.34</ele>
        <time>2014-05-09T09:00:04Z</time>
      </trkpt>
      <trkpt lat="42.59061" lon="2.23873">
        <ele>1114.31</ele>
        <time>2014-05-09T09:00:11Z</time>
      </trkpt>
      <trkpt lat="42.59065" lon="2.23875">
        <ele>1115.27</ele>
        <time>2014-05-09T09:00:14Z</time>
      </trkpt>
      <trkpt lat="42.59072" lon="2.23878">
        <ele>1115.75</ele>
        <time>2014-05-09T09:00:21Z</time>
      </trkpt>
      <trkpt lat="42.59078" lon="2.23883">
        <ele>1115.75</ele>
        <time>2014-05-09T09:00:27Z</time>
      </trkpt>
      <trkpt lat="42.59084" lon="2.23885">
        <ele>1116.71</ele>
        <time>2014-05-09T09:00:34Z</time>
      </trkpt>
      <trkpt lat="42.59088" lon="2.23888">
        <ele>1117.19</ele>
        <time>2014-05-09T09:00:39Z</time>
      </trkpt>
      <trkpt lat="42.59092" lon="2.23891">
        <ele>1117.67</ele>
        <time>2014-05-09T09:00:45Z</time>
      </trkpt>
      <trkpt lat="42.59095" lon="2.23894">
        <ele>1117.67</ele>
        <time>2014-05-09T09:00:51Z</time>
      </trkpt>
      <trkpt lat="42.59099" lon="2.239">
        <ele>1118.15</ele>
        <time>2014-05-09T09:00:57Z</time>
      </trkpt>
      <trkpt lat="42.59102" lon="2.23904">
        <ele>1118.63</ele>
        <time>2014-05-09T09:01:03Z</time>
      </trkpt>
      <trkpt lat="42.59103" lon="2.23906">
        <ele>1119.59</ele>
        <time>2014-05-09T09:01:05Z</time>
      </trkpt>
      <trkpt lat="42.59105" lon="2.23909">
        <ele>1120.07</ele>
        <time>2014-05-09T09:01:09Z</time>
      </trkpt>
      <trkpt lat="42.59105" lon="2.23914">
        <ele>1120.55</ele>
        <time>2014-05-09T09:01:15Z</time>
      </trkpt>
      <trkpt lat="42.59107" lon="2.23916">
        <ele>1121.52</ele>
        <time>2014-05-09T09:01:22Z</time>
      </trkpt>
      <trkpt lat="42.59113" lon="2.23919">
        <ele>1121.52</ele>
        <time>2014-05-09T09:01:35Z</time>
      </trkpt>
      <trkpt lat="42.59113" lon="2.23919">
        <ele>1121.52</ele>
        <time>2014-05-09T09:02:11Z</time>
      </trkpt>
      <trkpt lat="42.59116" lon="2.23922">
        <ele>1121.52</ele>
        <time>2014-05-09T09:02:18Z</time>
      </trkpt>
      <trkpt lat="42.59118" lon="2.23925">
        <ele>1122</ele>
        <time>2014-05-09T09:02:24Z</time>
      </trkpt>
      <trkpt lat="42.5912" lon="2.23927">
        <ele>1122.96</ele>
        <time>2014-05-09T09:02:30Z</time>
      </trkpt>
      <trkpt lat="42.59121" lon="2.23928">
        <ele>1122</ele>
        <time>2014-05-09T09:02:42Z</time>
      </trkpt>
      <trkpt lat="42.59122" lon="2.23927">
        <ele>1122.96</ele>
        <time>2014-05-09T09:03:17Z</time>
      </trkpt>
      <trkpt lat="42.59122" lon="2.23927">
        <ele>1122.96</ele>
        <time>2014-05-09T09:03:23Z</time>
      </trkpt>
      <trkpt lat="42.59122" lon="2.23927">
        <ele>1123.44</ele>
        <time>2014-05-09T09:03:25Z</time>
      </trkpt>
      <trkpt lat="42.59124" lon="2.23936">
        <ele>1123.92</ele>
        <time>2014-05-09T09:03:30Z</time>
      </trkpt>
      <trkpt lat="42.59124" lon="2.23938">
        <ele>1123.44</ele>
        <time>2014-05-09T09:03:39Z</time>
      </trkpt>
      <trkpt lat="42.59126" lon="2.23942">
        <ele>1123.92</ele>
        <time>2014-05-09T09:03:50Z</time>
      </trkpt>
      <trkpt lat="42.59128" lon="2.23946">
        <ele>1124.88</ele>
        <time>2014-05-09T09:03:54Z</time>
      </trkpt>
      <trkpt lat="42.5913" lon="2.23951">
        <ele>1124.88</ele>
        <time>2014-05-09T09:04:01Z</time>
      </trkpt>
      <trkpt lat="42.59129" lon="2.23952">
        <ele>1124.88</ele>
        <time>2014-05-09T09:04:09Z</time>
      </trkpt>
      <trkpt lat="42.59123" lon="2.2396">
        <ele>1124.88</ele>
        <time>2014-05-09T09:04:19Z</time>
      </trkpt>
      <trkpt lat="42.59123" lon="2.23961">
        <ele>1125.36</ele>
        <time>2014-05-09T09:04:25Z</time>
      </trkpt>
      <trkpt lat="42.59123" lon="2.23961">
        <ele>1125.84</ele>
        <time>2014-05-09T09:04:31Z</time>
      </trkpt>
      <trkpt lat="42.59123" lon="2.23961">
        <ele>1126.8</ele>
        <time>2014-05-09T09:04:38Z</time>
      </trkpt>
      <trkpt lat="42.59126" lon="2.23964">
        <ele>1126.8</ele>
        <time>2014-05-09T09:04:46Z</time>
      </trkpt>
      <trkpt lat="42.5913" lon="2.23967">
        <ele>1127.28</ele>
        <time>2014-05-09T09:04:52Z</time>
      </trkpt>
      <trkpt lat="42.59136" lon="2.23969">
        <ele>1128.24</ele>
        <time>2014-05-09T09:05:00Z</time>
      </trkpt>
      <trkpt lat="42.59146" lon="2.2397">
        <ele>1128.73</ele>
        <time>2014-05-09T09:05:07Z</time>
      </trkpt>
      <trkpt lat="42.59156" lon="2.23974">
        <ele>1129.21</ele>
        <time>2014-05-09T09:05:15Z</time>
      </trkpt>
      <trkpt lat="42.59165" lon="2.23976">
        <ele>1129.69</ele>
        <time>2014-05-09T09:05:22Z</time>
      </trkpt>
      <trkpt lat="42.59178" lon="2.23982">
        <ele>1130.65</ele>
        <time>2014-05-09T09:05:30Z</time>
      </trkpt>
      <trkpt lat="42.59187" lon="2.23985">
        <ele>1131.13</ele>
        <time>2014-05-09T09:05:37Z</time>
      </trkpt>
      <trkpt lat="42.59191" lon="2.23987">
        <ele>1131.13</ele>
        <time>2014-05-09T09:05:43Z</time>
      </trkpt>
      <trkpt lat="42.59198" lon="2.23985">
        <ele>1132.09</ele>
        <time>2014-05-09T09:05:48Z</time>
      </trkpt>
      <trkpt lat="42.59206" lon="2.23983">
        <ele>1132.57</ele>
        <time>2014-05-09T09:05:54Z</time>
      </trkpt>
      <trkpt lat="42.5921" lon="2.2398">
        <ele>1133.05</ele>
        <time>2014-05-09T09:06:00Z</time>
      </trkpt>
      <trkpt lat="42.59215" lon="2.23975">
        <ele>1134.01</ele>
        <time>2014-05-09T09:06:08Z</time>
      </trkpt>
      <trkpt lat="42.59223" lon="2.23973">
        <ele>1134.97</ele>
        <time>2014-05-09T09:06:17Z</time>
      </trkpt>
      <trkpt lat="42.59224" lon="2.23969">
        <ele>1135.45</ele>
        <time>2014-05-09T09:06:23Z</time>
      </trkpt>
      <trkpt lat="42.59227" lon="2.23969">
        <ele>1136.9</ele>
        <time>2014-05-09T09:06:30Z</time>
      </trkpt>
      <trkpt lat="42.59231" lon="2.23967">
        <ele>1137.38</ele>
        <time>2014-05-09T09:06:38Z</time>
      </trkpt>
      <trkpt lat="42.59234" lon="2.23963">
        <ele>1137.38</ele>
        <time>2014-05-09T09:06:44Z</time>
      </trkpt>
      <trkpt lat="42.59238" lon="2.2396">
        <ele>1138.82</ele>
        <time>2014-05-09T09:06:51Z</time>
      </trkpt>
      <trkpt lat="42.59238" lon="2.2396">
        <ele>1139.3</ele>
        <time>2014-05-09T09:06:59Z</time>
      </trkpt>
      <trkpt lat="42.5924" lon="2.23955">
        <ele>1139.3</ele>
        <time>2014-05-09T09:07:03Z</time>
      </trkpt>
      <trkpt lat="42.59249" lon="2.2395">
        <ele>1140.26</ele>
        <time>2014-05-09T09:07:10Z</time>
      </trkpt>
      <trkpt lat="42.59255" lon="2.23946">
        <ele>1140.74</ele>
        <time>2014-05-09T09:07:15Z</time>
      </trkpt>
      <trkpt lat="42.59258" lon="2.23943">
        <ele>1141.22</ele>
        <time>2014-05-09T09:07:19Z</time>
      </trkpt>
      <trkpt lat="42.59265" lon="2.23933">
        <ele>1142.18</ele>
        <time>2014-05-09T09:07:28Z</time>
      </trkpt>
      <trkpt lat="42.59271" lon="2.23924">
        <ele>1143.63</ele>
        <time>2014-05-09T09:07:36Z</time>
      </trkpt>
      <trkpt lat="42.59277" lon="2.23921">
        <ele>1144.11</ele>
        <time>2014-05-09T09:07:44Z</time>
      </trkpt>
      <trkpt lat="42.5928" lon="2.23915">
        <ele>1146.03</ele>
        <time>2014-05-09T09:07:52Z</time>
      </trkpt>
      <trkpt lat="42.59286" lon="2.23913">
        <ele>1146.03</ele>
        <time>2014-05-09T09:07:59Z</time>
      </trkpt>
      <trkpt lat="42.59293" lon="2.23907">
        <ele>1146.99</ele>
        <time>2014-05-09T09:08:06Z</time>
      </trkpt>
      <trkpt lat="42.59295" lon="2.239">
        <ele>1147.47</ele>
        <time>2014-05-09T09:08:13Z</time>
      </trkpt>
      <trkpt lat="42.59297" lon="2.23892">
        <ele>1148.91</ele>
        <time>2014-05-09T09:08:23Z</time>
      </trkpt>
      <trkpt lat="42.59302" lon="2.23889">
        <ele>1149.87</ele>
        <time>2014-05-09T09:08:29Z</time>
      </trkpt>
      <trkpt lat="42.59311" lon="2.23888">
        <ele>1150.84</ele>
        <time>2014-05-09T09:08:36Z</time>
      </trkpt>
      <trkpt lat="42.59315" lon="2.23886">
        <ele>1151.32</ele>
        <time>2014-05-09T09:08:41Z</time>
      </trkpt>
      <trkpt lat="42.59318" lon="2.23881">
        <ele>1152.28</ele>
        <time>2014-05-09T09:08:48Z</time>
      </trkpt>
      <trkpt lat="42.59323" lon="2.23876">
        <ele>1153.24</ele>
        <time>2014-05-09T09:08:55Z</time>
      </trkpt>
      <trkpt lat="42.59327" lon="2.2387">
        <ele>1153.72</ele>
        <time>2014-05-09T09:09:03Z</time>
      </trkpt>
      <trkpt lat="42.5933" lon="2.23862">
        <ele>1154.68</ele>
        <time>2014-05-09T09:09:10Z</time>
      </trkpt>
      <trkpt lat="42.59334" lon="2.23856">
        <ele>1155.64</ele>
        <time>2014-05-09T09:09:19Z</time>
      </trkpt>
      <trkpt lat="42.59336" lon="2.23855">
        <ele>1156.6</ele>
        <time>2014-05-09T09:09:25Z</time>
      </trkpt>
      <trkpt lat="42.59338" lon="2.23851">
        <ele>1157.56</ele>
        <time>2014-05-09T09:09:32Z</time>
      </trkpt>
      <trkpt lat="42.59342" lon="2.23848">
        <ele>1158.05</ele>
        <time>2014-05-09T09:09:39Z</time>
      </trkpt>
      <trkpt lat="42.59346" lon="2.23844">
        <ele>1159.01</ele>
        <time>2014-05-09T09:09:44Z</time>
      </trkpt>
      <trkpt lat="42.59347" lon="2.23842">
        <ele>1159.97</ele>
        <time>2014-05-09T09:09:52Z</time>
      </trkpt>
      <trkpt lat="42.59347" lon="2.23842">
        <ele>1160.45</ele>
        <time>2014-05-09T09:09:59Z</time>
      </trkpt>
      <trkpt lat="42.59347" lon="2.23842">
        <ele>1161.41</ele>
        <time>2014-05-09T09:10:07Z</time>
      </trkpt>
      <trkpt lat="42.59348" lon="2.2384">
        <ele>1161.89</ele>
        <time>2014-05-09T09:10:14Z</time>
      </trkpt>
      <trkpt lat="42.5935" lon="2.23838">
        <ele>1162.37</ele>
        <time>2014-05-09T09:10:20Z</time>
      </trkpt>
      <trkpt lat="42.5935" lon="2.23836">
        <ele>1162.85</ele>
        <time>2014-05-09T09:10:27Z</time>
      </trkpt>
      <trkpt lat="42.59353" lon="2.23831">
        <ele>1163.81</ele>
        <time>2014-05-09T09:10:34Z</time>
      </trkpt>
      <trkpt lat="42.59358" lon="2.2382">
        <ele>1164.77</ele>
        <time>2014-05-09T09:10:40Z</time>
      </trkpt>
      <trkpt lat="42.59358" lon="2.2382">
        <ele>1165.26</ele>
        <time>2014-05-09T09:10:49Z</time>
      </trkpt>
      <trkpt lat="42.59358" lon="2.2382">
        <ele>1166.22</ele>
        <time>2014-05-09T09:10:56Z</time>
      </trkpt>
      <trkpt lat="42.59358" lon="2.2382">
        <ele>1166.7</ele>
        <time>2014-05-09T09:11:03Z</time>
      </trkpt>
      <trkpt lat="42.59358" lon="2.2382">
        <ele>1167.18</ele>
        <time>2014-05-09T09:11:09Z</time>
      </trkpt>
      <trkpt lat="42.59358" lon="2.2382">
        <ele>1168.62</ele>
        <time>2014-05-09T09:11:17Z</time>
      </trkpt>
      <trkpt lat="42.59358" lon="2.23816">
        <ele>1169.1</ele>
        <time>2014-05-09T09:11:25Z</time>
      </trkpt>
      <trkpt lat="42.59358" lon="2.23816">
        <ele>1169.1</ele>
        <time>2014-05-09T09:11:36Z</time>
      </trkpt>
      <trkpt lat="42.59358" lon="2.23816">
        <ele>1169.1</ele>
        <time>2014-05-09T09:11:40Z</time>
      </trkpt>
      <trkpt lat="42.59361" lon="2.23811">
        <ele>1169.1</ele>
        <time>2014-05-09T09:11:42Z</time>
      </trkpt>
      <trkpt lat="42.59372" lon="2.23796">
        <ele>1169.58</ele>
        <time>2014-05-09T09:11:51Z</time>
      </trkpt>
      <trkpt lat="42.59374" lon="2.23794">
        <ele>1169.58</ele>
        <time>2014-05-09T09:11:57Z</time>
      </trkpt>
      <trkpt lat="42.59375" lon="2.23795">
        <ele>1169.58</ele>
        <time>2014-05-09T09:12:13Z</time>
      </trkpt>
      <trkpt lat="42.59382" lon="2.23791">
        <ele>1169.58</ele>
        <time>2014-05-09T09:12:29Z</time>
      </trkpt>
      <trkpt lat="42.59394" lon="2.23786">
        <ele>1170.06</ele>
        <time>2014-05-09T09:12:36Z</time>
      </trkpt>
      <trkpt lat="42.59395" lon="2.23785">
        <ele>1170.54</ele>
        <time>2014-05-09T09:12:41Z</time>
      </trkpt>
      <trkpt lat="42.59395" lon="2.23785">
        <ele>1171.02</ele>
        <time>2014-05-09T09:12:50Z</time>
      </trkpt>
      <trkpt lat="42.59395" lon="2.23785">
        <ele>1171.5</ele>
        <time>2014-05-09T09:12:57Z</time>
      </trkpt>
      <trkpt lat="42.59397" lon="2.23786">
        <ele>1171.02</ele>
        <time>2014-05-09T09:13:11Z</time>
      </trkpt>
      <trkpt lat="42.59409" lon="2.23788">
        <ele>1171.98</ele>
        <time>2014-05-09T09:13:19Z</time>
      </trkpt>
      <trkpt lat="42.59419" lon="2.23786">
        <ele>1172.95</ele>
        <time>2014-05-09T09:13:27Z</time>
      </trkpt>
      <trkpt lat="42.59427" lon="2.23785">
        <ele>1173.43</ele>
        <time>2014-05-09T09:13:35Z</time>
      </trkpt>
      <trkpt lat="42.59434" lon="2.23788">
        <ele>1173.91</ele>
        <time>2014-05-09T09:13:42Z</time>
      </trkpt>
      <trkpt lat="42.59438" lon="2.23786">
        <ele>1174.87</ele>
        <time>2014-05-09T09:13:54Z</time>
      </trkpt>
      <trkpt lat="42.5944" lon="2.23786">
        <ele>1175.35</ele>
        <time>2014-05-09T09:14:08Z</time>
      </trkpt>
      <trkpt lat="42.5944" lon="2.23786">
        <ele>1174.39</ele>
        <time>2014-05-09T09:14:41Z</time>
      </trkpt>
      <trkpt lat="42.59447" lon="2.23786">
        <ele>1174.39</ele>
        <time>2014-05-09T09:16:39Z</time>
      </trkpt>
      <trkpt lat="42.59451" lon="2.23785">
        <ele>1175.83</ele>
        <time>2014-05-09T09:16:46Z</time>
      </trkpt>
      <trkpt lat="42.59454" lon="2.23784">
        <ele>1176.31</ele>
        <time>2014-05-09T09:16:52Z</time>
      </trkpt>
      <trkpt lat="42.59455" lon="2.23783">
        <ele>1177.27</ele>
        <time>2014-05-09T09:16:57Z</time>
      </trkpt>
      <trkpt lat="42.59458" lon="2.23782">
        <ele>1177.75</ele>
        <time>2014-05-09T09:17:03Z</time>
      </trkpt>
      <trkpt lat="42.5946" lon="2.23779">
        <ele>1178.23</ele>
        <time>2014-05-09T09:17:13Z</time>
      </trkpt>
      <trkpt lat="42.59462" lon="2.2378">
        <ele>1178.71</ele>
        <time>2014-05-09T09:17:25Z</time>
      </trkpt>
      <trkpt lat="42.59463" lon="2.23779">
        <ele>1180.16</ele>
        <time>2014-05-09T09:17:33Z</time>
      </trkpt>
      <trkpt lat="42.59465" lon="2.23778">
        <ele>1179.19</ele>
        <time>2014-05-09T09:17:41Z</time>
      </trkpt>
      <trkpt lat="42.59467" lon="2.23777">
        <ele>1180.64</ele>
        <time>2014-05-09T09:17:47Z</time>
      </trkpt>
      <trkpt lat="42.59476" lon="2.23773">
        <ele>1181.12</ele>
        <time>2014-05-09T09:17:53Z</time>
      </trkpt>
      <trkpt lat="42.59481" lon="2.23769">
        <ele>1181.6</ele>
        <time>2014-05-09T09:18:01Z</time>
      </trkpt>
      <trkpt lat="42.59487" lon="2.23758">
        <ele>1182.56</ele>
        <time>2014-05-09T09:18:09Z</time>
      </trkpt>
      <trkpt lat="42.59492" lon="2.23752">
        <ele>1182.08</ele>
        <time>2014-05-09T09:18:16Z</time>
      </trkpt>
      <trkpt lat="42.59499" lon="2.23744">
        <ele>1182.56</ele>
        <time>2014-05-09T09:18:25Z</time>
      </trkpt>
      <trkpt lat="42.59502" lon="2.23743">
        <ele>1182.56</ele>
        <time>2014-05-09T09:18:31Z</time>
      </trkpt>
      <trkpt lat="42.59509" lon="2.2374">
        <ele>1183.04</ele>
        <time>2014-05-09T09:18:40Z</time>
      </trkpt>
      <trkpt lat="42.59514" lon="2.23738">
        <ele>1184.48</ele>
        <time>2014-05-09T09:18:47Z</time>
      </trkpt>
      <trkpt lat="42.59517" lon="2.23736">
        <ele>1184</ele>
        <time>2014-05-09T09:18:58Z</time>
      </trkpt>
      <trkpt lat="42.59519" lon="2.23734">
        <ele>1184.48</ele>
        <time>2014-05-09T09:19:14Z</time>
      </trkpt>
      <trkpt lat="42.59519" lon="2.23734">
        <ele>1184.48</ele>
        <time>2014-05-09T09:19:31Z</time>
      </trkpt>
      <trkpt lat="42.59522" lon="2.23726">
        <ele>1185.44</ele>
        <time>2014-05-09T09:19:38Z</time>
      </trkpt>
      <trkpt lat="42.59524" lon="2.2372">
        <ele>1185.44</ele>
        <time>2014-05-09T09:19:44Z</time>
      </trkpt>
      <trkpt lat="42.59524" lon="2.2372">
        <ele>1185.92</ele>
        <time>2014-05-09T09:19:56Z</time>
      </trkpt>
      <trkpt lat="42.59527" lon="2.23714">
        <ele>1186.4</ele>
        <time>2014-05-09T09:20:08Z</time>
      </trkpt>
      <trkpt lat="42.59529" lon="2.23705">
        <ele>1186.88</ele>
        <time>2014-05-09T09:20:18Z</time>
      </trkpt>
      <trkpt lat="42.59529" lon="2.23701">
        <ele>1187.85</ele>
        <time>2014-05-09T09:20:25Z</time>
      </trkpt>
      <trkpt lat="42.5953" lon="2.23697">
        <ele>1188.81</ele>
        <time>2014-05-09T09:20:32Z</time>
      </trkpt>
      <trkpt lat="42.59527" lon="2.2369">
        <ele>1188.81</ele>
        <time>2014-05-09T09:20:39Z</time>
      </trkpt>
      <trkpt lat="42.59524" lon="2.23677">
        <ele>1188.81</ele>
        <time>2014-05-09T09:20:47Z</time>
      </trkpt>
      <trkpt lat="42.59522" lon="2.23668">
        <ele>1188.33</ele>
        <time>2014-05-09T09:20:55Z</time>
      </trkpt>
      <trkpt lat="42.59519" lon="2.23662">
        <ele>1189.29</ele>
        <time>2014-05-09T09:21:01Z</time>
      </trkpt>
      <trkpt lat="42.59511" lon="2.23651">
        <ele>1189.29</ele>
        <time>2014-05-09T09:21:10Z</time>
      </trkpt>
      <trkpt lat="42.59507" lon="2.23646">
        <ele>1189.77</ele>
        <time>2014-05-09T09:21:17Z</time>
      </trkpt>
      <trkpt lat="42.59501" lon="2.23637">
        <ele>1188.81</ele>
        <time>2014-05-09T09:21:25Z</time>
      </trkpt>
      <trkpt lat="42.59496" lon="2.23629">
        <ele>1189.29</ele>
        <time>2014-05-09T09:21:33Z</time>
      </trkpt>
      <trkpt lat="42.59491" lon="2.23623">
        <ele>1189.77</ele>
        <time>2014-05-09T09:21:41Z</time>
      </trkpt>
      <trkpt lat="42.59487" lon="2.23617">
        <ele>1189.77</ele>
        <time>2014-05-09T09:21:48Z</time>
      </trkpt>
      <trkpt lat="42.59485" lon="2.23613">
        <ele>1189.77</ele>
        <time>2014-05-09T09:21:55Z</time>
      </trkpt>
      <trkpt lat="42.59483" lon="2.23609">
        <ele>1189.77</ele>
        <time>2014-05-09T09:22:01Z</time>
      </trkpt>
      <trkpt lat="42.59478" lon="2.23594">
        <ele>1190.25</ele>
        <time>2014-05-09T09:22:07Z</time>
      </trkpt>
      <trkpt lat="42.59472" lon="2.23585">
        <ele>1189.77</ele>
        <time>2014-05-09T09:22:14Z</time>
      </trkpt>
      <trkpt lat="42.59469" lon="2.23581">
        <ele>1189.77</ele>
        <time>2014-05-09T09:22:18Z</time>
      </trkpt>
      <trkpt lat="42.59465" lon="2.23571">
        <ele>1189.29</ele>
        <time>2014-05-09T09:22:26Z</time>
      </trkpt>
      <trkpt lat="42.59465" lon="2.23564">
        <ele>1189.29</ele>
        <time>2014-05-09T09:22:33Z</time>
      </trkpt>
      <trkpt lat="42.59464" lon="2.23552">
        <ele>1189.77</ele>
        <time>2014-05-09T09:22:41Z</time>
      </trkpt>
      <trkpt lat="42.59464" lon="2.23552">
        <ele>1189.29</ele>
        <time>2014-05-09T09:22:42Z</time>
      </trkpt>
      <trkpt lat="42.59465" lon="2.23539">
        <ele>1189.77</ele>
        <time>2014-05-09T09:22:48Z</time>
      </trkpt>
      <trkpt lat="42.59465" lon="2.23535">
        <ele>1190.25</ele>
        <time>2014-05-09T09:22:51Z</time>
      </trkpt>
      <trkpt lat="42.5947" lon="2.23527">
        <ele>1190.25</ele>
        <time>2014-05-09T09:22:59Z</time>
      </trkpt>
      <trkpt lat="42.59471" lon="2.23526">
        <ele>1190.73</ele>
        <time>2014-05-09T09:23:00Z</time>
      </trkpt>
      <trkpt lat="42.59475" lon="2.23511">
        <ele>1190.25</ele>
        <time>2014-05-09T09:23:10Z</time>
      </trkpt>
      <trkpt lat="42.59476" lon="2.23506">
        <ele>1190.25</ele>
        <time>2014-05-09T09:23:18Z</time>
      </trkpt>
      <trkpt lat="42.59476" lon="2.23505">
        <ele>1190.73</ele>
        <time>2014-05-09T09:23:28Z</time>
      </trkpt>
      <trkpt lat="42.59476" lon="2.23506">
        <ele>1190.73</ele>
        <time>2014-05-09T09:23:49Z</time>
      </trkpt>
      <trkpt lat="42.59475" lon="2.23507">
        <ele>1190.73</ele>
        <time>2014-05-09T09:23:56Z</time>
      </trkpt>
      <trkpt lat="42.59476" lon="2.23503">
        <ele>1190.73</ele>
        <time>2014-05-09T09:24:03Z</time>
      </trkpt>
      <trkpt lat="42.59474" lon="2.235">
        <ele>1190.73</ele>
        <time>2014-05-09T09:24:10Z</time>
      </trkpt>
      <trkpt lat="42.59475" lon="2.235">
        <ele>1190.73</ele>
        <time>2014-05-09T09:24:35Z</time>
      </trkpt>
      <trkpt lat="42.59475" lon="2.23497">
        <ele>1191.21</ele>
        <time>2014-05-09T09:24:43Z</time>
      </trkpt>
      <trkpt lat="42.59476" lon="2.23492">
        <ele>1193.13</ele>
        <time>2014-05-09T09:24:50Z</time>
      </trkpt>
      <trkpt lat="42.59481" lon="2.23488">
        <ele>1193.61</ele>
        <time>2014-05-09T09:24:58Z</time>
      </trkpt>
      <trkpt lat="42.59483" lon="2.23488">
        <ele>1194.09</ele>
        <time>2014-05-09T09:25:12Z</time>
      </trkpt>
      <trkpt lat="42.59486" lon="2.2349">
        <ele>1195.54</ele>
        <time>2014-05-09T09:25:47Z</time>
      </trkpt>
      <trkpt lat="42.59493" lon="2.23492">
        <ele>1196.5</ele>
        <time>2014-05-09T09:25:56Z</time>
      </trkpt>
      <trkpt lat="42.59497" lon="2.23491">
        <ele>1196.5</ele>
        <time>2014-05-09T09:26:02Z</time>
      </trkpt>
      <trkpt lat="42.59502" lon="2.2349">
        <ele>1198.42</ele>
        <time>2014-05-09T09:26:09Z</time>
      </trkpt>
      <trkpt lat="42.5951" lon="2.23491">
        <ele>1198.9</ele>
        <time>2014-05-09T09:26:17Z</time>
      </trkpt>
      <trkpt lat="42.59516" lon="2.23492">
        <ele>1199.38</ele>
        <time>2014-05-09T09:26:24Z</time>
      </trkpt>
      <trkpt lat="42.59521" lon="2.23495">
        <ele>1200.34</ele>
        <time>2014-05-09T09:26:31Z</time>
      </trkpt>
      <trkpt lat="42.59527" lon="2.23496">
        <ele>1201.3</ele>
        <time>2014-05-09T09:26:39Z</time>
      </trkpt>
      <trkpt lat="42.59536" lon="2.23498">
        <ele>1201.79</ele>
        <time>2014-05-09T09:26:46Z</time>
      </trkpt>
      <trkpt lat="42.59538" lon="2.23498">
        <ele>1201.79</ele>
        <time>2014-05-09T09:26:48Z</time>
      </trkpt>
      <trkpt lat="42.59542" lon="2.23502">
        <ele>1202.75</ele>
        <time>2014-05-09T09:26:54Z</time>
      </trkpt>
      <trkpt lat="42.5955" lon="2.23507">
        <ele>1202.27</ele>
        <time>2014-05-09T09:27:01Z</time>
      </trkpt>
      <trkpt lat="42.59556" lon="2.23508">
        <ele>1202.75</ele>
        <time>2014-05-09T09:27:09Z</time>
      </trkpt>
      <trkpt lat="42.59562" lon="2.23507">
        <ele>1204.19</ele>
        <time>2014-05-09T09:27:17Z</time>
      </trkpt>
      <trkpt lat="42.59567" lon="2.23506">
        <ele>1205.63</ele>
        <time>2014-05-09T09:27:24Z</time>
      </trkpt>
      <trkpt lat="42.59571" lon="2.23505">
        <ele>1206.59</ele>
        <time>2014-05-09T09:27:31Z</time>
      </trkpt>
      <trkpt lat="42.59574" lon="2.23505">
        <ele>1206.59</ele>
        <time>2014-05-09T09:27:34Z</time>
      </trkpt>
      <trkpt lat="42.59583" lon="2.23505">
        <ele>1208.03</ele>
        <time>2014-05-09T09:27:43Z</time>
      </trkpt>
      <trkpt lat="42.59592" lon="2.23503">
        <ele>1208.51</ele>
        <time>2014-05-09T09:27:51Z</time>
      </trkpt>
      <trkpt lat="42.59598" lon="2.23503">
        <ele>1209.48</ele>
        <time>2014-05-09T09:27:58Z</time>
      </trkpt>
      <trkpt lat="42.59603" lon="2.23503">
        <ele>1209.48</ele>
        <time>2014-05-09T09:28:04Z</time>
      </trkpt>
      <trkpt lat="42.5961" lon="2.23503">
        <ele>1210.92</ele>
        <time>2014-05-09T09:28:11Z</time>
      </trkpt>
      <trkpt lat="42.59615" lon="2.23502">
        <ele>1211.4</ele>
        <time>2014-05-09T09:28:18Z</time>
      </trkpt>
      <trkpt lat="42.59618" lon="2.23499">
        <ele>1212.36</ele>
        <time>2014-05-09T09:28:25Z</time>
      </trkpt>
      <trkpt lat="42.59624" lon="2.23497">
        <ele>1213.32</ele>
        <time>2014-05-09T09:28:33Z</time>
      </trkpt>
      <trkpt lat="42.59629" lon="2.23494">
        <ele>1214.76</ele>
        <time>2014-05-09T09:28:41Z</time>
      </trkpt>
      <trkpt lat="42.59632" lon="2.23493">
        <ele>1216.21</ele>
        <time>2014-05-09T09:28:48Z</time>
      </trkpt>
      <trkpt lat="42.59635" lon="2.23493">
        <ele>1216.69</ele>
        <time>2014-05-09T09:28:54Z</time>
      </trkpt>
      <trkpt lat="42.59642" lon="2.23495">
        <ele>1218.13</ele>
        <time>2014-05-09T09:29:04Z</time>
      </trkpt>
      <trkpt lat="42.59645" lon="2.23499">
        <ele>1218.61</ele>
        <time>2014-05-09T09:29:09Z</time>
      </trkpt>
      <trkpt lat="42.5965" lon="2.23502">
        <ele>1219.09</ele>
        <time>2014-05-09T09:29:15Z</time>
      </trkpt>
      <trkpt lat="42.59655" lon="2.23507">
        <ele>1219.57</ele>
        <time>2014-05-09T09:29:21Z</time>
      </trkpt>
      <trkpt lat="42.59661" lon="2.23511">
        <ele>1220.05</ele>
        <time>2014-05-09T09:29:28Z</time>
      </trkpt>
      <trkpt lat="42.59667" lon="2.23514">
        <ele>1220.53</ele>
        <time>2014-05-09T09:29:35Z</time>
      </trkpt>
      <trkpt lat="42.59677" lon="2.23521">
        <ele>1221.01</ele>
        <time>2014-05-09T09:29:45Z</time>
      </trkpt>
      <trkpt lat="42.59684" lon="2.23524">
        <ele>1221.49</ele>
        <time>2014-05-09T09:29:53Z</time>
      </trkpt>
      <trkpt lat="42.59692" lon="2.2353">
        <ele>1222.45</ele>
        <time>2014-05-09T09:30:01Z</time>
      </trkpt>
      <trkpt lat="42.59698" lon="2.2353">
        <ele>1222.45</ele>
        <time>2014-05-09T09:30:09Z</time>
      </trkpt>
      <trkpt lat="42.59706" lon="2.23533">
        <ele>1223.42</ele>
        <time>2014-05-09T09:30:16Z</time>
      </trkpt>
      <trkpt lat="42.5971" lon="2.23532">
        <ele>1224.86</ele>
        <time>2014-05-09T09:30:24Z</time>
      </trkpt>
      <trkpt lat="42.59715" lon="2.23531">
        <ele>1226.3</ele>
        <time>2014-05-09T09:30:30Z</time>
      </trkpt>
      <trkpt lat="42.59721" lon="2.23529">
        <ele>1226.3</ele>
        <time>2014-05-09T09:30:38Z</time>
      </trkpt>
      <trkpt lat="42.59728" lon="2.23531">
        <ele>1227.26</ele>
        <time>2014-05-09T09:30:45Z</time>
      </trkpt>
      <trkpt lat="42.59731" lon="2.23531">
        <ele>1227.74</ele>
        <time>2014-05-09T09:30:52Z</time>
      </trkpt>
      <trkpt lat="42.59738" lon="2.23532">
        <ele>1228.7</ele>
        <time>2014-05-09T09:30:58Z</time>
      </trkpt>
      <trkpt lat="42.59742" lon="2.23533">
        <ele>1230.14</ele>
        <time>2014-05-09T09:31:05Z</time>
      </trkpt>
      <trkpt lat="42.5975" lon="2.23533">
        <ele>1230.62</ele>
        <time>2014-05-09T09:31:13Z</time>
      </trkpt>
      <trkpt lat="42.59755" lon="2.23534">
        <ele>1231.59</ele>
        <time>2014-05-09T09:31:21Z</time>
      </trkpt>
      <trkpt lat="42.59758" lon="2.23534">
        <ele>1233.03</ele>
        <time>2014-05-09T09:31:27Z</time>
      </trkpt>
      <trkpt lat="42.59763" lon="2.23536">
        <ele>1233.51</ele>
        <time>2014-05-09T09:31:33Z</time>
      </trkpt>
      <trkpt lat="42.59771" lon="2.23537">
        <ele>1234.47</ele>
        <time>2014-05-09T09:31:40Z</time>
      </trkpt>
      <trkpt lat="42.59779" lon="2.23541">
        <ele>1234.95</ele>
        <time>2014-05-09T09:31:47Z</time>
      </trkpt>
      <trkpt lat="42.59788" lon="2.23543">
        <ele>1235.91</ele>
        <time>2014-05-09T09:31:55Z</time>
      </trkpt>
      <trkpt lat="42.59794" lon="2.23543">
        <ele>1236.87</ele>
        <time>2014-05-09T09:32:03Z</time>
      </trkpt>
      <trkpt lat="42.598" lon="2.23542">
        <ele>1237.35</ele>
        <time>2014-05-09T09:32:10Z</time>
      </trkpt>
      <trkpt lat="42.59805" lon="2.2354">
        <ele>1237.35</ele>
        <time>2014-05-09T09:32:17Z</time>
      </trkpt>
      <trkpt lat="42.5981" lon="2.23538">
        <ele>1239.28</ele>
        <time>2014-05-09T09:32:30Z</time>
      </trkpt>
      <trkpt lat="42.59814" lon="2.23532">
        <ele>1240.24</ele>
        <time>2014-05-09T09:32:38Z</time>
      </trkpt>
      <trkpt lat="42.59817" lon="2.23528">
        <ele>1240.72</ele>
        <time>2014-05-09T09:32:47Z</time>
      </trkpt>
      <trkpt lat="42.59818" lon="2.23529">
        <ele>1240.72</ele>
        <time>2014-05-09T09:33:14Z</time>
      </trkpt>
      <trkpt lat="42.59818" lon="2.2353">
        <ele>1240.24</ele>
        <time>2014-05-09T09:34:13Z</time>
      </trkpt>
      <trkpt lat="42.59818" lon="2.23531">
        <ele>1240.24</ele>
        <time>2014-05-09T09:34:29Z</time>
      </trkpt>
      <trkpt lat="42.59818" lon="2.23528">
        <ele>1240.24</ele>
        <time>2014-05-09T09:34:44Z</time>
      </trkpt>
      <trkpt lat="42.59822" lon="2.23524">
        <ele>1240.72</ele>
        <time>2014-05-09T09:34:59Z</time>
      </trkpt>
      <trkpt lat="42.59828" lon="2.23516">
        <ele>1241.68</ele>
        <time>2014-05-09T09:35:06Z</time>
      </trkpt>
      <trkpt lat="42.59831" lon="2.23513">
        <ele>1242.16</ele>
        <time>2014-05-09T09:35:12Z</time>
      </trkpt>
      <trkpt lat="42.59836" lon="2.23511">
        <ele>1243.6</ele>
        <time>2014-05-09T09:35:19Z</time>
      </trkpt>
      <trkpt lat="42.59839" lon="2.23505">
        <ele>1244.08</ele>
        <time>2014-05-09T09:35:26Z</time>
      </trkpt>
      <trkpt lat="42.59844" lon="2.23502">
        <ele>1244.56</ele>
        <time>2014-05-09T09:35:31Z</time>
      </trkpt>
      <trkpt lat="42.59847" lon="2.23494">
        <ele>1245.04</ele>
        <time>2014-05-09T09:35:38Z</time>
      </trkpt>
      <trkpt lat="42.59849" lon="2.23485">
        <ele>1245.53</ele>
        <time>2014-05-09T09:35:45Z</time>
      </trkpt>
      <trkpt lat="42.5985" lon="2.23484">
        <ele>1245.53</ele>
        <time>2014-05-09T09:35:46Z</time>
      </trkpt>
      <trkpt lat="42.59855" lon="2.23477">
        <ele>1246.01</ele>
        <time>2014-05-09T09:35:53Z</time>
      </trkpt>
      <trkpt lat="42.59859" lon="2.23472">
        <ele>1247.45</ele>
        <time>2014-05-09T09:36:00Z</time>
      </trkpt>
      <trkpt lat="42.59861" lon="2.23467">
        <ele>1248.89</ele>
        <time>2014-05-09T09:36:08Z</time>
      </trkpt>
      <trkpt lat="42.59864" lon="2.2346">
        <ele>1249.85</ele>
        <time>2014-05-09T09:36:15Z</time>
      </trkpt>
      <trkpt lat="42.59864" lon="2.23459">
        <ele>1250.33</ele>
        <time>2014-05-09T09:36:16Z</time>
      </trkpt>
      <trkpt lat="42.59866" lon="2.23456">
        <ele>1251.29</ele>
        <time>2014-05-09T09:36:23Z</time>
      </trkpt>
      <trkpt lat="42.59867" lon="2.23455">
        <ele>1251.29</ele>
        <time>2014-05-09T09:36:33Z</time>
      </trkpt>
      <trkpt lat="42.59867" lon="2.2345">
        <ele>1251.77</ele>
        <time>2014-05-09T09:36:39Z</time>
      </trkpt>
      <trkpt lat="42.59868" lon="2.23451">
        <ele>1251.29</ele>
        <time>2014-05-09T09:36:55Z</time>
      </trkpt>
      <trkpt lat="42.59869" lon="2.2345">
        <ele>1252.25</ele>
        <time>2014-05-09T09:37:02Z</time>
      </trkpt>
      <trkpt lat="42.59869" lon="2.2345">
        <ele>1252.25</ele>
        <time>2014-05-09T09:38:09Z</time>
      </trkpt>
      <trkpt lat="42.59869" lon="2.2345">
        <ele>1252.74</ele>
        <time>2014-05-09T09:38:35Z</time>
      </trkpt>
      <trkpt lat="42.5987" lon="2.2345">
        <ele>1253.22</ele>
        <time>2014-05-09T09:38:45Z</time>
      </trkpt>
      <trkpt lat="42.59873" lon="2.23452">
        <ele>1254.66</ele>
        <time>2014-05-09T09:38:56Z</time>
      </trkpt>
      <trkpt lat="42.59874" lon="2.23459">
        <ele>1256.1</ele>
        <time>2014-05-09T09:39:05Z</time>
      </trkpt>
      <trkpt lat="42.59875" lon="2.23468">
        <ele>1257.06</ele>
        <time>2014-05-09T09:39:14Z</time>
      </trkpt>
      <trkpt lat="42.59877" lon="2.23475">
        <ele>1258.5</ele>
        <time>2014-05-09T09:39:22Z</time>
      </trkpt>
      <trkpt lat="42.59877" lon="2.23477">
        <ele>1258.98</ele>
        <time>2014-05-09T09:39:31Z</time>
      </trkpt>
      <trkpt lat="42.59879" lon="2.2348">
        <ele>1260.91</ele>
        <time>2014-05-09T09:39:51Z</time>
      </trkpt>
      <trkpt lat="42.59882" lon="2.23487">
        <ele>1261.39</ele>
        <time>2014-05-09T09:39:57Z</time>
      </trkpt>
      <trkpt lat="42.59886" lon="2.23491">
        <ele>1262.35</ele>
        <time>2014-05-09T09:40:04Z</time>
      </trkpt>
      <trkpt lat="42.59891" lon="2.23495">
        <ele>1262.35</ele>
        <time>2014-05-09T09:40:11Z</time>
      </trkpt>
      <trkpt lat="42.59893" lon="2.23497">
        <ele>1262.35</ele>
        <time>2014-05-09T09:40:19Z</time>
      </trkpt>
      <trkpt lat="42.59898" lon="2.23494">
        <ele>1261.87</ele>
        <time>2014-05-09T09:40:27Z</time>
      </trkpt>
      <trkpt lat="42.59902" lon="2.23491">
        <ele>1263.31</ele>
        <time>2014-05-09T09:40:35Z</time>
      </trkpt>
      <trkpt lat="42.59903" lon="2.2349">
        <ele>1262.83</ele>
        <time>2014-05-09T09:40:38Z</time>
      </trkpt>
      <trkpt lat="42.5991" lon="2.2349">
        <ele>1263.31</ele>
        <time>2014-05-09T09:40:45Z</time>
      </trkpt>
      <trkpt lat="42.59916" lon="2.23492">
        <ele>1263.31</ele>
        <time>2014-05-09T09:40:53Z</time>
      </trkpt>
      <trkpt lat="42.59923" lon="2.2349">
        <ele>1264.75</ele>
        <time>2014-05-09T09:41:02Z</time>
      </trkpt>
      <trkpt lat="42.59928" lon="2.23489">
        <ele>1265.71</ele>
        <time>2014-05-09T09:41:08Z</time>
      </trkpt>
      <trkpt lat="42.59928" lon="2.23489">
        <ele>1266.19</ele>
        <time>2014-05-09T09:41:12Z</time>
      </trkpt>
      <trkpt lat="42.59933" lon="2.23488">
        <ele>1267.16</ele>
        <time>2014-05-09T09:41:19Z</time>
      </trkpt>
      <trkpt lat="42.59938" lon="2.23488">
        <ele>1269.08</ele>
        <time>2014-05-09T09:41:28Z</time>
      </trkpt>
      <trkpt lat="42.59944" lon="2.23489">
        <ele>1270.52</ele>
        <time>2014-05-09T09:41:35Z</time>
      </trkpt>
      <trkpt lat="42.59947" lon="2.23487">
        <ele>1271.48</ele>
        <time>2014-05-09T09:41:43Z</time>
      </trkpt>
      <trkpt lat="42.59951" lon="2.23489">
        <ele>1272.92</ele>
        <time>2014-05-09T09:41:50Z</time>
      </trkpt>
      <trkpt lat="42.59952" lon="2.2349">
        <ele>1272.92</ele>
        <time>2014-05-09T09:41:52Z</time>
      </trkpt>
      <trkpt lat="42.59959" lon="2.2349">
        <ele>1273.88</ele>
        <time>2014-05-09T09:42:00Z</time>
      </trkpt>
      <trkpt lat="42.59965" lon="2.23495">
        <ele>1275.33</ele>
        <time>2014-05-09T09:42:07Z</time>
      </trkpt>
      <trkpt lat="42.59971" lon="2.235">
        <ele>1275.81</ele>
        <time>2014-05-09T09:42:14Z</time>
      </trkpt>
      <trkpt lat="42.59977" lon="2.23505">
        <ele>1275.81</ele>
        <time>2014-05-09T09:42:22Z</time>
      </trkpt>
      <trkpt lat="42.59983" lon="2.23509">
        <ele>1276.29</ele>
        <time>2014-05-09T09:42:29Z</time>
      </trkpt>
      <trkpt lat="42.59987" lon="2.23513">
        <ele>1277.73</ele>
        <time>2014-05-09T09:42:36Z</time>
      </trkpt>
      <trkpt lat="42.59991" lon="2.23514">
        <ele>1278.21</ele>
        <time>2014-05-09T09:42:42Z</time>
      </trkpt>
      <trkpt lat="42.59994" lon="2.23519">
        <ele>1279.65</ele>
        <time>2014-05-09T09:42:49Z</time>
      </trkpt>
      <trkpt lat="42.59998" lon="2.23523">
        <ele>1281.09</ele>
        <time>2014-05-09T09:42:58Z</time>
      </trkpt>
      <trkpt lat="42.60002" lon="2.23527">
        <ele>1282.54</ele>
        <time>2014-05-09T09:43:06Z</time>
      </trkpt>
      <trkpt lat="42.60003" lon="2.23528">
        <ele>1283.02</ele>
        <time>2014-05-09T09:43:15Z</time>
      </trkpt>
      <trkpt lat="42.60006" lon="2.23534">
        <ele>1283.5</ele>
        <time>2014-05-09T09:43:26Z</time>
      </trkpt>
      <trkpt lat="42.60009" lon="2.2354">
        <ele>1285.42</ele>
        <time>2014-05-09T09:43:33Z</time>
      </trkpt>
      <trkpt lat="42.6001" lon="2.23541">
        <ele>1284.94</ele>
        <time>2014-05-09T09:43:41Z</time>
      </trkpt>
      <trkpt lat="42.60011" lon="2.23542">
        <ele>1286.86</ele>
        <time>2014-05-09T09:44:14Z</time>
      </trkpt>
      <trkpt lat="42.6001" lon="2.23539">
        <ele>1287.34</ele>
        <time>2014-05-09T09:44:21Z</time>
      </trkpt>
      <trkpt lat="42.60009" lon="2.23534">
        <ele>1288.78</ele>
        <time>2014-05-09T09:44:27Z</time>
      </trkpt>
      <trkpt lat="42.60006" lon="2.23524">
        <ele>1289.27</ele>
        <time>2014-05-09T09:44:35Z</time>
      </trkpt>
      <trkpt lat="42.60005" lon="2.23514">
        <ele>1290.71</ele>
        <time>2014-05-09T09:44:42Z</time>
      </trkpt>
      <trkpt lat="42.60004" lon="2.23507">
        <ele>1291.67</ele>
        <time>2014-05-09T09:44:50Z</time>
      </trkpt>
      <trkpt lat="42.60003" lon="2.23503">
        <ele>1292.63</ele>
        <time>2014-05-09T09:44:56Z</time>
      </trkpt>
      <trkpt lat="42.60002" lon="2.23501">
        <ele>1294.07</ele>
        <time>2014-05-09T09:45:05Z</time>
      </trkpt>
      <trkpt lat="42.59999" lon="2.23496">
        <ele>1295.99</ele>
        <time>2014-05-09T09:45:12Z</time>
      </trkpt>
      <trkpt lat="42.59999" lon="2.2349">
        <ele>1296.96</ele>
        <time>2014-05-09T09:45:20Z</time>
      </trkpt>
      <trkpt lat="42.59997" lon="2.23484">
        <ele>1297.44</ele>
        <time>2014-05-09T09:45:26Z</time>
      </trkpt>
      <trkpt lat="42.59993" lon="2.23477">
        <ele>1298.4</ele>
        <time>2014-05-09T09:45:34Z</time>
      </trkpt>
      <trkpt lat="42.59992" lon="2.23472">
        <ele>1299.84</ele>
        <time>2014-05-09T09:45:41Z</time>
      </trkpt>
      <trkpt lat="42.59989" lon="2.23465">
        <ele>1300.8</ele>
        <time>2014-05-09T09:45:48Z</time>
      </trkpt>
      <trkpt lat="42.59989" lon="2.23466">
        <ele>1301.76</ele>
        <time>2014-05-09T09:45:55Z</time>
      </trkpt>
      <trkpt lat="42.59988" lon="2.23463">
        <ele>1302.72</ele>
        <time>2014-05-09T09:46:04Z</time>
      </trkpt>
      <trkpt lat="42.59989" lon="2.23461">
        <ele>1302.72</ele>
        <time>2014-05-09T09:46:12Z</time>
      </trkpt>
      <trkpt lat="42.59991" lon="2.23461">
        <ele>1303.2</ele>
        <time>2014-05-09T09:46:28Z</time>
      </trkpt>
      <trkpt lat="42.5999" lon="2.2346">
        <ele>1303.69</ele>
        <time>2014-05-09T09:47:45Z</time>
      </trkpt>
      <trkpt lat="42.59988" lon="2.2346">
        <ele>1303.69</ele>
        <time>2014-05-09T09:48:54Z</time>
      </trkpt>
      <trkpt lat="42.59988" lon="2.2346">
        <ele>1303.69</ele>
        <time>2014-05-09T09:49:29Z</time>
      </trkpt>
      <trkpt lat="42.59989" lon="2.23459">
        <ele>1303.69</ele>
        <time>2014-05-09T09:49:41Z</time>
      </trkpt>
      <trkpt lat="42.59989" lon="2.23459">
        <ele>1303.69</ele>
        <time>2014-05-09T09:50:26Z</time>
      </trkpt>
      <trkpt lat="42.5999" lon="2.23458">
        <ele>1304.65</ele>
        <time>2014-05-09T09:50:50Z</time>
      </trkpt>
      <trkpt lat="42.59991" lon="2.23458">
        <ele>1305.13</ele>
        <time>2014-05-09T09:51:04Z</time>
      </trkpt>
      <trkpt lat="42.59994" lon="2.23458">
        <ele>1305.61</ele>
        <time>2014-05-09T09:51:10Z</time>
      </trkpt>
      <trkpt lat="42.6" lon="2.23458">
        <ele>1306.57</ele>
        <time>2014-05-09T09:51:17Z</time>
      </trkpt>
      <trkpt lat="42.60007" lon="2.23459">
        <ele>1307.53</ele>
        <time>2014-05-09T09:51:24Z</time>
      </trkpt>
      <trkpt lat="42.60009" lon="2.23459">
        <ele>1308.97</ele>
        <time>2014-05-09T09:51:32Z</time>
      </trkpt>
      <trkpt lat="42.60014" lon="2.23458">
        <ele>1310.41</ele>
        <time>2014-05-09T09:51:38Z</time>
      </trkpt>
      <trkpt lat="42.60018" lon="2.23459">
        <ele>1311.38</ele>
        <time>2014-05-09T09:51:44Z</time>
      </trkpt>
      <trkpt lat="42.60023" lon="2.23461">
        <ele>1312.82</ele>
        <time>2014-05-09T09:51:51Z</time>
      </trkpt>
      <trkpt lat="42.60027" lon="2.23465">
        <ele>1313.78</ele>
        <time>2014-05-09T09:51:58Z</time>
      </trkpt>
      <trkpt lat="42.60031" lon="2.23467">
        <ele>1315.22</ele>
        <time>2014-05-09T09:52:04Z</time>
      </trkpt>
      <trkpt lat="42.60034" lon="2.23467">
        <ele>1316.18</ele>
        <time>2014-05-09T09:52:11Z</time>
      </trkpt>
      <trkpt lat="42.60039" lon="2.23468">
        <ele>1317.14</ele>
        <time>2014-05-09T09:52:18Z</time>
      </trkpt>
      <trkpt lat="42.60043" lon="2.23472">
        <ele>1317.62</ele>
        <time>2014-05-09T09:52:25Z</time>
      </trkpt>
      <trkpt lat="42.60048" lon="2.23475">
        <ele>1319.07</ele>
        <time>2014-05-09T09:52:33Z</time>
      </trkpt>
      <trkpt lat="42.60051" lon="2.23479">
        <ele>1320.03</ele>
        <time>2014-05-09T09:52:39Z</time>
      </trkpt>
      <trkpt lat="42.60054" lon="2.23482">
        <ele>1320.99</ele>
        <time>2014-05-09T09:52:45Z</time>
      </trkpt>
      <trkpt lat="42.60058" lon="2.23485">
        <ele>1321.95</ele>
        <time>2014-05-09T09:52:52Z</time>
      </trkpt>
      <trkpt lat="42.60062" lon="2.23488">
        <ele>1322.91</ele>
        <time>2014-05-09T09:52:59Z</time>
      </trkpt>
      <trkpt lat="42.60069" lon="2.23494">
        <ele>1322.91</ele>
        <time>2014-05-09T09:53:06Z</time>
      </trkpt>
      <trkpt lat="42.60073" lon="2.23496">
        <ele>1323.39</ele>
        <time>2014-05-09T09:53:12Z</time>
      </trkpt>
      <trkpt lat="42.60079" lon="2.23503">
        <ele>1323.87</ele>
        <time>2014-05-09T09:53:18Z</time>
      </trkpt>
      <trkpt lat="42.60084" lon="2.23507">
        <ele>1324.35</ele>
        <time>2014-05-09T09:53:25Z</time>
      </trkpt>
      <trkpt lat="42.6009" lon="2.23511">
        <ele>1325.31</ele>
        <time>2014-05-09T09:53:32Z</time>
      </trkpt>
      <trkpt lat="42.60094" lon="2.23518">
        <ele>1325.8</ele>
        <time>2014-05-09T09:53:40Z</time>
      </trkpt>
      <trkpt lat="42.60095" lon="2.23519">
        <ele>1326.28</ele>
        <time>2014-05-09T09:53:47Z</time>
      </trkpt>
      <trkpt lat="42.60095" lon="2.23519">
        <ele>1326.28</ele>
        <time>2014-05-09T09:54:28Z</time>
      </trkpt>
      <trkpt lat="42.60096" lon="2.23519">
        <ele>1326.76</ele>
        <time>2014-05-09T09:54:42Z</time>
      </trkpt>
      <trkpt lat="42.60099" lon="2.23523">
        <ele>1326.76</ele>
        <time>2014-05-09T09:54:49Z</time>
      </trkpt>
      <trkpt lat="42.60099" lon="2.23523">
        <ele>1327.72</ele>
        <time>2014-05-09T09:55:10Z</time>
      </trkpt>
      <trkpt lat="42.601" lon="2.23524">
        <ele>1326.76</ele>
        <time>2014-05-09T09:55:42Z</time>
      </trkpt>
      <trkpt lat="42.60103" lon="2.23528">
        <ele>1327.24</ele>
        <time>2014-05-09T09:55:49Z</time>
      </trkpt>
      <trkpt lat="42.60106" lon="2.23531">
        <ele>1327.72</ele>
        <time>2014-05-09T09:55:56Z</time>
      </trkpt>
      <trkpt lat="42.60107" lon="2.2353">
        <ele>1327.72</ele>
        <time>2014-05-09T09:56:30Z</time>
      </trkpt>
      <trkpt lat="42.60107" lon="2.23531">
        <ele>1327.24</ele>
        <time>2014-05-09T09:56:50Z</time>
      </trkpt>
      <trkpt lat="42.60108" lon="2.23531">
        <ele>1327.24</ele>
        <time>2014-05-09T09:57:45Z</time>
      </trkpt>
      <trkpt lat="42.60108" lon="2.2353">
        <ele>1327.24</ele>
        <time>2014-05-09T09:58:52Z</time>
      </trkpt>
      <trkpt lat="42.60111" lon="2.23534">
        <ele>1326.76</ele>
        <time>2014-05-09T10:00:05Z</time>
      </trkpt>
      <trkpt lat="42.60113" lon="2.23537">
        <ele>1326.76</ele>
        <time>2014-05-09T10:00:08Z</time>
      </trkpt>
      <trkpt lat="42.6012" lon="2.23541">
        <ele>1327.72</ele>
        <time>2014-05-09T10:00:16Z</time>
      </trkpt>
      <trkpt lat="42.60127" lon="2.23545">
        <ele>1326.76</ele>
        <time>2014-05-09T10:00:25Z</time>
      </trkpt>
      <trkpt lat="42.60131" lon="2.23547">
        <ele>1326.28</ele>
        <time>2014-05-09T10:00:32Z</time>
      </trkpt>
      <trkpt lat="42.60134" lon="2.23545">
        <ele>1325.8</ele>
        <time>2014-05-09T10:00:43Z</time>
      </trkpt>
      <trkpt lat="42.60135" lon="2.23544">
        <ele>1325.8</ele>
        <time>2014-05-09T10:00:52Z</time>
      </trkpt>
      <trkpt lat="42.6014" lon="2.23544">
        <ele>1325.31</ele>
        <time>2014-05-09T10:00:59Z</time>
      </trkpt>
      <trkpt lat="42.60146" lon="2.23545">
        <ele>1324.35</ele>
        <time>2014-05-09T10:01:06Z</time>
      </trkpt>
      <trkpt lat="42.60155" lon="2.23548">
        <ele>1324.35</ele>
        <time>2014-05-09T10:01:14Z</time>
      </trkpt>
      <trkpt lat="42.60158" lon="2.23548">
        <ele>1324.35</ele>
        <time>2014-05-09T10:01:17Z</time>
      </trkpt>
      <trkpt lat="42.60164" lon="2.23544">
        <ele>1324.35</ele>
        <time>2014-05-09T10:01:26Z</time>
      </trkpt>
      <trkpt lat="42.60165" lon="2.23542">
        <ele>1324.83</ele>
        <time>2014-05-09T10:01:35Z</time>
      </trkpt>
      <trkpt lat="42.60165" lon="2.23539">
        <ele>1324.35</ele>
        <time>2014-05-09T10:01:37Z</time>
      </trkpt>
      <trkpt lat="42.60166" lon="2.23531">
        <ele>1324.35</ele>
        <time>2014-05-09T10:01:45Z</time>
      </trkpt>
      <trkpt lat="42.60167" lon="2.23525">
        <ele>1324.35</ele>
        <time>2014-05-09T10:01:50Z</time>
      </trkpt>
      <trkpt lat="42.60168" lon="2.23523">
        <ele>1324.35</ele>
        <time>2014-05-09T10:01:52Z</time>
      </trkpt>
      <trkpt lat="42.60172" lon="2.23515">
        <ele>1324.83</ele>
        <time>2014-05-09T10:02:00Z</time>
      </trkpt>
      <trkpt lat="42.60171" lon="2.23505">
        <ele>1324.83</ele>
        <time>2014-05-09T10:02:08Z</time>
      </trkpt>
      <trkpt lat="42.60171" lon="2.23498">
        <ele>1323.87</ele>
        <time>2014-05-09T10:02:15Z</time>
      </trkpt>
      <trkpt lat="42.60173" lon="2.23484">
        <ele>1324.35</ele>
        <time>2014-05-09T10:02:23Z</time>
      </trkpt>
      <trkpt lat="42.60175" lon="2.23479">
        <ele>1323.87</ele>
        <time>2014-05-09T10:02:29Z</time>
      </trkpt>
      <trkpt lat="42.60177" lon="2.23474">
        <ele>1323.87</ele>
        <time>2014-05-09T10:02:36Z</time>
      </trkpt>
      <trkpt lat="42.60178" lon="2.23472">
        <ele>1323.87</ele>
        <time>2014-05-09T10:02:37Z</time>
      </trkpt>
      <trkpt lat="42.6018" lon="2.23462">
        <ele>1324.35</ele>
        <time>2014-05-09T10:02:44Z</time>
      </trkpt>
      <trkpt lat="42.6018" lon="2.23462">
        <ele>1324.35</ele>
        <time>2014-05-09T10:03:02Z</time>
      </trkpt>
      <trkpt lat="42.60181" lon="2.23456">
        <ele>1324.35</ele>
        <time>2014-05-09T10:03:16Z</time>
      </trkpt>
      <trkpt lat="42.60184" lon="2.23449">
        <ele>1324.35</ele>
        <time>2014-05-09T10:03:23Z</time>
      </trkpt>
      <trkpt lat="42.6019" lon="2.23438">
        <ele>1325.8</ele>
        <time>2014-05-09T10:03:32Z</time>
      </trkpt>
      <trkpt lat="42.60196" lon="2.23426">
        <ele>1325.8</ele>
        <time>2014-05-09T10:03:41Z</time>
      </trkpt>
      <trkpt lat="42.60198" lon="2.23422">
        <ele>1325.8</ele>
        <time>2014-05-09T10:03:43Z</time>
      </trkpt>
      <trkpt lat="42.60204" lon="2.23418">
        <ele>1325.8</ele>
        <time>2014-05-09T10:03:50Z</time>
      </trkpt>
      <trkpt lat="42.60206" lon="2.23415">
        <ele>1326.28</ele>
        <time>2014-05-09T10:04:01Z</time>
      </trkpt>
      <trkpt lat="42.60212" lon="2.23413">
        <ele>1325.8</ele>
        <time>2014-05-09T10:04:07Z</time>
      </trkpt>
      <trkpt lat="42.60219" lon="2.23415">
        <ele>1325.31</ele>
        <time>2014-05-09T10:04:15Z</time>
      </trkpt>
      <trkpt lat="42.60226" lon="2.23415">
        <ele>1324.83</ele>
        <time>2014-05-09T10:04:22Z</time>
      </trkpt>
      <trkpt lat="42.60235" lon="2.23415">
        <ele>1324.83</ele>
        <time>2014-05-09T10:04:28Z</time>
      </trkpt>
      <trkpt lat="42.60242" lon="2.23415">
        <ele>1323.87</ele>
        <time>2014-05-09T10:04:38Z</time>
      </trkpt>
      <trkpt lat="42.60252" lon="2.23416">
        <ele>1324.35</ele>
        <time>2014-05-09T10:04:47Z</time>
      </trkpt>
      <trkpt lat="42.6026" lon="2.23418">
        <ele>1324.35</ele>
        <time>2014-05-09T10:04:55Z</time>
      </trkpt>
      <trkpt lat="42.60268" lon="2.23421">
        <ele>1324.83</ele>
        <time>2014-05-09T10:05:02Z</time>
      </trkpt>
      <trkpt lat="42.60276" lon="2.23425">
        <ele>1324.83</ele>
        <time>2014-05-09T10:05:10Z</time>
      </trkpt>
      <trkpt lat="42.60282" lon="2.23425">
        <ele>1325.8</ele>
        <time>2014-05-09T10:05:17Z</time>
      </trkpt>
      <trkpt lat="42.60287" lon="2.23424">
        <ele>1324.83</ele>
        <time>2014-05-09T10:05:23Z</time>
      </trkpt>
      <trkpt lat="42.60293" lon="2.2342">
        <ele>1325.31</ele>
        <time>2014-05-09T10:05:31Z</time>
      </trkpt>
      <trkpt lat="42.60299" lon="2.23417">
        <ele>1325.31</ele>
        <time>2014-05-09T10:05:37Z</time>
      </trkpt>
      <trkpt lat="42.60306" lon="2.23418">
        <ele>1325.31</ele>
        <time>2014-05-09T10:05:45Z</time>
      </trkpt>
      <trkpt lat="42.60312" lon="2.23416">
        <ele>1326.28</ele>
        <time>2014-05-09T10:05:52Z</time>
      </trkpt>
      <trkpt lat="42.60322" lon="2.23415">
        <ele>1326.28</ele>
        <time>2014-05-09T10:05:59Z</time>
      </trkpt>
      <trkpt lat="42.60326" lon="2.23415">
        <ele>1325.8</ele>
        <time>2014-05-09T10:06:03Z</time>
      </trkpt>
      <trkpt lat="42.60333" lon="2.23415">
        <ele>1325.8</ele>
        <time>2014-05-09T10:06:10Z</time>
      </trkpt>
      <trkpt lat="42.60339" lon="2.23414">
        <ele>1327.24</ele>
        <time>2014-05-09T10:06:18Z</time>
      </trkpt>
      <trkpt lat="42.60343" lon="2.23414">
        <ele>1326.76</ele>
        <time>2014-05-09T10:06:24Z</time>
      </trkpt>
      <trkpt lat="42.60345" lon="2.23415">
        <ele>1327.72</ele>
        <time>2014-05-09T10:06:25Z</time>
      </trkpt>
      <trkpt lat="42.60352" lon="2.23421">
        <ele>1328.2</ele>
        <time>2014-05-09T10:06:33Z</time>
      </trkpt>
      <trkpt lat="42.60357" lon="2.23422">
        <ele>1328.2</ele>
        <time>2014-05-09T10:06:38Z</time>
      </trkpt>
      <trkpt lat="42.60367" lon="2.23426">
        <ele>1328.68</ele>
        <time>2014-05-09T10:06:45Z</time>
      </trkpt>
      <trkpt lat="42.60369" lon="2.23426">
        <ele>1328.68</ele>
        <time>2014-05-09T10:06:47Z</time>
      </trkpt>
      <trkpt lat="42.60376" lon="2.23431">
        <ele>1328.68</ele>
        <time>2014-05-09T10:06:55Z</time>
      </trkpt>
      <trkpt lat="42.60382" lon="2.23433">
        <ele>1328.68</ele>
        <time>2014-05-09T10:07:02Z</time>
      </trkpt>
      <trkpt lat="42.60388" lon="2.23435">
        <ele>1328.68</ele>
        <time>2014-05-09T10:07:08Z</time>
      </trkpt>
      <trkpt lat="42.60393" lon="2.23435">
        <ele>1328.68</ele>
        <time>2014-05-09T10:07:14Z</time>
      </trkpt>
      <trkpt lat="42.60396" lon="2.23434">
        <ele>1329.16</ele>
        <time>2014-05-09T10:07:19Z</time>
      </trkpt>
      <trkpt lat="42.60401" lon="2.23431">
        <ele>1329.16</ele>
        <time>2014-05-09T10:07:26Z</time>
      </trkpt>
      <trkpt lat="42.60404" lon="2.23429">
        <ele>1330.12</ele>
        <time>2014-05-09T10:07:32Z</time>
      </trkpt>
      <trkpt lat="42.60409" lon="2.23434">
        <ele>1330.6</ele>
        <time>2014-05-09T10:07:44Z</time>
      </trkpt>
      <trkpt lat="42.60411" lon="2.23436">
        <ele>1330.12</ele>
        <time>2014-05-09T10:07:51Z</time>
      </trkpt>
      <trkpt lat="42.60414" lon="2.23439">
        <ele>1331.08</ele>
        <time>2014-05-09T10:08:00Z</time>
      </trkpt>
      <trkpt lat="42.60417" lon="2.23441">
        <ele>1331.56</ele>
        <time>2014-05-09T10:08:03Z</time>
      </trkpt>
      <trkpt lat="42.6042" lon="2.23448">
        <ele>1331.56</ele>
        <time>2014-05-09T10:08:09Z</time>
      </trkpt>
      <trkpt lat="42.60422" lon="2.2345">
        <ele>1332.04</ele>
        <time>2014-05-09T10:08:12Z</time>
      </trkpt>
      <trkpt lat="42.60428" lon="2.23457">
        <ele>1332.52</ele>
        <time>2014-05-09T10:08:20Z</time>
      </trkpt>
      <trkpt lat="42.60435" lon="2.23463">
        <ele>1332.52</ele>
        <time>2014-05-09T10:08:27Z</time>
      </trkpt>
      <trkpt lat="42.60438" lon="2.2347">
        <ele>1333.01</ele>
        <time>2014-05-09T10:08:33Z</time>
      </trkpt>
      <trkpt lat="42.60444" lon="2.23476">
        <ele>1333.01</ele>
        <time>2014-05-09T10:08:41Z</time>
      </trkpt>
      <trkpt lat="42.60448" lon="2.23479">
        <ele>1334.45</ele>
        <time>2014-05-09T10:08:46Z</time>
      </trkpt>
      <trkpt lat="42.60452" lon="2.23482">
        <ele>1334.45</ele>
        <time>2014-05-09T10:08:51Z</time>
      </trkpt>
      <trkpt lat="42.60458" lon="2.23489">
        <ele>1334.93</ele>
        <time>2014-05-09T10:08:59Z</time>
      </trkpt>
      <trkpt lat="42.60465" lon="2.23492">
        <ele>1334.45</ele>
        <time>2014-05-09T10:09:06Z</time>
      </trkpt>
      <trkpt lat="42.60472" lon="2.23498">
        <ele>1335.89</ele>
        <time>2014-05-09T10:09:12Z</time>
      </trkpt>
      <trkpt lat="42.60478" lon="2.23505">
        <ele>1335.89</ele>
        <time>2014-05-09T10:09:19Z</time>
      </trkpt>
      <trkpt lat="42.60479" lon="2.23506">
        <ele>1335.41</ele>
        <time>2014-05-09T10:09:20Z</time>
      </trkpt>
      <trkpt lat="42.60485" lon="2.23514">
        <ele>1336.37</ele>
        <time>2014-05-09T10:09:27Z</time>
      </trkpt>
      <trkpt lat="42.60488" lon="2.23521">
        <ele>1336.37</ele>
        <time>2014-05-09T10:09:32Z</time>
      </trkpt>
      <trkpt lat="42.60492" lon="2.23525">
        <ele>1336.37</ele>
        <time>2014-05-09T10:09:37Z</time>
      </trkpt>
      <trkpt lat="42.60493" lon="2.23527">
        <ele>1335.89</ele>
        <time>2014-05-09T10:09:39Z</time>
      </trkpt>
      <trkpt lat="42.60499" lon="2.23534">
        <ele>1336.85</ele>
        <time>2014-05-09T10:09:47Z</time>
      </trkpt>
      <trkpt lat="42.605" lon="2.23536">
        <ele>1336.85</ele>
        <time>2014-05-09T10:09:48Z</time>
      </trkpt>
      <trkpt lat="42.60501" lon="2.23538">
        <ele>1337.33</ele>
        <time>2014-05-09T10:09:50Z</time>
      </trkpt>
      <trkpt lat="42.60501" lon="2.2354">
        <ele>1337.81</ele>
        <time>2014-05-09T10:09:51Z</time>
      </trkpt>
      <trkpt lat="42.60505" lon="2.23548">
        <ele>1337.81</ele>
        <time>2014-05-09T10:09:58Z</time>
      </trkpt>
      <trkpt lat="42.60508" lon="2.23554">
        <ele>1338.29</ele>
        <time>2014-05-09T10:10:05Z</time>
      </trkpt>
      <trkpt lat="42.60512" lon="2.23556">
        <ele>1338.29</ele>
        <time>2014-05-09T10:10:10Z</time>
      </trkpt>
      <trkpt lat="42.60517" lon="2.23563">
        <ele>1339.25</ele>
        <time>2014-05-09T10:10:18Z</time>
      </trkpt>
      <trkpt lat="42.60521" lon="2.23567">
        <ele>1340.22</ele>
        <time>2014-05-09T10:10:25Z</time>
      </trkpt>
      <trkpt lat="42.60526" lon="2.23568">
        <ele>1341.66</ele>
        <time>2014-05-09T10:10:32Z</time>
      </trkpt>
      <trkpt lat="42.60529" lon="2.23569">
        <ele>1342.14</ele>
        <time>2014-05-09T10:10:39Z</time>
      </trkpt>
      <trkpt lat="42.60532" lon="2.23571">
        <ele>1343.1</ele>
        <time>2014-05-09T10:10:46Z</time>
      </trkpt>
      <trkpt lat="42.60535" lon="2.23576">
        <ele>1343.58</ele>
        <time>2014-05-09T10:10:55Z</time>
      </trkpt>
      <trkpt lat="42.60539" lon="2.2358">
        <ele>1343.58</ele>
        <time>2014-05-09T10:11:03Z</time>
      </trkpt>
      <trkpt lat="42.60543" lon="2.23583">
        <ele>1344.06</ele>
        <time>2014-05-09T10:11:16Z</time>
      </trkpt>
      <trkpt lat="42.60547" lon="2.23583">
        <ele>1344.06</ele>
        <time>2014-05-09T10:11:24Z</time>
      </trkpt>
      <trkpt lat="42.6055" lon="2.23587">
        <ele>1345.5</ele>
        <time>2014-05-09T10:11:31Z</time>
      </trkpt>
      <trkpt lat="42.60554" lon="2.2359">
        <ele>1346.94</ele>
        <time>2014-05-09T10:11:40Z</time>
      </trkpt>
      <trkpt lat="42.6056" lon="2.23597">
        <ele>1347.91</ele>
        <time>2014-05-09T10:11:47Z</time>
      </trkpt>
      <trkpt lat="42.60563" lon="2.23606">
        <ele>1347.43</ele>
        <time>2014-05-09T10:11:54Z</time>
      </trkpt>
      <trkpt lat="42.60568" lon="2.23611">
        <ele>1348.39</ele>
        <time>2014-05-09T10:12:01Z</time>
      </trkpt>
      <trkpt lat="42.60571" lon="2.23615">
        <ele>1349.35</ele>
        <time>2014-05-09T10:12:08Z</time>
      </trkpt>
      <trkpt lat="42.60573" lon="2.23618">
        <ele>1349.83</ele>
        <time>2014-05-09T10:12:17Z</time>
      </trkpt>
      <trkpt lat="42.60574" lon="2.2362">
        <ele>1349.83</ele>
        <time>2014-05-09T10:12:21Z</time>
      </trkpt>
      <trkpt lat="42.60579" lon="2.23625">
        <ele>1350.31</ele>
        <time>2014-05-09T10:12:28Z</time>
      </trkpt>
      <trkpt lat="42.60581" lon="2.23627">
        <ele>1350.79</ele>
        <time>2014-05-09T10:12:35Z</time>
      </trkpt>
      <trkpt lat="42.60583" lon="2.23632">
        <ele>1352.23</ele>
        <time>2014-05-09T10:12:42Z</time>
      </trkpt>
      <trkpt lat="42.60586" lon="2.23638">
        <ele>1352.71</ele>
        <time>2014-05-09T10:12:47Z</time>
      </trkpt>
      <trkpt lat="42.60589" lon="2.23644">
        <ele>1352.23</ele>
        <time>2014-05-09T10:12:54Z</time>
      </trkpt>
      <trkpt lat="42.60592" lon="2.23648">
        <ele>1353.67</ele>
        <time>2014-05-09T10:13:01Z</time>
      </trkpt>
      <trkpt lat="42.60594" lon="2.2365">
        <ele>1354.15</ele>
        <time>2014-05-09T10:13:08Z</time>
      </trkpt>
      <trkpt lat="42.60597" lon="2.23652">
        <ele>1354.63</ele>
        <time>2014-05-09T10:13:14Z</time>
      </trkpt>
      <trkpt lat="42.60601" lon="2.23657">
        <ele>1356.08</ele>
        <time>2014-05-09T10:13:22Z</time>
      </trkpt>
      <trkpt lat="42.60605" lon="2.23662">
        <ele>1357.04</ele>
        <time>2014-05-09T10:13:28Z</time>
      </trkpt>
      <trkpt lat="42.60606" lon="2.23664">
        <ele>1357.04</ele>
        <time>2014-05-09T10:13:30Z</time>
      </trkpt>
      <trkpt lat="42.60611" lon="2.23672">
        <ele>1358.96</ele>
        <time>2014-05-09T10:13:38Z</time>
      </trkpt>
      <trkpt lat="42.60615" lon="2.23677">
        <ele>1358.96</ele>
        <time>2014-05-09T10:13:45Z</time>
      </trkpt>
      <trkpt lat="42.60619" lon="2.23684">
        <ele>1359.44</ele>
        <time>2014-05-09T10:13:53Z</time>
      </trkpt>
      <trkpt lat="42.60622" lon="2.23689">
        <ele>1360.88</ele>
        <time>2014-05-09T10:13:59Z</time>
      </trkpt>
      <trkpt lat="42.60623" lon="2.23695">
        <ele>1360.88</ele>
        <time>2014-05-09T10:14:03Z</time>
      </trkpt>
      <trkpt lat="42.60623" lon="2.23704">
        <ele>1361.36</ele>
        <time>2014-05-09T10:14:09Z</time>
      </trkpt>
      <trkpt lat="42.60627" lon="2.23708">
        <ele>1362.33</ele>
        <time>2014-05-09T10:14:16Z</time>
      </trkpt>
      <trkpt lat="42.6063" lon="2.23712">
        <ele>1363.77</ele>
        <time>2014-05-09T10:14:23Z</time>
      </trkpt>
      <trkpt lat="42.60633" lon="2.23714">
        <ele>1364.25</ele>
        <time>2014-05-09T10:14:29Z</time>
      </trkpt>
      <trkpt lat="42.60636" lon="2.23714">
        <ele>1365.21</ele>
        <time>2014-05-09T10:14:37Z</time>
      </trkpt>
      <trkpt lat="42.60638" lon="2.23716">
        <ele>1366.17</ele>
        <time>2014-05-09T10:14:44Z</time>
      </trkpt>
      <trkpt lat="42.60641" lon="2.23717">
        <ele>1367.13</ele>
        <time>2014-05-09T10:14:52Z</time>
      </trkpt>
      <trkpt lat="42.60644" lon="2.23722">
        <ele>1367.61</ele>
        <time>2014-05-09T10:14:58Z</time>
      </trkpt>
      <trkpt lat="42.60646" lon="2.2373">
        <ele>1369.05</ele>
        <time>2014-05-09T10:15:05Z</time>
      </trkpt>
      <trkpt lat="42.60651" lon="2.23734">
        <ele>1369.54</ele>
        <time>2014-05-09T10:15:13Z</time>
      </trkpt>
      <trkpt lat="42.60655" lon="2.23736">
        <ele>1370.5</ele>
        <time>2014-05-09T10:15:21Z</time>
      </trkpt>
      <trkpt lat="42.60658" lon="2.23742">
        <ele>1370.02</ele>
        <time>2014-05-09T10:15:48Z</time>
      </trkpt>
      <trkpt lat="42.60661" lon="2.23749">
        <ele>1370.5</ele>
        <time>2014-05-09T10:15:56Z</time>
      </trkpt>
      <trkpt lat="42.60662" lon="2.2375">
        <ele>1370.5</ele>
        <time>2014-05-09T10:16:11Z</time>
      </trkpt>
      <trkpt lat="42.60662" lon="2.2375">
        <ele>1370.02</ele>
        <time>2014-05-09T10:16:24Z</time>
      </trkpt>
      <trkpt lat="42.60662" lon="2.23752">
        <ele>1370.5</ele>
        <time>2014-05-09T10:17:27Z</time>
      </trkpt>
      <trkpt lat="42.60662" lon="2.23752">
        <ele>1370.5</ele>
        <time>2014-05-09T10:17:53Z</time>
      </trkpt>
      <trkpt lat="42.60661" lon="2.23763">
        <ele>1368.09</ele>
        <time>2014-05-09T10:21:29Z</time>
      </trkpt>
      <trkpt lat="42.60666" lon="2.23769">
        <ele>1368.09</ele>
        <time>2014-05-09T10:21:35Z</time>
      </trkpt>
      <trkpt lat="42.6067" lon="2.23775">
        <ele>1369.05</ele>
        <time>2014-05-09T10:21:41Z</time>
      </trkpt>
      <trkpt lat="42.60674" lon="2.23783">
        <ele>1369.54</ele>
        <time>2014-05-09T10:21:50Z</time>
      </trkpt>
      <trkpt lat="42.60677" lon="2.23788">
        <ele>1370.02</ele>
        <time>2014-05-09T10:21:57Z</time>
      </trkpt>
      <trkpt lat="42.60682" lon="2.23792">
        <ele>1370.5</ele>
        <time>2014-05-09T10:22:03Z</time>
      </trkpt>
      <trkpt lat="42.60683" lon="2.23793">
        <ele>1371.46</ele>
        <time>2014-05-09T10:22:10Z</time>
      </trkpt>
      <trkpt lat="42.60686" lon="2.23797">
        <ele>1371.46</ele>
        <time>2014-05-09T10:22:31Z</time>
      </trkpt>
      <trkpt lat="42.60689" lon="2.23798">
        <ele>1372.42</ele>
        <time>2014-05-09T10:22:37Z</time>
      </trkpt>
      <trkpt lat="42.60696" lon="2.23801">
        <ele>1373.86</ele>
        <time>2014-05-09T10:22:45Z</time>
      </trkpt>
      <trkpt lat="42.60701" lon="2.23801">
        <ele>1374.82</ele>
        <time>2014-05-09T10:22:53Z</time>
      </trkpt>
      <trkpt lat="42.60709" lon="2.23804">
        <ele>1375.3</ele>
        <time>2014-05-09T10:23:01Z</time>
      </trkpt>
      <trkpt lat="42.60714" lon="2.23806">
        <ele>1375.78</ele>
        <time>2014-05-09T10:23:08Z</time>
      </trkpt>
      <trkpt lat="42.60719" lon="2.2381">
        <ele>1376.26</ele>
        <time>2014-05-09T10:23:16Z</time>
      </trkpt>
      <trkpt lat="42.60727" lon="2.23812">
        <ele>1377.23</ele>
        <time>2014-05-09T10:23:22Z</time>
      </trkpt>
      <trkpt lat="42.60732" lon="2.23815">
        <ele>1377.71</ele>
        <time>2014-05-09T10:23:29Z</time>
      </trkpt>
      <trkpt lat="42.60738" lon="2.23818">
        <ele>1379.15</ele>
        <time>2014-05-09T10:23:36Z</time>
      </trkpt>
      <trkpt lat="42.60743" lon="2.23819">
        <ele>1379.63</ele>
        <time>2014-05-09T10:23:43Z</time>
      </trkpt>
      <trkpt lat="42.60748" lon="2.2382">
        <ele>1380.11</ele>
        <time>2014-05-09T10:23:50Z</time>
      </trkpt>
      <trkpt lat="42.60751" lon="2.23827">
        <ele>1380.59</ele>
        <time>2014-05-09T10:23:57Z</time>
      </trkpt>
      <trkpt lat="42.60757" lon="2.23831">
        <ele>1381.55</ele>
        <time>2014-05-09T10:24:04Z</time>
      </trkpt>
      <trkpt lat="42.60761" lon="2.23834">
        <ele>1382.03</ele>
        <time>2014-05-09T10:24:10Z</time>
      </trkpt>
      <trkpt lat="42.60765" lon="2.23836">
        <ele>1382.51</ele>
        <time>2014-05-09T10:24:19Z</time>
      </trkpt>
      <trkpt lat="42.60769" lon="2.2384">
        <ele>1383.47</ele>
        <time>2014-05-09T10:24:25Z</time>
      </trkpt>
      <trkpt lat="42.60775" lon="2.23844">
        <ele>1383.47</ele>
        <time>2014-05-09T10:24:32Z</time>
      </trkpt>
      <trkpt lat="42.60779" lon="2.23847">
        <ele>1383.47</ele>
        <time>2014-05-09T10:24:38Z</time>
      </trkpt>
      <trkpt lat="42.60784" lon="2.23853">
        <ele>1383.96</ele>
        <time>2014-05-09T10:24:43Z</time>
      </trkpt>
      <trkpt lat="42.6079" lon="2.23859">
        <ele>1384.44</ele>
        <time>2014-05-09T10:24:50Z</time>
      </trkpt>
      <trkpt lat="42.60797" lon="2.23862">
        <ele>1384.92</ele>
        <time>2014-05-09T10:24:57Z</time>
      </trkpt>
      <trkpt lat="42.60803" lon="2.23863">
        <ele>1385.4</ele>
        <time>2014-05-09T10:25:04Z</time>
      </trkpt>
      <trkpt lat="42.60805" lon="2.23864">
        <ele>1385.88</ele>
        <time>2014-05-09T10:25:06Z</time>
      </trkpt>
      <trkpt lat="42.60812" lon="2.23865">
        <ele>1386.36</ele>
        <time>2014-05-09T10:25:14Z</time>
      </trkpt>
      <trkpt lat="42.60816" lon="2.23868">
        <ele>1386.84</ele>
        <time>2014-05-09T10:25:21Z</time>
      </trkpt>
      <trkpt lat="42.60822" lon="2.23868">
        <ele>1386.84</ele>
        <time>2014-05-09T10:25:29Z</time>
      </trkpt>
      <trkpt lat="42.60829" lon="2.2387">
        <ele>1387.8</ele>
        <time>2014-05-09T10:25:37Z</time>
      </trkpt>
      <trkpt lat="42.60836" lon="2.23864">
        <ele>1388.28</ele>
        <time>2014-05-09T10:25:47Z</time>
      </trkpt>
      <trkpt lat="42.60837" lon="2.23864">
        <ele>1388.76</ele>
        <time>2014-05-09T10:25:58Z</time>
      </trkpt>
      <trkpt lat="42.60843" lon="2.2386">
        <ele>1389.24</ele>
        <time>2014-05-09T10:26:06Z</time>
      </trkpt>
      <trkpt lat="42.60849" lon="2.23858">
        <ele>1390.2</ele>
        <time>2014-05-09T10:26:12Z</time>
      </trkpt>
      <trkpt lat="42.60854" lon="2.23857">
        <ele>1390.2</ele>
        <time>2014-05-09T10:26:20Z</time>
      </trkpt>
      <trkpt lat="42.60856" lon="2.23859">
        <ele>1391.17</ele>
        <time>2014-05-09T10:26:28Z</time>
      </trkpt>
      <trkpt lat="42.60859" lon="2.23858">
        <ele>1392.13</ele>
        <time>2014-05-09T10:26:38Z</time>
      </trkpt>
      <trkpt lat="42.60858" lon="2.23858">
        <ele>1392.61</ele>
        <time>2014-05-09T10:26:55Z</time>
      </trkpt>
      <trkpt lat="42.60867" lon="2.23858">
        <ele>1393.09</ele>
        <time>2014-05-09T10:27:06Z</time>
      </trkpt>
      <trkpt lat="42.60873" lon="2.23852">
        <ele>1394.05</ele>
        <time>2014-05-09T10:27:13Z</time>
      </trkpt>
      <trkpt lat="42.60873" lon="2.23852">
        <ele>1394.05</ele>
        <time>2014-05-09T10:27:32Z</time>
      </trkpt>
      <trkpt lat="42.6088" lon="2.23842">
        <ele>1394.53</ele>
        <time>2014-05-09T10:27:41Z</time>
      </trkpt>
      <trkpt lat="42.60881" lon="2.2384">
        <ele>1395.49</ele>
        <time>2014-05-09T10:27:50Z</time>
      </trkpt>
      <trkpt lat="42.60886" lon="2.23832">
        <ele>1396.45</ele>
        <time>2014-05-09T10:27:58Z</time>
      </trkpt>
      <trkpt lat="42.60892" lon="2.23826">
        <ele>1396.93</ele>
        <time>2014-05-09T10:28:04Z</time>
      </trkpt>
      <trkpt lat="42.609" lon="2.23823">
        <ele>1397.89</ele>
        <time>2014-05-09T10:28:11Z</time>
      </trkpt>
      <trkpt lat="42.60909" lon="2.2382">
        <ele>1399.82</ele>
        <time>2014-05-09T10:28:22Z</time>
      </trkpt>
      <trkpt lat="42.60917" lon="2.23824">
        <ele>1400.3</ele>
        <time>2014-05-09T10:28:30Z</time>
      </trkpt>
      <trkpt lat="42.60925" lon="2.23825">
        <ele>1401.26</ele>
        <time>2014-05-09T10:28:38Z</time>
      </trkpt>
      <trkpt lat="42.60933" lon="2.23826">
        <ele>1402.7</ele>
        <time>2014-05-09T10:28:45Z</time>
      </trkpt>
      <trkpt lat="42.60934" lon="2.23827">
        <ele>1403.18</ele>
        <time>2014-05-09T10:28:46Z</time>
      </trkpt>
      <trkpt lat="42.60938" lon="2.23827">
        <ele>1403.18</ele>
        <time>2014-05-09T10:28:52Z</time>
      </trkpt>
      <trkpt lat="42.6094" lon="2.23828">
        <ele>1403.18</ele>
        <time>2014-05-09T10:29:00Z</time>
      </trkpt>
      <trkpt lat="42.6094" lon="2.23828">
        <ele>1403.18</ele>
        <time>2014-05-09T10:29:15Z</time>
      </trkpt>
      <trkpt lat="42.6094" lon="2.23828">
        <ele>1403.66</ele>
        <time>2014-05-09T10:29:34Z</time>
      </trkpt>
      <trkpt lat="42.6094" lon="2.23827">
        <ele>1404.14</ele>
        <time>2014-05-09T10:30:03Z</time>
      </trkpt>
      <trkpt lat="42.6094" lon="2.23828">
        <ele>1404.62</ele>
        <time>2014-05-09T10:30:23Z</time>
      </trkpt>
      <trkpt lat="42.60945" lon="2.23825">
        <ele>1404.62</ele>
        <time>2014-05-09T10:30:37Z</time>
      </trkpt>
      <trkpt lat="42.60951" lon="2.23822">
        <ele>1406.07</ele>
        <time>2014-05-09T10:30:46Z</time>
      </trkpt>
      <trkpt lat="42.60953" lon="2.23821">
        <ele>1407.03</ele>
        <time>2014-05-09T10:30:57Z</time>
      </trkpt>
      <trkpt lat="42.60955" lon="2.23821">
        <ele>1407.99</ele>
        <time>2014-05-09T10:31:07Z</time>
      </trkpt>
      <trkpt lat="42.60963" lon="2.23816">
        <ele>1409.43</ele>
        <time>2014-05-09T10:31:17Z</time>
      </trkpt>
      <trkpt lat="42.60968" lon="2.23816">
        <ele>1411.35</ele>
        <time>2014-05-09T10:31:25Z</time>
      </trkpt>
      <trkpt lat="42.60975" lon="2.23819">
        <ele>1412.79</ele>
        <time>2014-05-09T10:31:36Z</time>
      </trkpt>
      <trkpt lat="42.60984" lon="2.23814">
        <ele>1414.24</ele>
        <time>2014-05-09T10:31:46Z</time>
      </trkpt>
      <trkpt lat="42.6099" lon="2.23809">
        <ele>1416.16</ele>
        <time>2014-05-09T10:31:55Z</time>
      </trkpt>
      <trkpt lat="42.60993" lon="2.23809">
        <ele>1417.12</ele>
        <time>2014-05-09T10:32:04Z</time>
      </trkpt>
      <trkpt lat="42.61" lon="2.23804">
        <ele>1418.56</ele>
        <time>2014-05-09T10:32:14Z</time>
      </trkpt>
      <trkpt lat="42.61006" lon="2.23805">
        <ele>1420</ele>
        <time>2014-05-09T10:32:23Z</time>
      </trkpt>
      <trkpt lat="42.61011" lon="2.23806">
        <ele>1421.45</ele>
        <time>2014-05-09T10:32:32Z</time>
      </trkpt>
      <trkpt lat="42.6102" lon="2.23803">
        <ele>1422.41</ele>
        <time>2014-05-09T10:32:41Z</time>
      </trkpt>
      <trkpt lat="42.61026" lon="2.23805">
        <ele>1423.37</ele>
        <time>2014-05-09T10:32:49Z</time>
      </trkpt>
      <trkpt lat="42.61029" lon="2.23805">
        <ele>1424.81</ele>
        <time>2014-05-09T10:32:57Z</time>
      </trkpt>
      <trkpt lat="42.61034" lon="2.23806">
        <ele>1425.77</ele>
        <time>2014-05-09T10:33:05Z</time>
      </trkpt>
      <trkpt lat="42.61042" lon="2.23806">
        <ele>1426.73</ele>
        <time>2014-05-09T10:33:14Z</time>
      </trkpt>
      <trkpt lat="42.61048" lon="2.23807">
        <ele>1427.7</ele>
        <time>2014-05-09T10:33:22Z</time>
      </trkpt>
      <trkpt lat="42.61054" lon="2.23806">
        <ele>1429.14</ele>
        <time>2014-05-09T10:33:31Z</time>
      </trkpt>
      <trkpt lat="42.61058" lon="2.23805">
        <ele>1431.06</ele>
        <time>2014-05-09T10:33:39Z</time>
      </trkpt>
      <trkpt lat="42.61069" lon="2.23803">
        <ele>1432.02</ele>
        <time>2014-05-09T10:33:49Z</time>
      </trkpt>
      <trkpt lat="42.61075" lon="2.23802">
        <ele>1433.46</ele>
        <time>2014-05-09T10:33:59Z</time>
      </trkpt>
      <trkpt lat="42.61083" lon="2.23799">
        <ele>1434.42</ele>
        <time>2014-05-09T10:34:08Z</time>
      </trkpt>
      <trkpt lat="42.61089" lon="2.23799">
        <ele>1435.87</ele>
        <time>2014-05-09T10:34:17Z</time>
      </trkpt>
      <trkpt lat="42.61089" lon="2.238">
        <ele>1437.31</ele>
        <time>2014-05-09T10:34:26Z</time>
      </trkpt>
      <trkpt lat="42.61098" lon="2.23802">
        <ele>1438.27</ele>
        <time>2014-05-09T10:34:37Z</time>
      </trkpt>
      <trkpt lat="42.61103" lon="2.23806">
        <ele>1439.71</ele>
        <time>2014-05-09T10:34:47Z</time>
      </trkpt>
      <trkpt lat="42.6111" lon="2.2381">
        <ele>1441.63</ele>
        <time>2014-05-09T10:34:55Z</time>
      </trkpt>
      <trkpt lat="42.61114" lon="2.23812">
        <ele>1442.6</ele>
        <time>2014-05-09T10:35:03Z</time>
      </trkpt>
      <trkpt lat="42.61122" lon="2.23818">
        <ele>1444.04</ele>
        <time>2014-05-09T10:35:14Z</time>
      </trkpt>
      <trkpt lat="42.6113" lon="2.23816">
        <ele>1445</ele>
        <time>2014-05-09T10:35:22Z</time>
      </trkpt>
      <trkpt lat="42.61138" lon="2.23819">
        <ele>1445.96</ele>
        <time>2014-05-09T10:35:31Z</time>
      </trkpt>
      <trkpt lat="42.61145" lon="2.23819">
        <ele>1445.96</ele>
        <time>2014-05-09T10:35:39Z</time>
      </trkpt>
      <trkpt lat="42.61149" lon="2.23822">
        <ele>1447.4</ele>
        <time>2014-05-09T10:35:46Z</time>
      </trkpt>
      <trkpt lat="42.61153" lon="2.23822">
        <ele>1447.88</ele>
        <time>2014-05-09T10:35:53Z</time>
      </trkpt>
      <trkpt lat="42.6116" lon="2.23826">
        <ele>1448.36</ele>
        <time>2014-05-09T10:35:59Z</time>
      </trkpt>
      <trkpt lat="42.61166" lon="2.23829">
        <ele>1448.84</ele>
        <time>2014-05-09T10:36:06Z</time>
      </trkpt>
      <trkpt lat="42.6117" lon="2.23833">
        <ele>1449.81</ele>
        <time>2014-05-09T10:36:12Z</time>
      </trkpt>
      <trkpt lat="42.61177" lon="2.23832">
        <ele>1450.29</ele>
        <time>2014-05-09T10:36:19Z</time>
      </trkpt>
      <trkpt lat="42.61183" lon="2.23832">
        <ele>1451.25</ele>
        <time>2014-05-09T10:36:26Z</time>
      </trkpt>
      <trkpt lat="42.61186" lon="2.23834">
        <ele>1452.69</ele>
        <time>2014-05-09T10:36:33Z</time>
      </trkpt>
      <trkpt lat="42.6119" lon="2.23834">
        <ele>1453.17</ele>
        <time>2014-05-09T10:36:38Z</time>
      </trkpt>
      <trkpt lat="42.61198" lon="2.23834">
        <ele>1454.61</ele>
        <time>2014-05-09T10:36:47Z</time>
      </trkpt>
      <trkpt lat="42.61203" lon="2.2384">
        <ele>1455.57</ele>
        <time>2014-05-09T10:36:55Z</time>
      </trkpt>
      <trkpt lat="42.61209" lon="2.23845">
        <ele>1457.5</ele>
        <time>2014-05-09T10:37:06Z</time>
      </trkpt>
      <trkpt lat="42.61215" lon="2.23846">
        <ele>1458.46</ele>
        <time>2014-05-09T10:37:15Z</time>
      </trkpt>
      <trkpt lat="42.6122" lon="2.23848">
        <ele>1459.42</ele>
        <time>2014-05-09T10:37:22Z</time>
      </trkpt>
      <trkpt lat="42.61225" lon="2.23854">
        <ele>1460.86</ele>
        <time>2014-05-09T10:37:32Z</time>
      </trkpt>
      <trkpt lat="42.61232" lon="2.23852">
        <ele>1462.3</ele>
        <time>2014-05-09T10:37:41Z</time>
      </trkpt>
      <trkpt lat="42.61232" lon="2.23852">
        <ele>1463.26</ele>
        <time>2014-05-09T10:37:48Z</time>
      </trkpt>
      <trkpt lat="42.61233" lon="2.23852">
        <ele>1463.74</ele>
        <time>2014-05-09T10:39:44Z</time>
      </trkpt>
      <trkpt lat="42.61233" lon="2.23852">
        <ele>1464.23</ele>
        <time>2014-05-09T10:40:03Z</time>
      </trkpt>
      <trkpt lat="42.61232" lon="2.23852">
        <ele>1465.19</ele>
        <time>2014-05-09T10:40:11Z</time>
      </trkpt>
      <trkpt lat="42.61228" lon="2.23853">
        <ele>1465.67</ele>
        <time>2014-05-09T10:40:22Z</time>
      </trkpt>
      <trkpt lat="42.61225" lon="2.2385">
        <ele>1466.63</ele>
        <time>2014-05-09T10:40:36Z</time>
      </trkpt>
      <trkpt lat="42.61222" lon="2.23852">
        <ele>1466.63</ele>
        <time>2014-05-09T10:40:44Z</time>
      </trkpt>
      <trkpt lat="42.61222" lon="2.23853">
        <ele>1466.63</ele>
        <time>2014-05-09T10:41:02Z</time>
      </trkpt>
      <trkpt lat="42.61222" lon="2.23849">
        <ele>1467.11</ele>
        <time>2014-05-09T10:41:22Z</time>
      </trkpt>
      <trkpt lat="42.61222" lon="2.23849">
        <ele>1467.59</ele>
        <time>2014-05-09T10:41:42Z</time>
      </trkpt>
      <trkpt lat="42.61222" lon="2.23848">
        <ele>1467.59</ele>
        <time>2014-05-09T10:42:52Z</time>
      </trkpt>
      <trkpt lat="42.61222" lon="2.23848">
        <ele>1468.07</ele>
        <time>2014-05-09T10:43:19Z</time>
      </trkpt>
      <trkpt lat="42.61222" lon="2.23847">
        <ele>1468.07</ele>
        <time>2014-05-09T10:44:19Z</time>
      </trkpt>
      <trkpt lat="42.61224" lon="2.23845">
        <ele>1468.55</ele>
        <time>2014-05-09T10:46:52Z</time>
      </trkpt>
      <trkpt lat="42.61224" lon="2.23845">
        <ele>1469.51</ele>
        <time>2014-05-09T10:47:08Z</time>
      </trkpt>
      <trkpt lat="42.61224" lon="2.23845">
        <ele>1469.51</ele>
        <time>2014-05-09T10:47:26Z</time>
      </trkpt>
      <trkpt lat="42.61226" lon="2.23842">
        <ele>1470.95</ele>
        <time>2014-05-09T10:48:26Z</time>
      </trkpt>
      <trkpt lat="42.61235" lon="2.23842">
        <ele>1472.4</ele>
        <time>2014-05-09T10:48:34Z</time>
      </trkpt>
      <trkpt lat="42.61239" lon="2.23839">
        <ele>1473.36</ele>
        <time>2014-05-09T10:48:42Z</time>
      </trkpt>
      <trkpt lat="42.61242" lon="2.23832">
        <ele>1474.32</ele>
        <time>2014-05-09T10:48:51Z</time>
      </trkpt>
      <trkpt lat="42.61243" lon="2.23825">
        <ele>1476.24</ele>
        <time>2014-05-09T10:48:59Z</time>
      </trkpt>
      <trkpt lat="42.61243" lon="2.23823">
        <ele>1477.2</ele>
        <time>2014-05-09T10:49:07Z</time>
      </trkpt>
      <trkpt lat="42.61244" lon="2.23818">
        <ele>1478.65</ele>
        <time>2014-05-09T10:49:14Z</time>
      </trkpt>
      <trkpt lat="42.61246" lon="2.23812">
        <ele>1478.65</ele>
        <time>2014-05-09T10:49:17Z</time>
      </trkpt>
      <trkpt lat="42.61249" lon="2.23813">
        <ele>1480.57</ele>
        <time>2014-05-09T10:49:25Z</time>
      </trkpt>
      <trkpt lat="42.61255" lon="2.23815">
        <ele>1481.53</ele>
        <time>2014-05-09T10:49:35Z</time>
      </trkpt>
      <trkpt lat="42.61258" lon="2.23818">
        <ele>1482.97</ele>
        <time>2014-05-09T10:49:45Z</time>
      </trkpt>
      <trkpt lat="42.61261" lon="2.2382">
        <ele>1483.93</ele>
        <time>2014-05-09T10:49:54Z</time>
      </trkpt>
      <trkpt lat="42.61269" lon="2.23826">
        <ele>1485.37</ele>
        <time>2014-05-09T10:50:02Z</time>
      </trkpt>
      <trkpt lat="42.61272" lon="2.23828">
        <ele>1485.37</ele>
        <time>2014-05-09T10:50:12Z</time>
      </trkpt>
      <trkpt lat="42.61275" lon="2.23829">
        <ele>1486.82</ele>
        <time>2014-05-09T10:50:20Z</time>
      </trkpt>
      <trkpt lat="42.61282" lon="2.23831">
        <ele>1487.78</ele>
        <time>2014-05-09T10:50:28Z</time>
      </trkpt>
      <trkpt lat="42.61287" lon="2.23832">
        <ele>1488.74</ele>
        <time>2014-05-09T10:50:37Z</time>
      </trkpt>
      <trkpt lat="42.61294" lon="2.23834">
        <ele>1489.22</ele>
        <time>2014-05-09T10:50:45Z</time>
      </trkpt>
      <trkpt lat="42.61297" lon="2.23835">
        <ele>1489.22</ele>
        <time>2014-05-09T10:50:49Z</time>
      </trkpt>
      <trkpt lat="42.61306" lon="2.23837">
        <ele>1490.66</ele>
        <time>2014-05-09T10:50:58Z</time>
      </trkpt>
      <trkpt lat="42.61313" lon="2.2384">
        <ele>1490.66</ele>
        <time>2014-05-09T10:51:07Z</time>
      </trkpt>
      <trkpt lat="42.61318" lon="2.23843">
        <ele>1490.66</ele>
        <time>2014-05-09T10:51:12Z</time>
      </trkpt>
      <trkpt lat="42.61326" lon="2.23849">
        <ele>1491.62</ele>
        <time>2014-05-09T10:51:21Z</time>
      </trkpt>
      <trkpt lat="42.61331" lon="2.23855">
        <ele>1492.1</ele>
        <time>2014-05-09T10:51:29Z</time>
      </trkpt>
      <trkpt lat="42.61335" lon="2.23855">
        <ele>1492.58</ele>
        <time>2014-05-09T10:51:36Z</time>
      </trkpt>
      <trkpt lat="42.61341" lon="2.23855">
        <ele>1493.55</ele>
        <time>2014-05-09T10:51:40Z</time>
      </trkpt>
      <trkpt lat="42.61351" lon="2.23858">
        <ele>1495.47</ele>
        <time>2014-05-09T10:51:50Z</time>
      </trkpt>
      <trkpt lat="42.61356" lon="2.23859">
        <ele>1496.43</ele>
        <time>2014-05-09T10:51:54Z</time>
      </trkpt>
      <trkpt lat="42.61362" lon="2.23864">
        <ele>1497.39</ele>
        <time>2014-05-09T10:52:02Z</time>
      </trkpt>
      <trkpt lat="42.61374" lon="2.23871">
        <ele>1498.83</ele>
        <time>2014-05-09T10:52:10Z</time>
      </trkpt>
      <trkpt lat="42.61382" lon="2.23874">
        <ele>1499.31</ele>
        <time>2014-05-09T10:52:19Z</time>
      </trkpt>
      <trkpt lat="42.61387" lon="2.23876">
        <ele>1499.79</ele>
        <time>2014-05-09T10:52:24Z</time>
      </trkpt>
      <trkpt lat="42.61397" lon="2.23877">
        <ele>1500.76</ele>
        <time>2014-05-09T10:52:32Z</time>
      </trkpt>
      <trkpt lat="42.61403" lon="2.23882">
        <ele>1501.24</ele>
        <time>2014-05-09T10:52:41Z</time>
      </trkpt>
      <trkpt lat="42.61411" lon="2.23884">
        <ele>1501.24</ele>
        <time>2014-05-09T10:52:49Z</time>
      </trkpt>
      <trkpt lat="42.61418" lon="2.23886">
        <ele>1501.24</ele>
        <time>2014-05-09T10:52:57Z</time>
      </trkpt>
      <trkpt lat="42.6142" lon="2.23884">
        <ele>1501.24</ele>
        <time>2014-05-09T10:53:04Z</time>
      </trkpt>
      <trkpt lat="42.61423" lon="2.23884">
        <ele>1501.24</ele>
        <time>2014-05-09T10:53:11Z</time>
      </trkpt>
      <trkpt lat="42.61428" lon="2.23887">
        <ele>1501.24</ele>
        <time>2014-05-09T10:53:19Z</time>
      </trkpt>
      <trkpt lat="42.61433" lon="2.23889">
        <ele>1501.24</ele>
        <time>2014-05-09T10:53:26Z</time>
      </trkpt>
      <trkpt lat="42.61443" lon="2.23899">
        <ele>1500.76</ele>
        <time>2014-05-09T10:53:37Z</time>
      </trkpt>
      <trkpt lat="42.61443" lon="2.23899">
        <ele>1500.27</ele>
        <time>2014-05-09T10:53:38Z</time>
      </trkpt>
      <trkpt lat="42.61452" lon="2.23906">
        <ele>1500.76</ele>
        <time>2014-05-09T10:53:45Z</time>
      </trkpt>
      <trkpt lat="42.61453" lon="2.23909">
        <ele>1500.76</ele>
        <time>2014-05-09T10:53:47Z</time>
      </trkpt>
      <trkpt lat="42.61458" lon="2.23912">
        <ele>1499.79</ele>
        <time>2014-05-09T10:53:51Z</time>
      </trkpt>
      <trkpt lat="42.61463" lon="2.23919">
        <ele>1500.27</ele>
        <time>2014-05-09T10:53:57Z</time>
      </trkpt>
      <trkpt lat="42.61464" lon="2.23926">
        <ele>1500.76</ele>
        <time>2014-05-09T10:54:04Z</time>
      </trkpt>
      <trkpt lat="42.61466" lon="2.23931">
        <ele>1500.76</ele>
        <time>2014-05-09T10:54:12Z</time>
      </trkpt>
      <trkpt lat="42.61468" lon="2.23933">
        <ele>1501.24</ele>
        <time>2014-05-09T10:54:17Z</time>
      </trkpt>
      <trkpt lat="42.61484" lon="2.23935">
        <ele>1501.24</ele>
        <time>2014-05-09T10:54:27Z</time>
      </trkpt>
      <trkpt lat="42.6149" lon="2.2394">
        <ele>1501.72</ele>
        <time>2014-05-09T10:54:49Z</time>
      </trkpt>
      <trkpt lat="42.6149" lon="2.23943">
        <ele>1501.72</ele>
        <time>2014-05-09T10:54:58Z</time>
      </trkpt>
      <trkpt lat="42.61488" lon="2.23947">
        <ele>1501.72</ele>
        <time>2014-05-09T10:55:04Z</time>
      </trkpt>
      <trkpt lat="42.61483" lon="2.23956">
        <ele>1501.72</ele>
        <time>2014-05-09T10:55:17Z</time>
      </trkpt>
      <trkpt lat="42.61482" lon="2.23953">
        <ele>1502.2</ele>
        <time>2014-05-09T10:55:43Z</time>
      </trkpt>
      <trkpt lat="42.61482" lon="2.23952">
        <ele>1502.68</ele>
        <time>2014-05-09T10:56:48Z</time>
      </trkpt>
      <trkpt lat="42.61482" lon="2.23952">
        <ele>1503.16</ele>
        <time>2014-05-09T10:57:10Z</time>
      </trkpt>
      <trkpt lat="42.61483" lon="2.2395">
        <ele>1502.68</ele>
        <time>2014-05-09T10:57:24Z</time>
      </trkpt>
      <trkpt lat="42.61485" lon="2.2395">
        <ele>1502.68</ele>
        <time>2014-05-09T10:58:08Z</time>
      </trkpt>
      <trkpt lat="42.61486" lon="2.23948">
        <ele>1503.16</ele>
        <time>2014-05-09T10:59:02Z</time>
      </trkpt>
      <trkpt lat="42.61486" lon="2.23948">
        <ele>1503.64</ele>
        <time>2014-05-09T10:59:15Z</time>
      </trkpt>
      <trkpt lat="42.61486" lon="2.23949">
        <ele>1504.12</ele>
        <time>2014-05-09T10:59:49Z</time>
      </trkpt>
      <trkpt lat="42.61486" lon="2.23948">
        <ele>1504.6</ele>
        <time>2014-05-09T11:00:32Z</time>
      </trkpt>
      <trkpt lat="42.61487" lon="2.23945">
        <ele>1504.6</ele>
        <time>2014-05-09T11:00:46Z</time>
      </trkpt>
      <trkpt lat="42.61487" lon="2.23945">
        <ele>1504.6</ele>
        <time>2014-05-09T11:01:00Z</time>
      </trkpt>
      <trkpt lat="42.61487" lon="2.23945">
        <ele>1505.08</ele>
        <time>2014-05-09T11:01:31Z</time>
      </trkpt>
      <trkpt lat="42.61487" lon="2.23945">
        <ele>1505.08</ele>
        <time>2014-05-09T11:01:45Z</time>
      </trkpt>
      <trkpt lat="42.61494" lon="2.23937">
        <ele>1504.6</ele>
        <time>2014-05-09T11:02:02Z</time>
      </trkpt>
      <trkpt lat="42.61503" lon="2.23937">
        <ele>1505.56</ele>
        <time>2014-05-09T11:02:09Z</time>
      </trkpt>
      <trkpt lat="42.61508" lon="2.23944">
        <ele>1505.56</ele>
        <time>2014-05-09T11:02:15Z</time>
      </trkpt>
      <trkpt lat="42.61514" lon="2.23946">
        <ele>1506.04</ele>
        <time>2014-05-09T11:02:23Z</time>
      </trkpt>
      <trkpt lat="42.61516" lon="2.2395">
        <ele>1506.52</ele>
        <time>2014-05-09T11:02:32Z</time>
      </trkpt>
      <trkpt lat="42.61524" lon="2.23957">
        <ele>1507</ele>
        <time>2014-05-09T11:02:38Z</time>
      </trkpt>
      <trkpt lat="42.61534" lon="2.23967">
        <ele>1507</ele>
        <time>2014-05-09T11:02:44Z</time>
      </trkpt>
      <trkpt lat="42.61536" lon="2.23974">
        <ele>1507.97</ele>
        <time>2014-05-09T11:02:47Z</time>
      </trkpt>
      <trkpt lat="42.61538" lon="2.23984">
        <ele>1508.45</ele>
        <time>2014-05-09T11:02:54Z</time>
      </trkpt>
      <trkpt lat="42.61543" lon="2.23986">
        <ele>1508.45</ele>
        <time>2014-05-09T11:03:00Z</time>
      </trkpt>
      <trkpt lat="42.61549" lon="2.2399">
        <ele>1509.41</ele>
        <time>2014-05-09T11:03:06Z</time>
      </trkpt>
      <trkpt lat="42.6156" lon="2.23993">
        <ele>1509.41</ele>
        <time>2014-05-09T11:03:15Z</time>
      </trkpt>
      <trkpt lat="42.61569" lon="2.23993">
        <ele>1509.89</ele>
        <time>2014-05-09T11:03:22Z</time>
      </trkpt>
      <trkpt lat="42.61577" lon="2.23997">
        <ele>1510.37</ele>
        <time>2014-05-09T11:03:30Z</time>
      </trkpt>
      <trkpt lat="42.61579" lon="2.24001">
        <ele>1510.85</ele>
        <time>2014-05-09T11:03:34Z</time>
      </trkpt>
      <trkpt lat="42.61585" lon="2.24009">
        <ele>1511.33</ele>
        <time>2014-05-09T11:03:41Z</time>
      </trkpt>
      <trkpt lat="42.61591" lon="2.24017">
        <ele>1512.77</ele>
        <time>2014-05-09T11:03:48Z</time>
      </trkpt>
      <trkpt lat="42.61591" lon="2.2402">
        <ele>1513.25</ele>
        <time>2014-05-09T11:03:50Z</time>
      </trkpt>
      <trkpt lat="42.61594" lon="2.24024">
        <ele>1513.25</ele>
        <time>2014-05-09T11:03:54Z</time>
      </trkpt>
      <trkpt lat="42.61599" lon="2.24033">
        <ele>1514.21</ele>
        <time>2014-05-09T11:04:01Z</time>
      </trkpt>
      <trkpt lat="42.61601" lon="2.24034">
        <ele>1514.21</ele>
        <time>2014-05-09T11:04:02Z</time>
      </trkpt>
      <trkpt lat="42.61607" lon="2.24041">
        <ele>1514.69</ele>
        <time>2014-05-09T11:04:09Z</time>
      </trkpt>
      <trkpt lat="42.61613" lon="2.24046">
        <ele>1514.21</ele>
        <time>2014-05-09T11:04:15Z</time>
      </trkpt>
      <trkpt lat="42.61614" lon="2.2405">
        <ele>1514.21</ele>
        <time>2014-05-09T11:04:23Z</time>
      </trkpt>
      <trkpt lat="42.61613" lon="2.24059">
        <ele>1515.18</ele>
        <time>2014-05-09T11:04:31Z</time>
      </trkpt>
      <trkpt lat="42.61613" lon="2.24065">
        <ele>1515.66</ele>
        <time>2014-05-09T11:04:40Z</time>
      </trkpt>
      <trkpt lat="42.61612" lon="2.24067">
        <ele>1516.14</ele>
        <time>2014-05-09T11:04:48Z</time>
      </trkpt>
      <trkpt lat="42.61611" lon="2.24073">
        <ele>1516.14</ele>
        <time>2014-05-09T11:04:56Z</time>
      </trkpt>
      <trkpt lat="42.61612" lon="2.24075">
        <ele>1517.1</ele>
        <time>2014-05-09T11:04:58Z</time>
      </trkpt>
      <trkpt lat="42.61612" lon="2.24082">
        <ele>1516.62</ele>
        <time>2014-05-09T11:05:04Z</time>
      </trkpt>
      <trkpt lat="42.61609" lon="2.24083">
        <ele>1517.58</ele>
        <time>2014-05-09T11:05:09Z</time>
      </trkpt>
      <trkpt lat="42.61608" lon="2.24084">
        <ele>1517.58</ele>
        <time>2014-05-09T11:05:11Z</time>
      </trkpt>
      <trkpt lat="42.61606" lon="2.24092">
        <ele>1517.58</ele>
        <time>2014-05-09T11:05:17Z</time>
      </trkpt>
      <trkpt lat="42.61606" lon="2.24095">
        <ele>1518.54</ele>
        <time>2014-05-09T11:05:22Z</time>
      </trkpt>
      <trkpt lat="42.61609" lon="2.24098">
        <ele>1519.02</ele>
        <time>2014-05-09T11:05:26Z</time>
      </trkpt>
      <trkpt lat="42.61612" lon="2.241">
        <ele>1518.54</ele>
        <time>2014-05-09T11:05:29Z</time>
      </trkpt>
      <trkpt lat="42.61614" lon="2.24107">
        <ele>1519.02</ele>
        <time>2014-05-09T11:05:35Z</time>
      </trkpt>
      <trkpt lat="42.61615" lon="2.24109">
        <ele>1519.5</ele>
        <time>2014-05-09T11:05:41Z</time>
      </trkpt>
      <trkpt lat="42.61619" lon="2.24115">
        <ele>1519.5</ele>
        <time>2014-05-09T11:05:47Z</time>
      </trkpt>
      <trkpt lat="42.6162" lon="2.2412">
        <ele>1519.98</ele>
        <time>2014-05-09T11:05:53Z</time>
      </trkpt>
      <trkpt lat="42.61625" lon="2.24126">
        <ele>1520.46</ele>
        <time>2014-05-09T11:06:01Z</time>
      </trkpt>
      <trkpt lat="42.61626" lon="2.24126">
        <ele>1520.94</ele>
        <time>2014-05-09T11:06:03Z</time>
      </trkpt>
      <trkpt lat="42.61637" lon="2.24134">
        <ele>1521.9</ele>
        <time>2014-05-09T11:06:12Z</time>
      </trkpt>
      <trkpt lat="42.61646" lon="2.2414">
        <ele>1523.83</ele>
        <time>2014-05-09T11:06:21Z</time>
      </trkpt>
      <trkpt lat="42.61648" lon="2.24148">
        <ele>1525.27</ele>
        <time>2014-05-09T11:06:28Z</time>
      </trkpt>
      <trkpt lat="42.6165" lon="2.24154">
        <ele>1525.27</ele>
        <time>2014-05-09T11:06:35Z</time>
      </trkpt>
      <trkpt lat="42.61652" lon="2.24162">
        <ele>1527.67</ele>
        <time>2014-05-09T11:06:44Z</time>
      </trkpt>
      <trkpt lat="42.61656" lon="2.24162">
        <ele>1529.11</ele>
        <time>2014-05-09T11:06:53Z</time>
      </trkpt>
      <trkpt lat="42.61656" lon="2.24163">
        <ele>1529.59</ele>
        <time>2014-05-09T11:06:54Z</time>
      </trkpt>
      <trkpt lat="42.6166" lon="2.24166">
        <ele>1530.56</ele>
        <time>2014-05-09T11:07:02Z</time>
      </trkpt>
      <trkpt lat="42.61665" lon="2.24168">
        <ele>1531.52</ele>
        <time>2014-05-09T11:07:10Z</time>
      </trkpt>
      <trkpt lat="42.61668" lon="2.24172">
        <ele>1532</ele>
        <time>2014-05-09T11:07:16Z</time>
      </trkpt>
      <trkpt lat="42.61672" lon="2.24179">
        <ele>1533.92</ele>
        <time>2014-05-09T11:07:23Z</time>
      </trkpt>
      <trkpt lat="42.61674" lon="2.24184">
        <ele>1534.4</ele>
        <time>2014-05-09T11:07:31Z</time>
      </trkpt>
      <trkpt lat="42.61678" lon="2.24186">
        <ele>1534.88</ele>
        <time>2014-05-09T11:07:38Z</time>
      </trkpt>
      <trkpt lat="42.61678" lon="2.24185">
        <ele>1533.92</ele>
        <time>2014-05-09T11:07:51Z</time>
      </trkpt>
      <trkpt lat="42.61682" lon="2.24183">
        <ele>1532.96</ele>
        <time>2014-05-09T11:08:07Z</time>
      </trkpt>
      <trkpt lat="42.61685" lon="2.24181">
        <ele>1532.48</ele>
        <time>2014-05-09T11:08:13Z</time>
      </trkpt>
      <trkpt lat="42.61689" lon="2.2418">
        <ele>1532</ele>
        <time>2014-05-09T11:08:20Z</time>
      </trkpt>
      <trkpt lat="42.61689" lon="2.2418">
        <ele>1531.52</ele>
        <time>2014-05-09T11:08:32Z</time>
      </trkpt>
      <trkpt lat="42.61693" lon="2.24179">
        <ele>1529.59</ele>
        <time>2014-05-09T11:08:47Z</time>
      </trkpt>
      <trkpt lat="42.61694" lon="2.24178">
        <ele>1528.15</ele>
        <time>2014-05-09T11:09:01Z</time>
      </trkpt>
      <trkpt lat="42.61699" lon="2.24176">
        <ele>1527.67</ele>
        <time>2014-05-09T11:09:10Z</time>
      </trkpt>
      <trkpt lat="42.61704" lon="2.24173">
        <ele>1526.71</ele>
        <time>2014-05-09T11:09:17Z</time>
      </trkpt>
      <trkpt lat="42.61708" lon="2.24168">
        <ele>1527.67</ele>
        <time>2014-05-09T11:09:29Z</time>
      </trkpt>
      <trkpt lat="42.61715" lon="2.24161">
        <ele>1528.63</ele>
        <time>2014-05-09T11:09:36Z</time>
      </trkpt>
      <trkpt lat="42.61718" lon="2.24155">
        <ele>1529.11</ele>
        <time>2014-05-09T11:09:42Z</time>
      </trkpt>
      <trkpt lat="42.61727" lon="2.24149">
        <ele>1531.04</ele>
        <time>2014-05-09T11:09:50Z</time>
      </trkpt>
      <trkpt lat="42.61732" lon="2.24146">
        <ele>1531.52</ele>
        <time>2014-05-09T11:09:56Z</time>
      </trkpt>
      <trkpt lat="42.61738" lon="2.24141">
        <ele>1532.96</ele>
        <time>2014-05-09T11:10:04Z</time>
      </trkpt>
      <trkpt lat="42.6174" lon="2.24142">
        <ele>1532.96</ele>
        <time>2014-05-09T11:10:09Z</time>
      </trkpt>
      <trkpt lat="42.61744" lon="2.24136">
        <ele>1533.92</ele>
        <time>2014-05-09T11:10:15Z</time>
      </trkpt>
      <trkpt lat="42.61748" lon="2.24127">
        <ele>1534.4</ele>
        <time>2014-05-09T11:10:22Z</time>
      </trkpt>
      <trkpt lat="42.6175" lon="2.24121">
        <ele>1535.84</ele>
        <time>2014-05-09T11:10:29Z</time>
      </trkpt>
      <trkpt lat="42.61753" lon="2.24116">
        <ele>1537.77</ele>
        <time>2014-05-09T11:10:37Z</time>
      </trkpt>
      <trkpt lat="42.61758" lon="2.24111">
        <ele>1538.73</ele>
        <time>2014-05-09T11:10:46Z</time>
      </trkpt>
      <trkpt lat="42.61763" lon="2.24102">
        <ele>1540.17</ele>
        <time>2014-05-09T11:10:54Z</time>
      </trkpt>
      <trkpt lat="42.61764" lon="2.24098">
        <ele>1540.65</ele>
        <time>2014-05-09T11:11:01Z</time>
      </trkpt>
      <trkpt lat="42.61766" lon="2.24094">
        <ele>1541.61</ele>
        <time>2014-05-09T11:11:09Z</time>
      </trkpt>
      <trkpt lat="42.61765" lon="2.24089">
        <ele>1541.13</ele>
        <time>2014-05-09T11:11:18Z</time>
      </trkpt>
      <trkpt lat="42.61765" lon="2.24082">
        <ele>1541.61</ele>
        <time>2014-05-09T11:11:26Z</time>
      </trkpt>
      <trkpt lat="42.61766" lon="2.24082">
        <ele>1541.61</ele>
        <time>2014-05-09T11:11:37Z</time>
      </trkpt>
      <trkpt lat="42.61766" lon="2.24082">
        <ele>1539.69</ele>
        <time>2014-05-09T11:11:39Z</time>
      </trkpt>
      <trkpt lat="42.61766" lon="2.24082">
        <ele>1543.05</ele>
        <time>2014-05-09T11:11:40Z</time>
      </trkpt>
      <trkpt lat="42.61766" lon="2.24082">
        <ele>1541.61</ele>
        <time>2014-05-09T11:11:41Z</time>
      </trkpt>
      <trkpt lat="42.61767" lon="2.24086">
        <ele>1541.61</ele>
        <time>2014-05-09T11:11:49Z</time>
      </trkpt>
      <trkpt lat="42.61775" lon="2.24093">
        <ele>1542.09</ele>
        <time>2014-05-09T11:11:57Z</time>
      </trkpt>
      <trkpt lat="42.61781" lon="2.24091">
        <ele>1543.05</ele>
        <time>2014-05-09T11:12:04Z</time>
      </trkpt>
      <trkpt lat="42.61788" lon="2.2409">
        <ele>1544.5</ele>
        <time>2014-05-09T11:12:11Z</time>
      </trkpt>
      <trkpt lat="42.61793" lon="2.2409">
        <ele>1545.94</ele>
        <time>2014-05-09T11:12:19Z</time>
      </trkpt>
      <trkpt lat="42.61794" lon="2.24091">
        <ele>1546.9</ele>
        <time>2014-05-09T11:12:28Z</time>
      </trkpt>
      <trkpt lat="42.61795" lon="2.24089">
        <ele>1546.9</ele>
        <time>2014-05-09T11:12:42Z</time>
      </trkpt>
      <trkpt lat="42.61793" lon="2.24082">
        <ele>1547.38</ele>
        <time>2014-05-09T11:12:51Z</time>
      </trkpt>
      <trkpt lat="42.61794" lon="2.24079">
        <ele>1547.86</ele>
        <time>2014-05-09T11:13:02Z</time>
      </trkpt>
      <trkpt lat="42.61794" lon="2.24077">
        <ele>1546.9</ele>
        <time>2014-05-09T11:13:09Z</time>
      </trkpt>
      <trkpt lat="42.61794" lon="2.24077">
        <ele>1547.86</ele>
        <time>2014-05-09T11:13:11Z</time>
      </trkpt>
      <trkpt lat="42.61794" lon="2.24077">
        <ele>1549.3</ele>
        <time>2014-05-09T11:13:18Z</time>
      </trkpt>
      <trkpt lat="42.61796" lon="2.24073">
        <ele>1550.74</ele>
        <time>2014-05-09T11:13:28Z</time>
      </trkpt>
      <trkpt lat="42.61796" lon="2.24067">
        <ele>1551.71</ele>
        <time>2014-05-09T11:13:38Z</time>
      </trkpt>
      <trkpt lat="42.61796" lon="2.24065">
        <ele>1551.22</ele>
        <time>2014-05-09T11:13:49Z</time>
      </trkpt>
      <trkpt lat="42.61798" lon="2.24061">
        <ele>1554.59</ele>
        <time>2014-05-09T11:13:54Z</time>
      </trkpt>
      <trkpt lat="42.61803" lon="2.2405">
        <ele>1554.59</ele>
        <time>2014-05-09T11:14:02Z</time>
      </trkpt>
      <trkpt lat="42.61808" lon="2.24044">
        <ele>1555.55</ele>
        <time>2014-05-09T11:14:10Z</time>
      </trkpt>
      <trkpt lat="42.61808" lon="2.24043">
        <ele>1556.51</ele>
        <time>2014-05-09T11:14:22Z</time>
      </trkpt>
      <trkpt lat="42.6181" lon="2.24033">
        <ele>1557.47</ele>
        <time>2014-05-09T11:14:31Z</time>
      </trkpt>
      <trkpt lat="42.61813" lon="2.24025">
        <ele>1556.51</ele>
        <time>2014-05-09T11:14:37Z</time>
      </trkpt>
      <trkpt lat="42.61823" lon="2.24013">
        <ele>1556.99</ele>
        <time>2014-05-09T11:14:47Z</time>
      </trkpt>
      <trkpt lat="42.61829" lon="2.24005">
        <ele>1557.95</ele>
        <time>2014-05-09T11:14:55Z</time>
      </trkpt>
      <trkpt lat="42.6183" lon="2.24002">
        <ele>1557.95</ele>
        <time>2014-05-09T11:15:03Z</time>
      </trkpt>
      <trkpt lat="42.61831" lon="2.23992">
        <ele>1556.99</ele>
        <time>2014-05-09T11:15:10Z</time>
      </trkpt>
      <trkpt lat="42.61835" lon="2.2398">
        <ele>1557.95</ele>
        <time>2014-05-09T11:15:18Z</time>
      </trkpt>
      <trkpt lat="42.61836" lon="2.23973">
        <ele>1558.43</ele>
        <time>2014-05-09T11:15:26Z</time>
      </trkpt>
      <trkpt lat="42.61843" lon="2.23967">
        <ele>1558.92</ele>
        <time>2014-05-09T11:15:33Z</time>
      </trkpt>
      <trkpt lat="42.61849" lon="2.23958">
        <ele>1558.92</ele>
        <time>2014-05-09T11:15:42Z</time>
      </trkpt>
      <trkpt lat="42.61856" lon="2.23961">
        <ele>1559.4</ele>
        <time>2014-05-09T11:15:50Z</time>
      </trkpt>
      <trkpt lat="42.61859" lon="2.2396">
        <ele>1559.88</ele>
        <time>2014-05-09T11:15:56Z</time>
      </trkpt>
      <trkpt lat="42.61858" lon="2.23963">
        <ele>1559.88</ele>
        <time>2014-05-09T11:16:12Z</time>
      </trkpt>
      <trkpt lat="42.61858" lon="2.23968">
        <ele>1559.88</ele>
        <time>2014-05-09T11:16:21Z</time>
      </trkpt>
      <trkpt lat="42.61856" lon="2.23975">
        <ele>1560.36</ele>
        <time>2014-05-09T11:16:28Z</time>
      </trkpt>
      <trkpt lat="42.61855" lon="2.23981">
        <ele>1560.36</ele>
        <time>2014-05-09T11:16:36Z</time>
      </trkpt>
      <trkpt lat="42.61853" lon="2.23986">
        <ele>1560.36</ele>
        <time>2014-05-09T11:16:44Z</time>
      </trkpt>
      <trkpt lat="42.61854" lon="2.23986">
        <ele>1559.88</ele>
        <time>2014-05-09T11:16:58Z</time>
      </trkpt>
      <trkpt lat="42.61854" lon="2.23987">
        <ele>1560.36</ele>
        <time>2014-05-09T11:17:15Z</time>
      </trkpt>
      <trkpt lat="42.61853" lon="2.23988">
        <ele>1559.88</ele>
        <time>2014-05-09T11:17:56Z</time>
      </trkpt>
      <trkpt lat="42.61852" lon="2.23988">
        <ele>1559.88</ele>
        <time>2014-05-09T11:20:15Z</time>
      </trkpt>
      <trkpt lat="42.61854" lon="2.23991">
        <ele>1560.84</ele>
        <time>2014-05-09T11:28:49Z</time>
      </trkpt>
      <trkpt lat="42.61858" lon="2.23991">
        <ele>1561.8</ele>
        <time>2014-05-09T11:28:55Z</time>
      </trkpt>
      <trkpt lat="42.61859" lon="2.23991">
        <ele>1561.32</ele>
        <time>2014-05-09T11:28:56Z</time>
      </trkpt>
      <trkpt lat="42.61863" lon="2.23986">
        <ele>1561.8</ele>
        <time>2014-05-09T11:29:02Z</time>
      </trkpt>
      <trkpt lat="42.61862" lon="2.23985">
        <ele>1562.28</ele>
        <time>2014-05-09T11:35:28Z</time>
      </trkpt>
      <trkpt lat="42.61862" lon="2.23985">
        <ele>1561.32</ele>
        <time>2014-05-09T11:36:14Z</time>
      </trkpt>
      <trkpt lat="42.61861" lon="2.23984">
        <ele>1561.32</ele>
        <time>2014-05-09T11:44:10Z</time>
      </trkpt>
      <trkpt lat="42.61861" lon="2.23984">
        <ele>1564.2</ele>
        <time>2014-05-09T11:54:08Z</time>
      </trkpt>
      <trkpt lat="42.61864" lon="2.23986">
        <ele>1564.2</ele>
        <time>2014-05-09T11:54:16Z</time>
      </trkpt>
      <trkpt lat="42.61863" lon="2.23986">
        <ele>1564.2</ele>
        <time>2014-05-09T11:54:28Z</time>
      </trkpt>
      <trkpt lat="42.61863" lon="2.23986">
        <ele>1564.68</ele>
        <time>2014-05-09T11:54:37Z</time>
      </trkpt>
      <trkpt lat="42.61863" lon="2.23986">
        <ele>1564.2</ele>
        <time>2014-05-09T11:54:51Z</time>
      </trkpt>
      <trkpt lat="42.61864" lon="2.23985">
        <ele>1564.68</ele>
        <time>2014-05-09T11:55:19Z</time>
      </trkpt>
      <trkpt lat="42.61864" lon="2.23986">
        <ele>1564.68</ele>
        <time>2014-05-09T11:55:38Z</time>
      </trkpt>
      <trkpt lat="42.61864" lon="2.23986">
        <ele>1564.68</ele>
        <time>2014-05-09T11:55:55Z</time>
      </trkpt>
      <trkpt lat="42.61863" lon="2.23987">
        <ele>1564.68</ele>
        <time>2014-05-09T11:56:29Z</time>
      </trkpt>
      <trkpt lat="42.61863" lon="2.23987">
        <ele>1565.16</ele>
        <time>2014-05-09T11:57:32Z</time>
      </trkpt>
      <trkpt lat="42.61861" lon="2.23986">
        <ele>1565.16</ele>
        <time>2014-05-09T11:57:53Z</time>
      </trkpt>
      <trkpt lat="42.61857" lon="2.23988">
        <ele>1565.16</ele>
        <time>2014-05-09T11:57:59Z</time>
      </trkpt>
      <trkpt lat="42.61856" lon="2.23988">
        <ele>1564.2</ele>
        <time>2014-05-09T11:58:06Z</time>
      </trkpt>
      <trkpt lat="42.61856" lon="2.23988">
        <ele>1564.2</ele>
        <time>2014-05-09T11:58:17Z</time>
      </trkpt>
      <trkpt lat="42.61856" lon="2.23988">
        <ele>1563.24</ele>
        <time>2014-05-09T11:58:26Z</time>
      </trkpt>
      <trkpt lat="42.61856" lon="2.23988">
        <ele>1564.2</ele>
        <time>2014-05-09T11:58:46Z</time>
      </trkpt>
      <trkpt lat="42.61856" lon="2.23988">
        <ele>1564.2</ele>
        <time>2014-05-09T11:59:17Z</time>
      </trkpt>
      <trkpt lat="42.61856" lon="2.23987">
        <ele>1564.68</ele>
        <time>2014-05-09T12:01:08Z</time>
      </trkpt>
      <trkpt lat="42.61856" lon="2.23988">
        <ele>1565.16</ele>
        <time>2014-05-09T12:01:21Z</time>
      </trkpt>
      <trkpt lat="42.61856" lon="2.23988">
        <ele>1564.68</ele>
        <time>2014-05-09T12:01:46Z</time>
      </trkpt>
      <trkpt lat="42.61856" lon="2.23988">
        <ele>1564.68</ele>
        <time>2014-05-09T12:01:59Z</time>
      </trkpt>
      <trkpt lat="42.61857" lon="2.23983">
        <ele>1565.16</ele>
        <time>2014-05-09T12:02:36Z</time>
      </trkpt>
      <trkpt lat="42.6186" lon="2.23983">
        <ele>1565.64</ele>
        <time>2014-05-09T12:02:41Z</time>
      </trkpt>
      <trkpt lat="42.61862" lon="2.23982">
        <ele>1565.64</ele>
        <time>2014-05-09T12:02:48Z</time>
      </trkpt>
      <trkpt lat="42.61861" lon="2.23983">
        <ele>1566.12</ele>
        <time>2014-05-09T12:02:54Z</time>
      </trkpt>
      <trkpt lat="42.61859" lon="2.23987">
        <ele>1565.64</ele>
        <time>2014-05-09T12:02:59Z</time>
      </trkpt>
      <trkpt lat="42.61859" lon="2.23987">
        <ele>1565.64</ele>
        <time>2014-05-09T12:03:17Z</time>
      </trkpt>
      <trkpt lat="42.61859" lon="2.23987">
        <ele>1566.12</ele>
        <time>2014-05-09T12:03:31Z</time>
      </trkpt>
      <trkpt lat="42.6186" lon="2.23989">
        <ele>1565.64</ele>
        <time>2014-05-09T12:03:56Z</time>
      </trkpt>
      <trkpt lat="42.61861" lon="2.23991">
        <ele>1565.64</ele>
        <time>2014-05-09T12:04:04Z</time>
      </trkpt>
      <trkpt lat="42.61861" lon="2.23991">
        <ele>1566.12</ele>
        <time>2014-05-09T12:04:14Z</time>
      </trkpt>
      <trkpt lat="42.61861" lon="2.23991">
        <ele>1565.64</ele>
        <time>2014-05-09T12:04:28Z</time>
      </trkpt>
      <trkpt lat="42.61861" lon="2.23991">
        <ele>1566.12</ele>
        <time>2014-05-09T12:04:39Z</time>
      </trkpt>
      <trkpt lat="42.61862" lon="2.23991">
        <ele>1565.64</ele>
        <time>2014-05-09T12:04:59Z</time>
      </trkpt>
      <trkpt lat="42.61863" lon="2.23992">
        <ele>1566.61</ele>
        <time>2014-05-09T12:05:08Z</time>
      </trkpt>
      <trkpt lat="42.61865" lon="2.23993">
        <ele>1566.12</ele>
        <time>2014-05-09T12:05:29Z</time>
      </trkpt>
      <trkpt lat="42.61865" lon="2.23993">
        <ele>1566.61</ele>
        <time>2014-05-09T12:05:43Z</time>
      </trkpt>
      <trkpt lat="42.6187" lon="2.23993">
        <ele>1565.64</ele>
        <time>2014-05-09T12:05:51Z</time>
      </trkpt>
      <trkpt lat="42.61872" lon="2.23994">
        <ele>1566.61</ele>
        <time>2014-05-09T12:06:01Z</time>
      </trkpt>
      <trkpt lat="42.61871" lon="2.23996">
        <ele>1566.61</ele>
        <time>2014-05-09T12:06:35Z</time>
      </trkpt>
      <trkpt lat="42.61871" lon="2.23996">
        <ele>1563.24</ele>
        <time>2014-05-09T12:06:36Z</time>
      </trkpt>
      <trkpt lat="42.61871" lon="2.23996">
        <ele>1566.12</ele>
        <time>2014-05-09T12:06:37Z</time>
      </trkpt>
      <trkpt lat="42.61871" lon="2.23996">
        <ele>1566.61</ele>
        <time>2014-05-09T12:06:54Z</time>
      </trkpt>
      <trkpt lat="42.61871" lon="2.23996">
        <ele>1566.61</ele>
        <time>2014-05-09T12:07:03Z</time>
      </trkpt>
      <trkpt lat="42.61871" lon="2.23996">
        <ele>1566.61</ele>
        <time>2014-05-09T12:07:14Z</time>
      </trkpt>
      <trkpt lat="42.61873" lon="2.23996">
        <ele>1566.12</ele>
        <time>2014-05-09T12:07:33Z</time>
      </trkpt>
      <trkpt lat="42.61873" lon="2.23996">
        <ele>1566.12</ele>
        <time>2014-05-09T12:07:47Z</time>
      </trkpt>
      <trkpt lat="42.61873" lon="2.23996">
        <ele>1566.12</ele>
        <time>2014-05-09T12:08:10Z</time>
      </trkpt>
      <trkpt lat="42.61872" lon="2.23997">
        <ele>1566.61</ele>
        <time>2014-05-09T12:08:44Z</time>
      </trkpt>
      <trkpt lat="42.6187" lon="2.24002">
        <ele>1566.12</ele>
        <time>2014-05-09T12:08:50Z</time>
      </trkpt>
      <trkpt lat="42.61868" lon="2.24007">
        <ele>1565.64</ele>
        <time>2014-05-09T12:08:58Z</time>
      </trkpt>
      <trkpt lat="42.61866" lon="2.24012">
        <ele>1565.64</ele>
        <time>2014-05-09T12:09:05Z</time>
      </trkpt>
      <trkpt lat="42.61865" lon="2.24019">
        <ele>1564.68</ele>
        <time>2014-05-09T12:09:10Z</time>
      </trkpt>
      <trkpt lat="42.61865" lon="2.24023">
        <ele>1564.68</ele>
        <time>2014-05-09T12:09:13Z</time>
      </trkpt>
      <trkpt lat="42.61865" lon="2.24032">
        <ele>1564.68</ele>
        <time>2014-05-09T12:09:19Z</time>
      </trkpt>
      <trkpt lat="42.61864" lon="2.24041">
        <ele>1563.72</ele>
        <time>2014-05-09T12:09:25Z</time>
      </trkpt>
      <trkpt lat="42.61863" lon="2.24043">
        <ele>1563.72</ele>
        <time>2014-05-09T12:09:31Z</time>
      </trkpt>
      <trkpt lat="42.61861" lon="2.24046">
        <ele>1563.24</ele>
        <time>2014-05-09T12:09:39Z</time>
      </trkpt>
      <trkpt lat="42.61859" lon="2.2405">
        <ele>1563.72</ele>
        <time>2014-05-09T12:09:48Z</time>
      </trkpt>
      <trkpt lat="42.61861" lon="2.24058">
        <ele>1564.2</ele>
        <time>2014-05-09T12:09:54Z</time>
      </trkpt>
      <trkpt lat="42.61857" lon="2.24064">
        <ele>1563.72</ele>
        <time>2014-05-09T12:10:03Z</time>
      </trkpt>
      <trkpt lat="42.61857" lon="2.24071">
        <ele>1563.72</ele>
        <time>2014-05-09T12:10:08Z</time>
      </trkpt>
      <trkpt lat="42.61861" lon="2.24081">
        <ele>1563.72</ele>
        <time>2014-05-09T12:10:14Z</time>
      </trkpt>
      <trkpt lat="42.61861" lon="2.24085">
        <ele>1563.72</ele>
        <time>2014-05-09T12:10:22Z</time>
      </trkpt>
      <trkpt lat="42.61865" lon="2.24096">
        <ele>1565.64</ele>
        <time>2014-05-09T12:10:32Z</time>
      </trkpt>
      <trkpt lat="42.61863" lon="2.24106">
        <ele>1565.64</ele>
        <time>2014-05-09T12:10:40Z</time>
      </trkpt>
      <trkpt lat="42.61862" lon="2.24113">
        <ele>1566.61</ele>
        <time>2014-05-09T12:10:46Z</time>
      </trkpt>
      <trkpt lat="42.61862" lon="2.24115">
        <ele>1568.05</ele>
        <time>2014-05-09T12:10:56Z</time>
      </trkpt>
      <trkpt lat="42.61861" lon="2.24121">
        <ele>1569.49</ele>
        <time>2014-05-09T12:11:07Z</time>
      </trkpt>
      <trkpt lat="42.61855" lon="2.24142">
        <ele>1569.49</ele>
        <time>2014-05-09T12:11:18Z</time>
      </trkpt>
      <trkpt lat="42.61853" lon="2.24151">
        <ele>1569.01</ele>
        <time>2014-05-09T12:11:25Z</time>
      </trkpt>
      <trkpt lat="42.6185" lon="2.2416">
        <ele>1568.53</ele>
        <time>2014-05-09T12:11:33Z</time>
      </trkpt>
      <trkpt lat="42.61847" lon="2.24161">
        <ele>1568.53</ele>
        <time>2014-05-09T12:11:41Z</time>
      </trkpt>
      <trkpt lat="42.6184" lon="2.24168">
        <ele>1569.01</ele>
        <time>2014-05-09T12:11:50Z</time>
      </trkpt>
      <trkpt lat="42.61837" lon="2.2418">
        <ele>1569.01</ele>
        <time>2014-05-09T12:11:58Z</time>
      </trkpt>
      <trkpt lat="42.61834" lon="2.24191">
        <ele>1569.97</ele>
        <time>2014-05-09T12:12:06Z</time>
      </trkpt>
      <trkpt lat="42.61829" lon="2.24196">
        <ele>1569.97</ele>
        <time>2014-05-09T12:12:13Z</time>
      </trkpt>
      <trkpt lat="42.61826" lon="2.24201">
        <ele>1569.97</ele>
        <time>2014-05-09T12:12:21Z</time>
      </trkpt>
      <trkpt lat="42.61826" lon="2.24203">
        <ele>1569.49</ele>
        <time>2014-05-09T12:12:30Z</time>
      </trkpt>
      <trkpt lat="42.61823" lon="2.24208">
        <ele>1569.97</ele>
        <time>2014-05-09T12:12:37Z</time>
      </trkpt>
      <trkpt lat="42.61818" lon="2.24204">
        <ele>1569.49</ele>
        <time>2014-05-09T12:12:42Z</time>
      </trkpt>
      <trkpt lat="42.61818" lon="2.24204">
        <ele>1569.01</ele>
        <time>2014-05-09T12:12:56Z</time>
      </trkpt>
      <trkpt lat="42.61818" lon="2.24204">
        <ele>1569.49</ele>
        <time>2014-05-09T12:13:18Z</time>
      </trkpt>
      <trkpt lat="42.61818" lon="2.24202">
        <ele>1569.97</ele>
        <time>2014-05-09T12:13:24Z</time>
      </trkpt>
      <trkpt lat="42.61818" lon="2.24202">
        <ele>1569.97</ele>
        <time>2014-05-09T12:13:32Z</time>
      </trkpt>
      <trkpt lat="42.61817" lon="2.24202">
        <ele>1569.97</ele>
        <time>2014-05-09T12:13:53Z</time>
      </trkpt>
      <trkpt lat="42.61814" lon="2.24206">
        <ele>1569.97</ele>
        <time>2014-05-09T12:13:59Z</time>
      </trkpt>
      <trkpt lat="42.61809" lon="2.24223">
        <ele>1570.93</ele>
        <time>2014-05-09T12:14:08Z</time>
      </trkpt>
      <trkpt lat="42.61809" lon="2.24228">
        <ele>1570.45</ele>
        <time>2014-05-09T12:14:11Z</time>
      </trkpt>
      <trkpt lat="42.61801" lon="2.24238">
        <ele>1570.93</ele>
        <time>2014-05-09T12:14:20Z</time>
      </trkpt>
      <trkpt lat="42.61796" lon="2.24248">
        <ele>1572.85</ele>
        <time>2014-05-09T12:14:28Z</time>
      </trkpt>
      <trkpt lat="42.61791" lon="2.24255">
        <ele>1573.33</ele>
        <time>2014-05-09T12:14:35Z</time>
      </trkpt>
      <trkpt lat="42.61787" lon="2.24258">
        <ele>1573.33</ele>
        <time>2014-05-09T12:14:43Z</time>
      </trkpt>
      <trkpt lat="42.61784" lon="2.24265">
        <ele>1573.82</ele>
        <time>2014-05-09T12:14:50Z</time>
      </trkpt>
      <trkpt lat="42.61778" lon="2.24272">
        <ele>1573.82</ele>
        <time>2014-05-09T12:15:01Z</time>
      </trkpt>
      <trkpt lat="42.61771" lon="2.24279">
        <ele>1574.78</ele>
        <time>2014-05-09T12:15:09Z</time>
      </trkpt>
      <trkpt lat="42.61765" lon="2.24287">
        <ele>1575.26</ele>
        <time>2014-05-09T12:15:17Z</time>
      </trkpt>
      <trkpt lat="42.6176" lon="2.24293">
        <ele>1575.74</ele>
        <time>2014-05-09T12:15:25Z</time>
      </trkpt>
      <trkpt lat="42.61745" lon="2.24299">
        <ele>1576.7</ele>
        <time>2014-05-09T12:15:34Z</time>
      </trkpt>
      <trkpt lat="42.61736" lon="2.24301">
        <ele>1577.18</ele>
        <time>2014-05-09T12:15:42Z</time>
      </trkpt>
      <trkpt lat="42.61725" lon="2.24302">
        <ele>1577.66</ele>
        <time>2014-05-09T12:15:49Z</time>
      </trkpt>
      <trkpt lat="42.61717" lon="2.24306">
        <ele>1578.62</ele>
        <time>2014-05-09T12:15:58Z</time>
      </trkpt>
      <trkpt lat="42.61705" lon="2.24307">
        <ele>1579.58</ele>
        <time>2014-05-09T12:16:06Z</time>
      </trkpt>
      <trkpt lat="42.61696" lon="2.24314">
        <ele>1579.58</ele>
        <time>2014-05-09T12:16:13Z</time>
      </trkpt>
      <trkpt lat="42.61682" lon="2.24313">
        <ele>1580.06</ele>
        <time>2014-05-09T12:16:21Z</time>
      </trkpt>
      <trkpt lat="42.6168" lon="2.24312">
        <ele>1580.06</ele>
        <time>2014-05-09T12:16:22Z</time>
      </trkpt>
      <trkpt lat="42.6167" lon="2.24305">
        <ele>1580.06</ele>
        <time>2014-05-09T12:16:30Z</time>
      </trkpt>
      <trkpt lat="42.61667" lon="2.24304">
        <ele>1580.54</ele>
        <time>2014-05-09T12:16:37Z</time>
      </trkpt>
      <trkpt lat="42.61662" lon="2.24308">
        <ele>1581.99</ele>
        <time>2014-05-09T12:16:46Z</time>
      </trkpt>
      <trkpt lat="42.61653" lon="2.24307">
        <ele>1581.99</ele>
        <time>2014-05-09T12:16:53Z</time>
      </trkpt>
      <trkpt lat="42.61646" lon="2.24306">
        <ele>1583.43</ele>
        <time>2014-05-09T12:17:01Z</time>
      </trkpt>
      <trkpt lat="42.61635" lon="2.24304">
        <ele>1582.95</ele>
        <time>2014-05-09T12:17:09Z</time>
      </trkpt>
      <trkpt lat="42.61627" lon="2.24303">
        <ele>1583.43</ele>
        <time>2014-05-09T12:17:15Z</time>
      </trkpt>
      <trkpt lat="42.6162" lon="2.24301">
        <ele>1583.91</ele>
        <time>2014-05-09T12:17:22Z</time>
      </trkpt>
      <trkpt lat="42.61615" lon="2.24301">
        <ele>1584.39</ele>
        <time>2014-05-09T12:17:29Z</time>
      </trkpt>
      <trkpt lat="42.61611" lon="2.24302">
        <ele>1585.35</ele>
        <time>2014-05-09T12:17:37Z</time>
      </trkpt>
      <trkpt lat="42.61608" lon="2.24304">
        <ele>1585.83</ele>
        <time>2014-05-09T12:17:48Z</time>
      </trkpt>
      <trkpt lat="42.61601" lon="2.24308">
        <ele>1586.31</ele>
        <time>2014-05-09T12:17:56Z</time>
      </trkpt>
      <trkpt lat="42.61593" lon="2.24312">
        <ele>1586.79</ele>
        <time>2014-05-09T12:18:05Z</time>
      </trkpt>
      <trkpt lat="42.61588" lon="2.24314">
        <ele>1587.27</ele>
        <time>2014-05-09T12:18:12Z</time>
      </trkpt>
      <trkpt lat="42.61584" lon="2.24316">
        <ele>1587.75</ele>
        <time>2014-05-09T12:18:19Z</time>
      </trkpt>
      <trkpt lat="42.61583" lon="2.24318">
        <ele>1588.24</ele>
        <time>2014-05-09T12:18:22Z</time>
      </trkpt>
      <trkpt lat="42.61573" lon="2.24326">
        <ele>1588.72</ele>
        <time>2014-05-09T12:18:30Z</time>
      </trkpt>
      <trkpt lat="42.61565" lon="2.24329">
        <ele>1589.2</ele>
        <time>2014-05-09T12:18:38Z</time>
      </trkpt>
      <trkpt lat="42.6156" lon="2.24334">
        <ele>1590.16</ele>
        <time>2014-05-09T12:18:45Z</time>
      </trkpt>
      <trkpt lat="42.61552" lon="2.2434">
        <ele>1590.64</ele>
        <time>2014-05-09T12:18:54Z</time>
      </trkpt>
      <trkpt lat="42.61542" lon="2.24339">
        <ele>1592.08</ele>
        <time>2014-05-09T12:19:04Z</time>
      </trkpt>
      <trkpt lat="42.61521" lon="2.2434">
        <ele>1592.08</ele>
        <time>2014-05-09T12:19:13Z</time>
      </trkpt>
      <trkpt lat="42.6151" lon="2.24341">
        <ele>1593.04</ele>
        <time>2014-05-09T12:19:22Z</time>
      </trkpt>
      <trkpt lat="42.61498" lon="2.24335">
        <ele>1594.48</ele>
        <time>2014-05-09T12:19:30Z</time>
      </trkpt>
      <trkpt lat="42.61496" lon="2.24334">
        <ele>1594.48</ele>
        <time>2014-05-09T12:19:31Z</time>
      </trkpt>
      <trkpt lat="42.61489" lon="2.24331">
        <ele>1594.48</ele>
        <time>2014-05-09T12:19:38Z</time>
      </trkpt>
      <trkpt lat="42.61485" lon="2.24327">
        <ele>1594.96</ele>
        <time>2014-05-09T12:19:46Z</time>
      </trkpt>
      <trkpt lat="42.6148" lon="2.24323">
        <ele>1595.45</ele>
        <time>2014-05-09T12:20:04Z</time>
      </trkpt>
      <trkpt lat="42.61478" lon="2.24323">
        <ele>1595.45</ele>
        <time>2014-05-09T12:20:08Z</time>
      </trkpt>
      <trkpt lat="42.61469" lon="2.24322">
        <ele>1596.41</ele>
        <time>2014-05-09T12:20:17Z</time>
      </trkpt>
      <trkpt lat="42.61459" lon="2.2432">
        <ele>1597.37</ele>
        <time>2014-05-09T12:20:26Z</time>
      </trkpt>
      <trkpt lat="42.61455" lon="2.2432">
        <ele>1597.37</ele>
        <time>2014-05-09T12:20:31Z</time>
      </trkpt>
      <trkpt lat="42.61446" lon="2.24321">
        <ele>1598.33</ele>
        <time>2014-05-09T12:20:39Z</time>
      </trkpt>
      <trkpt lat="42.61443" lon="2.24322">
        <ele>1598.81</ele>
        <time>2014-05-09T12:20:49Z</time>
      </trkpt>
      <trkpt lat="42.61434" lon="2.24324">
        <ele>1599.77</ele>
        <time>2014-05-09T12:20:58Z</time>
      </trkpt>
      <trkpt lat="42.6143" lon="2.24326">
        <ele>1600.25</ele>
        <time>2014-05-09T12:21:00Z</time>
      </trkpt>
      <trkpt lat="42.61419" lon="2.24334">
        <ele>1601.21</ele>
        <time>2014-05-09T12:21:10Z</time>
      </trkpt>
      <trkpt lat="42.61412" lon="2.2434">
        <ele>1600.73</ele>
        <time>2014-05-09T12:21:18Z</time>
      </trkpt>
      <trkpt lat="42.61403" lon="2.24342">
        <ele>1601.21</ele>
        <time>2014-05-09T12:21:26Z</time>
      </trkpt>
      <trkpt lat="42.61395" lon="2.24344">
        <ele>1603.14</ele>
        <time>2014-05-09T12:21:33Z</time>
      </trkpt>
      <trkpt lat="42.61385" lon="2.24343">
        <ele>1604.1</ele>
        <time>2014-05-09T12:21:39Z</time>
      </trkpt>
      <trkpt lat="42.61374" lon="2.24346">
        <ele>1604.58</ele>
        <time>2014-05-09T12:21:47Z</time>
      </trkpt>
      <trkpt lat="42.61369" lon="2.24347">
        <ele>1605.06</ele>
        <time>2014-05-09T12:21:53Z</time>
      </trkpt>
      <trkpt lat="42.6136" lon="2.2435">
        <ele>1606.02</ele>
        <time>2014-05-09T12:22:03Z</time>
      </trkpt>
      <trkpt lat="42.61355" lon="2.24353">
        <ele>1606.98</ele>
        <time>2014-05-09T12:22:09Z</time>
      </trkpt>
      <trkpt lat="42.61346" lon="2.24353">
        <ele>1606.98</ele>
        <time>2014-05-09T12:22:16Z</time>
      </trkpt>
      <trkpt lat="42.61338" lon="2.24355">
        <ele>1606.98</ele>
        <time>2014-05-09T12:22:23Z</time>
      </trkpt>
      <trkpt lat="42.61326" lon="2.24354">
        <ele>1607.94</ele>
        <time>2014-05-09T12:22:31Z</time>
      </trkpt>
      <trkpt lat="42.61322" lon="2.24356">
        <ele>1608.9</ele>
        <time>2014-05-09T12:22:39Z</time>
      </trkpt>
      <trkpt lat="42.61322" lon="2.24356">
        <ele>1608.9</ele>
        <time>2014-05-09T12:22:40Z</time>
      </trkpt>
      <trkpt lat="42.61315" lon="2.24356">
        <ele>1609.86</ele>
        <time>2014-05-09T12:22:47Z</time>
      </trkpt>
      <trkpt lat="42.61311" lon="2.24354">
        <ele>1609.38</ele>
        <time>2014-05-09T12:22:55Z</time>
      </trkpt>
      <trkpt lat="42.61311" lon="2.24354">
        <ele>1610.35</ele>
        <time>2014-05-09T12:23:33Z</time>
      </trkpt>
      <trkpt lat="42.61309" lon="2.24354">
        <ele>1610.35</ele>
        <time>2014-05-09T12:23:36Z</time>
      </trkpt>
      <trkpt lat="42.61292" lon="2.24349">
        <ele>1611.31</ele>
        <time>2014-05-09T12:23:46Z</time>
      </trkpt>
      <trkpt lat="42.61282" lon="2.24348">
        <ele>1611.31</ele>
        <time>2014-05-09T12:23:54Z</time>
      </trkpt>
      <trkpt lat="42.61272" lon="2.24347">
        <ele>1612.75</ele>
        <time>2014-05-09T12:24:02Z</time>
      </trkpt>
      <trkpt lat="42.61261" lon="2.24344">
        <ele>1613.71</ele>
        <time>2014-05-09T12:24:10Z</time>
      </trkpt>
      <trkpt lat="42.61247" lon="2.2434">
        <ele>1614.19</ele>
        <time>2014-05-09T12:24:19Z</time>
      </trkpt>
      <trkpt lat="42.61244" lon="2.2434">
        <ele>1614.19</ele>
        <time>2014-05-09T12:24:26Z</time>
      </trkpt>
      <trkpt lat="42.61229" lon="2.24336">
        <ele>1615.63</ele>
        <time>2014-05-09T12:24:36Z</time>
      </trkpt>
      <trkpt lat="42.61223" lon="2.24334">
        <ele>1616.59</ele>
        <time>2014-05-09T12:24:43Z</time>
      </trkpt>
      <trkpt lat="42.61212" lon="2.24332">
        <ele>1617.07</ele>
        <time>2014-05-09T12:24:51Z</time>
      </trkpt>
      <trkpt lat="42.61203" lon="2.24328">
        <ele>1617.07</ele>
        <time>2014-05-09T12:24:58Z</time>
      </trkpt>
      <trkpt lat="42.61198" lon="2.24327">
        <ele>1617.56</ele>
        <time>2014-05-09T12:25:03Z</time>
      </trkpt>
      <trkpt lat="42.61195" lon="2.2432">
        <ele>1618.04</ele>
        <time>2014-05-09T12:25:10Z</time>
      </trkpt>
      <trkpt lat="42.61191" lon="2.24319">
        <ele>1618.04</ele>
        <time>2014-05-09T12:25:50Z</time>
      </trkpt>
      <trkpt lat="42.61183" lon="2.24318">
        <ele>1618.52</ele>
        <time>2014-05-09T12:25:59Z</time>
      </trkpt>
      <trkpt lat="42.61177" lon="2.24314">
        <ele>1619.48</ele>
        <time>2014-05-09T12:26:07Z</time>
      </trkpt>
      <trkpt lat="42.6117" lon="2.2431">
        <ele>1619.48</ele>
        <time>2014-05-09T12:26:15Z</time>
      </trkpt>
      <trkpt lat="42.61161" lon="2.24307">
        <ele>1621.4</ele>
        <time>2014-05-09T12:26:27Z</time>
      </trkpt>
      <trkpt lat="42.61154" lon="2.24306">
        <ele>1622.84</ele>
        <time>2014-05-09T12:26:37Z</time>
      </trkpt>
      <trkpt lat="42.61148" lon="2.24307">
        <ele>1623.32</ele>
        <time>2014-05-09T12:26:46Z</time>
      </trkpt>
      <trkpt lat="42.61144" lon="2.24309">
        <ele>1624.28</ele>
        <time>2014-05-09T12:26:55Z</time>
      </trkpt>
      <trkpt lat="42.61136" lon="2.24307">
        <ele>1625.25</ele>
        <time>2014-05-09T12:27:03Z</time>
      </trkpt>
      <trkpt lat="42.61126" lon="2.24306">
        <ele>1626.21</ele>
        <time>2014-05-09T12:27:13Z</time>
      </trkpt>
      <trkpt lat="42.61122" lon="2.24308">
        <ele>1627.17</ele>
        <time>2014-05-09T12:27:23Z</time>
      </trkpt>
      <trkpt lat="42.61115" lon="2.24309">
        <ele>1628.61</ele>
        <time>2014-05-09T12:27:32Z</time>
      </trkpt>
      <trkpt lat="42.6111" lon="2.24312">
        <ele>1629.57</ele>
        <time>2014-05-09T12:27:41Z</time>
      </trkpt>
      <trkpt lat="42.61107" lon="2.24316">
        <ele>1630.05</ele>
        <time>2014-05-09T12:27:49Z</time>
      </trkpt>
      <trkpt lat="42.61097" lon="2.24317">
        <ele>1631.49</ele>
        <time>2014-05-09T12:27:59Z</time>
      </trkpt>
      <trkpt lat="42.61092" lon="2.24316">
        <ele>1632.46</ele>
        <time>2014-05-09T12:28:08Z</time>
      </trkpt>
      <trkpt lat="42.61086" lon="2.24319">
        <ele>1633.9</ele>
        <time>2014-05-09T12:28:17Z</time>
      </trkpt>
      <trkpt lat="42.61083" lon="2.24324">
        <ele>1634.86</ele>
        <time>2014-05-09T12:28:26Z</time>
      </trkpt>
      <trkpt lat="42.61078" lon="2.2433">
        <ele>1634.86</ele>
        <time>2014-05-09T12:28:33Z</time>
      </trkpt>
      <trkpt lat="42.61074" lon="2.24337">
        <ele>1635.82</ele>
        <time>2014-05-09T12:28:42Z</time>
      </trkpt>
      <trkpt lat="42.6107" lon="2.24342">
        <ele>1637.74</ele>
        <time>2014-05-09T12:28:53Z</time>
      </trkpt>
      <trkpt lat="42.61059" lon="2.24352">
        <ele>1638.7</ele>
        <time>2014-05-09T12:29:04Z</time>
      </trkpt>
      <trkpt lat="42.61056" lon="2.24354">
        <ele>1640.15</ele>
        <time>2014-05-09T12:29:12Z</time>
      </trkpt>
      <trkpt lat="42.61052" lon="2.24357">
        <ele>1641.59</ele>
        <time>2014-05-09T12:29:20Z</time>
      </trkpt>
      <trkpt lat="42.6105" lon="2.24363">
        <ele>1642.07</ele>
        <time>2014-05-09T12:29:27Z</time>
      </trkpt>
      <trkpt lat="42.61047" lon="2.24368">
        <ele>1643.99</ele>
        <time>2014-05-09T12:29:35Z</time>
      </trkpt>
      <trkpt lat="42.6104" lon="2.24373">
        <ele>1644.95</ele>
        <time>2014-05-09T12:29:43Z</time>
      </trkpt>
      <trkpt lat="42.61034" lon="2.24376">
        <ele>1644.95</ele>
        <time>2014-05-09T12:29:49Z</time>
      </trkpt>
      <trkpt lat="42.61034" lon="2.24376">
        <ele>1644.95</ele>
        <time>2014-05-09T12:30:02Z</time>
      </trkpt>
      <trkpt lat="42.61034" lon="2.24376">
        <ele>1644.95</ele>
        <time>2014-05-09T12:30:03Z</time>
      </trkpt>
      <trkpt lat="42.61033" lon="2.24376">
        <ele>1641.59</ele>
        <time>2014-05-09T12:30:08Z</time>
      </trkpt>
      <trkpt lat="42.61033" lon="2.24376">
        <ele>1645.91</ele>
        <time>2014-05-09T12:30:09Z</time>
      </trkpt>
      <trkpt lat="42.61033" lon="2.24376">
        <ele>1644.47</ele>
        <time>2014-05-09T12:31:07Z</time>
      </trkpt>
      <trkpt lat="42.61034" lon="2.24376">
        <ele>1644.95</ele>
        <time>2014-05-09T12:31:53Z</time>
      </trkpt>
      <trkpt lat="42.61034" lon="2.24375">
        <ele>1644.95</ele>
        <time>2014-05-09T12:32:36Z</time>
      </trkpt>
      <trkpt lat="42.61032" lon="2.24377">
        <ele>1644.95</ele>
        <time>2014-05-09T12:33:14Z</time>
      </trkpt>
      <trkpt lat="42.61032" lon="2.24377">
        <ele>1644.95</ele>
        <time>2014-05-09T12:33:28Z</time>
      </trkpt>
      <trkpt lat="42.61031" lon="2.24377">
        <ele>1644.95</ele>
        <time>2014-05-09T12:33:42Z</time>
      </trkpt>
      <trkpt lat="42.61032" lon="2.24377">
        <ele>1644.95</ele>
        <time>2014-05-09T12:34:14Z</time>
      </trkpt>
      <trkpt lat="42.61032" lon="2.24377">
        <ele>1644.95</ele>
        <time>2014-05-09T12:35:50Z</time>
      </trkpt>
      <trkpt lat="42.61031" lon="2.24377">
        <ele>1645.43</ele>
        <time>2014-05-09T12:36:09Z</time>
      </trkpt>
      <trkpt lat="42.61031" lon="2.24377">
        <ele>1644.95</ele>
        <time>2014-05-09T12:36:49Z</time>
      </trkpt>
      <trkpt lat="42.61032" lon="2.24377">
        <ele>1644.95</ele>
        <time>2014-05-09T12:37:05Z</time>
      </trkpt>
      <trkpt lat="42.61031" lon="2.24379">
        <ele>1644.95</ele>
        <time>2014-05-09T12:37:14Z</time>
      </trkpt>
      <trkpt lat="42.61031" lon="2.24379">
        <ele>1645.43</ele>
        <time>2014-05-09T12:38:21Z</time>
      </trkpt>
      <trkpt lat="42.61028" lon="2.24382">
        <ele>1645.43</ele>
        <time>2014-05-09T12:38:38Z</time>
      </trkpt>
      <trkpt lat="42.61023" lon="2.24386">
        <ele>1644.95</ele>
        <time>2014-05-09T12:38:41Z</time>
      </trkpt>
      <trkpt lat="42.61017" lon="2.2439">
        <ele>1645.43</ele>
        <time>2014-05-09T12:38:48Z</time>
      </trkpt>
      <trkpt lat="42.61016" lon="2.24391">
        <ele>1645.43</ele>
        <time>2014-05-09T12:38:49Z</time>
      </trkpt>
      <trkpt lat="42.6101" lon="2.24396">
        <ele>1644.95</ele>
        <time>2014-05-09T12:38:56Z</time>
      </trkpt>
      <trkpt lat="42.61004" lon="2.24401">
        <ele>1645.43</ele>
        <time>2014-05-09T12:39:03Z</time>
      </trkpt>
      <trkpt lat="42.60999" lon="2.24407">
        <ele>1644.95</ele>
        <time>2014-05-09T12:39:11Z</time>
      </trkpt>
      <trkpt lat="42.60998" lon="2.24408">
        <ele>1644.95</ele>
        <time>2014-05-09T12:39:12Z</time>
      </trkpt>
      <trkpt lat="42.60991" lon="2.24415">
        <ele>1644.47</ele>
        <time>2014-05-09T12:39:20Z</time>
      </trkpt>
      <trkpt lat="42.6099" lon="2.24416">
        <ele>1644.47</ele>
        <time>2014-05-09T12:39:21Z</time>
      </trkpt>
      <trkpt lat="42.60982" lon="2.24427">
        <ele>1643.99</ele>
        <time>2014-05-09T12:39:31Z</time>
      </trkpt>
      <trkpt lat="42.60978" lon="2.24433">
        <ele>1644.47</ele>
        <time>2014-05-09T12:39:35Z</time>
      </trkpt>
      <trkpt lat="42.60973" lon="2.24439">
        <ele>1644.47</ele>
        <time>2014-05-09T12:39:42Z</time>
      </trkpt>
      <trkpt lat="42.6097" lon="2.2444">
        <ele>1644.47</ele>
        <time>2014-05-09T12:39:44Z</time>
      </trkpt>
      <trkpt lat="42.60957" lon="2.24457">
        <ele>1644.47</ele>
        <time>2014-05-09T12:39:53Z</time>
      </trkpt>
      <trkpt lat="42.60949" lon="2.24463">
        <ele>1643.99</ele>
        <time>2014-05-09T12:40:00Z</time>
      </trkpt>
      <trkpt lat="42.60941" lon="2.2447">
        <ele>1644.47</ele>
        <time>2014-05-09T12:40:08Z</time>
      </trkpt>
      <trkpt lat="42.60931" lon="2.24475">
        <ele>1643.99</ele>
        <time>2014-05-09T12:40:16Z</time>
      </trkpt>
      <trkpt lat="42.6092" lon="2.24478">
        <ele>1643.99</ele>
        <time>2014-05-09T12:40:24Z</time>
      </trkpt>
      <trkpt lat="42.60913" lon="2.24484">
        <ele>1643.99</ele>
        <time>2014-05-09T12:40:31Z</time>
      </trkpt>
      <trkpt lat="42.60904" lon="2.2449">
        <ele>1643.99</ele>
        <time>2014-05-09T12:40:39Z</time>
      </trkpt>
      <trkpt lat="42.60899" lon="2.24492">
        <ele>1643.99</ele>
        <time>2014-05-09T12:40:46Z</time>
      </trkpt>
      <trkpt lat="42.60891" lon="2.24496">
        <ele>1643.99</ele>
        <time>2014-05-09T12:40:54Z</time>
      </trkpt>
      <trkpt lat="42.60886" lon="2.24501">
        <ele>1643.51</ele>
        <time>2014-05-09T12:41:00Z</time>
      </trkpt>
      <trkpt lat="42.60881" lon="2.24502">
        <ele>1644.47</ele>
        <time>2014-05-09T12:41:04Z</time>
      </trkpt>
      <trkpt lat="42.60873" lon="2.24511">
        <ele>1643.51</ele>
        <time>2014-05-09T12:41:13Z</time>
      </trkpt>
      <trkpt lat="42.60867" lon="2.24518">
        <ele>1643.51</ele>
        <time>2014-05-09T12:41:20Z</time>
      </trkpt>
      <trkpt lat="42.60863" lon="2.24529">
        <ele>1643.03</ele>
        <time>2014-05-09T12:41:28Z</time>
      </trkpt>
      <trkpt lat="42.60861" lon="2.24534">
        <ele>1643.03</ele>
        <time>2014-05-09T12:41:31Z</time>
      </trkpt>
      <trkpt lat="42.60849" lon="2.24542">
        <ele>1643.03</ele>
        <time>2014-05-09T12:41:40Z</time>
      </trkpt>
      <trkpt lat="42.60846" lon="2.24546">
        <ele>1643.03</ele>
        <time>2014-05-09T12:41:44Z</time>
      </trkpt>
      <trkpt lat="42.60836" lon="2.24551">
        <ele>1643.03</ele>
        <time>2014-05-09T12:41:53Z</time>
      </trkpt>
      <trkpt lat="42.60828" lon="2.24554">
        <ele>1642.55</ele>
        <time>2014-05-09T12:42:00Z</time>
      </trkpt>
      <trkpt lat="42.60821" lon="2.24554">
        <ele>1643.03</ele>
        <time>2014-05-09T12:42:07Z</time>
      </trkpt>
      <trkpt lat="42.60815" lon="2.24557">
        <ele>1643.03</ele>
        <time>2014-05-09T12:42:15Z</time>
      </trkpt>
      <trkpt lat="42.60804" lon="2.24556">
        <ele>1642.55</ele>
        <time>2014-05-09T12:42:23Z</time>
      </trkpt>
      <trkpt lat="42.60792" lon="2.24554">
        <ele>1642.55</ele>
        <time>2014-05-09T12:42:30Z</time>
      </trkpt>
      <trkpt lat="42.60777" lon="2.2455">
        <ele>1642.55</ele>
        <time>2014-05-09T12:42:37Z</time>
      </trkpt>
      <trkpt lat="42.60768" lon="2.24551">
        <ele>1643.03</ele>
        <time>2014-05-09T12:42:46Z</time>
      </trkpt>
      <trkpt lat="42.60761" lon="2.24548">
        <ele>1642.55</ele>
        <time>2014-05-09T12:42:50Z</time>
      </trkpt>
      <trkpt lat="42.60752" lon="2.24542">
        <ele>1642.07</ele>
        <time>2014-05-09T12:42:56Z</time>
      </trkpt>
      <trkpt lat="42.60746" lon="2.24533">
        <ele>1642.55</ele>
        <time>2014-05-09T12:43:01Z</time>
      </trkpt>
      <trkpt lat="42.60743" lon="2.24528">
        <ele>1642.07</ele>
        <time>2014-05-09T12:43:04Z</time>
      </trkpt>
      <trkpt lat="42.60739" lon="2.24519">
        <ele>1641.59</ele>
        <time>2014-05-09T12:43:10Z</time>
      </trkpt>
      <trkpt lat="42.60735" lon="2.2451">
        <ele>1642.07</ele>
        <time>2014-05-09T12:43:16Z</time>
      </trkpt>
      <trkpt lat="42.60732" lon="2.24503">
        <ele>1641.59</ele>
        <time>2014-05-09T12:43:23Z</time>
      </trkpt>
      <trkpt lat="42.60731" lon="2.24502">
        <ele>1641.11</ele>
        <time>2014-05-09T12:43:31Z</time>
      </trkpt>
      <trkpt lat="42.60727" lon="2.24497">
        <ele>1641.59</ele>
        <time>2014-05-09T12:43:38Z</time>
      </trkpt>
      <trkpt lat="42.60723" lon="2.24488">
        <ele>1641.11</ele>
        <time>2014-05-09T12:43:45Z</time>
      </trkpt>
      <trkpt lat="42.60717" lon="2.24481">
        <ele>1640.63</ele>
        <time>2014-05-09T12:43:51Z</time>
      </trkpt>
      <trkpt lat="42.60712" lon="2.24474">
        <ele>1640.63</ele>
        <time>2014-05-09T12:43:58Z</time>
      </trkpt>
      <trkpt lat="42.60707" lon="2.24468">
        <ele>1641.11</ele>
        <time>2014-05-09T12:44:03Z</time>
      </trkpt>
      <trkpt lat="42.60705" lon="2.24467">
        <ele>1641.11</ele>
        <time>2014-05-09T12:44:05Z</time>
      </trkpt>
      <trkpt lat="42.60702" lon="2.24463">
        <ele>1641.11</ele>
        <time>2014-05-09T12:44:08Z</time>
      </trkpt>
      <trkpt lat="42.60699" lon="2.2446">
        <ele>1640.15</ele>
        <time>2014-05-09T12:44:11Z</time>
      </trkpt>
      <trkpt lat="42.60691" lon="2.24454">
        <ele>1640.15</ele>
        <time>2014-05-09T12:44:19Z</time>
      </trkpt>
      <trkpt lat="42.60683" lon="2.24448">
        <ele>1640.15</ele>
        <time>2014-05-09T12:44:27Z</time>
      </trkpt>
      <trkpt lat="42.60682" lon="2.24448">
        <ele>1640.15</ele>
        <time>2014-05-09T12:44:28Z</time>
      </trkpt>
      <trkpt lat="42.60675" lon="2.24445">
        <ele>1640.63</ele>
        <time>2014-05-09T12:44:36Z</time>
      </trkpt>
      <trkpt lat="42.60667" lon="2.24444">
        <ele>1640.15</ele>
        <time>2014-05-09T12:44:44Z</time>
      </trkpt>
      <trkpt lat="42.60662" lon="2.24445">
        <ele>1640.63</ele>
        <time>2014-05-09T12:44:49Z</time>
      </trkpt>
      <trkpt lat="42.60656" lon="2.24448">
        <ele>1640.63</ele>
        <time>2014-05-09T12:44:56Z</time>
      </trkpt>
      <trkpt lat="42.60645" lon="2.24454">
        <ele>1640.15</ele>
        <time>2014-05-09T12:45:05Z</time>
      </trkpt>
      <trkpt lat="42.60638" lon="2.24457">
        <ele>1640.15</ele>
        <time>2014-05-09T12:45:12Z</time>
      </trkpt>
      <trkpt lat="42.60637" lon="2.24456">
        <ele>1640.15</ele>
        <time>2014-05-09T12:45:13Z</time>
      </trkpt>
      <trkpt lat="42.60628" lon="2.24457">
        <ele>1640.63</ele>
        <time>2014-05-09T12:45:20Z</time>
      </trkpt>
      <trkpt lat="42.60622" lon="2.24458">
        <ele>1640.63</ele>
        <time>2014-05-09T12:45:26Z</time>
      </trkpt>
      <trkpt lat="42.60618" lon="2.24457">
        <ele>1640.15</ele>
        <time>2014-05-09T12:45:34Z</time>
      </trkpt>
      <trkpt lat="42.60617" lon="2.24457">
        <ele>1640.15</ele>
        <time>2014-05-09T12:45:46Z</time>
      </trkpt>
      <trkpt lat="42.60615" lon="2.24456">
        <ele>1639.67</ele>
        <time>2014-05-09T12:45:56Z</time>
      </trkpt>
      <trkpt lat="42.60613" lon="2.24458">
        <ele>1640.15</ele>
        <time>2014-05-09T12:46:18Z</time>
      </trkpt>
      <trkpt lat="42.60613" lon="2.24458">
        <ele>1640.15</ele>
        <time>2014-05-09T12:46:20Z</time>
      </trkpt>
      <trkpt lat="42.60615" lon="2.24455">
        <ele>1640.63</ele>
        <time>2014-05-09T12:46:28Z</time>
      </trkpt>
      <trkpt lat="42.60615" lon="2.24454">
        <ele>1639.67</ele>
        <time>2014-05-09T12:46:33Z</time>
      </trkpt>
      <trkpt lat="42.60612" lon="2.24458">
        <ele>1640.15</ele>
        <time>2014-05-09T12:46:42Z</time>
      </trkpt>
      <trkpt lat="42.60602" lon="2.24466">
        <ele>1639.67</ele>
        <time>2014-05-09T12:46:51Z</time>
      </trkpt>
      <trkpt lat="42.60597" lon="2.24469">
        <ele>1640.15</ele>
        <time>2014-05-09T12:46:57Z</time>
      </trkpt>
      <trkpt lat="42.60593" lon="2.2447">
        <ele>1640.15</ele>
        <time>2014-05-09T12:47:03Z</time>
      </trkpt>
      <trkpt lat="42.60588" lon="2.24467">
        <ele>1639.67</ele>
        <time>2014-05-09T12:47:11Z</time>
      </trkpt>
      <trkpt lat="42.60574" lon="2.2446">
        <ele>1640.63</ele>
        <time>2014-05-09T12:47:18Z</time>
      </trkpt>
      <trkpt lat="42.60564" lon="2.24452">
        <ele>1639.19</ele>
        <time>2014-05-09T12:47:24Z</time>
      </trkpt>
      <trkpt lat="42.60562" lon="2.2445">
        <ele>1638.7</ele>
        <time>2014-05-09T12:47:25Z</time>
      </trkpt>
      <trkpt lat="42.60551" lon="2.24445">
        <ele>1639.67</ele>
        <time>2014-05-09T12:47:32Z</time>
      </trkpt>
      <trkpt lat="42.60546" lon="2.2444">
        <ele>1639.19</ele>
        <time>2014-05-09T12:47:37Z</time>
      </trkpt>
      <trkpt lat="42.60541" lon="2.24433">
        <ele>1639.19</ele>
        <time>2014-05-09T12:47:43Z</time>
      </trkpt>
      <trkpt lat="42.60541" lon="2.24432">
        <ele>1639.19</ele>
        <time>2014-05-09T12:47:45Z</time>
      </trkpt>
      <trkpt lat="42.60532" lon="2.24426">
        <ele>1639.19</ele>
        <time>2014-05-09T12:47:52Z</time>
      </trkpt>
      <trkpt lat="42.60525" lon="2.24418">
        <ele>1639.67</ele>
        <time>2014-05-09T12:47:59Z</time>
      </trkpt>
      <trkpt lat="42.60517" lon="2.24414">
        <ele>1639.19</ele>
        <time>2014-05-09T12:48:06Z</time>
      </trkpt>
      <trkpt lat="42.60509" lon="2.24407">
        <ele>1639.67</ele>
        <time>2014-05-09T12:48:13Z</time>
      </trkpt>
      <trkpt lat="42.60506" lon="2.24405">
        <ele>1639.19</ele>
        <time>2014-05-09T12:48:17Z</time>
      </trkpt>
      <trkpt lat="42.60504" lon="2.24402">
        <ele>1639.67</ele>
        <time>2014-05-09T12:48:19Z</time>
      </trkpt>
      <trkpt lat="42.60502" lon="2.24399">
        <ele>1639.19</ele>
        <time>2014-05-09T12:48:22Z</time>
      </trkpt>
      <trkpt lat="42.60495" lon="2.24393">
        <ele>1639.67</ele>
        <time>2014-05-09T12:48:29Z</time>
      </trkpt>
      <trkpt lat="42.60493" lon="2.24392">
        <ele>1639.67</ele>
        <time>2014-05-09T12:48:37Z</time>
      </trkpt>
      <trkpt lat="42.60487" lon="2.24386">
        <ele>1640.15</ele>
        <time>2014-05-09T12:48:45Z</time>
      </trkpt>
      <trkpt lat="42.60481" lon="2.24383">
        <ele>1640.15</ele>
        <time>2014-05-09T12:48:50Z</time>
      </trkpt>
      <trkpt lat="42.60477" lon="2.2438">
        <ele>1639.67</ele>
        <time>2014-05-09T12:48:54Z</time>
      </trkpt>
      <trkpt lat="42.6047" lon="2.24378">
        <ele>1639.67</ele>
        <time>2014-05-09T12:49:01Z</time>
      </trkpt>
      <trkpt lat="42.60461" lon="2.24373">
        <ele>1639.67</ele>
        <time>2014-05-09T12:49:09Z</time>
      </trkpt>
      <trkpt lat="42.60455" lon="2.24371">
        <ele>1639.67</ele>
        <time>2014-05-09T12:49:15Z</time>
      </trkpt>
      <trkpt lat="42.6045" lon="2.24369">
        <ele>1639.67</ele>
        <time>2014-05-09T12:49:22Z</time>
      </trkpt>
      <trkpt lat="42.60442" lon="2.24365">
        <ele>1639.19</ele>
        <time>2014-05-09T12:49:28Z</time>
      </trkpt>
      <trkpt lat="42.60434" lon="2.24362">
        <ele>1639.19</ele>
        <time>2014-05-09T12:49:34Z</time>
      </trkpt>
      <trkpt lat="42.60427" lon="2.24356">
        <ele>1638.7</ele>
        <time>2014-05-09T12:49:41Z</time>
      </trkpt>
      <trkpt lat="42.6042" lon="2.24355">
        <ele>1638.7</ele>
        <time>2014-05-09T12:49:48Z</time>
      </trkpt>
      <trkpt lat="42.6042" lon="2.24355">
        <ele>1639.19</ele>
        <time>2014-05-09T12:49:50Z</time>
      </trkpt>
      <trkpt lat="42.60413" lon="2.24356">
        <ele>1638.7</ele>
        <time>2014-05-09T12:49:57Z</time>
      </trkpt>
      <trkpt lat="42.60408" lon="2.24355">
        <ele>1638.7</ele>
        <time>2014-05-09T12:50:05Z</time>
      </trkpt>
      <trkpt lat="42.60399" lon="2.24353">
        <ele>1638.7</ele>
        <time>2014-05-09T12:50:12Z</time>
      </trkpt>
      <trkpt lat="42.60392" lon="2.24354">
        <ele>1639.19</ele>
        <time>2014-05-09T12:50:18Z</time>
      </trkpt>
      <trkpt lat="42.60379" lon="2.24353">
        <ele>1639.19</ele>
        <time>2014-05-09T12:50:26Z</time>
      </trkpt>
      <trkpt lat="42.60372" lon="2.24356">
        <ele>1639.19</ele>
        <time>2014-05-09T12:50:31Z</time>
      </trkpt>
      <trkpt lat="42.60368" lon="2.24356">
        <ele>1639.19</ele>
        <time>2014-05-09T12:50:34Z</time>
      </trkpt>
      <trkpt lat="42.60357" lon="2.24353">
        <ele>1638.7</ele>
        <time>2014-05-09T12:50:43Z</time>
      </trkpt>
      <trkpt lat="42.60349" lon="2.24355">
        <ele>1638.7</ele>
        <time>2014-05-09T12:50:51Z</time>
      </trkpt>
      <trkpt lat="42.60337" lon="2.24353">
        <ele>1639.19</ele>
        <time>2014-05-09T12:51:00Z</time>
      </trkpt>
      <trkpt lat="42.60327" lon="2.24353">
        <ele>1638.7</ele>
        <time>2014-05-09T12:51:09Z</time>
      </trkpt>
      <trkpt lat="42.60318" lon="2.24352">
        <ele>1639.19</ele>
        <time>2014-05-09T12:51:16Z</time>
      </trkpt>
      <trkpt lat="42.60309" lon="2.24352">
        <ele>1638.7</ele>
        <time>2014-05-09T12:51:23Z</time>
      </trkpt>
      <trkpt lat="42.60301" lon="2.24354">
        <ele>1638.7</ele>
        <time>2014-05-09T12:51:29Z</time>
      </trkpt>
      <trkpt lat="42.60292" lon="2.24357">
        <ele>1639.19</ele>
        <time>2014-05-09T12:51:38Z</time>
      </trkpt>
      <trkpt lat="42.60282" lon="2.24363">
        <ele>1638.7</ele>
        <time>2014-05-09T12:51:47Z</time>
      </trkpt>
      <trkpt lat="42.60274" lon="2.24371">
        <ele>1639.19</ele>
        <time>2014-05-09T12:51:56Z</time>
      </trkpt>
      <trkpt lat="42.60273" lon="2.24374">
        <ele>1639.19</ele>
        <time>2014-05-09T12:51:58Z</time>
      </trkpt>
      <trkpt lat="42.60268" lon="2.24378">
        <ele>1639.19</ele>
        <time>2014-05-09T12:52:02Z</time>
      </trkpt>
      <trkpt lat="42.60262" lon="2.24383">
        <ele>1639.19</ele>
        <time>2014-05-09T12:52:09Z</time>
      </trkpt>
      <trkpt lat="42.60256" lon="2.2439">
        <ele>1638.7</ele>
        <time>2014-05-09T12:52:17Z</time>
      </trkpt>
      <trkpt lat="42.60248" lon="2.24398">
        <ele>1639.19</ele>
        <time>2014-05-09T12:52:26Z</time>
      </trkpt>
      <trkpt lat="42.60237" lon="2.24401">
        <ele>1638.7</ele>
        <time>2014-05-09T12:52:34Z</time>
      </trkpt>
      <trkpt lat="42.60226" lon="2.24407">
        <ele>1638.22</ele>
        <time>2014-05-09T12:52:44Z</time>
      </trkpt>
      <trkpt lat="42.60222" lon="2.24409">
        <ele>1638.22</ele>
        <time>2014-05-09T12:52:48Z</time>
      </trkpt>
      <trkpt lat="42.60216" lon="2.24414">
        <ele>1638.22</ele>
        <time>2014-05-09T12:52:55Z</time>
      </trkpt>
      <trkpt lat="42.60207" lon="2.24417">
        <ele>1637.26</ele>
        <time>2014-05-09T12:53:02Z</time>
      </trkpt>
      <trkpt lat="42.60199" lon="2.2442">
        <ele>1637.26</ele>
        <time>2014-05-09T12:53:09Z</time>
      </trkpt>
      <trkpt lat="42.6019" lon="2.24424">
        <ele>1637.74</ele>
        <time>2014-05-09T12:53:17Z</time>
      </trkpt>
      <trkpt lat="42.60178" lon="2.24426">
        <ele>1637.26</ele>
        <time>2014-05-09T12:53:27Z</time>
      </trkpt>
      <trkpt lat="42.60168" lon="2.24427">
        <ele>1636.3</ele>
        <time>2014-05-09T12:53:35Z</time>
      </trkpt>
      <trkpt lat="42.60164" lon="2.24426">
        <ele>1636.3</ele>
        <time>2014-05-09T12:53:38Z</time>
      </trkpt>
      <trkpt lat="42.60153" lon="2.24423">
        <ele>1635.82</ele>
        <time>2014-05-09T12:53:46Z</time>
      </trkpt>
      <trkpt lat="42.60145" lon="2.24419">
        <ele>1635.82</ele>
        <time>2014-05-09T12:53:53Z</time>
      </trkpt>
      <trkpt lat="42.60144" lon="2.24416">
        <ele>1636.3</ele>
        <time>2014-05-09T12:53:59Z</time>
      </trkpt>
      <trkpt lat="42.60142" lon="2.24415">
        <ele>1636.3</ele>
        <time>2014-05-09T12:54:29Z</time>
      </trkpt>
      <trkpt lat="42.60137" lon="2.24413">
        <ele>1636.3</ele>
        <time>2014-05-09T12:54:37Z</time>
      </trkpt>
      <trkpt lat="42.60131" lon="2.24406">
        <ele>1635.82</ele>
        <time>2014-05-09T12:54:45Z</time>
      </trkpt>
      <trkpt lat="42.60123" lon="2.244">
        <ele>1636.3</ele>
        <time>2014-05-09T12:54:52Z</time>
      </trkpt>
      <trkpt lat="42.60118" lon="2.24395">
        <ele>1636.3</ele>
        <time>2014-05-09T12:54:58Z</time>
      </trkpt>
      <trkpt lat="42.60113" lon="2.24393">
        <ele>1635.82</ele>
        <time>2014-05-09T12:55:06Z</time>
      </trkpt>
      <trkpt lat="42.60106" lon="2.24395">
        <ele>1636.3</ele>
        <time>2014-05-09T12:55:14Z</time>
      </trkpt>
      <trkpt lat="42.60096" lon="2.24395">
        <ele>1635.82</ele>
        <time>2014-05-09T12:55:22Z</time>
      </trkpt>
      <trkpt lat="42.60089" lon="2.24399">
        <ele>1636.3</ele>
        <time>2014-05-09T12:55:29Z</time>
      </trkpt>
      <trkpt lat="42.60082" lon="2.24404">
        <ele>1635.34</ele>
        <time>2014-05-09T12:55:37Z</time>
      </trkpt>
      <trkpt lat="42.60072" lon="2.24409">
        <ele>1635.82</ele>
        <time>2014-05-09T12:55:46Z</time>
      </trkpt>
      <trkpt lat="42.60063" lon="2.24414">
        <ele>1635.34</ele>
        <time>2014-05-09T12:55:55Z</time>
      </trkpt>
      <trkpt lat="42.60056" lon="2.24415">
        <ele>1635.82</ele>
        <time>2014-05-09T12:56:02Z</time>
      </trkpt>
      <trkpt lat="42.60048" lon="2.24419">
        <ele>1635.34</ele>
        <time>2014-05-09T12:56:10Z</time>
      </trkpt>
      <trkpt lat="42.60039" lon="2.24425">
        <ele>1635.34</ele>
        <time>2014-05-09T12:56:18Z</time>
      </trkpt>
      <trkpt lat="42.60031" lon="2.24429">
        <ele>1634.86</ele>
        <time>2014-05-09T12:56:27Z</time>
      </trkpt>
      <trkpt lat="42.6002" lon="2.24441">
        <ele>1634.86</ele>
        <time>2014-05-09T12:56:37Z</time>
      </trkpt>
      <trkpt lat="42.60011" lon="2.24444">
        <ele>1634.86</ele>
        <time>2014-05-09T12:56:44Z</time>
      </trkpt>
      <trkpt lat="42.60004" lon="2.24449">
        <ele>1634.86</ele>
        <time>2014-05-09T12:56:51Z</time>
      </trkpt>
      <trkpt lat="42.59996" lon="2.24455">
        <ele>1634.38</ele>
        <time>2014-05-09T12:56:58Z</time>
      </trkpt>
      <trkpt lat="42.59992" lon="2.24463">
        <ele>1633.9</ele>
        <time>2014-05-09T12:57:04Z</time>
      </trkpt>
      <trkpt lat="42.59991" lon="2.24465">
        <ele>1634.38</ele>
        <time>2014-05-09T12:57:06Z</time>
      </trkpt>
      <trkpt lat="42.59985" lon="2.24479">
        <ele>1633.9</ele>
        <time>2014-05-09T12:57:16Z</time>
      </trkpt>
      <trkpt lat="42.59984" lon="2.2449">
        <ele>1633.9</ele>
        <time>2014-05-09T12:57:23Z</time>
      </trkpt>
      <trkpt lat="42.59985" lon="2.24499">
        <ele>1633.42</ele>
        <time>2014-05-09T12:57:28Z</time>
      </trkpt>
      <trkpt lat="42.59985" lon="2.24509">
        <ele>1633.42</ele>
        <time>2014-05-09T12:57:35Z</time>
      </trkpt>
      <trkpt lat="42.59985" lon="2.2451">
        <ele>1633.9</ele>
        <time>2014-05-09T12:57:36Z</time>
      </trkpt>
      <trkpt lat="42.59983" lon="2.24513">
        <ele>1633.42</ele>
        <time>2014-05-09T12:57:38Z</time>
      </trkpt>
      <trkpt lat="42.59978" lon="2.24522">
        <ele>1633.42</ele>
        <time>2014-05-09T12:57:46Z</time>
      </trkpt>
      <trkpt lat="42.59972" lon="2.24539">
        <ele>1632.94</ele>
        <time>2014-05-09T12:57:55Z</time>
      </trkpt>
      <trkpt lat="42.59968" lon="2.24549">
        <ele>1632.94</ele>
        <time>2014-05-09T12:58:01Z</time>
      </trkpt>
      <trkpt lat="42.59965" lon="2.24555">
        <ele>1632.94</ele>
        <time>2014-05-09T12:58:06Z</time>
      </trkpt>
      <trkpt lat="42.59963" lon="2.24561">
        <ele>1632.46</ele>
        <time>2014-05-09T12:58:10Z</time>
      </trkpt>
      <trkpt lat="42.59958" lon="2.24569">
        <ele>1632.94</ele>
        <time>2014-05-09T12:58:16Z</time>
      </trkpt>
      <trkpt lat="42.59954" lon="2.24576">
        <ele>1633.42</ele>
        <time>2014-05-09T12:58:21Z</time>
      </trkpt>
      <trkpt lat="42.59948" lon="2.24589">
        <ele>1632.46</ele>
        <time>2014-05-09T12:58:31Z</time>
      </trkpt>
      <trkpt lat="42.59943" lon="2.24596">
        <ele>1632.94</ele>
        <time>2014-05-09T12:58:38Z</time>
      </trkpt>
      <trkpt lat="42.59941" lon="2.2461">
        <ele>1632.94</ele>
        <time>2014-05-09T12:58:45Z</time>
      </trkpt>
      <trkpt lat="42.59938" lon="2.24617">
        <ele>1632.46</ele>
        <time>2014-05-09T12:58:51Z</time>
      </trkpt>
      <trkpt lat="42.59936" lon="2.24621">
        <ele>1631.98</ele>
        <time>2014-05-09T12:58:58Z</time>
      </trkpt>
      <trkpt lat="42.59935" lon="2.24623">
        <ele>1632.46</ele>
        <time>2014-05-09T12:59:00Z</time>
      </trkpt>
      <trkpt lat="42.59934" lon="2.24629">
        <ele>1631.98</ele>
        <time>2014-05-09T12:59:05Z</time>
      </trkpt>
      <trkpt lat="42.59931" lon="2.24635">
        <ele>1631.98</ele>
        <time>2014-05-09T12:59:10Z</time>
      </trkpt>
      <trkpt lat="42.59924" lon="2.24651">
        <ele>1632.94</ele>
        <time>2014-05-09T12:59:18Z</time>
      </trkpt>
      <trkpt lat="42.59923" lon="2.24652">
        <ele>1632.94</ele>
        <time>2014-05-09T12:59:19Z</time>
      </trkpt>
      <trkpt lat="42.59921" lon="2.24664">
        <ele>1632.46</ele>
        <time>2014-05-09T12:59:27Z</time>
      </trkpt>
      <trkpt lat="42.59918" lon="2.24675">
        <ele>1632.46</ele>
        <time>2014-05-09T12:59:35Z</time>
      </trkpt>
      <trkpt lat="42.59915" lon="2.24688">
        <ele>1632.46</ele>
        <time>2014-05-09T12:59:44Z</time>
      </trkpt>
      <trkpt lat="42.59914" lon="2.24694">
        <ele>1632.46</ele>
        <time>2014-05-09T12:59:52Z</time>
      </trkpt>
      <trkpt lat="42.59913" lon="2.24699">
        <ele>1632.46</ele>
        <time>2014-05-09T13:00:00Z</time>
      </trkpt>
      <trkpt lat="42.59913" lon="2.24701">
        <ele>1630.05</ele>
        <time>2014-05-09T13:00:09Z</time>
      </trkpt>
      <trkpt lat="42.59913" lon="2.24701">
        <ele>1633.9</ele>
        <time>2014-05-09T13:00:10Z</time>
      </trkpt>
      <trkpt lat="42.59912" lon="2.24702">
        <ele>1631.98</ele>
        <time>2014-05-09T13:00:14Z</time>
      </trkpt>
      <trkpt lat="42.59911" lon="2.24703">
        <ele>1632.46</ele>
        <time>2014-05-09T13:00:26Z</time>
      </trkpt>
      <trkpt lat="42.59911" lon="2.24705">
        <ele>1632.46</ele>
        <time>2014-05-09T13:00:40Z</time>
      </trkpt>
      <trkpt lat="42.5991" lon="2.24712">
        <ele>1631.98</ele>
        <time>2014-05-09T13:00:47Z</time>
      </trkpt>
      <trkpt lat="42.5991" lon="2.24717">
        <ele>1632.46</ele>
        <time>2014-05-09T13:01:01Z</time>
      </trkpt>
      <trkpt lat="42.5991" lon="2.24717">
        <ele>1631.98</ele>
        <time>2014-05-09T13:01:20Z</time>
      </trkpt>
      <trkpt lat="42.59909" lon="2.24718">
        <ele>1631.98</ele>
        <time>2014-05-09T13:01:33Z</time>
      </trkpt>
      <trkpt lat="42.59907" lon="2.24717">
        <ele>1632.46</ele>
        <time>2014-05-09T13:01:37Z</time>
      </trkpt>
      <trkpt lat="42.59904" lon="2.24729">
        <ele>1632.46</ele>
        <time>2014-05-09T13:01:45Z</time>
      </trkpt>
      <trkpt lat="42.59903" lon="2.24737">
        <ele>1632.46</ele>
        <time>2014-05-09T13:01:52Z</time>
      </trkpt>
      <trkpt lat="42.59904" lon="2.24742">
        <ele>1631.98</ele>
        <time>2014-05-09T13:01:59Z</time>
      </trkpt>
      <trkpt lat="42.59903" lon="2.24748">
        <ele>1632.94</ele>
        <time>2014-05-09T13:02:08Z</time>
      </trkpt>
      <trkpt lat="42.59901" lon="2.24754">
        <ele>1632.46</ele>
        <time>2014-05-09T13:02:17Z</time>
      </trkpt>
      <trkpt lat="42.599" lon="2.2476">
        <ele>1632.46</ele>
        <time>2014-05-09T13:02:23Z</time>
      </trkpt>
      <trkpt lat="42.59899" lon="2.24762">
        <ele>1631.49</ele>
        <time>2014-05-09T13:02:33Z</time>
      </trkpt>
      <trkpt lat="42.59899" lon="2.24762">
        <ele>1631.98</ele>
        <time>2014-05-09T13:02:51Z</time>
      </trkpt>
      <trkpt lat="42.59899" lon="2.2477">
        <ele>1631.98</ele>
        <time>2014-05-09T13:03:10Z</time>
      </trkpt>
      <trkpt lat="42.59897" lon="2.24782">
        <ele>1631.49</ele>
        <time>2014-05-09T13:03:18Z</time>
      </trkpt>
      <trkpt lat="42.59897" lon="2.2479">
        <ele>1631.98</ele>
        <time>2014-05-09T13:03:25Z</time>
      </trkpt>
      <trkpt lat="42.59898" lon="2.24793">
        <ele>1631.98</ele>
        <time>2014-05-09T13:03:30Z</time>
      </trkpt>
      <trkpt lat="42.59898" lon="2.24795">
        <ele>1632.46</ele>
        <time>2014-05-09T13:03:32Z</time>
      </trkpt>
      <trkpt lat="42.59899" lon="2.24805">
        <ele>1632.46</ele>
        <time>2014-05-09T13:03:40Z</time>
      </trkpt>
      <trkpt lat="42.59902" lon="2.24813">
        <ele>1631.98</ele>
        <time>2014-05-09T13:03:48Z</time>
      </trkpt>
      <trkpt lat="42.59902" lon="2.24818">
        <ele>1631.49</ele>
        <time>2014-05-09T13:03:57Z</time>
      </trkpt>
      <trkpt lat="42.59899" lon="2.24817">
        <ele>1632.46</ele>
        <time>2014-05-09T13:04:06Z</time>
      </trkpt>
      <trkpt lat="42.59899" lon="2.24817">
        <ele>1631.98</ele>
        <time>2014-05-09T13:04:17Z</time>
      </trkpt>
      <trkpt lat="42.59899" lon="2.24817">
        <ele>1632.46</ele>
        <time>2014-05-09T13:04:39Z</time>
      </trkpt>
      <trkpt lat="42.599" lon="2.24818">
        <ele>1631.98</ele>
        <time>2014-05-09T13:04:51Z</time>
      </trkpt>
      <trkpt lat="42.59901" lon="2.24818">
        <ele>1632.46</ele>
        <time>2014-05-09T13:05:02Z</time>
      </trkpt>
      <trkpt lat="42.59906" lon="2.24821">
        <ele>1632.46</ele>
        <time>2014-05-09T13:05:12Z</time>
      </trkpt>
      <trkpt lat="42.59906" lon="2.24822">
        <ele>1631.49</ele>
        <time>2014-05-09T13:05:13Z</time>
      </trkpt>
      <trkpt lat="42.59912" lon="2.24831">
        <ele>1631.98</ele>
        <time>2014-05-09T13:05:21Z</time>
      </trkpt>
      <trkpt lat="42.59914" lon="2.24834">
        <ele>1631.98</ele>
        <time>2014-05-09T13:05:24Z</time>
      </trkpt>
      <trkpt lat="42.59916" lon="2.24842">
        <ele>1631.98</ele>
        <time>2014-05-09T13:05:30Z</time>
      </trkpt>
      <trkpt lat="42.59919" lon="2.24846">
        <ele>1632.46</ele>
        <time>2014-05-09T13:05:33Z</time>
      </trkpt>
      <trkpt lat="42.59923" lon="2.24856">
        <ele>1631.98</ele>
        <time>2014-05-09T13:05:41Z</time>
      </trkpt>
      <trkpt lat="42.59926" lon="2.24866">
        <ele>1631.49</ele>
        <time>2014-05-09T13:05:48Z</time>
      </trkpt>
      <trkpt lat="42.59931" lon="2.24873">
        <ele>1631.98</ele>
        <time>2014-05-09T13:05:55Z</time>
      </trkpt>
      <trkpt lat="42.59936" lon="2.24882">
        <ele>1631.98</ele>
        <time>2014-05-09T13:06:02Z</time>
      </trkpt>
      <trkpt lat="42.59937" lon="2.24889">
        <ele>1631.98</ele>
        <time>2014-05-09T13:06:07Z</time>
      </trkpt>
      <trkpt lat="42.59941" lon="2.24895">
        <ele>1631.98</ele>
        <time>2014-05-09T13:06:12Z</time>
      </trkpt>
      <trkpt lat="42.59945" lon="2.24905">
        <ele>1631.98</ele>
        <time>2014-05-09T13:06:20Z</time>
      </trkpt>
      <trkpt lat="42.59947" lon="2.2491">
        <ele>1631.98</ele>
        <time>2014-05-09T13:06:23Z</time>
      </trkpt>
      <trkpt lat="42.5995" lon="2.24922">
        <ele>1631.98</ele>
        <time>2014-05-09T13:06:31Z</time>
      </trkpt>
      <trkpt lat="42.59951" lon="2.24927">
        <ele>1631.01</ele>
        <time>2014-05-09T13:06:34Z</time>
      </trkpt>
      <trkpt lat="42.5995" lon="2.24935">
        <ele>1631.49</ele>
        <time>2014-05-09T13:06:39Z</time>
      </trkpt>
      <trkpt lat="42.5995" lon="2.2494">
        <ele>1631.49</ele>
        <time>2014-05-09T13:06:43Z</time>
      </trkpt>
      <trkpt lat="42.59951" lon="2.24952">
        <ele>1631.01</ele>
        <time>2014-05-09T13:06:52Z</time>
      </trkpt>
      <trkpt lat="42.59952" lon="2.2496">
        <ele>1631.01</ele>
        <time>2014-05-09T13:06:59Z</time>
      </trkpt>
      <trkpt lat="42.59954" lon="2.2497">
        <ele>1631.01</ele>
        <time>2014-05-09T13:07:05Z</time>
      </trkpt>
      <trkpt lat="42.59951" lon="2.24984">
        <ele>1630.53</ele>
        <time>2014-05-09T13:07:12Z</time>
      </trkpt>
      <trkpt lat="42.59946" lon="2.2499">
        <ele>1630.53</ele>
        <time>2014-05-09T13:07:16Z</time>
      </trkpt>
      <trkpt lat="42.59943" lon="2.24993">
        <ele>1630.53</ele>
        <time>2014-05-09T13:07:18Z</time>
      </trkpt>
      <trkpt lat="42.59941" lon="2.25003">
        <ele>1631.01</ele>
        <time>2014-05-09T13:07:22Z</time>
      </trkpt>
      <trkpt lat="42.59936" lon="2.25013">
        <ele>1630.53</ele>
        <time>2014-05-09T13:07:29Z</time>
      </trkpt>
      <trkpt lat="42.59932" lon="2.25015">
        <ele>1630.05</ele>
        <time>2014-05-09T13:07:33Z</time>
      </trkpt>
      <trkpt lat="42.59926" lon="2.25015">
        <ele>1630.05</ele>
        <time>2014-05-09T13:07:39Z</time>
      </trkpt>
      <trkpt lat="42.59917" lon="2.25023">
        <ele>1630.05</ele>
        <time>2014-05-09T13:07:48Z</time>
      </trkpt>
      <trkpt lat="42.59913" lon="2.25024">
        <ele>1629.57</ele>
        <time>2014-05-09T13:07:51Z</time>
      </trkpt>
      <trkpt lat="42.59906" lon="2.25029">
        <ele>1629.57</ele>
        <time>2014-05-09T13:07:56Z</time>
      </trkpt>
      <trkpt lat="42.59897" lon="2.25034">
        <ele>1629.09</ele>
        <time>2014-05-09T13:08:05Z</time>
      </trkpt>
      <trkpt lat="42.5989" lon="2.25043">
        <ele>1629.57</ele>
        <time>2014-05-09T13:08:14Z</time>
      </trkpt>
      <trkpt lat="42.59886" lon="2.25049">
        <ele>1629.57</ele>
        <time>2014-05-09T13:08:21Z</time>
      </trkpt>
      <trkpt lat="42.59882" lon="2.25056">
        <ele>1629.09</ele>
        <time>2014-05-09T13:08:28Z</time>
      </trkpt>
      <trkpt lat="42.59879" lon="2.2506">
        <ele>1629.57</ele>
        <time>2014-05-09T13:08:32Z</time>
      </trkpt>
      <trkpt lat="42.59869" lon="2.25068">
        <ele>1629.09</ele>
        <time>2014-05-09T13:08:39Z</time>
      </trkpt>
      <trkpt lat="42.59861" lon="2.2507">
        <ele>1629.09</ele>
        <time>2014-05-09T13:08:47Z</time>
      </trkpt>
      <trkpt lat="42.59852" lon="2.25072">
        <ele>1629.09</ele>
        <time>2014-05-09T13:08:54Z</time>
      </trkpt>
      <trkpt lat="42.59842" lon="2.25074">
        <ele>1629.09</ele>
        <time>2014-05-09T13:09:00Z</time>
      </trkpt>
      <trkpt lat="42.59832" lon="2.25072">
        <ele>1629.09</ele>
        <time>2014-05-09T13:09:08Z</time>
      </trkpt>
      <trkpt lat="42.5983" lon="2.25073">
        <ele>1628.61</ele>
        <time>2014-05-09T13:09:10Z</time>
      </trkpt>
      <trkpt lat="42.59824" lon="2.25073">
        <ele>1628.13</ele>
        <time>2014-05-09T13:09:16Z</time>
      </trkpt>
      <trkpt lat="42.59817" lon="2.25073">
        <ele>1628.13</ele>
        <time>2014-05-09T13:09:23Z</time>
      </trkpt>
      <trkpt lat="42.59812" lon="2.25074">
        <ele>1627.65</ele>
        <time>2014-05-09T13:09:29Z</time>
      </trkpt>
      <trkpt lat="42.598" lon="2.25078">
        <ele>1628.13</ele>
        <time>2014-05-09T13:09:37Z</time>
      </trkpt>
      <trkpt lat="42.59795" lon="2.2508">
        <ele>1628.13</ele>
        <time>2014-05-09T13:09:41Z</time>
      </trkpt>
      <trkpt lat="42.59787" lon="2.25083">
        <ele>1628.13</ele>
        <time>2014-05-09T13:09:48Z</time>
      </trkpt>
      <trkpt lat="42.59781" lon="2.25092">
        <ele>1628.61</ele>
        <time>2014-05-09T13:09:56Z</time>
      </trkpt>
      <trkpt lat="42.59778" lon="2.25095">
        <ele>1628.61</ele>
        <time>2014-05-09T13:09:59Z</time>
      </trkpt>
      <trkpt lat="42.59771" lon="2.25104">
        <ele>1628.13</ele>
        <time>2014-05-09T13:10:07Z</time>
      </trkpt>
      <trkpt lat="42.59764" lon="2.25113">
        <ele>1628.61</ele>
        <time>2014-05-09T13:10:16Z</time>
      </trkpt>
      <trkpt lat="42.59756" lon="2.25124">
        <ele>1629.09</ele>
        <time>2014-05-09T13:10:25Z</time>
      </trkpt>
      <trkpt lat="42.59751" lon="2.25131">
        <ele>1627.65</ele>
        <time>2014-05-09T13:10:32Z</time>
      </trkpt>
      <trkpt lat="42.59747" lon="2.25143">
        <ele>1628.13</ele>
        <time>2014-05-09T13:10:40Z</time>
      </trkpt>
      <trkpt lat="42.59744" lon="2.25153">
        <ele>1628.13</ele>
        <time>2014-05-09T13:10:47Z</time>
      </trkpt>
      <trkpt lat="42.59745" lon="2.25156">
        <ele>1628.13</ele>
        <time>2014-05-09T13:10:49Z</time>
      </trkpt>
      <trkpt lat="42.59742" lon="2.25168">
        <ele>1628.13</ele>
        <time>2014-05-09T13:10:56Z</time>
      </trkpt>
      <trkpt lat="42.59736" lon="2.25182">
        <ele>1627.65</ele>
        <time>2014-05-09T13:11:04Z</time>
      </trkpt>
      <trkpt lat="42.59734" lon="2.25184">
        <ele>1627.65</ele>
        <time>2014-05-09T13:11:06Z</time>
      </trkpt>
      <trkpt lat="42.59725" lon="2.25194">
        <ele>1627.17</ele>
        <time>2014-05-09T13:11:15Z</time>
      </trkpt>
      <trkpt lat="42.59717" lon="2.25201">
        <ele>1627.17</ele>
        <time>2014-05-09T13:11:22Z</time>
      </trkpt>
      <trkpt lat="42.59711" lon="2.25204">
        <ele>1626.69</ele>
        <time>2014-05-09T13:11:28Z</time>
      </trkpt>
      <trkpt lat="42.59703" lon="2.25211">
        <ele>1626.69</ele>
        <time>2014-05-09T13:11:35Z</time>
      </trkpt>
      <trkpt lat="42.59696" lon="2.25217">
        <ele>1626.69</ele>
        <time>2014-05-09T13:11:41Z</time>
      </trkpt>
      <trkpt lat="42.59688" lon="2.25224">
        <ele>1626.21</ele>
        <time>2014-05-09T13:11:48Z</time>
      </trkpt>
      <trkpt lat="42.59686" lon="2.25226">
        <ele>1625.73</ele>
        <time>2014-05-09T13:11:50Z</time>
      </trkpt>
      <trkpt lat="42.59677" lon="2.25229">
        <ele>1626.21</ele>
        <time>2014-05-09T13:11:57Z</time>
      </trkpt>
      <trkpt lat="42.59668" lon="2.25234">
        <ele>1626.21</ele>
        <time>2014-05-09T13:12:04Z</time>
      </trkpt>
      <trkpt lat="42.59658" lon="2.25238">
        <ele>1625.73</ele>
        <time>2014-05-09T13:12:11Z</time>
      </trkpt>
      <trkpt lat="42.5965" lon="2.25245">
        <ele>1625.25</ele>
        <time>2014-05-09T13:12:19Z</time>
      </trkpt>
      <trkpt lat="42.59643" lon="2.25249">
        <ele>1625.73</ele>
        <time>2014-05-09T13:12:26Z</time>
      </trkpt>
      <trkpt lat="42.59637" lon="2.25255">
        <ele>1625.25</ele>
        <time>2014-05-09T13:12:33Z</time>
      </trkpt>
      <trkpt lat="42.59634" lon="2.25256">
        <ele>1625.25</ele>
        <time>2014-05-09T13:12:36Z</time>
      </trkpt>
      <trkpt lat="42.59627" lon="2.25258">
        <ele>1625.25</ele>
        <time>2014-05-09T13:12:42Z</time>
      </trkpt>
      <trkpt lat="42.59616" lon="2.2526">
        <ele>1625.73</ele>
        <time>2014-05-09T13:12:51Z</time>
      </trkpt>
      <trkpt lat="42.59607" lon="2.25264">
        <ele>1625.25</ele>
        <time>2014-05-09T13:13:00Z</time>
      </trkpt>
      <trkpt lat="42.59601" lon="2.25266">
        <ele>1625.25</ele>
        <time>2014-05-09T13:13:05Z</time>
      </trkpt>
      <trkpt lat="42.59594" lon="2.25263">
        <ele>1624.77</ele>
        <time>2014-05-09T13:13:13Z</time>
      </trkpt>
      <trkpt lat="42.59585" lon="2.25255">
        <ele>1624.28</ele>
        <time>2014-05-09T13:13:20Z</time>
      </trkpt>
      <trkpt lat="42.59578" lon="2.25249">
        <ele>1624.77</ele>
        <time>2014-05-09T13:13:26Z</time>
      </trkpt>
      <trkpt lat="42.59573" lon="2.25247">
        <ele>1624.77</ele>
        <time>2014-05-09T13:13:31Z</time>
      </trkpt>
      <trkpt lat="42.59559" lon="2.25248">
        <ele>1623.8</ele>
        <time>2014-05-09T13:13:40Z</time>
      </trkpt>
      <trkpt lat="42.59552" lon="2.25251">
        <ele>1624.28</ele>
        <time>2014-05-09T13:13:46Z</time>
      </trkpt>
      <trkpt lat="42.59546" lon="2.25252">
        <ele>1623.8</ele>
        <time>2014-05-09T13:13:51Z</time>
      </trkpt>
      <trkpt lat="42.59542" lon="2.25254">
        <ele>1623.8</ele>
        <time>2014-05-09T13:13:55Z</time>
      </trkpt>
      <trkpt lat="42.59532" lon="2.25255">
        <ele>1623.8</ele>
        <time>2014-05-09T13:14:04Z</time>
      </trkpt>
      <trkpt lat="42.59528" lon="2.25255">
        <ele>1623.32</ele>
        <time>2014-05-09T13:14:07Z</time>
      </trkpt>
      <trkpt lat="42.59525" lon="2.25255">
        <ele>1623.32</ele>
        <time>2014-05-09T13:14:10Z</time>
      </trkpt>
      <trkpt lat="42.59516" lon="2.25255">
        <ele>1622.84</ele>
        <time>2014-05-09T13:14:18Z</time>
      </trkpt>
      <trkpt lat="42.59509" lon="2.25257">
        <ele>1622.36</ele>
        <time>2014-05-09T13:14:23Z</time>
      </trkpt>
      <trkpt lat="42.595" lon="2.25259">
        <ele>1622.84</ele>
        <time>2014-05-09T13:14:31Z</time>
      </trkpt>
      <trkpt lat="42.59492" lon="2.25263">
        <ele>1622.84</ele>
        <time>2014-05-09T13:14:39Z</time>
      </trkpt>
      <trkpt lat="42.59487" lon="2.25266">
        <ele>1622.84</ele>
        <time>2014-05-09T13:14:44Z</time>
      </trkpt>
      <trkpt lat="42.59479" lon="2.2527">
        <ele>1623.32</ele>
        <time>2014-05-09T13:14:52Z</time>
      </trkpt>
      <trkpt lat="42.59468" lon="2.25273">
        <ele>1622.84</ele>
        <time>2014-05-09T13:15:01Z</time>
      </trkpt>
      <trkpt lat="42.5946" lon="2.25277">
        <ele>1622.84</ele>
        <time>2014-05-09T13:15:08Z</time>
      </trkpt>
      <trkpt lat="42.59457" lon="2.25278">
        <ele>1622.36</ele>
        <time>2014-05-09T13:15:11Z</time>
      </trkpt>
      <trkpt lat="42.59448" lon="2.25286">
        <ele>1622.84</ele>
        <time>2014-05-09T13:15:19Z</time>
      </trkpt>
      <trkpt lat="42.5944" lon="2.25291">
        <ele>1622.36</ele>
        <time>2014-05-09T13:15:27Z</time>
      </trkpt>
      <trkpt lat="42.59434" lon="2.25297">
        <ele>1622.84</ele>
        <time>2014-05-09T13:15:33Z</time>
      </trkpt>
      <trkpt lat="42.59432" lon="2.25299">
        <ele>1622.84</ele>
        <time>2014-05-09T13:15:36Z</time>
      </trkpt>
      <trkpt lat="42.59426" lon="2.25306">
        <ele>1622.36</ele>
        <time>2014-05-09T13:15:44Z</time>
      </trkpt>
      <trkpt lat="42.59425" lon="2.25307">
        <ele>1622.84</ele>
        <time>2014-05-09T13:15:45Z</time>
      </trkpt>
      <trkpt lat="42.59419" lon="2.25321">
        <ele>1622.84</ele>
        <time>2014-05-09T13:15:55Z</time>
      </trkpt>
      <trkpt lat="42.59415" lon="2.25329">
        <ele>1622.84</ele>
        <time>2014-05-09T13:16:03Z</time>
      </trkpt>
      <trkpt lat="42.59413" lon="2.2533">
        <ele>1622.84</ele>
        <time>2014-05-09T13:16:12Z</time>
      </trkpt>
      <trkpt lat="42.59413" lon="2.2533">
        <ele>1619.48</ele>
        <time>2014-05-09T13:16:17Z</time>
      </trkpt>
      <trkpt lat="42.59413" lon="2.2533">
        <ele>1625.25</ele>
        <time>2014-05-09T13:16:18Z</time>
      </trkpt>
      <trkpt lat="42.59413" lon="2.2533">
        <ele>1621.88</ele>
        <time>2014-05-09T13:16:21Z</time>
      </trkpt>
      <trkpt lat="42.59412" lon="2.25335">
        <ele>1621.88</ele>
        <time>2014-05-09T13:16:31Z</time>
      </trkpt>
      <trkpt lat="42.59411" lon="2.25336">
        <ele>1621.88</ele>
        <time>2014-05-09T13:16:43Z</time>
      </trkpt>
      <trkpt lat="42.59411" lon="2.25336">
        <ele>1622.36</ele>
        <time>2014-05-09T13:16:53Z</time>
      </trkpt>
      <trkpt lat="42.59409" lon="2.25334">
        <ele>1622.36</ele>
        <time>2014-05-09T13:17:35Z</time>
      </trkpt>
      <trkpt lat="42.59409" lon="2.25334">
        <ele>1622.36</ele>
        <time>2014-05-09T13:17:44Z</time>
      </trkpt>
      <trkpt lat="42.5941" lon="2.25335">
        <ele>1621.88</ele>
        <time>2014-05-09T13:18:06Z</time>
      </trkpt>
      <trkpt lat="42.5941" lon="2.25335">
        <ele>1622.36</ele>
        <time>2014-05-09T13:19:34Z</time>
      </trkpt>
      <trkpt lat="42.59409" lon="2.25334">
        <ele>1622.84</ele>
        <time>2014-05-09T13:20:35Z</time>
      </trkpt>
      <trkpt lat="42.59408" lon="2.2534">
        <ele>1622.36</ele>
        <time>2014-05-09T13:21:09Z</time>
      </trkpt>
      <trkpt lat="42.59407" lon="2.25346">
        <ele>1620.92</ele>
        <time>2014-05-09T13:21:16Z</time>
      </trkpt>
      <trkpt lat="42.59401" lon="2.25354">
        <ele>1619.96</ele>
        <time>2014-05-09T13:21:24Z</time>
      </trkpt>
      <trkpt lat="42.59397" lon="2.2536">
        <ele>1618.04</ele>
        <time>2014-05-09T13:21:32Z</time>
      </trkpt>
      <trkpt lat="42.5939" lon="2.25364">
        <ele>1616.11</ele>
        <time>2014-05-09T13:21:39Z</time>
      </trkpt>
      <trkpt lat="42.59385" lon="2.2537">
        <ele>1614.19</ele>
        <time>2014-05-09T13:21:47Z</time>
      </trkpt>
      <trkpt lat="42.5938" lon="2.25374">
        <ele>1612.27</ele>
        <time>2014-05-09T13:21:55Z</time>
      </trkpt>
      <trkpt lat="42.59377" lon="2.2538">
        <ele>1610.83</ele>
        <time>2014-05-09T13:22:03Z</time>
      </trkpt>
      <trkpt lat="42.59373" lon="2.25383">
        <ele>1608.9</ele>
        <time>2014-05-09T13:22:10Z</time>
      </trkpt>
      <trkpt lat="42.59369" lon="2.25384">
        <ele>1607.94</ele>
        <time>2014-05-09T13:22:17Z</time>
      </trkpt>
      <trkpt lat="42.59365" lon="2.25386">
        <ele>1606.98</ele>
        <time>2014-05-09T13:22:24Z</time>
      </trkpt>
      <trkpt lat="42.59364" lon="2.25386">
        <ele>1606.98</ele>
        <time>2014-05-09T13:22:38Z</time>
      </trkpt>
      <trkpt lat="42.59362" lon="2.25386">
        <ele>1606.5</ele>
        <time>2014-05-09T13:22:47Z</time>
      </trkpt>
      <trkpt lat="42.59354" lon="2.25389">
        <ele>1605.54</ele>
        <time>2014-05-09T13:22:55Z</time>
      </trkpt>
      <trkpt lat="42.59353" lon="2.25389">
        <ele>1605.54</ele>
        <time>2014-05-09T13:22:56Z</time>
      </trkpt>
      <trkpt lat="42.59347" lon="2.25389">
        <ele>1604.58</ele>
        <time>2014-05-09T13:23:04Z</time>
      </trkpt>
      <trkpt lat="42.59342" lon="2.2539">
        <ele>1603.62</ele>
        <time>2014-05-09T13:23:12Z</time>
      </trkpt>
      <trkpt lat="42.59335" lon="2.25395">
        <ele>1603.14</ele>
        <time>2014-05-09T13:23:19Z</time>
      </trkpt>
      <trkpt lat="42.59329" lon="2.25401">
        <ele>1601.21</ele>
        <time>2014-05-09T13:23:27Z</time>
      </trkpt>
      <trkpt lat="42.59323" lon="2.25403">
        <ele>1601.21</ele>
        <time>2014-05-09T13:23:33Z</time>
      </trkpt>
      <trkpt lat="42.59322" lon="2.25404">
        <ele>1600.73</ele>
        <time>2014-05-09T13:23:34Z</time>
      </trkpt>
      <trkpt lat="42.59312" lon="2.25407">
        <ele>1599.29</ele>
        <time>2014-05-09T13:23:42Z</time>
      </trkpt>
      <trkpt lat="42.59311" lon="2.25407">
        <ele>1599.29</ele>
        <time>2014-05-09T13:23:43Z</time>
      </trkpt>
      <trkpt lat="42.59308" lon="2.25406">
        <ele>1598.81</ele>
        <time>2014-05-09T13:23:46Z</time>
      </trkpt>
      <trkpt lat="42.59304" lon="2.25402">
        <ele>1597.85</ele>
        <time>2014-05-09T13:23:51Z</time>
      </trkpt>
      <trkpt lat="42.59297" lon="2.25401">
        <ele>1596.41</ele>
        <time>2014-05-09T13:23:58Z</time>
      </trkpt>
      <trkpt lat="42.59288" lon="2.25398">
        <ele>1594.96</ele>
        <time>2014-05-09T13:24:07Z</time>
      </trkpt>
      <trkpt lat="42.5928" lon="2.25395">
        <ele>1593.52</ele>
        <time>2014-05-09T13:24:14Z</time>
      </trkpt>
      <trkpt lat="42.59274" lon="2.25392">
        <ele>1593.52</ele>
        <time>2014-05-09T13:24:22Z</time>
      </trkpt>
      <trkpt lat="42.59272" lon="2.25393">
        <ele>1592.56</ele>
        <time>2014-05-09T13:24:39Z</time>
      </trkpt>
      <trkpt lat="42.59271" lon="2.25393">
        <ele>1593.52</ele>
        <time>2014-05-09T13:24:40Z</time>
      </trkpt>
      <trkpt lat="42.5927" lon="2.25392">
        <ele>1593.04</ele>
        <time>2014-05-09T13:24:42Z</time>
      </trkpt>
      <trkpt lat="42.59265" lon="2.25389">
        <ele>1591.6</ele>
        <time>2014-05-09T13:24:50Z</time>
      </trkpt>
      <trkpt lat="42.59261" lon="2.25389">
        <ele>1591.6</ele>
        <time>2014-05-09T13:24:55Z</time>
      </trkpt>
      <trkpt lat="42.59257" lon="2.2539">
        <ele>1590.64</ele>
        <time>2014-05-09T13:25:02Z</time>
      </trkpt>
      <trkpt lat="42.59255" lon="2.25394">
        <ele>1589.68</ele>
        <time>2014-05-09T13:25:15Z</time>
      </trkpt>
      <trkpt lat="42.59254" lon="2.25397">
        <ele>1588.72</ele>
        <time>2014-05-09T13:25:22Z</time>
      </trkpt>
      <trkpt lat="42.59254" lon="2.254">
        <ele>1588.24</ele>
        <time>2014-05-09T13:25:29Z</time>
      </trkpt>
      <trkpt lat="42.59254" lon="2.25401">
        <ele>1588.24</ele>
        <time>2014-05-09T13:25:30Z</time>
      </trkpt>
      <trkpt lat="42.59254" lon="2.25411">
        <ele>1585.35</ele>
        <time>2014-05-09T13:25:39Z</time>
      </trkpt>
      <trkpt lat="42.59255" lon="2.25419">
        <ele>1583.43</ele>
        <time>2014-05-09T13:25:48Z</time>
      </trkpt>
      <trkpt lat="42.59258" lon="2.25425">
        <ele>1581.99</ele>
        <time>2014-05-09T13:25:57Z</time>
      </trkpt>
      <trkpt lat="42.59259" lon="2.25432">
        <ele>1580.54</ele>
        <time>2014-05-09T13:26:05Z</time>
      </trkpt>
      <trkpt lat="42.59261" lon="2.25436">
        <ele>1579.1</ele>
        <time>2014-05-09T13:26:08Z</time>
      </trkpt>
      <trkpt lat="42.59265" lon="2.25445">
        <ele>1578.62</ele>
        <time>2014-05-09T13:26:16Z</time>
      </trkpt>
      <trkpt lat="42.59269" lon="2.25452">
        <ele>1577.66</ele>
        <time>2014-05-09T13:26:23Z</time>
      </trkpt>
      <trkpt lat="42.59271" lon="2.25456">
        <ele>1576.7</ele>
        <time>2014-05-09T13:26:27Z</time>
      </trkpt>
      <trkpt lat="42.59275" lon="2.25465">
        <ele>1574.78</ele>
        <time>2014-05-09T13:26:36Z</time>
      </trkpt>
      <trkpt lat="42.59277" lon="2.25471">
        <ele>1574.3</ele>
        <time>2014-05-09T13:26:42Z</time>
      </trkpt>
      <trkpt lat="42.59283" lon="2.25478">
        <ele>1572.37</ele>
        <time>2014-05-09T13:26:52Z</time>
      </trkpt>
      <trkpt lat="42.59286" lon="2.25482">
        <ele>1570.93</ele>
        <time>2014-05-09T13:27:00Z</time>
      </trkpt>
      <trkpt lat="42.5929" lon="2.25489">
        <ele>1569.49</ele>
        <time>2014-05-09T13:27:07Z</time>
      </trkpt>
      <trkpt lat="42.59296" lon="2.25495">
        <ele>1568.53</ele>
        <time>2014-05-09T13:27:16Z</time>
      </trkpt>
      <trkpt lat="42.59297" lon="2.25498">
        <ele>1568.53</ele>
        <time>2014-05-09T13:27:19Z</time>
      </trkpt>
      <trkpt lat="42.59302" lon="2.25503">
        <ele>1567.09</ele>
        <time>2014-05-09T13:27:28Z</time>
      </trkpt>
      <trkpt lat="42.59303" lon="2.2551">
        <ele>1565.16</ele>
        <time>2014-05-09T13:27:35Z</time>
      </trkpt>
      <trkpt lat="42.59305" lon="2.25513">
        <ele>1563.24</ele>
        <time>2014-05-09T13:27:43Z</time>
      </trkpt>
      <trkpt lat="42.59306" lon="2.25519">
        <ele>1561.8</ele>
        <time>2014-05-09T13:27:51Z</time>
      </trkpt>
      <trkpt lat="42.5931" lon="2.25527">
        <ele>1559.88</ele>
        <time>2014-05-09T13:28:00Z</time>
      </trkpt>
      <trkpt lat="42.5931" lon="2.25527">
        <ele>1559.4</ele>
        <time>2014-05-09T13:28:03Z</time>
      </trkpt>
      <trkpt lat="42.59316" lon="2.25532">
        <ele>1557.95</ele>
        <time>2014-05-09T13:28:10Z</time>
      </trkpt>
      <trkpt lat="42.59318" lon="2.25535">
        <ele>1556.99</ele>
        <time>2014-05-09T13:28:16Z</time>
      </trkpt>
      <trkpt lat="42.59318" lon="2.25541">
        <ele>1556.03</ele>
        <time>2014-05-09T13:28:23Z</time>
      </trkpt>
      <trkpt lat="42.59321" lon="2.25548">
        <ele>1554.11</ele>
        <time>2014-05-09T13:28:30Z</time>
      </trkpt>
      <trkpt lat="42.59322" lon="2.25553">
        <ele>1554.11</ele>
        <time>2014-05-09T13:28:37Z</time>
      </trkpt>
      <trkpt lat="42.59323" lon="2.25557">
        <ele>1554.11</ele>
        <time>2014-05-09T13:28:46Z</time>
      </trkpt>
      <trkpt lat="42.59322" lon="2.25571">
        <ele>1552.19</ele>
        <time>2014-05-09T13:28:56Z</time>
      </trkpt>
      <trkpt lat="42.59322" lon="2.25579">
        <ele>1551.71</ele>
        <time>2014-05-09T13:29:04Z</time>
      </trkpt>
      <trkpt lat="42.59322" lon="2.25581">
        <ele>1550.74</ele>
        <time>2014-05-09T13:29:11Z</time>
      </trkpt>
      <trkpt lat="42.5932" lon="2.2559">
        <ele>1549.3</ele>
        <time>2014-05-09T13:29:19Z</time>
      </trkpt>
      <trkpt lat="42.59319" lon="2.25599">
        <ele>1547.86</ele>
        <time>2014-05-09T13:29:27Z</time>
      </trkpt>
      <trkpt lat="42.59319" lon="2.256">
        <ele>1547.86</ele>
        <time>2014-05-09T13:29:28Z</time>
      </trkpt>
      <trkpt lat="42.59315" lon="2.25617">
        <ele>1545.94</ele>
        <time>2014-05-09T13:29:37Z</time>
      </trkpt>
      <trkpt lat="42.59313" lon="2.25626">
        <ele>1544.5</ele>
        <time>2014-05-09T13:29:46Z</time>
      </trkpt>
      <trkpt lat="42.5931" lon="2.2563">
        <ele>1544.01</ele>
        <time>2014-05-09T13:29:55Z</time>
      </trkpt>
      <trkpt lat="42.5931" lon="2.25636">
        <ele>1543.53</ele>
        <time>2014-05-09T13:30:17Z</time>
      </trkpt>
      <trkpt lat="42.59308" lon="2.25641">
        <ele>1543.05</ele>
        <time>2014-05-09T13:30:26Z</time>
      </trkpt>
      <trkpt lat="42.59307" lon="2.25641">
        <ele>1542.09</ele>
        <time>2014-05-09T13:30:44Z</time>
      </trkpt>
      <trkpt lat="42.593" lon="2.25645">
        <ele>1541.61</ele>
        <time>2014-05-09T13:31:01Z</time>
      </trkpt>
      <trkpt lat="42.59295" lon="2.25648">
        <ele>1541.13</ele>
        <time>2014-05-09T13:31:09Z</time>
      </trkpt>
      <trkpt lat="42.59292" lon="2.25648">
        <ele>1538.25</ele>
        <time>2014-05-09T13:31:17Z</time>
      </trkpt>
      <trkpt lat="42.59281" lon="2.25645">
        <ele>1537.29</ele>
        <time>2014-05-09T13:31:24Z</time>
      </trkpt>
      <trkpt lat="42.59277" lon="2.25646">
        <ele>1536.8</ele>
        <time>2014-05-09T13:31:27Z</time>
      </trkpt>
      <trkpt lat="42.59267" lon="2.25645">
        <ele>1535.36</ele>
        <time>2014-05-09T13:31:36Z</time>
      </trkpt>
      <trkpt lat="42.59261" lon="2.25641">
        <ele>1533.92</ele>
        <time>2014-05-09T13:31:43Z</time>
      </trkpt>
      <trkpt lat="42.59257" lon="2.25642">
        <ele>1532.48</ele>
        <time>2014-05-09T13:31:51Z</time>
      </trkpt>
      <trkpt lat="42.59253" lon="2.25643">
        <ele>1531.52</ele>
        <time>2014-05-09T13:32:01Z</time>
      </trkpt>
      <trkpt lat="42.59248" lon="2.25647">
        <ele>1531.04</ele>
        <time>2014-05-09T13:32:08Z</time>
      </trkpt>
      <trkpt lat="42.59243" lon="2.25649">
        <ele>1530.08</ele>
        <time>2014-05-09T13:32:16Z</time>
      </trkpt>
      <trkpt lat="42.59242" lon="2.25649">
        <ele>1528.63</ele>
        <time>2014-05-09T13:32:19Z</time>
      </trkpt>
      <trkpt lat="42.59237" lon="2.2565">
        <ele>1528.63</ele>
        <time>2014-05-09T13:32:25Z</time>
      </trkpt>
      <trkpt lat="42.59235" lon="2.2565">
        <ele>1528.15</ele>
        <time>2014-05-09T13:32:28Z</time>
      </trkpt>
      <trkpt lat="42.5923" lon="2.2565">
        <ele>1526.71</ele>
        <time>2014-05-09T13:32:32Z</time>
      </trkpt>
      <trkpt lat="42.59223" lon="2.2565">
        <ele>1525.75</ele>
        <time>2014-05-09T13:32:38Z</time>
      </trkpt>
      <trkpt lat="42.5922" lon="2.25651">
        <ele>1524.79</ele>
        <time>2014-05-09T13:32:42Z</time>
      </trkpt>
      <trkpt lat="42.5921" lon="2.25654">
        <ele>1523.83</ele>
        <time>2014-05-09T13:32:50Z</time>
      </trkpt>
      <trkpt lat="42.59204" lon="2.25655">
        <ele>1523.83</ele>
        <time>2014-05-09T13:32:56Z</time>
      </trkpt>
      <trkpt lat="42.59203" lon="2.25656">
        <ele>1523.35</ele>
        <time>2014-05-09T13:32:57Z</time>
      </trkpt>
      <trkpt lat="42.59202" lon="2.25659">
        <ele>1523.83</ele>
        <time>2014-05-09T13:32:59Z</time>
      </trkpt>
      <trkpt lat="42.59196" lon="2.25663">
        <ele>1522.39</ele>
        <time>2014-05-09T13:33:06Z</time>
      </trkpt>
      <trkpt lat="42.59192" lon="2.25666">
        <ele>1520.46</ele>
        <time>2014-05-09T13:33:14Z</time>
      </trkpt>
      <trkpt lat="42.59187" lon="2.25669">
        <ele>1519.5</ele>
        <time>2014-05-09T13:33:20Z</time>
      </trkpt>
      <trkpt lat="42.5918" lon="2.25672">
        <ele>1518.54</ele>
        <time>2014-05-09T13:33:27Z</time>
      </trkpt>
      <trkpt lat="42.59172" lon="2.25678">
        <ele>1517.58</ele>
        <time>2014-05-09T13:33:36Z</time>
      </trkpt>
      <trkpt lat="42.59166" lon="2.25682">
        <ele>1515.18</ele>
        <time>2014-05-09T13:33:44Z</time>
      </trkpt>
      <trkpt lat="42.59161" lon="2.25685">
        <ele>1515.18</ele>
        <time>2014-05-09T13:33:50Z</time>
      </trkpt>
      <trkpt lat="42.5916" lon="2.25687">
        <ele>1514.21</ele>
        <time>2014-05-09T13:33:59Z</time>
      </trkpt>
      <trkpt lat="42.59153" lon="2.25692">
        <ele>1513.73</ele>
        <time>2014-05-09T13:34:06Z</time>
      </trkpt>
      <trkpt lat="42.59151" lon="2.25694">
        <ele>1512.77</ele>
        <time>2014-05-09T13:34:12Z</time>
      </trkpt>
      <trkpt lat="42.59149" lon="2.25697">
        <ele>1512.77</ele>
        <time>2014-05-09T13:34:20Z</time>
      </trkpt>
      <trkpt lat="42.59147" lon="2.25699">
        <ele>1511.81</ele>
        <time>2014-05-09T13:34:28Z</time>
      </trkpt>
      <trkpt lat="42.59144" lon="2.25701">
        <ele>1511.33</ele>
        <time>2014-05-09T13:34:31Z</time>
      </trkpt>
      <trkpt lat="42.59135" lon="2.25705">
        <ele>1509.41</ele>
        <time>2014-05-09T13:34:40Z</time>
      </trkpt>
      <trkpt lat="42.59132" lon="2.25706">
        <ele>1508.93</ele>
        <time>2014-05-09T13:34:47Z</time>
      </trkpt>
      <trkpt lat="42.59129" lon="2.25706">
        <ele>1508.45</ele>
        <time>2014-05-09T13:34:51Z</time>
      </trkpt>
      <trkpt lat="42.59121" lon="2.25709">
        <ele>1506.52</ele>
        <time>2014-05-09T13:35:00Z</time>
      </trkpt>
      <trkpt lat="42.59114" lon="2.25712">
        <ele>1506.04</ele>
        <time>2014-05-09T13:35:08Z</time>
      </trkpt>
      <trkpt lat="42.5911" lon="2.25715">
        <ele>1505.08</ele>
        <time>2014-05-09T13:35:16Z</time>
      </trkpt>
      <trkpt lat="42.59109" lon="2.25715">
        <ele>1504.6</ele>
        <time>2014-05-09T13:35:18Z</time>
      </trkpt>
      <trkpt lat="42.59106" lon="2.25717">
        <ele>1503.64</ele>
        <time>2014-05-09T13:35:22Z</time>
      </trkpt>
      <trkpt lat="42.591" lon="2.25719">
        <ele>1502.68</ele>
        <time>2014-05-09T13:35:27Z</time>
      </trkpt>
      <trkpt lat="42.59091" lon="2.2572">
        <ele>1502.2</ele>
        <time>2014-05-09T13:35:35Z</time>
      </trkpt>
      <trkpt lat="42.59085" lon="2.25722">
        <ele>1500.76</ele>
        <time>2014-05-09T13:35:41Z</time>
      </trkpt>
      <trkpt lat="42.59082" lon="2.25722">
        <ele>1500.27</ele>
        <time>2014-05-09T13:35:48Z</time>
      </trkpt>
      <trkpt lat="42.59078" lon="2.25724">
        <ele>1499.31</ele>
        <time>2014-05-09T13:35:55Z</time>
      </trkpt>
      <trkpt lat="42.59075" lon="2.25726">
        <ele>1499.31</ele>
        <time>2014-05-09T13:36:02Z</time>
      </trkpt>
      <trkpt lat="42.59074" lon="2.25726">
        <ele>1499.31</ele>
        <time>2014-05-09T13:36:11Z</time>
      </trkpt>
      <trkpt lat="42.59074" lon="2.25726">
        <ele>1499.31</ele>
        <time>2014-05-09T13:36:29Z</time>
      </trkpt>
      <trkpt lat="42.59071" lon="2.25728">
        <ele>1498.35</ele>
        <time>2014-05-09T13:36:40Z</time>
      </trkpt>
      <trkpt lat="42.59069" lon="2.25729">
        <ele>1498.35</ele>
        <time>2014-05-09T13:36:47Z</time>
      </trkpt>
      <trkpt lat="42.59069" lon="2.2573">
        <ele>1498.35</ele>
        <time>2014-05-09T13:37:03Z</time>
      </trkpt>
      <trkpt lat="42.59068" lon="2.2573">
        <ele>1498.35</ele>
        <time>2014-05-09T13:37:15Z</time>
      </trkpt>
      <trkpt lat="42.59068" lon="2.2573">
        <ele>1497.87</ele>
        <time>2014-05-09T13:37:35Z</time>
      </trkpt>
      <trkpt lat="42.59068" lon="2.2573">
        <ele>1497.87</ele>
        <time>2014-05-09T13:38:09Z</time>
      </trkpt>
      <trkpt lat="42.59066" lon="2.25731">
        <ele>1497.87</ele>
        <time>2014-05-09T13:38:55Z</time>
      </trkpt>
      <trkpt lat="42.59059" lon="2.25737">
        <ele>1496.91</ele>
        <time>2014-05-09T13:39:03Z</time>
      </trkpt>
      <trkpt lat="42.59051" lon="2.25742">
        <ele>1496.91</ele>
        <time>2014-05-09T13:39:12Z</time>
      </trkpt>
      <trkpt lat="42.59044" lon="2.25746">
        <ele>1496.43</ele>
        <time>2014-05-09T13:39:19Z</time>
      </trkpt>
      <trkpt lat="42.59039" lon="2.25747">
        <ele>1494.51</ele>
        <time>2014-05-09T13:39:28Z</time>
      </trkpt>
      <trkpt lat="42.59032" lon="2.2575">
        <ele>1493.06</ele>
        <time>2014-05-09T13:39:36Z</time>
      </trkpt>
      <trkpt lat="42.59029" lon="2.2575">
        <ele>1493.06</ele>
        <time>2014-05-09T13:39:46Z</time>
      </trkpt>
      <trkpt lat="42.59026" lon="2.25751">
        <ele>1492.1</ele>
        <time>2014-05-09T13:39:50Z</time>
      </trkpt>
      <trkpt lat="42.59017" lon="2.25744">
        <ele>1490.66</ele>
        <time>2014-05-09T13:39:59Z</time>
      </trkpt>
      <trkpt lat="42.59015" lon="2.2574">
        <ele>1489.7</ele>
        <time>2014-05-09T13:40:07Z</time>
      </trkpt>
      <trkpt lat="42.59015" lon="2.25739">
        <ele>1489.7</ele>
        <time>2014-05-09T13:40:24Z</time>
      </trkpt>
      <trkpt lat="42.59012" lon="2.25734">
        <ele>1489.22</ele>
        <time>2014-05-09T13:40:29Z</time>
      </trkpt>
      <trkpt lat="42.5901" lon="2.25738">
        <ele>1488.26</ele>
        <time>2014-05-09T13:40:36Z</time>
      </trkpt>
      <trkpt lat="42.59008" lon="2.25741">
        <ele>1486.34</ele>
        <time>2014-05-09T13:40:41Z</time>
      </trkpt>
      <trkpt lat="42.59006" lon="2.25745">
        <ele>1485.85</ele>
        <time>2014-05-09T13:40:49Z</time>
      </trkpt>
      <trkpt lat="42.59003" lon="2.25749">
        <ele>1485.37</ele>
        <time>2014-05-09T13:40:59Z</time>
      </trkpt>
      <trkpt lat="42.59003" lon="2.25749">
        <ele>1484.89</ele>
        <time>2014-05-09T13:41:15Z</time>
      </trkpt>
      <trkpt lat="42.59001" lon="2.25754">
        <ele>1484.41</ele>
        <time>2014-05-09T13:42:10Z</time>
      </trkpt>
      <trkpt lat="42.58997" lon="2.2576">
        <ele>1482.49</ele>
        <time>2014-05-09T13:42:17Z</time>
      </trkpt>
      <trkpt lat="42.58993" lon="2.25767">
        <ele>1481.53</ele>
        <time>2014-05-09T13:42:25Z</time>
      </trkpt>
      <trkpt lat="42.58991" lon="2.25775">
        <ele>1479.13</ele>
        <time>2014-05-09T13:42:34Z</time>
      </trkpt>
      <trkpt lat="42.58991" lon="2.25776">
        <ele>1479.13</ele>
        <time>2014-05-09T13:42:35Z</time>
      </trkpt>
      <trkpt lat="42.58987" lon="2.25783">
        <ele>1477.2</ele>
        <time>2014-05-09T13:42:44Z</time>
      </trkpt>
      <trkpt lat="42.58984" lon="2.25793">
        <ele>1476.72</ele>
        <time>2014-05-09T13:42:53Z</time>
      </trkpt>
      <trkpt lat="42.58983" lon="2.25797">
        <ele>1475.76</ele>
        <time>2014-05-09T13:43:01Z</time>
      </trkpt>
      <trkpt lat="42.58982" lon="2.25799">
        <ele>1475.28</ele>
        <time>2014-05-09T13:43:06Z</time>
      </trkpt>
      <trkpt lat="42.58981" lon="2.25806">
        <ele>1473.36</ele>
        <time>2014-05-09T13:43:15Z</time>
      </trkpt>
      <trkpt lat="42.58978" lon="2.25811">
        <ele>1471.44</ele>
        <time>2014-05-09T13:43:24Z</time>
      </trkpt>
      <trkpt lat="42.58978" lon="2.25812">
        <ele>1470.95</ele>
        <time>2014-05-09T13:43:34Z</time>
      </trkpt>
      <trkpt lat="42.58976" lon="2.25816">
        <ele>1470.95</ele>
        <time>2014-05-09T13:43:45Z</time>
      </trkpt>
      <trkpt lat="42.58974" lon="2.25819">
        <ele>1470.47</ele>
        <time>2014-05-09T13:43:54Z</time>
      </trkpt>
      <trkpt lat="42.58972" lon="2.25822">
        <ele>1469.03</ele>
        <time>2014-05-09T13:44:01Z</time>
      </trkpt>
      <trkpt lat="42.5897" lon="2.25824">
        <ele>1468.55</ele>
        <time>2014-05-09T13:44:04Z</time>
      </trkpt>
      <trkpt lat="42.58968" lon="2.25827">
        <ele>1468.07</ele>
        <time>2014-05-09T13:44:11Z</time>
      </trkpt>
      <trkpt lat="42.58963" lon="2.25831">
        <ele>1467.11</ele>
        <time>2014-05-09T13:44:18Z</time>
      </trkpt>
      <trkpt lat="42.5896" lon="2.25833">
        <ele>1466.63</ele>
        <time>2014-05-09T13:44:31Z</time>
      </trkpt>
      <trkpt lat="42.58957" lon="2.25836">
        <ele>1465.67</ele>
        <time>2014-05-09T13:44:52Z</time>
      </trkpt>
      <trkpt lat="42.58951" lon="2.25842">
        <ele>1463.26</ele>
        <time>2014-05-09T13:45:00Z</time>
      </trkpt>
      <trkpt lat="42.58948" lon="2.25849">
        <ele>1462.3</ele>
        <time>2014-05-09T13:45:07Z</time>
      </trkpt>
      <trkpt lat="42.58945" lon="2.25854">
        <ele>1461.34</ele>
        <time>2014-05-09T13:45:15Z</time>
      </trkpt>
      <trkpt lat="42.58944" lon="2.25855">
        <ele>1461.34</ele>
        <time>2014-05-09T13:45:24Z</time>
      </trkpt>
      <trkpt lat="42.5894" lon="2.2586">
        <ele>1460.86</ele>
        <time>2014-05-09T13:45:34Z</time>
      </trkpt>
      <trkpt lat="42.58938" lon="2.25865">
        <ele>1459.42</ele>
        <time>2014-05-09T13:45:42Z</time>
      </trkpt>
      <trkpt lat="42.58937" lon="2.25874">
        <ele>1458.94</ele>
        <time>2014-05-09T13:45:52Z</time>
      </trkpt>
      <trkpt lat="42.58932" lon="2.25878">
        <ele>1457.98</ele>
        <time>2014-05-09T13:45:58Z</time>
      </trkpt>
      <trkpt lat="42.58929" lon="2.2588">
        <ele>1457.02</ele>
        <time>2014-05-09T13:46:06Z</time>
      </trkpt>
      <trkpt lat="42.58925" lon="2.25883">
        <ele>1456.05</ele>
        <time>2014-05-09T13:46:14Z</time>
      </trkpt>
      <trkpt lat="42.58922" lon="2.25884">
        <ele>1456.05</ele>
        <time>2014-05-09T13:46:22Z</time>
      </trkpt>
      <trkpt lat="42.5892" lon="2.25886">
        <ele>1455.57</ele>
        <time>2014-05-09T13:46:29Z</time>
      </trkpt>
      <trkpt lat="42.58916" lon="2.25887">
        <ele>1454.13</ele>
        <time>2014-05-09T13:46:36Z</time>
      </trkpt>
      <trkpt lat="42.58912" lon="2.25886">
        <ele>1453.17</ele>
        <time>2014-05-09T13:46:43Z</time>
      </trkpt>
      <trkpt lat="42.58911" lon="2.25886">
        <ele>1451.73</ele>
        <time>2014-05-09T13:46:50Z</time>
      </trkpt>
      <trkpt lat="42.58906" lon="2.25889">
        <ele>1450.29</ele>
        <time>2014-05-09T13:46:58Z</time>
      </trkpt>
      <trkpt lat="42.58902" lon="2.25891">
        <ele>1449.32</ele>
        <time>2014-05-09T13:47:08Z</time>
      </trkpt>
      <trkpt lat="42.58898" lon="2.25892">
        <ele>1448.84</ele>
        <time>2014-05-09T13:47:14Z</time>
      </trkpt>
      <trkpt lat="42.58891" lon="2.25892">
        <ele>1447.88</ele>
        <time>2014-05-09T13:47:20Z</time>
      </trkpt>
      <trkpt lat="42.58889" lon="2.25895">
        <ele>1448.36</ele>
        <time>2014-05-09T13:47:23Z</time>
      </trkpt>
      <trkpt lat="42.58884" lon="2.25903">
        <ele>1446.44</ele>
        <time>2014-05-09T13:47:31Z</time>
      </trkpt>
      <trkpt lat="42.58881" lon="2.2591">
        <ele>1444.52</ele>
        <time>2014-05-09T13:47:40Z</time>
      </trkpt>
      <trkpt lat="42.58879" lon="2.25912">
        <ele>1443.56</ele>
        <time>2014-05-09T13:47:45Z</time>
      </trkpt>
      <trkpt lat="42.58878" lon="2.25915">
        <ele>1443.08</ele>
        <time>2014-05-09T13:47:48Z</time>
      </trkpt>
      <trkpt lat="42.58876" lon="2.25918">
        <ele>1442.6</ele>
        <time>2014-05-09T13:47:51Z</time>
      </trkpt>
      <trkpt lat="42.58874" lon="2.25924">
        <ele>1441.63</ele>
        <time>2014-05-09T13:47:55Z</time>
      </trkpt>
      <trkpt lat="42.58873" lon="2.25931">
        <ele>1440.67</ele>
        <time>2014-05-09T13:48:00Z</time>
      </trkpt>
      <trkpt lat="42.58869" lon="2.25937">
        <ele>1439.23</ele>
        <time>2014-05-09T13:48:06Z</time>
      </trkpt>
      <trkpt lat="42.58864" lon="2.25945">
        <ele>1438.75</ele>
        <time>2014-05-09T13:48:14Z</time>
      </trkpt>
      <trkpt lat="42.58861" lon="2.25948">
        <ele>1437.79</ele>
        <time>2014-05-09T13:48:20Z</time>
      </trkpt>
      <trkpt lat="42.58857" lon="2.25952">
        <ele>1437.79</ele>
        <time>2014-05-09T13:48:28Z</time>
      </trkpt>
      <trkpt lat="42.58856" lon="2.25953">
        <ele>1436.83</ele>
        <time>2014-05-09T13:48:35Z</time>
      </trkpt>
      <trkpt lat="42.58853" lon="2.25955">
        <ele>1435.39</ele>
        <time>2014-05-09T13:48:45Z</time>
      </trkpt>
      <trkpt lat="42.58851" lon="2.25955">
        <ele>1434.91</ele>
        <time>2014-05-09T13:48:52Z</time>
      </trkpt>
      <trkpt lat="42.58849" lon="2.25955">
        <ele>1434.91</ele>
        <time>2014-05-09T13:48:54Z</time>
      </trkpt>
      <trkpt lat="42.58841" lon="2.25959">
        <ele>1432.98</ele>
        <time>2014-05-09T13:49:02Z</time>
      </trkpt>
      <trkpt lat="42.58835" lon="2.25962">
        <ele>1431.06</ele>
        <time>2014-05-09T13:49:11Z</time>
      </trkpt>
      <trkpt lat="42.58828" lon="2.25964">
        <ele>1428.18</ele>
        <time>2014-05-09T13:49:21Z</time>
      </trkpt>
      <trkpt lat="42.58823" lon="2.25967">
        <ele>1427.21</ele>
        <time>2014-05-09T13:49:29Z</time>
      </trkpt>
      <trkpt lat="42.58817" lon="2.2597">
        <ele>1425.77</ele>
        <time>2014-05-09T13:49:36Z</time>
      </trkpt>
      <trkpt lat="42.58812" lon="2.25974">
        <ele>1424.33</ele>
        <time>2014-05-09T13:49:43Z</time>
      </trkpt>
      <trkpt lat="42.58806" lon="2.25976">
        <ele>1423.37</ele>
        <time>2014-05-09T13:49:50Z</time>
      </trkpt>
      <trkpt lat="42.588" lon="2.25979">
        <ele>1422.41</ele>
        <time>2014-05-09T13:49:57Z</time>
      </trkpt>
      <trkpt lat="42.58793" lon="2.25978">
        <ele>1420.97</ele>
        <time>2014-05-09T13:50:04Z</time>
      </trkpt>
      <trkpt lat="42.58786" lon="2.25979">
        <ele>1419.52</ele>
        <time>2014-05-09T13:50:13Z</time>
      </trkpt>
      <trkpt lat="42.5878" lon="2.2598">
        <ele>1418.08</ele>
        <time>2014-05-09T13:50:22Z</time>
      </trkpt>
      <trkpt lat="42.58777" lon="2.2598">
        <ele>1418.08</ele>
        <time>2014-05-09T13:50:27Z</time>
      </trkpt>
      <trkpt lat="42.58774" lon="2.25981">
        <ele>1417.12</ele>
        <time>2014-05-09T13:50:32Z</time>
      </trkpt>
      <trkpt lat="42.58769" lon="2.25982">
        <ele>1415.68</ele>
        <time>2014-05-09T13:50:39Z</time>
      </trkpt>
      <trkpt lat="42.58761" lon="2.25982">
        <ele>1415.2</ele>
        <time>2014-05-09T13:50:47Z</time>
      </trkpt>
      <trkpt lat="42.58757" lon="2.25982">
        <ele>1413.76</ele>
        <time>2014-05-09T13:50:56Z</time>
      </trkpt>
      <trkpt lat="42.58752" lon="2.25983">
        <ele>1412.31</ele>
        <time>2014-05-09T13:51:03Z</time>
      </trkpt>
      <trkpt lat="42.58746" lon="2.25986">
        <ele>1410.87</ele>
        <time>2014-05-09T13:51:11Z</time>
      </trkpt>
      <trkpt lat="42.58739" lon="2.25988">
        <ele>1409.43</ele>
        <time>2014-05-09T13:51:18Z</time>
      </trkpt>
      <trkpt lat="42.58733" lon="2.25988">
        <ele>1408.47</ele>
        <time>2014-05-09T13:51:25Z</time>
      </trkpt>
      <trkpt lat="42.58725" lon="2.25989">
        <ele>1407.03</ele>
        <time>2014-05-09T13:51:34Z</time>
      </trkpt>
      <trkpt lat="42.5872" lon="2.25991">
        <ele>1405.58</ele>
        <time>2014-05-09T13:51:42Z</time>
      </trkpt>
      <trkpt lat="42.58714" lon="2.2599">
        <ele>1404.14</ele>
        <time>2014-05-09T13:51:50Z</time>
      </trkpt>
      <trkpt lat="42.58707" lon="2.25993">
        <ele>1403.18</ele>
        <time>2014-05-09T13:51:57Z</time>
      </trkpt>
      <trkpt lat="42.58702" lon="2.25995">
        <ele>1403.18</ele>
        <time>2014-05-09T13:52:04Z</time>
      </trkpt>
      <trkpt lat="42.58698" lon="2.25996">
        <ele>1401.26</ele>
        <time>2014-05-09T13:52:11Z</time>
      </trkpt>
      <trkpt lat="42.58691" lon="2.25996">
        <ele>1400.3</ele>
        <time>2014-05-09T13:52:19Z</time>
      </trkpt>
      <trkpt lat="42.58688" lon="2.25997">
        <ele>1398.37</ele>
        <time>2014-05-09T13:52:22Z</time>
      </trkpt>
      <trkpt lat="42.58683" lon="2.26">
        <ele>1397.41</ele>
        <time>2014-05-09T13:52:29Z</time>
      </trkpt>
      <trkpt lat="42.58678" lon="2.26">
        <ele>1396.45</ele>
        <time>2014-05-09T13:52:36Z</time>
      </trkpt>
      <trkpt lat="42.58671" lon="2.26002">
        <ele>1395.01</ele>
        <time>2014-05-09T13:52:44Z</time>
      </trkpt>
      <trkpt lat="42.58667" lon="2.26001">
        <ele>1395.01</ele>
        <time>2014-05-09T13:52:51Z</time>
      </trkpt>
      <trkpt lat="42.58659" lon="2.26001">
        <ele>1393.09</ele>
        <time>2014-05-09T13:52:59Z</time>
      </trkpt>
      <trkpt lat="42.58653" lon="2.26001">
        <ele>1391.65</ele>
        <time>2014-05-09T13:53:07Z</time>
      </trkpt>
      <trkpt lat="42.58648" lon="2.26002">
        <ele>1390.2</ele>
        <time>2014-05-09T13:53:14Z</time>
      </trkpt>
      <trkpt lat="42.58642" lon="2.26002">
        <ele>1388.28</ele>
        <time>2014-05-09T13:53:23Z</time>
      </trkpt>
      <trkpt lat="42.58635" lon="2.26005">
        <ele>1386.84</ele>
        <time>2014-05-09T13:53:32Z</time>
      </trkpt>
      <trkpt lat="42.58628" lon="2.26003">
        <ele>1385.4</ele>
        <time>2014-05-09T13:53:42Z</time>
      </trkpt>
      <trkpt lat="42.58623" lon="2.26002">
        <ele>1383.96</ele>
        <time>2014-05-09T13:53:50Z</time>
      </trkpt>
      <trkpt lat="42.58616" lon="2.26001">
        <ele>1382.03</ele>
        <time>2014-05-09T13:53:58Z</time>
      </trkpt>
      <trkpt lat="42.58613" lon="2.25999">
        <ele>1381.55</ele>
        <time>2014-05-09T13:54:02Z</time>
      </trkpt>
      <trkpt lat="42.58606" lon="2.26">
        <ele>1379.63</ele>
        <time>2014-05-09T13:54:11Z</time>
      </trkpt>
      <trkpt lat="42.58599" lon="2.26">
        <ele>1378.67</ele>
        <time>2014-05-09T13:54:19Z</time>
      </trkpt>
      <trkpt lat="42.58595" lon="2.26001">
        <ele>1376.75</ele>
        <time>2014-05-09T13:54:27Z</time>
      </trkpt>
      <trkpt lat="42.58591" lon="2.26003">
        <ele>1375.78</ele>
        <time>2014-05-09T13:54:33Z</time>
      </trkpt>
      <trkpt lat="42.58584" lon="2.26001">
        <ele>1373.86</ele>
        <time>2014-05-09T13:54:41Z</time>
      </trkpt>
      <trkpt lat="42.58583" lon="2.26001">
        <ele>1373.86</ele>
        <time>2014-05-09T13:54:51Z</time>
      </trkpt>
      <trkpt lat="42.58583" lon="2.26001">
        <ele>1373.38</ele>
        <time>2014-05-09T13:55:12Z</time>
      </trkpt>
      <trkpt lat="42.58583" lon="2.26002">
        <ele>1369.54</ele>
        <time>2014-05-09T13:55:59Z</time>
      </trkpt>
      <trkpt lat="42.58583" lon="2.26002">
        <ele>1373.86</ele>
        <time>2014-05-09T13:56:00Z</time>
      </trkpt>
      <trkpt lat="42.58583" lon="2.26002">
        <ele>1375.3</ele>
        <time>2014-05-09T13:56:03Z</time>
      </trkpt>
      <trkpt lat="42.58583" lon="2.26002">
        <ele>1371.94</ele>
        <time>2014-05-09T13:56:04Z</time>
      </trkpt>
      <trkpt lat="42.58583" lon="2.26003">
        <ele>1373.86</ele>
        <time>2014-05-09T13:56:05Z</time>
      </trkpt>
      <trkpt lat="42.58583" lon="2.26003">
        <ele>1369.05</ele>
        <time>2014-05-09T13:56:07Z</time>
      </trkpt>
      <trkpt lat="42.58583" lon="2.26003">
        <ele>1373.86</ele>
        <time>2014-05-09T13:56:08Z</time>
      </trkpt>
      <trkpt lat="42.58583" lon="2.26003">
        <ele>1374.34</ele>
        <time>2014-05-09T13:56:39Z</time>
      </trkpt>
      <trkpt lat="42.58583" lon="2.26003">
        <ele>1370.98</ele>
        <time>2014-05-09T13:56:45Z</time>
      </trkpt>
      <trkpt lat="42.58583" lon="2.26003">
        <ele>1372.42</ele>
        <time>2014-05-09T13:57:13Z</time>
      </trkpt>
      <trkpt lat="42.58574" lon="2.26005">
        <ele>1371.94</ele>
        <time>2014-05-09T13:57:22Z</time>
      </trkpt>
      <trkpt lat="42.58569" lon="2.26006">
        <ele>1370.98</ele>
        <time>2014-05-09T13:57:29Z</time>
      </trkpt>
      <trkpt lat="42.58562" lon="2.26006">
        <ele>1369.05</ele>
        <time>2014-05-09T13:57:36Z</time>
      </trkpt>
      <trkpt lat="42.58555" lon="2.26007">
        <ele>1368.09</ele>
        <time>2014-05-09T13:57:44Z</time>
      </trkpt>
      <trkpt lat="42.58549" lon="2.26007">
        <ele>1366.65</ele>
        <time>2014-05-09T13:57:51Z</time>
      </trkpt>
      <trkpt lat="42.58543" lon="2.26007">
        <ele>1365.21</ele>
        <time>2014-05-09T13:57:58Z</time>
      </trkpt>
      <trkpt lat="42.58537" lon="2.26008">
        <ele>1364.25</ele>
        <time>2014-05-09T13:58:05Z</time>
      </trkpt>
      <trkpt lat="42.58532" lon="2.26006">
        <ele>1362.33</ele>
        <time>2014-05-09T13:58:13Z</time>
      </trkpt>
      <trkpt lat="42.58527" lon="2.26006">
        <ele>1361.84</ele>
        <time>2014-05-09T13:58:19Z</time>
      </trkpt>
      <trkpt lat="42.58519" lon="2.26009">
        <ele>1359.92</ele>
        <time>2014-05-09T13:58:27Z</time>
      </trkpt>
      <trkpt lat="42.58511" lon="2.26008">
        <ele>1359.44</ele>
        <time>2014-05-09T13:58:36Z</time>
      </trkpt>
      <trkpt lat="42.58502" lon="2.26011">
        <ele>1357.52</ele>
        <time>2014-05-09T13:58:44Z</time>
      </trkpt>
      <trkpt lat="42.58494" lon="2.2601">
        <ele>1356.08</ele>
        <time>2014-05-09T13:58:53Z</time>
      </trkpt>
      <trkpt lat="42.58485" lon="2.26011">
        <ele>1355.12</ele>
        <time>2014-05-09T13:59:02Z</time>
      </trkpt>
      <trkpt lat="42.58478" lon="2.26011">
        <ele>1353.67</ele>
        <time>2014-05-09T13:59:10Z</time>
      </trkpt>
      <trkpt lat="42.58469" lon="2.26009">
        <ele>1351.75</ele>
        <time>2014-05-09T13:59:20Z</time>
      </trkpt>
      <trkpt lat="42.58461" lon="2.26008">
        <ele>1349.83</ele>
        <time>2014-05-09T13:59:28Z</time>
      </trkpt>
      <trkpt lat="42.58454" lon="2.26005">
        <ele>1348.39</ele>
        <time>2014-05-09T13:59:36Z</time>
      </trkpt>
      <trkpt lat="42.58449" lon="2.26002">
        <ele>1347.43</ele>
        <time>2014-05-09T13:59:44Z</time>
      </trkpt>
      <trkpt lat="42.58445" lon="2.25999">
        <ele>1345.98</ele>
        <time>2014-05-09T13:59:50Z</time>
      </trkpt>
      <trkpt lat="42.58438" lon="2.25997">
        <ele>1344.54</ele>
        <time>2014-05-09T13:59:58Z</time>
      </trkpt>
      <trkpt lat="42.58434" lon="2.25995">
        <ele>1343.1</ele>
        <time>2014-05-09T14:00:04Z</time>
      </trkpt>
      <trkpt lat="42.58429" lon="2.25991">
        <ele>1342.14</ele>
        <time>2014-05-09T14:00:12Z</time>
      </trkpt>
      <trkpt lat="42.58423" lon="2.25987">
        <ele>1339.73</ele>
        <time>2014-05-09T14:00:19Z</time>
      </trkpt>
      <trkpt lat="42.58417" lon="2.25983">
        <ele>1338.29</ele>
        <time>2014-05-09T14:00:29Z</time>
      </trkpt>
      <trkpt lat="42.58412" lon="2.25976">
        <ele>1335.89</ele>
        <time>2014-05-09T14:00:37Z</time>
      </trkpt>
      <trkpt lat="42.58407" lon="2.2597">
        <ele>1334.45</ele>
        <time>2014-05-09T14:00:45Z</time>
      </trkpt>
      <trkpt lat="42.58405" lon="2.25968">
        <ele>1333.01</ele>
        <time>2014-05-09T14:00:49Z</time>
      </trkpt>
      <trkpt lat="42.584" lon="2.2596">
        <ele>1332.04</ele>
        <time>2014-05-09T14:00:57Z</time>
      </trkpt>
      <trkpt lat="42.58396" lon="2.25954">
        <ele>1330.12</ele>
        <time>2014-05-09T14:01:04Z</time>
      </trkpt>
      <trkpt lat="42.58394" lon="2.25953">
        <ele>1329.16</ele>
        <time>2014-05-09T14:01:06Z</time>
      </trkpt>
      <trkpt lat="42.58387" lon="2.25947">
        <ele>1327.24</ele>
        <time>2014-05-09T14:01:16Z</time>
      </trkpt>
      <trkpt lat="42.58383" lon="2.25943">
        <ele>1325.8</ele>
        <time>2014-05-09T14:01:23Z</time>
      </trkpt>
      <trkpt lat="42.58383" lon="2.25942">
        <ele>1326.28</ele>
        <time>2014-05-09T14:01:32Z</time>
      </trkpt>
      <trkpt lat="42.58381" lon="2.25939">
        <ele>1325.31</ele>
        <time>2014-05-09T14:01:57Z</time>
      </trkpt>
      <trkpt lat="42.58378" lon="2.25938">
        <ele>1324.35</ele>
        <time>2014-05-09T14:02:04Z</time>
      </trkpt>
      <trkpt lat="42.58372" lon="2.25934">
        <ele>1322.91</ele>
        <time>2014-05-09T14:02:11Z</time>
      </trkpt>
      <trkpt lat="42.58367" lon="2.2593">
        <ele>1321.47</ele>
        <time>2014-05-09T14:02:18Z</time>
      </trkpt>
      <trkpt lat="42.58365" lon="2.25929">
        <ele>1320.51</ele>
        <time>2014-05-09T14:02:26Z</time>
      </trkpt>
      <trkpt lat="42.58365" lon="2.25929">
        <ele>1320.03</ele>
        <time>2014-05-09T14:03:19Z</time>
      </trkpt>
      <trkpt lat="42.58363" lon="2.25928">
        <ele>1319.55</ele>
        <time>2014-05-09T14:03:26Z</time>
      </trkpt>
      <trkpt lat="42.58359" lon="2.25924">
        <ele>1317.62</ele>
        <time>2014-05-09T14:03:33Z</time>
      </trkpt>
      <trkpt lat="42.58354" lon="2.25921">
        <ele>1316.18</ele>
        <time>2014-05-09T14:03:40Z</time>
      </trkpt>
      <trkpt lat="42.58349" lon="2.2592">
        <ele>1314.74</ele>
        <time>2014-05-09T14:03:47Z</time>
      </trkpt>
      <trkpt lat="42.58346" lon="2.2592">
        <ele>1314.26</ele>
        <time>2014-05-09T14:03:54Z</time>
      </trkpt>
      <trkpt lat="42.58346" lon="2.2592">
        <ele>1313.78</ele>
        <time>2014-05-09T14:04:17Z</time>
      </trkpt>
      <trkpt lat="42.58346" lon="2.2592">
        <ele>1313.3</ele>
        <time>2014-05-09T14:06:15Z</time>
      </trkpt>
      <trkpt lat="42.58345" lon="2.2592">
        <ele>1312.34</ele>
        <time>2014-05-09T14:07:29Z</time>
      </trkpt>
      <trkpt lat="42.58345" lon="2.2592">
        <ele>1312.82</ele>
        <time>2014-05-09T14:07:55Z</time>
      </trkpt>
      <trkpt lat="42.58341" lon="2.25921">
        <ele>1311.86</ele>
        <time>2014-05-09T14:08:11Z</time>
      </trkpt>
      <trkpt lat="42.58338" lon="2.25918">
        <ele>1311.38</ele>
        <time>2014-05-09T14:08:14Z</time>
      </trkpt>
      <trkpt lat="42.58333" lon="2.25916">
        <ele>1310.41</ele>
        <time>2014-05-09T14:08:20Z</time>
      </trkpt>
      <trkpt lat="42.58327" lon="2.25914">
        <ele>1308.97</ele>
        <time>2014-05-09T14:08:28Z</time>
      </trkpt>
      <trkpt lat="42.58325" lon="2.25911">
        <ele>1308.49</ele>
        <time>2014-05-09T14:08:35Z</time>
      </trkpt>
      <trkpt lat="42.58323" lon="2.2591">
        <ele>1307.05</ele>
        <time>2014-05-09T14:08:42Z</time>
      </trkpt>
      <trkpt lat="42.58318" lon="2.25908">
        <ele>1304.65</ele>
        <time>2014-05-09T14:08:51Z</time>
      </trkpt>
      <trkpt lat="42.58317" lon="2.25907">
        <ele>1304.65</ele>
        <time>2014-05-09T14:08:52Z</time>
      </trkpt>
      <trkpt lat="42.58313" lon="2.25905">
        <ele>1303.2</ele>
        <time>2014-05-09T14:09:00Z</time>
      </trkpt>
      <trkpt lat="42.5831" lon="2.25902">
        <ele>1302.24</ele>
        <time>2014-05-09T14:09:07Z</time>
      </trkpt>
      <trkpt lat="42.58306" lon="2.25904">
        <ele>1300.32</ele>
        <time>2014-05-09T14:09:14Z</time>
      </trkpt>
      <trkpt lat="42.58303" lon="2.25903">
        <ele>1298.88</ele>
        <time>2014-05-09T14:09:22Z</time>
      </trkpt>
      <trkpt lat="42.58298" lon="2.25903">
        <ele>1296.48</ele>
        <time>2014-05-09T14:09:31Z</time>
      </trkpt>
      <trkpt lat="42.58292" lon="2.25904">
        <ele>1294.55</ele>
        <time>2014-05-09T14:09:40Z</time>
      </trkpt>
      <trkpt lat="42.58285" lon="2.25903">
        <ele>1293.59</ele>
        <time>2014-05-09T14:09:49Z</time>
      </trkpt>
      <trkpt lat="42.58283" lon="2.25903">
        <ele>1292.15</ele>
        <time>2014-05-09T14:09:56Z</time>
      </trkpt>
      <trkpt lat="42.58281" lon="2.25903">
        <ele>1291.67</ele>
        <time>2014-05-09T14:10:05Z</time>
      </trkpt>
      <trkpt lat="42.58276" lon="2.25897">
        <ele>1290.23</ele>
        <time>2014-05-09T14:10:13Z</time>
      </trkpt>
      <trkpt lat="42.58274" lon="2.25894">
        <ele>1288.3</ele>
        <time>2014-05-09T14:10:20Z</time>
      </trkpt>
      <trkpt lat="42.58272" lon="2.25893">
        <ele>1286.86</ele>
        <time>2014-05-09T14:10:23Z</time>
      </trkpt>
      <trkpt lat="42.58266" lon="2.25895">
        <ele>1285.9</ele>
        <time>2014-05-09T14:10:32Z</time>
      </trkpt>
      <trkpt lat="42.58262" lon="2.25894">
        <ele>1283.98</ele>
        <time>2014-05-09T14:10:40Z</time>
      </trkpt>
      <trkpt lat="42.58258" lon="2.25894">
        <ele>1283.02</ele>
        <time>2014-05-09T14:10:48Z</time>
      </trkpt>
      <trkpt lat="42.58258" lon="2.25894">
        <ele>1283.5</ele>
        <time>2014-05-09T14:10:52Z</time>
      </trkpt>
      <trkpt lat="42.58258" lon="2.25886">
        <ele>1282.06</ele>
        <time>2014-05-09T14:10:59Z</time>
      </trkpt>
      <trkpt lat="42.5826" lon="2.25878">
        <ele>1280.61</ele>
        <time>2014-05-09T14:11:06Z</time>
      </trkpt>
      <trkpt lat="42.58259" lon="2.25869">
        <ele>1278.69</ele>
        <time>2014-05-09T14:11:15Z</time>
      </trkpt>
      <trkpt lat="42.58258" lon="2.25866">
        <ele>1278.21</ele>
        <time>2014-05-09T14:11:22Z</time>
      </trkpt>
      <trkpt lat="42.58257" lon="2.25865">
        <ele>1277.25</ele>
        <time>2014-05-09T14:11:24Z</time>
      </trkpt>
      <trkpt lat="42.58256" lon="2.25863">
        <ele>1276.77</ele>
        <time>2014-05-09T14:11:27Z</time>
      </trkpt>
      <trkpt lat="42.58253" lon="2.25857">
        <ele>1275.33</ele>
        <time>2014-05-09T14:11:34Z</time>
      </trkpt>
      <trkpt lat="42.5825" lon="2.2585">
        <ele>1272.92</ele>
        <time>2014-05-09T14:11:41Z</time>
      </trkpt>
      <trkpt lat="42.58249" lon="2.25845">
        <ele>1272.44</ele>
        <time>2014-05-09T14:11:48Z</time>
      </trkpt>
      <trkpt lat="42.58246" lon="2.25839">
        <ele>1271</ele>
        <time>2014-05-09T14:11:55Z</time>
      </trkpt>
      <trkpt lat="42.58246" lon="2.25837">
        <ele>1270.52</ele>
        <time>2014-05-09T14:12:01Z</time>
      </trkpt>
      <trkpt lat="42.58246" lon="2.25835">
        <ele>1270.52</ele>
        <time>2014-05-09T14:12:05Z</time>
      </trkpt>
      <trkpt lat="42.58248" lon="2.25826">
        <ele>1268.12</ele>
        <time>2014-05-09T14:12:15Z</time>
      </trkpt>
      <trkpt lat="42.58246" lon="2.25819">
        <ele>1266.19</ele>
        <time>2014-05-09T14:12:23Z</time>
      </trkpt>
      <trkpt lat="42.58245" lon="2.25815">
        <ele>1266.19</ele>
        <time>2014-05-09T14:12:29Z</time>
      </trkpt>
      <trkpt lat="42.58245" lon="2.25815">
        <ele>1265.23</ele>
        <time>2014-05-09T14:12:43Z</time>
      </trkpt>
      <trkpt lat="42.58242" lon="2.25813">
        <ele>1263.79</ele>
        <time>2014-05-09T14:12:57Z</time>
      </trkpt>
      <trkpt lat="42.58236" lon="2.25809">
        <ele>1261.87</ele>
        <time>2014-05-09T14:13:07Z</time>
      </trkpt>
      <trkpt lat="42.58235" lon="2.25812">
        <ele>1261.39</ele>
        <time>2014-05-09T14:13:11Z</time>
      </trkpt>
      <trkpt lat="42.58233" lon="2.25818">
        <ele>1260.43</ele>
        <time>2014-05-09T14:13:20Z</time>
      </trkpt>
      <trkpt lat="42.58233" lon="2.25818">
        <ele>1259.94</ele>
        <time>2014-05-09T14:13:33Z</time>
      </trkpt>
      <trkpt lat="42.58232" lon="2.25816">
        <ele>1258.98</ele>
        <time>2014-05-09T14:13:47Z</time>
      </trkpt>
      <trkpt lat="42.5823" lon="2.25812">
        <ele>1258.5</ele>
        <time>2014-05-09T14:15:12Z</time>
      </trkpt>
      <trkpt lat="42.58228" lon="2.2581">
        <ele>1258.02</ele>
        <time>2014-05-09T14:15:18Z</time>
      </trkpt>
      <trkpt lat="42.58228" lon="2.2581">
        <ele>1257.06</ele>
        <time>2014-05-09T14:15:47Z</time>
      </trkpt>
      <trkpt lat="42.58227" lon="2.25807">
        <ele>1257.54</ele>
        <time>2014-05-09T14:16:26Z</time>
      </trkpt>
      <trkpt lat="42.58222" lon="2.258">
        <ele>1255.14</ele>
        <time>2014-05-09T14:16:34Z</time>
      </trkpt>
      <trkpt lat="42.58221" lon="2.25799">
        <ele>1255.14</ele>
        <time>2014-05-09T14:16:35Z</time>
      </trkpt>
      <trkpt lat="42.58216" lon="2.25792">
        <ele>1253.7</ele>
        <time>2014-05-09T14:16:43Z</time>
      </trkpt>
      <trkpt lat="42.58211" lon="2.2579">
        <ele>1251.29</ele>
        <time>2014-05-09T14:16:51Z</time>
      </trkpt>
      <trkpt lat="42.58204" lon="2.25784">
        <ele>1249.37</ele>
        <time>2014-05-09T14:16:59Z</time>
      </trkpt>
      <trkpt lat="42.58198" lon="2.25781">
        <ele>1247.93</ele>
        <time>2014-05-09T14:17:06Z</time>
      </trkpt>
      <trkpt lat="42.58194" lon="2.25782">
        <ele>1246.97</ele>
        <time>2014-05-09T14:17:13Z</time>
      </trkpt>
      <trkpt lat="42.58186" lon="2.2578">
        <ele>1245.04</ele>
        <time>2014-05-09T14:17:22Z</time>
      </trkpt>
      <trkpt lat="42.58181" lon="2.25773">
        <ele>1243.6</ele>
        <time>2014-05-09T14:17:30Z</time>
      </trkpt>
      <trkpt lat="42.58175" lon="2.25767">
        <ele>1241.2</ele>
        <time>2014-05-09T14:17:38Z</time>
      </trkpt>
      <trkpt lat="42.58172" lon="2.25764">
        <ele>1239.28</ele>
        <time>2014-05-09T14:17:45Z</time>
      </trkpt>
      <trkpt lat="42.58171" lon="2.25763">
        <ele>1239.76</ele>
        <time>2014-05-09T14:17:46Z</time>
      </trkpt>
      <trkpt lat="42.58169" lon="2.25762">
        <ele>1239.76</ele>
        <time>2014-05-09T14:17:48Z</time>
      </trkpt>
      <trkpt lat="42.58169" lon="2.2576">
        <ele>1239.28</ele>
        <time>2014-05-09T14:17:50Z</time>
      </trkpt>
      <trkpt lat="42.58164" lon="2.25755">
        <ele>1237.83</ele>
        <time>2014-05-09T14:17:57Z</time>
      </trkpt>
      <trkpt lat="42.58167" lon="2.25746">
        <ele>1235.43</ele>
        <time>2014-05-09T14:18:05Z</time>
      </trkpt>
      <trkpt lat="42.5817" lon="2.25741">
        <ele>1233.99</ele>
        <time>2014-05-09T14:18:12Z</time>
      </trkpt>
      <trkpt lat="42.5817" lon="2.25737">
        <ele>1233.03</ele>
        <time>2014-05-09T14:18:18Z</time>
      </trkpt>
      <trkpt lat="42.58169" lon="2.25733">
        <ele>1232.07</ele>
        <time>2014-05-09T14:18:24Z</time>
      </trkpt>
      <trkpt lat="42.5817" lon="2.25729">
        <ele>1231.11</ele>
        <time>2014-05-09T14:18:28Z</time>
      </trkpt>
      <trkpt lat="42.58169" lon="2.25726">
        <ele>1230.62</ele>
        <time>2014-05-09T14:18:31Z</time>
      </trkpt>
      <trkpt lat="42.58166" lon="2.25718">
        <ele>1228.7</ele>
        <time>2014-05-09T14:18:40Z</time>
      </trkpt>
      <trkpt lat="42.58165" lon="2.25709">
        <ele>1226.78</ele>
        <time>2014-05-09T14:18:47Z</time>
      </trkpt>
      <trkpt lat="42.58161" lon="2.257">
        <ele>1225.34</ele>
        <time>2014-05-09T14:18:56Z</time>
      </trkpt>
      <trkpt lat="42.5816" lon="2.25694">
        <ele>1223.42</ele>
        <time>2014-05-09T14:19:03Z</time>
      </trkpt>
      <trkpt lat="42.58159" lon="2.25692">
        <ele>1221.49</ele>
        <time>2014-05-09T14:19:11Z</time>
      </trkpt>
      <trkpt lat="42.58159" lon="2.2569">
        <ele>1221.49</ele>
        <time>2014-05-09T14:19:12Z</time>
      </trkpt>
      <trkpt lat="42.58158" lon="2.2568">
        <ele>1219.57</ele>
        <time>2014-05-09T14:19:20Z</time>
      </trkpt>
      <trkpt lat="42.58156" lon="2.25673">
        <ele>1218.61</ele>
        <time>2014-05-09T14:19:26Z</time>
      </trkpt>
      <trkpt lat="42.58154" lon="2.25668">
        <ele>1217.65</ele>
        <time>2014-05-09T14:19:30Z</time>
      </trkpt>
      <trkpt lat="42.58153" lon="2.25661">
        <ele>1216.21</ele>
        <time>2014-05-09T14:19:37Z</time>
      </trkpt>
      <trkpt lat="42.58152" lon="2.25655">
        <ele>1214.76</ele>
        <time>2014-05-09T14:19:44Z</time>
      </trkpt>
      <trkpt lat="42.58153" lon="2.25652">
        <ele>1213.32</ele>
        <time>2014-05-09T14:19:51Z</time>
      </trkpt>
      <trkpt lat="42.58153" lon="2.25647">
        <ele>1212.84</ele>
        <time>2014-05-09T14:19:55Z</time>
      </trkpt>
      <trkpt lat="42.58151" lon="2.25643">
        <ele>1211.88</ele>
        <time>2014-05-09T14:20:02Z</time>
      </trkpt>
      <trkpt lat="42.58145" lon="2.2564">
        <ele>1210.92</ele>
        <time>2014-05-09T14:20:09Z</time>
      </trkpt>
      <trkpt lat="42.58142" lon="2.25637">
        <ele>1208.51</ele>
        <time>2014-05-09T14:20:17Z</time>
      </trkpt>
      <trkpt lat="42.58139" lon="2.25636">
        <ele>1207.07</ele>
        <time>2014-05-09T14:20:24Z</time>
      </trkpt>
      <trkpt lat="42.58134" lon="2.25629">
        <ele>1206.11</ele>
        <time>2014-05-09T14:20:31Z</time>
      </trkpt>
      <trkpt lat="42.58129" lon="2.25624">
        <ele>1204.19</ele>
        <time>2014-05-09T14:20:39Z</time>
      </trkpt>
      <trkpt lat="42.58125" lon="2.25621">
        <ele>1203.23</ele>
        <time>2014-05-09T14:20:46Z</time>
      </trkpt>
      <trkpt lat="42.58123" lon="2.25618">
        <ele>1201.79</ele>
        <time>2014-05-09T14:20:53Z</time>
      </trkpt>
      <trkpt lat="42.5812" lon="2.25614">
        <ele>1200.34</ele>
        <time>2014-05-09T14:20:59Z</time>
      </trkpt>
      <trkpt lat="42.58119" lon="2.25613">
        <ele>1198.9</ele>
        <time>2014-05-09T14:21:07Z</time>
      </trkpt>
      <trkpt lat="42.58116" lon="2.25612">
        <ele>1198.42</ele>
        <time>2014-05-09T14:21:15Z</time>
      </trkpt>
      <trkpt lat="42.58114" lon="2.25612">
        <ele>1197.94</ele>
        <time>2014-05-09T14:21:24Z</time>
      </trkpt>
      <trkpt lat="42.58112" lon="2.25614">
        <ele>1197.46</ele>
        <time>2014-05-09T14:21:31Z</time>
      </trkpt>
      <trkpt lat="42.58107" lon="2.25614">
        <ele>1196.98</ele>
        <time>2014-05-09T14:21:44Z</time>
      </trkpt>
      <trkpt lat="42.581" lon="2.25613">
        <ele>1195.06</ele>
        <time>2014-05-09T14:21:52Z</time>
      </trkpt>
      <trkpt lat="42.58096" lon="2.25616">
        <ele>1194.09</ele>
        <time>2014-05-09T14:21:58Z</time>
      </trkpt>
      <trkpt lat="42.58095" lon="2.25616">
        <ele>1193.13</ele>
        <time>2014-05-09T14:22:08Z</time>
      </trkpt>
      <trkpt lat="42.58095" lon="2.25616">
        <ele>1192.65</ele>
        <time>2014-05-09T14:22:30Z</time>
      </trkpt>
      <trkpt lat="42.58095" lon="2.25616">
        <ele>1192.65</ele>
        <time>2014-05-09T14:22:55Z</time>
      </trkpt>
      <trkpt lat="42.58098" lon="2.25617">
        <ele>1192.65</ele>
        <time>2014-05-09T14:23:12Z</time>
      </trkpt>
      <trkpt lat="42.58098" lon="2.25617">
        <ele>1192.65</ele>
        <time>2014-05-09T14:23:34Z</time>
      </trkpt>
      <trkpt lat="42.58097" lon="2.25619">
        <ele>1193.13</ele>
        <time>2014-05-09T14:24:31Z</time>
      </trkpt>
      <trkpt lat="42.58098" lon="2.25618">
        <ele>1192.65</ele>
        <time>2014-05-09T14:25:17Z</time>
      </trkpt>
      <trkpt lat="42.58092" lon="2.25619">
        <ele>1191.69</ele>
        <time>2014-05-09T14:26:00Z</time>
      </trkpt>
      <trkpt lat="42.58089" lon="2.25617">
        <ele>1191.69</ele>
        <time>2014-05-09T14:26:02Z</time>
      </trkpt>
      <trkpt lat="42.58083" lon="2.25614">
        <ele>1190.25</ele>
        <time>2014-05-09T14:26:06Z</time>
      </trkpt>
      <trkpt lat="42.58074" lon="2.25614">
        <ele>1187.85</ele>
        <time>2014-05-09T14:26:15Z</time>
      </trkpt>
      <trkpt lat="42.58069" lon="2.25614">
        <ele>1186.88</ele>
        <time>2014-05-09T14:26:19Z</time>
      </trkpt>
      <trkpt lat="42.58062" lon="2.25611">
        <ele>1184.48</ele>
        <time>2014-05-09T14:26:27Z</time>
      </trkpt>
      <trkpt lat="42.58057" lon="2.25608">
        <ele>1181.6</ele>
        <time>2014-05-09T14:26:34Z</time>
      </trkpt>
      <trkpt lat="42.58052" lon="2.25605">
        <ele>1180.64</ele>
        <time>2014-05-09T14:26:40Z</time>
      </trkpt>
      <trkpt lat="42.58048" lon="2.25602">
        <ele>1178.71</ele>
        <time>2014-05-09T14:26:47Z</time>
      </trkpt>
      <trkpt lat="42.58043" lon="2.256">
        <ele>1175.35</ele>
        <time>2014-05-09T14:26:54Z</time>
      </trkpt>
      <trkpt lat="42.58037" lon="2.25596">
        <ele>1173.43</ele>
        <time>2014-05-09T14:27:01Z</time>
      </trkpt>
      <trkpt lat="42.58029" lon="2.25591">
        <ele>1171.5</ele>
        <time>2014-05-09T14:27:09Z</time>
      </trkpt>
      <trkpt lat="42.58023" lon="2.25589">
        <ele>1169.1</ele>
        <time>2014-05-09T14:27:16Z</time>
      </trkpt>
      <trkpt lat="42.5802" lon="2.25587">
        <ele>1167.66</ele>
        <time>2014-05-09T14:27:20Z</time>
      </trkpt>
      <trkpt lat="42.58018" lon="2.25587">
        <ele>1167.66</ele>
        <time>2014-05-09T14:27:22Z</time>
      </trkpt>
      <trkpt lat="42.58012" lon="2.25583">
        <ele>1165.26</ele>
        <time>2014-05-09T14:27:30Z</time>
      </trkpt>
      <trkpt lat="42.58011" lon="2.25583">
        <ele>1165.26</ele>
        <time>2014-05-09T14:27:31Z</time>
      </trkpt>
      <trkpt lat="42.58008" lon="2.25583">
        <ele>1163.81</ele>
        <time>2014-05-09T14:27:34Z</time>
      </trkpt>
      <trkpt lat="42.58" lon="2.25579">
        <ele>1161.89</ele>
        <time>2014-05-09T14:27:41Z</time>
      </trkpt>
      <trkpt lat="42.5799" lon="2.25578">
        <ele>1160.93</ele>
        <time>2014-05-09T14:27:49Z</time>
      </trkpt>
      <trkpt lat="42.57988" lon="2.25578">
        <ele>1159.97</ele>
        <time>2014-05-09T14:27:52Z</time>
      </trkpt>
      <trkpt lat="42.57985" lon="2.25576">
        <ele>1159.01</ele>
        <time>2014-05-09T14:27:54Z</time>
      </trkpt>
      <trkpt lat="42.57979" lon="2.25574">
        <ele>1158.05</ele>
        <time>2014-05-09T14:28:01Z</time>
      </trkpt>
      <trkpt lat="42.57974" lon="2.25573">
        <ele>1156.6</ele>
        <time>2014-05-09T14:28:07Z</time>
      </trkpt>
      <trkpt lat="42.57968" lon="2.25571">
        <ele>1155.16</ele>
        <time>2014-05-09T14:28:14Z</time>
      </trkpt>
      <trkpt lat="42.57963" lon="2.25568">
        <ele>1153.24</ele>
        <time>2014-05-09T14:28:22Z</time>
      </trkpt>
      <trkpt lat="42.57961" lon="2.25566">
        <ele>1152.28</ele>
        <time>2014-05-09T14:28:28Z</time>
      </trkpt>
      <trkpt lat="42.57957" lon="2.25562">
        <ele>1150.84</ele>
        <time>2014-05-09T14:28:33Z</time>
      </trkpt>
      <trkpt lat="42.57952" lon="2.25558">
        <ele>1149.39</ele>
        <time>2014-05-09T14:28:39Z</time>
      </trkpt>
      <trkpt lat="42.57948" lon="2.25554">
        <ele>1147.95</ele>
        <time>2014-05-09T14:28:46Z</time>
      </trkpt>
      <trkpt lat="42.57941" lon="2.25549">
        <ele>1146.03</ele>
        <time>2014-05-09T14:28:54Z</time>
      </trkpt>
      <trkpt lat="42.57936" lon="2.25548">
        <ele>1145.55</ele>
        <time>2014-05-09T14:29:01Z</time>
      </trkpt>
      <trkpt lat="42.57929" lon="2.25546">
        <ele>1144.11</ele>
        <time>2014-05-09T14:29:08Z</time>
      </trkpt>
      <trkpt lat="42.57924" lon="2.25544">
        <ele>1142.66</ele>
        <time>2014-05-09T14:29:15Z</time>
      </trkpt>
      <trkpt lat="42.57917" lon="2.25541">
        <ele>1141.22</ele>
        <time>2014-05-09T14:29:22Z</time>
      </trkpt>
      <trkpt lat="42.5791" lon="2.25537">
        <ele>1139.3</ele>
        <time>2014-05-09T14:29:30Z</time>
      </trkpt>
      <trkpt lat="42.57904" lon="2.25534">
        <ele>1137.86</ele>
        <time>2014-05-09T14:29:38Z</time>
      </trkpt>
      <trkpt lat="42.57898" lon="2.2553">
        <ele>1136.42</ele>
        <time>2014-05-09T14:29:47Z</time>
      </trkpt>
      <trkpt lat="42.57892" lon="2.25531">
        <ele>1134.97</ele>
        <time>2014-05-09T14:29:54Z</time>
      </trkpt>
      <trkpt lat="42.57887" lon="2.25529">
        <ele>1133.53</ele>
        <time>2014-05-09T14:30:01Z</time>
      </trkpt>
      <trkpt lat="42.57885" lon="2.25532">
        <ele>1132.57</ele>
        <time>2014-05-09T14:30:08Z</time>
      </trkpt>
      <trkpt lat="42.57883" lon="2.25534">
        <ele>1131.61</ele>
        <time>2014-05-09T14:30:15Z</time>
      </trkpt>
      <trkpt lat="42.57879" lon="2.25536">
        <ele>1130.65</ele>
        <time>2014-05-09T14:30:23Z</time>
      </trkpt>
      <trkpt lat="42.57874" lon="2.25534">
        <ele>1128.73</ele>
        <time>2014-05-09T14:30:32Z</time>
      </trkpt>
      <trkpt lat="42.57874" lon="2.25535">
        <ele>1128.73</ele>
        <time>2014-05-09T14:31:49Z</time>
      </trkpt>
      <trkpt lat="42.57874" lon="2.25535">
        <ele>1129.69</ele>
        <time>2014-05-09T14:32:31Z</time>
      </trkpt>
      <trkpt lat="42.57874" lon="2.25535">
        <ele>1129.21</ele>
        <time>2014-05-09T14:33:03Z</time>
      </trkpt>
      <trkpt lat="42.57874" lon="2.25535">
        <ele>1128.73</ele>
        <time>2014-05-09T14:33:16Z</time>
      </trkpt>
      <trkpt lat="42.57875" lon="2.25534">
        <ele>1128.24</ele>
        <time>2014-05-09T14:33:49Z</time>
      </trkpt>
      <trkpt lat="42.57875" lon="2.2553">
        <ele>1126.8</ele>
        <time>2014-05-09T14:33:58Z</time>
      </trkpt>
      <trkpt lat="42.57874" lon="2.25523">
        <ele>1126.32</ele>
        <time>2014-05-09T14:34:05Z</time>
      </trkpt>
      <trkpt lat="42.57874" lon="2.2552">
        <ele>1125.36</ele>
        <time>2014-05-09T14:34:09Z</time>
      </trkpt>
      <trkpt lat="42.57875" lon="2.25509">
        <ele>1123.92</ele>
        <time>2014-05-09T14:34:17Z</time>
      </trkpt>
      <trkpt lat="42.57876" lon="2.25505">
        <ele>1122.48</ele>
        <time>2014-05-09T14:34:23Z</time>
      </trkpt>
      <trkpt lat="42.57877" lon="2.25499">
        <ele>1122</ele>
        <time>2014-05-09T14:34:30Z</time>
      </trkpt>
      <trkpt lat="42.57876" lon="2.25498">
        <ele>1121.03</ele>
        <time>2014-05-09T14:34:32Z</time>
      </trkpt>
      <trkpt lat="42.57869" lon="2.25496">
        <ele>1120.07</ele>
        <time>2014-05-09T14:34:40Z</time>
      </trkpt>
      <trkpt lat="42.57867" lon="2.25497">
        <ele>1119.11</ele>
        <time>2014-05-09T14:34:42Z</time>
      </trkpt>
      <trkpt lat="42.57861" lon="2.255">
        <ele>1118.63</ele>
        <time>2014-05-09T14:34:49Z</time>
      </trkpt>
      <trkpt lat="42.57856" lon="2.25506">
        <ele>1116.71</ele>
        <time>2014-05-09T14:34:57Z</time>
      </trkpt>
      <trkpt lat="42.57855" lon="2.25514">
        <ele>1115.75</ele>
        <time>2014-05-09T14:35:05Z</time>
      </trkpt>
      <trkpt lat="42.57853" lon="2.2552">
        <ele>1113.82</ele>
        <time>2014-05-09T14:35:12Z</time>
      </trkpt>
      <trkpt lat="42.57852" lon="2.25525">
        <ele>1112.86</ele>
        <time>2014-05-09T14:35:17Z</time>
      </trkpt>
      <trkpt lat="42.57852" lon="2.25529">
        <ele>1112.38</ele>
        <time>2014-05-09T14:35:20Z</time>
      </trkpt>
      <trkpt lat="42.57853" lon="2.25539">
        <ele>1110.94</ele>
        <time>2014-05-09T14:35:29Z</time>
      </trkpt>
      <trkpt lat="42.5785" lon="2.25546">
        <ele>1109.5</ele>
        <time>2014-05-09T14:35:38Z</time>
      </trkpt>
      <trkpt lat="42.57847" lon="2.25543">
        <ele>1109.02</ele>
        <time>2014-05-09T14:35:43Z</time>
      </trkpt>
      <trkpt lat="42.57841" lon="2.25535">
        <ele>1106.61</ele>
        <time>2014-05-09T14:35:52Z</time>
      </trkpt>
      <trkpt lat="42.57837" lon="2.2553">
        <ele>1104.69</ele>
        <time>2014-05-09T14:35:59Z</time>
      </trkpt>
      <trkpt lat="42.57831" lon="2.25525">
        <ele>1102.29</ele>
        <time>2014-05-09T14:36:07Z</time>
      </trkpt>
      <trkpt lat="42.57827" lon="2.25522">
        <ele>1101.33</ele>
        <time>2014-05-09T14:36:14Z</time>
      </trkpt>
      <trkpt lat="42.5782" lon="2.25516">
        <ele>1098.92</ele>
        <time>2014-05-09T14:36:22Z</time>
      </trkpt>
      <trkpt lat="42.57816" lon="2.2551">
        <ele>1097.48</ele>
        <time>2014-05-09T14:36:29Z</time>
      </trkpt>
      <trkpt lat="42.57812" lon="2.25505">
        <ele>1095.08</ele>
        <time>2014-05-09T14:36:35Z</time>
      </trkpt>
      <trkpt lat="42.57808" lon="2.25498">
        <ele>1094.12</ele>
        <time>2014-05-09T14:36:41Z</time>
      </trkpt>
      <trkpt lat="42.57807" lon="2.25496">
        <ele>1093.64</ele>
        <time>2014-05-09T14:36:53Z</time>
      </trkpt>
      <trkpt lat="42.57804" lon="2.25493">
        <ele>1093.64</ele>
        <time>2014-05-09T14:36:57Z</time>
      </trkpt>
      <trkpt lat="42.57801" lon="2.25487">
        <ele>1092.68</ele>
        <time>2014-05-09T14:37:01Z</time>
      </trkpt>
      <trkpt lat="42.57796" lon="2.25478">
        <ele>1091.23</ele>
        <time>2014-05-09T14:37:09Z</time>
      </trkpt>
      <trkpt lat="42.57792" lon="2.25468">
        <ele>1088.83</ele>
        <time>2014-05-09T14:37:18Z</time>
      </trkpt>
      <trkpt lat="42.57787" lon="2.25458">
        <ele>1087.39</ele>
        <time>2014-05-09T14:37:27Z</time>
      </trkpt>
      <trkpt lat="42.57786" lon="2.25457">
        <ele>1086.91</ele>
        <time>2014-05-09T14:37:28Z</time>
      </trkpt>
      <trkpt lat="42.57785" lon="2.25454">
        <ele>1086.43</ele>
        <time>2014-05-09T14:37:31Z</time>
      </trkpt>
      <trkpt lat="42.57781" lon="2.25445">
        <ele>1084.5</ele>
        <time>2014-05-09T14:37:40Z</time>
      </trkpt>
      <trkpt lat="42.57776" lon="2.25437">
        <ele>1083.54</ele>
        <time>2014-05-09T14:37:48Z</time>
      </trkpt>
      <trkpt lat="42.5777" lon="2.25436">
        <ele>1081.62</ele>
        <time>2014-05-09T14:37:55Z</time>
      </trkpt>
      <trkpt lat="42.57767" lon="2.25436">
        <ele>1080.18</ele>
        <time>2014-05-09T14:38:02Z</time>
      </trkpt>
      <trkpt lat="42.57768" lon="2.25436">
        <ele>1080.66</ele>
        <time>2014-05-09T14:39:12Z</time>
      </trkpt>
      <trkpt lat="42.57766" lon="2.25427">
        <ele>1079.7</ele>
        <time>2014-05-09T14:39:36Z</time>
      </trkpt>
      <trkpt lat="42.57765" lon="2.25424">
        <ele>1078.74</ele>
        <time>2014-05-09T14:39:39Z</time>
      </trkpt>
      <trkpt lat="42.57763" lon="2.25419">
        <ele>1077.29</ele>
        <time>2014-05-09T14:39:46Z</time>
      </trkpt>
      <trkpt lat="42.57763" lon="2.25412">
        <ele>1076.81</ele>
        <time>2014-05-09T14:39:53Z</time>
      </trkpt>
      <trkpt lat="42.57763" lon="2.25405">
        <ele>1075.85</ele>
        <time>2014-05-09T14:40:00Z</time>
      </trkpt>
      <trkpt lat="42.57765" lon="2.25401">
        <ele>1074.89</ele>
        <time>2014-05-09T14:40:10Z</time>
      </trkpt>
      <trkpt lat="42.57766" lon="2.25399">
        <ele>1073.45</ele>
        <time>2014-05-09T14:40:13Z</time>
      </trkpt>
      <trkpt lat="42.5777" lon="2.25392">
        <ele>1072.01</ele>
        <time>2014-05-09T14:40:21Z</time>
      </trkpt>
      <trkpt lat="42.57771" lon="2.2539">
        <ele>1071.53</ele>
        <time>2014-05-09T14:40:23Z</time>
      </trkpt>
      <trkpt lat="42.57779" lon="2.25384">
        <ele>1069.6</ele>
        <time>2014-05-09T14:40:32Z</time>
      </trkpt>
      <trkpt lat="42.57776" lon="2.2538">
        <ele>1069.12</ele>
        <time>2014-05-09T14:40:39Z</time>
      </trkpt>
      <trkpt lat="42.5777" lon="2.25377">
        <ele>1067.2</ele>
        <time>2014-05-09T14:40:49Z</time>
      </trkpt>
      <trkpt lat="42.57769" lon="2.25375">
        <ele>1066.24</ele>
        <time>2014-05-09T14:40:52Z</time>
      </trkpt>
      <trkpt lat="42.57764" lon="2.2537">
        <ele>1065.28</ele>
        <time>2014-05-09T14:40:59Z</time>
      </trkpt>
      <trkpt lat="42.57759" lon="2.25369">
        <ele>1063.36</ele>
        <time>2014-05-09T14:41:05Z</time>
      </trkpt>
      <trkpt lat="42.57752" lon="2.25365">
        <ele>1061.43</ele>
        <time>2014-05-09T14:41:14Z</time>
      </trkpt>
      <trkpt lat="42.57746" lon="2.25363">
        <ele>1060.47</ele>
        <time>2014-05-09T14:41:20Z</time>
      </trkpt>
      <trkpt lat="42.57742" lon="2.25363">
        <ele>1059.03</ele>
        <time>2014-05-09T14:41:26Z</time>
      </trkpt>
      <trkpt lat="42.57735" lon="2.25362">
        <ele>1057.11</ele>
        <time>2014-05-09T14:41:34Z</time>
      </trkpt>
      <trkpt lat="42.57728" lon="2.25361">
        <ele>1055.18</ele>
        <time>2014-05-09T14:41:41Z</time>
      </trkpt>
      <trkpt lat="42.57728" lon="2.25362">
        <ele>1055.18</ele>
        <time>2014-05-09T14:41:42Z</time>
      </trkpt>
      <trkpt lat="42.57726" lon="2.25363">
        <ele>1054.7</ele>
        <time>2014-05-09T14:41:44Z</time>
      </trkpt>
      <trkpt lat="42.57719" lon="2.25366">
        <ele>1054.22</ele>
        <time>2014-05-09T14:41:52Z</time>
      </trkpt>
      <trkpt lat="42.57714" lon="2.25374">
        <ele>1054.22</ele>
        <time>2014-05-09T14:42:01Z</time>
      </trkpt>
      <trkpt lat="42.57709" lon="2.25379">
        <ele>1053.74</ele>
        <time>2014-05-09T14:42:08Z</time>
      </trkpt>
      <trkpt lat="42.57708" lon="2.2538">
        <ele>1053.26</ele>
        <time>2014-05-09T14:42:10Z</time>
      </trkpt>
      <trkpt lat="42.57702" lon="2.25388">
        <ele>1052.78</ele>
        <time>2014-05-09T14:42:18Z</time>
      </trkpt>
      <trkpt lat="42.57696" lon="2.25393">
        <ele>1051.34</ele>
        <time>2014-05-09T14:42:26Z</time>
      </trkpt>
      <trkpt lat="42.57696" lon="2.254">
        <ele>1049.9</ele>
        <time>2014-05-09T14:42:34Z</time>
      </trkpt>
      <trkpt lat="42.57695" lon="2.25408">
        <ele>1048.45</ele>
        <time>2014-05-09T14:42:42Z</time>
      </trkpt>
      <trkpt lat="42.57696" lon="2.25416">
        <ele>1046.53</ele>
        <time>2014-05-09T14:42:50Z</time>
      </trkpt>
      <trkpt lat="42.57698" lon="2.25421">
        <ele>1045.09</ele>
        <time>2014-05-09T14:42:55Z</time>
      </trkpt>
      <trkpt lat="42.57699" lon="2.25429">
        <ele>1044.13</ele>
        <time>2014-05-09T14:43:02Z</time>
      </trkpt>
      <trkpt lat="42.57699" lon="2.25439">
        <ele>1041.73</ele>
        <time>2014-05-09T14:43:10Z</time>
      </trkpt>
      <trkpt lat="42.577" lon="2.25446">
        <ele>1040.76</ele>
        <time>2014-05-09T14:43:18Z</time>
      </trkpt>
      <trkpt lat="42.57701" lon="2.25454">
        <ele>1039.32</ele>
        <time>2014-05-09T14:43:26Z</time>
      </trkpt>
      <trkpt lat="42.57703" lon="2.25459">
        <ele>1037.88</ele>
        <time>2014-05-09T14:43:31Z</time>
      </trkpt>
      <trkpt lat="42.57706" lon="2.25466">
        <ele>1037.4</ele>
        <time>2014-05-09T14:43:37Z</time>
      </trkpt>
      <trkpt lat="42.57708" lon="2.25473">
        <ele>1035.96</ele>
        <time>2014-05-09T14:43:44Z</time>
      </trkpt>
      <trkpt lat="42.57709" lon="2.25482">
        <ele>1034.04</ele>
        <time>2014-05-09T14:43:53Z</time>
      </trkpt>
      <trkpt lat="42.5771" lon="2.2549">
        <ele>1032.11</ele>
        <time>2014-05-09T14:44:01Z</time>
      </trkpt>
      <trkpt lat="42.57708" lon="2.25492">
        <ele>1031.15</ele>
        <time>2014-05-09T14:44:07Z</time>
      </trkpt>
      <trkpt lat="42.57704" lon="2.25486">
        <ele>1030.19</ele>
        <time>2014-05-09T14:44:14Z</time>
      </trkpt>
      <trkpt lat="42.57697" lon="2.25482">
        <ele>1028.75</ele>
        <time>2014-05-09T14:44:23Z</time>
      </trkpt>
      <trkpt lat="42.5769" lon="2.25479">
        <ele>1026.83</ele>
        <time>2014-05-09T14:44:31Z</time>
      </trkpt>
      <trkpt lat="42.57684" lon="2.25477">
        <ele>1024.9</ele>
        <time>2014-05-09T14:44:39Z</time>
      </trkpt>
      <trkpt lat="42.5768" lon="2.25474">
        <ele>1023.94</ele>
        <time>2014-05-09T14:44:44Z</time>
      </trkpt>
      <trkpt lat="42.57673" lon="2.25467">
        <ele>1023.46</ele>
        <time>2014-05-09T14:44:52Z</time>
      </trkpt>
      <trkpt lat="42.57667" lon="2.25465">
        <ele>1021.54</ele>
        <time>2014-05-09T14:44:58Z</time>
      </trkpt>
      <trkpt lat="42.5766" lon="2.25458">
        <ele>1020.1</ele>
        <time>2014-05-09T14:45:07Z</time>
      </trkpt>
      <trkpt lat="42.57655" lon="2.25453">
        <ele>1019.13</ele>
        <time>2014-05-09T14:45:13Z</time>
      </trkpt>
      <trkpt lat="42.57647" lon="2.25448">
        <ele>1018.17</ele>
        <time>2014-05-09T14:45:22Z</time>
      </trkpt>
      <trkpt lat="42.57642" lon="2.25444">
        <ele>1015.77</ele>
        <time>2014-05-09T14:45:29Z</time>
      </trkpt>
      <trkpt lat="42.57639" lon="2.25436">
        <ele>1015.29</ele>
        <time>2014-05-09T14:45:37Z</time>
      </trkpt>
      <trkpt lat="42.57636" lon="2.25431">
        <ele>1013.85</ele>
        <time>2014-05-09T14:45:41Z</time>
      </trkpt>
      <trkpt lat="42.57633" lon="2.25423">
        <ele>1011.44</ele>
        <time>2014-05-09T14:45:49Z</time>
      </trkpt>
      <trkpt lat="42.57632" lon="2.25417">
        <ele>1010.48</ele>
        <time>2014-05-09T14:45:57Z</time>
      </trkpt>
      <trkpt lat="42.57632" lon="2.25417">
        <ele>1010.48</ele>
        <time>2014-05-09T14:46:14Z</time>
      </trkpt>
      <trkpt lat="42.57629" lon="2.25408">
        <ele>1009.04</ele>
        <time>2014-05-09T14:46:21Z</time>
      </trkpt>
      <trkpt lat="42.57629" lon="2.25395">
        <ele>1007.12</ele>
        <time>2014-05-09T14:46:30Z</time>
      </trkpt>
      <trkpt lat="42.57625" lon="2.25381">
        <ele>1006.16</ele>
        <time>2014-05-09T14:46:39Z</time>
      </trkpt>
      <trkpt lat="42.57623" lon="2.2537">
        <ele>1005.2</ele>
        <time>2014-05-09T14:46:47Z</time>
      </trkpt>
      <trkpt lat="42.57619" lon="2.25362">
        <ele>1003.27</ele>
        <time>2014-05-09T14:46:55Z</time>
      </trkpt>
      <trkpt lat="42.57618" lon="2.25359">
        <ele>1003.27</ele>
        <time>2014-05-09T14:47:03Z</time>
      </trkpt>
      <trkpt lat="42.57618" lon="2.25353">
        <ele>1003.27</ele>
        <time>2014-05-09T14:47:17Z</time>
      </trkpt>
      <trkpt lat="42.57615" lon="2.25349">
        <ele>1002.31</ele>
        <time>2014-05-09T14:47:24Z</time>
      </trkpt>
      <trkpt lat="42.57616" lon="2.2534">
        <ele>1000.39</ele>
        <time>2014-05-09T14:47:31Z</time>
      </trkpt>
      <trkpt lat="42.57614" lon="2.25335">
        <ele>999.43</ele>
        <time>2014-05-09T14:47:38Z</time>
      </trkpt>
      <trkpt lat="42.57611" lon="2.25327">
        <ele>997.99</ele>
        <time>2014-05-09T14:47:45Z</time>
      </trkpt>
      <trkpt lat="42.57608" lon="2.25327">
        <ele>996.54</ele>
        <time>2014-05-09T14:47:52Z</time>
      </trkpt>
      <trkpt lat="42.57608" lon="2.25334">
        <ele>994.62</ele>
        <time>2014-05-09T14:48:01Z</time>
      </trkpt>
      <trkpt lat="42.57605" lon="2.25344">
        <ele>991.74</ele>
        <time>2014-05-09T14:48:10Z</time>
      </trkpt>
      <trkpt lat="42.57602" lon="2.25356">
        <ele>989.81</ele>
        <time>2014-05-09T14:48:20Z</time>
      </trkpt>
      <trkpt lat="42.57599" lon="2.25362">
        <ele>987.89</ele>
        <time>2014-05-09T14:48:28Z</time>
      </trkpt>
      <trkpt lat="42.57596" lon="2.25355">
        <ele>985.49</ele>
        <time>2014-05-09T14:48:35Z</time>
      </trkpt>
      <trkpt lat="42.57595" lon="2.25354">
        <ele>985.49</ele>
        <time>2014-05-09T14:48:36Z</time>
      </trkpt>
      <trkpt lat="42.57592" lon="2.25345">
        <ele>983.57</ele>
        <time>2014-05-09T14:48:45Z</time>
      </trkpt>
      <trkpt lat="42.57588" lon="2.25339">
        <ele>981.64</ele>
        <time>2014-05-09T14:48:52Z</time>
      </trkpt>
      <trkpt lat="42.57587" lon="2.25336">
        <ele>981.64</ele>
        <time>2014-05-09T14:48:58Z</time>
      </trkpt>
      <trkpt lat="42.57586" lon="2.25334">
        <ele>979.72</ele>
        <time>2014-05-09T14:49:01Z</time>
      </trkpt>
      <trkpt lat="42.57585" lon="2.25339">
        <ele>979.24</ele>
        <time>2014-05-09T14:49:06Z</time>
      </trkpt>
      <trkpt lat="42.57585" lon="2.25339">
        <ele>979.24</ele>
        <time>2014-05-09T14:49:09Z</time>
      </trkpt>
      <trkpt lat="42.57584" lon="2.25347">
        <ele>977.8</ele>
        <time>2014-05-09T14:49:15Z</time>
      </trkpt>
      <trkpt lat="42.57582" lon="2.25355">
        <ele>975.39</ele>
        <time>2014-05-09T14:49:22Z</time>
      </trkpt>
      <trkpt lat="42.57582" lon="2.25363">
        <ele>973.47</ele>
        <time>2014-05-09T14:49:29Z</time>
      </trkpt>
      <trkpt lat="42.57577" lon="2.25365">
        <ele>971.07</ele>
        <time>2014-05-09T14:49:36Z</time>
      </trkpt>
      <trkpt lat="42.57572" lon="2.25366">
        <ele>969.15</ele>
        <time>2014-05-09T14:49:44Z</time>
      </trkpt>
      <trkpt lat="42.57564" lon="2.25364">
        <ele>967.22</ele>
        <time>2014-05-09T14:49:53Z</time>
      </trkpt>
      <trkpt lat="42.57558" lon="2.2536">
        <ele>964.82</ele>
        <time>2014-05-09T14:50:01Z</time>
      </trkpt>
      <trkpt lat="42.57555" lon="2.25355">
        <ele>963.38</ele>
        <time>2014-05-09T14:50:08Z</time>
      </trkpt>
      <trkpt lat="42.57549" lon="2.2535">
        <ele>961.46</ele>
        <time>2014-05-09T14:50:16Z</time>
      </trkpt>
      <trkpt lat="42.57548" lon="2.25349">
        <ele>960.98</ele>
        <time>2014-05-09T14:50:17Z</time>
      </trkpt>
      <trkpt lat="42.57546" lon="2.2534">
        <ele>959.53</ele>
        <time>2014-05-09T14:50:25Z</time>
      </trkpt>
      <trkpt lat="42.57547" lon="2.25332">
        <ele>958.09</ele>
        <time>2014-05-09T14:50:32Z</time>
      </trkpt>
      <trkpt lat="42.57546" lon="2.25324">
        <ele>956.17</ele>
        <time>2014-05-09T14:50:39Z</time>
      </trkpt>
      <trkpt lat="42.57545" lon="2.25315">
        <ele>954.73</ele>
        <time>2014-05-09T14:50:47Z</time>
      </trkpt>
      <trkpt lat="42.57546" lon="2.25305">
        <ele>952.8</ele>
        <time>2014-05-09T14:50:54Z</time>
      </trkpt>
      <trkpt lat="42.57547" lon="2.25297">
        <ele>951.36</ele>
        <time>2014-05-09T14:51:00Z</time>
      </trkpt>
      <trkpt lat="42.57546" lon="2.25292">
        <ele>949.92</ele>
        <time>2014-05-09T14:51:05Z</time>
      </trkpt>
      <trkpt lat="42.57546" lon="2.25283">
        <ele>948</ele>
        <time>2014-05-09T14:51:12Z</time>
      </trkpt>
      <trkpt lat="42.57548" lon="2.25272">
        <ele>946.07</ele>
        <time>2014-05-09T14:51:20Z</time>
      </trkpt>
      <trkpt lat="42.5755" lon="2.25261">
        <ele>944.15</ele>
        <time>2014-05-09T14:51:28Z</time>
      </trkpt>
      <trkpt lat="42.5755" lon="2.25256">
        <ele>942.71</ele>
        <time>2014-05-09T14:51:34Z</time>
      </trkpt>
      <trkpt lat="42.57548" lon="2.25252">
        <ele>941.27</ele>
        <time>2014-05-09T14:51:42Z</time>
      </trkpt>
      <trkpt lat="42.57547" lon="2.25252">
        <ele>939.83</ele>
        <time>2014-05-09T14:51:48Z</time>
      </trkpt>
      <trkpt lat="42.5754" lon="2.25256">
        <ele>937.9</ele>
        <time>2014-05-09T14:51:56Z</time>
      </trkpt>
      <trkpt lat="42.57536" lon="2.2526">
        <ele>936.94</ele>
        <time>2014-05-09T14:52:03Z</time>
      </trkpt>
      <trkpt lat="42.57531" lon="2.25268">
        <ele>935.02</ele>
        <time>2014-05-09T14:52:11Z</time>
      </trkpt>
      <trkpt lat="42.57528" lon="2.25273">
        <ele>934.06</ele>
        <time>2014-05-09T14:52:19Z</time>
      </trkpt>
      <trkpt lat="42.57524" lon="2.25276">
        <ele>932.14</ele>
        <time>2014-05-09T14:52:26Z</time>
      </trkpt>
      <trkpt lat="42.5752" lon="2.25279">
        <ele>931.17</ele>
        <time>2014-05-09T14:52:33Z</time>
      </trkpt>
      <trkpt lat="42.57514" lon="2.25286">
        <ele>929.73</ele>
        <time>2014-05-09T14:52:41Z</time>
      </trkpt>
      <trkpt lat="42.57511" lon="2.2529">
        <ele>928.77</ele>
        <time>2014-05-09T14:52:47Z</time>
      </trkpt>
      <trkpt lat="42.57505" lon="2.25296">
        <ele>926.85</ele>
        <time>2014-05-09T14:52:55Z</time>
      </trkpt>
      <trkpt lat="42.57502" lon="2.25299">
        <ele>924.93</ele>
        <time>2014-05-09T14:53:02Z</time>
      </trkpt>
      <trkpt lat="42.57501" lon="2.253">
        <ele>925.41</ele>
        <time>2014-05-09T14:53:03Z</time>
      </trkpt>
      <trkpt lat="42.57494" lon="2.25306">
        <ele>923.48</ele>
        <time>2014-05-09T14:53:12Z</time>
      </trkpt>
      <trkpt lat="42.57489" lon="2.25309">
        <ele>921.56</ele>
        <time>2014-05-09T14:53:20Z</time>
      </trkpt>
      <trkpt lat="42.57486" lon="2.2531">
        <ele>920.12</ele>
        <time>2014-05-09T14:53:24Z</time>
      </trkpt>
      <trkpt lat="42.57481" lon="2.25314">
        <ele>918.68</ele>
        <time>2014-05-09T14:53:32Z</time>
      </trkpt>
      <trkpt lat="42.57481" lon="2.25315">
        <ele>918.68</ele>
        <time>2014-05-09T14:53:33Z</time>
      </trkpt>
      <trkpt lat="42.57476" lon="2.25318">
        <ele>917.72</ele>
        <time>2014-05-09T14:53:38Z</time>
      </trkpt>
      <trkpt lat="42.5747" lon="2.25319">
        <ele>914.83</ele>
        <time>2014-05-09T14:53:45Z</time>
      </trkpt>
      <trkpt lat="42.57464" lon="2.25319">
        <ele>912.91</ele>
        <time>2014-05-09T14:53:51Z</time>
      </trkpt>
      <trkpt lat="42.57462" lon="2.2532">
        <ele>912.91</ele>
        <time>2014-05-09T14:53:54Z</time>
      </trkpt>
      <trkpt lat="42.57455" lon="2.25324">
        <ele>910.99</ele>
        <time>2014-05-09T14:54:02Z</time>
      </trkpt>
      <trkpt lat="42.5745" lon="2.25325">
        <ele>909.06</ele>
        <time>2014-05-09T14:54:09Z</time>
      </trkpt>
      <trkpt lat="42.57444" lon="2.25329">
        <ele>907.62</ele>
        <time>2014-05-09T14:54:16Z</time>
      </trkpt>
      <trkpt lat="42.5744" lon="2.25329">
        <ele>906.66</ele>
        <time>2014-05-09T14:54:22Z</time>
      </trkpt>
      <trkpt lat="42.57432" lon="2.25335">
        <ele>904.74</ele>
        <time>2014-05-09T14:54:31Z</time>
      </trkpt>
      <trkpt lat="42.57426" lon="2.25333">
        <ele>902.82</ele>
        <time>2014-05-09T14:54:39Z</time>
      </trkpt>
      <trkpt lat="42.57423" lon="2.25333">
        <ele>901.85</ele>
        <time>2014-05-09T14:54:45Z</time>
      </trkpt>
      <trkpt lat="42.57416" lon="2.25333">
        <ele>900.89</ele>
        <time>2014-05-09T14:54:53Z</time>
      </trkpt>
      <trkpt lat="42.57412" lon="2.25339">
        <ele>898.49</ele>
        <time>2014-05-09T14:55:01Z</time>
      </trkpt>
      <trkpt lat="42.57408" lon="2.25335">
        <ele>897.53</ele>
        <time>2014-05-09T14:55:07Z</time>
      </trkpt>
      <trkpt lat="42.57403" lon="2.25334">
        <ele>897.53</ele>
        <time>2014-05-09T14:55:19Z</time>
      </trkpt>
      <trkpt lat="42.57403" lon="2.25334">
        <ele>896.57</ele>
        <time>2014-05-09T14:55:29Z</time>
      </trkpt>
      <trkpt lat="42.57399" lon="2.25333">
        <ele>895.12</ele>
        <time>2014-05-09T14:55:35Z</time>
      </trkpt>
      <trkpt lat="42.57399" lon="2.25333">
        <ele>892.24</ele>
        <time>2014-05-09T14:55:36Z</time>
      </trkpt>
      <trkpt lat="42.57399" lon="2.25333">
        <ele>895.12</ele>
        <time>2014-05-09T14:55:38Z</time>
      </trkpt>
      <trkpt lat="42.57396" lon="2.25331">
        <ele>894.16</ele>
        <time>2014-05-09T14:55:53Z</time>
      </trkpt>
      <trkpt lat="42.57395" lon="2.2533">
        <ele>894.16</ele>
        <time>2014-05-09T14:56:04Z</time>
      </trkpt>
      <trkpt lat="42.57397" lon="2.25333">
        <ele>895.12</ele>
        <time>2014-05-09T14:56:11Z</time>
      </trkpt>
      <trkpt lat="42.574" lon="2.25333">
        <ele>896.09</ele>
        <time>2014-05-09T14:56:17Z</time>
      </trkpt>
      <trkpt lat="42.57402" lon="2.25338">
        <ele>898.01</ele>
        <time>2014-05-09T14:56:24Z</time>
      </trkpt>
      <trkpt lat="42.57399" lon="2.25344">
        <ele>898.97</ele>
        <time>2014-05-09T14:56:32Z</time>
      </trkpt>
      <trkpt lat="42.57396" lon="2.25348">
        <ele>899.93</ele>
        <time>2014-05-09T14:56:38Z</time>
      </trkpt>
      <trkpt lat="42.57397" lon="2.25352">
        <ele>901.37</ele>
        <time>2014-05-09T14:56:45Z</time>
      </trkpt>
      <trkpt lat="42.57397" lon="2.25358">
        <ele>902.33</ele>
        <time>2014-05-09T14:56:53Z</time>
      </trkpt>
      <trkpt lat="42.57395" lon="2.2536">
        <ele>903.3</ele>
        <time>2014-05-09T14:57:01Z</time>
      </trkpt>
      <trkpt lat="42.57393" lon="2.25364">
        <ele>903.3</ele>
        <time>2014-05-09T14:57:10Z</time>
      </trkpt>
      <trkpt lat="42.57391" lon="2.25368">
        <ele>903.78</ele>
        <time>2014-05-09T14:57:19Z</time>
      </trkpt>
      <trkpt lat="42.57391" lon="2.2537">
        <ele>903.78</ele>
        <time>2014-05-09T14:57:30Z</time>
      </trkpt>
      <trkpt lat="42.57391" lon="2.25369">
        <ele>904.26</ele>
        <time>2014-05-09T14:57:51Z</time>
      </trkpt>
      <trkpt lat="42.57391" lon="2.25372">
        <ele>903.78</ele>
        <time>2014-05-09T14:58:14Z</time>
      </trkpt>
      <trkpt lat="42.57389" lon="2.25371">
        <ele>903.3</ele>
        <time>2014-05-09T14:58:31Z</time>
      </trkpt>
      <trkpt lat="42.57387" lon="2.25376">
        <ele>903.3</ele>
        <time>2014-05-09T14:58:46Z</time>
      </trkpt>
      <trkpt lat="42.57387" lon="2.2538">
        <ele>901.37</ele>
        <time>2014-05-09T14:58:54Z</time>
      </trkpt>
      <trkpt lat="42.57387" lon="2.25381">
        <ele>901.37</ele>
        <time>2014-05-09T14:58:55Z</time>
      </trkpt>
      <trkpt lat="42.57387" lon="2.25382">
        <ele>900.41</ele>
        <time>2014-05-09T14:59:04Z</time>
      </trkpt>
      <trkpt lat="42.57387" lon="2.2538">
        <ele>901.37</ele>
        <time>2014-05-09T14:59:30Z</time>
      </trkpt>
      <trkpt lat="42.57386" lon="2.25379">
        <ele>900.89</ele>
        <time>2014-05-09T14:59:42Z</time>
      </trkpt>
      <trkpt lat="42.57387" lon="2.25381">
        <ele>899.93</ele>
        <time>2014-05-09T15:00:05Z</time>
      </trkpt>
      <trkpt lat="42.57384" lon="2.25383">
        <ele>898.49</ele>
        <time>2014-05-09T15:00:12Z</time>
      </trkpt>
      <trkpt lat="42.57384" lon="2.25386">
        <ele>897.53</ele>
        <time>2014-05-09T15:00:21Z</time>
      </trkpt>
      <trkpt lat="42.57384" lon="2.25386">
        <ele>896.57</ele>
        <time>2014-05-09T15:00:29Z</time>
      </trkpt>
      <trkpt lat="42.57384" lon="2.25386">
        <ele>896.57</ele>
        <time>2014-05-09T15:00:31Z</time>
      </trkpt>
      <trkpt lat="42.57384" lon="2.25391">
        <ele>896.09</ele>
        <time>2014-05-09T15:00:35Z</time>
      </trkpt>
      <trkpt lat="42.57379" lon="2.25393">
        <ele>895.12</ele>
        <time>2014-05-09T15:00:42Z</time>
      </trkpt>
      <trkpt lat="42.57377" lon="2.25385">
        <ele>895.12</ele>
        <time>2014-05-09T15:00:50Z</time>
      </trkpt>
      <trkpt lat="42.57373" lon="2.25373">
        <ele>896.09</ele>
        <time>2014-05-09T15:01:00Z</time>
      </trkpt>
      <trkpt lat="42.57369" lon="2.25368">
        <ele>896.09</ele>
        <time>2014-05-09T15:01:08Z</time>
      </trkpt>
      <trkpt lat="42.57371" lon="2.25366">
        <ele>895.61</ele>
        <time>2014-05-09T15:01:18Z</time>
      </trkpt>
      <trkpt lat="42.57373" lon="2.25361">
        <ele>895.61</ele>
        <time>2014-05-09T15:01:26Z</time>
      </trkpt>
      <trkpt lat="42.57377" lon="2.25358">
        <ele>895.61</ele>
        <time>2014-05-09T15:01:35Z</time>
      </trkpt>
      <trkpt lat="42.57379" lon="2.25366">
        <ele>895.61</ele>
        <time>2014-05-09T15:01:58Z</time>
      </trkpt>
      <trkpt lat="42.57377" lon="2.2537">
        <ele>894.64</ele>
        <time>2014-05-09T15:02:04Z</time>
      </trkpt>
      <trkpt lat="42.57376" lon="2.25374">
        <ele>895.12</ele>
        <time>2014-05-09T15:02:12Z</time>
      </trkpt>
      <trkpt lat="42.57376" lon="2.2538">
        <ele>894.64</ele>
        <time>2014-05-09T15:02:16Z</time>
      </trkpt>
      <trkpt lat="42.57369" lon="2.25385">
        <ele>894.16</ele>
        <time>2014-05-09T15:02:24Z</time>
      </trkpt>
      <trkpt lat="42.57364" lon="2.25388">
        <ele>894.64</ele>
        <time>2014-05-09T15:02:29Z</time>
      </trkpt>
      <trkpt lat="42.57357" lon="2.25384">
        <ele>895.12</ele>
        <time>2014-05-09T15:02:38Z</time>
      </trkpt>
      <trkpt lat="42.57354" lon="2.25384">
        <ele>894.16</ele>
        <time>2014-05-09T15:02:46Z</time>
      </trkpt>
      <trkpt lat="42.57353" lon="2.25384">
        <ele>894.64</ele>
        <time>2014-05-09T15:02:56Z</time>
      </trkpt>
      <trkpt lat="42.57354" lon="2.25397">
        <ele>893.2</ele>
        <time>2014-05-09T15:03:04Z</time>
      </trkpt>
      <trkpt lat="42.57352" lon="2.25397">
        <ele>893.68</ele>
        <time>2014-05-09T15:03:13Z</time>
      </trkpt>
      <trkpt lat="42.57351" lon="2.25396">
        <ele>892.72</ele>
        <time>2014-05-09T15:03:18Z</time>
      </trkpt>
      <trkpt lat="42.57349" lon="2.25394">
        <ele>892.24</ele>
        <time>2014-05-09T15:03:21Z</time>
      </trkpt>
      <trkpt lat="42.57343" lon="2.25388">
        <ele>889.84</ele>
        <time>2014-05-09T15:03:29Z</time>
      </trkpt>
      <trkpt lat="42.57342" lon="2.25379">
        <ele>887.43</ele>
        <time>2014-05-09T15:03:37Z</time>
      </trkpt>
      <trkpt lat="42.57342" lon="2.25373">
        <ele>885.51</ele>
        <time>2014-05-09T15:03:45Z</time>
      </trkpt>
      <trkpt lat="42.57342" lon="2.25371">
        <ele>885.51</ele>
        <time>2014-05-09T15:04:09Z</time>
      </trkpt>
      <trkpt lat="42.57345" lon="2.25362">
        <ele>883.59</ele>
        <time>2014-05-09T15:04:17Z</time>
      </trkpt>
      <trkpt lat="42.57346" lon="2.25361">
        <ele>883.59</ele>
        <time>2014-05-09T15:04:34Z</time>
      </trkpt>
      <trkpt lat="42.57347" lon="2.25358">
        <ele>883.11</ele>
        <time>2014-05-09T15:04:43Z</time>
      </trkpt>
      <trkpt lat="42.57347" lon="2.25357">
        <ele>882.15</ele>
        <time>2014-05-09T15:05:10Z</time>
      </trkpt>
      <trkpt lat="42.57347" lon="2.25357">
        <ele>882.63</ele>
        <time>2014-05-09T15:05:28Z</time>
      </trkpt>
      <trkpt lat="42.5735" lon="2.25352">
        <ele>882.63</ele>
        <time>2014-05-09T15:05:44Z</time>
      </trkpt>
      <trkpt lat="42.57352" lon="2.25347">
        <ele>881.19</ele>
        <time>2014-05-09T15:05:51Z</time>
      </trkpt>
      <trkpt lat="42.57353" lon="2.25348">
        <ele>881.67</ele>
        <time>2014-05-09T15:06:01Z</time>
      </trkpt>
      <trkpt lat="42.57353" lon="2.25352">
        <ele>881.67</ele>
        <time>2014-05-09T15:06:09Z</time>
      </trkpt>
      <trkpt lat="42.57354" lon="2.25345">
        <ele>880.71</ele>
        <time>2014-05-09T15:06:19Z</time>
      </trkpt>
      <trkpt lat="42.57355" lon="2.25344">
        <ele>881.19</ele>
        <time>2014-05-09T15:06:27Z</time>
      </trkpt>
      <trkpt lat="42.57353" lon="2.25344">
        <ele>880.71</ele>
        <time>2014-05-09T15:06:56Z</time>
      </trkpt>
      <trkpt lat="42.57349" lon="2.25347">
        <ele>880.22</ele>
        <time>2014-05-09T15:07:03Z</time>
      </trkpt>
      <trkpt lat="42.57347" lon="2.25348">
        <ele>878.78</ele>
        <time>2014-05-09T15:07:12Z</time>
      </trkpt>
      <trkpt lat="42.57345" lon="2.25349">
        <ele>878.3</ele>
        <time>2014-05-09T15:07:29Z</time>
      </trkpt>
      <trkpt lat="42.57345" lon="2.2535">
        <ele>877.82</ele>
        <time>2014-05-09T15:07:45Z</time>
      </trkpt>
      <trkpt lat="42.57342" lon="2.25351">
        <ele>877.82</ele>
        <time>2014-05-09T15:07:57Z</time>
      </trkpt>
      <trkpt lat="42.57342" lon="2.25351">
        <ele>877.82</ele>
        <time>2014-05-09T15:08:06Z</time>
      </trkpt>
      <trkpt lat="42.57343" lon="2.2535">
        <ele>877.34</ele>
        <time>2014-05-09T15:10:51Z</time>
      </trkpt>
      <trkpt lat="42.57343" lon="2.2535">
        <ele>877.34</ele>
        <time>2014-05-09T15:11:21Z</time>
      </trkpt>
      <trkpt lat="42.57342" lon="2.25343">
        <ele>876.38</ele>
        <time>2014-05-09T15:13:07Z</time>
      </trkpt>
      <trkpt lat="42.57341" lon="2.25336">
        <ele>874.94</ele>
        <time>2014-05-09T15:13:15Z</time>
      </trkpt>
      <trkpt lat="42.57342" lon="2.25331">
        <ele>873.98</ele>
        <time>2014-05-09T15:13:21Z</time>
      </trkpt>
      <trkpt lat="42.57344" lon="2.25325">
        <ele>873.5</ele>
        <time>2014-05-09T15:13:26Z</time>
      </trkpt>
      <trkpt lat="42.57346" lon="2.2532">
        <ele>871.57</ele>
        <time>2014-05-09T15:13:35Z</time>
      </trkpt>
      <trkpt lat="42.57348" lon="2.25315">
        <ele>870.13</ele>
        <time>2014-05-09T15:13:42Z</time>
      </trkpt>
      <trkpt lat="42.57348" lon="2.25309">
        <ele>869.17</ele>
        <time>2014-05-09T15:13:48Z</time>
      </trkpt>
      <trkpt lat="42.57352" lon="2.25302">
        <ele>868.21</ele>
        <time>2014-05-09T15:13:55Z</time>
      </trkpt>
      <trkpt lat="42.57356" lon="2.25293">
        <ele>865.8</ele>
        <time>2014-05-09T15:14:03Z</time>
      </trkpt>
      <trkpt lat="42.5736" lon="2.25286">
        <ele>865.8</ele>
        <time>2014-05-09T15:14:10Z</time>
      </trkpt>
      <trkpt lat="42.57363" lon="2.25283">
        <ele>864.36</ele>
        <time>2014-05-09T15:14:18Z</time>
      </trkpt>
      <trkpt lat="42.57359" lon="2.25283">
        <ele>864.36</ele>
        <time>2014-05-09T15:14:26Z</time>
      </trkpt>
      <trkpt lat="42.57357" lon="2.25283">
        <ele>863.4</ele>
        <time>2014-05-09T15:14:28Z</time>
      </trkpt>
      <trkpt lat="42.57348" lon="2.25291">
        <ele>862.44</ele>
        <time>2014-05-09T15:14:37Z</time>
      </trkpt>
      <trkpt lat="42.57342" lon="2.25297">
        <ele>861.48</ele>
        <time>2014-05-09T15:14:45Z</time>
      </trkpt>
      <trkpt lat="42.57339" lon="2.25298">
        <ele>861</ele>
        <time>2014-05-09T15:14:48Z</time>
      </trkpt>
      <trkpt lat="42.57335" lon="2.25302">
        <ele>860.04</ele>
        <time>2014-05-09T15:14:54Z</time>
      </trkpt>
      <trkpt lat="42.57334" lon="2.25303">
        <ele>854.27</ele>
        <time>2014-05-09T15:14:57Z</time>
      </trkpt>
      <trkpt lat="42.57334" lon="2.25303">
        <ele>861</ele>
        <time>2014-05-09T15:14:58Z</time>
      </trkpt>
      <trkpt lat="42.57334" lon="2.25303">
        <ele>857.63</ele>
        <time>2014-05-09T15:14:59Z</time>
      </trkpt>
      <trkpt lat="42.57329" lon="2.25306">
        <ele>858.11</ele>
        <time>2014-05-09T15:15:07Z</time>
      </trkpt>
      <trkpt lat="42.57326" lon="2.25309">
        <ele>858.59</ele>
        <time>2014-05-09T15:15:10Z</time>
      </trkpt>
      <trkpt lat="42.5732" lon="2.25314">
        <ele>856.67</ele>
        <time>2014-05-09T15:15:17Z</time>
      </trkpt>
      <trkpt lat="42.57314" lon="2.25319">
        <ele>856.67</ele>
        <time>2014-05-09T15:15:24Z</time>
      </trkpt>
      <trkpt lat="42.57307" lon="2.25323">
        <ele>854.75</ele>
        <time>2014-05-09T15:15:31Z</time>
      </trkpt>
      <trkpt lat="42.573" lon="2.2533">
        <ele>853.31</ele>
        <time>2014-05-09T15:15:39Z</time>
      </trkpt>
      <trkpt lat="42.57299" lon="2.25331">
        <ele>853.31</ele>
        <time>2014-05-09T15:15:40Z</time>
      </trkpt>
      <trkpt lat="42.57295" lon="2.25336">
        <ele>852.35</ele>
        <time>2014-05-09T15:15:46Z</time>
      </trkpt>
      <trkpt lat="42.57286" lon="2.25342">
        <ele>850.9</ele>
        <time>2014-05-09T15:15:54Z</time>
      </trkpt>
      <trkpt lat="42.57282" lon="2.25346">
        <ele>849.94</ele>
        <time>2014-05-09T15:15:59Z</time>
      </trkpt>
      <trkpt lat="42.57277" lon="2.25352">
        <ele>848.98</ele>
        <time>2014-05-09T15:16:04Z</time>
      </trkpt>
      <trkpt lat="42.57272" lon="2.25353">
        <ele>848.5</ele>
        <time>2014-05-09T15:16:08Z</time>
      </trkpt>
      <trkpt lat="42.5727" lon="2.25355">
        <ele>848.02</ele>
        <time>2014-05-09T15:16:11Z</time>
      </trkpt>
      <trkpt lat="42.57264" lon="2.2536">
        <ele>846.58</ele>
        <time>2014-05-09T15:16:19Z</time>
      </trkpt>
      <trkpt lat="42.57262" lon="2.25365">
        <ele>845.62</ele>
        <time>2014-05-09T15:16:26Z</time>
      </trkpt>
      <trkpt lat="42.57261" lon="2.25365">
        <ele>845.62</ele>
        <time>2014-05-09T15:16:36Z</time>
      </trkpt>
      <trkpt lat="42.57262" lon="2.25367">
        <ele>846.1</ele>
        <time>2014-05-09T15:16:41Z</time>
      </trkpt>
      <trkpt lat="42.57266" lon="2.25374">
        <ele>845.14</ele>
        <time>2014-05-09T15:16:47Z</time>
      </trkpt>
      <trkpt lat="42.5726" lon="2.25378">
        <ele>843.69</ele>
        <time>2014-05-09T15:16:54Z</time>
      </trkpt>
      <trkpt lat="42.57258" lon="2.25377">
        <ele>844.18</ele>
        <time>2014-05-09T15:16:55Z</time>
      </trkpt>
      <trkpt lat="42.57251" lon="2.2537">
        <ele>843.21</ele>
        <time>2014-05-09T15:17:04Z</time>
      </trkpt>
      <trkpt lat="42.57244" lon="2.25368">
        <ele>842.73</ele>
        <time>2014-05-09T15:17:13Z</time>
      </trkpt>
      <trkpt lat="42.57241" lon="2.25364">
        <ele>839.85</ele>
        <time>2014-05-09T15:17:21Z</time>
      </trkpt>
      <trkpt lat="42.57239" lon="2.25356">
        <ele>837.93</ele>
        <time>2014-05-09T15:17:30Z</time>
      </trkpt>
      <trkpt lat="42.5724" lon="2.25354">
        <ele>838.89</ele>
        <time>2014-05-09T15:17:36Z</time>
      </trkpt>
      <trkpt lat="42.57243" lon="2.25351">
        <ele>838.89</ele>
        <time>2014-05-09T15:17:43Z</time>
      </trkpt>
      <trkpt lat="42.57243" lon="2.25352">
        <ele>838.89</ele>
        <time>2014-05-09T15:17:54Z</time>
      </trkpt>
      <trkpt lat="42.57241" lon="2.25353">
        <ele>838.41</ele>
        <time>2014-05-09T15:18:02Z</time>
      </trkpt>
      <trkpt lat="42.57241" lon="2.25354">
        <ele>837.93</ele>
        <time>2014-05-09T15:18:15Z</time>
      </trkpt>
      <trkpt lat="42.57241" lon="2.25354">
        <ele>837.93</ele>
        <time>2014-05-09T15:18:33Z</time>
      </trkpt>
      <trkpt lat="42.5724" lon="2.25351">
        <ele>838.41</ele>
        <time>2014-05-09T15:18:43Z</time>
      </trkpt>
      <trkpt lat="42.57239" lon="2.2535">
        <ele>837.45</ele>
        <time>2014-05-09T15:18:49Z</time>
      </trkpt>
      <trkpt lat="42.57238" lon="2.25348">
        <ele>836.96</ele>
        <time>2014-05-09T15:18:56Z</time>
      </trkpt>
      <trkpt lat="42.57239" lon="2.25345">
        <ele>835.52</ele>
        <time>2014-05-09T15:19:04Z</time>
      </trkpt>
      <trkpt lat="42.57239" lon="2.25345">
        <ele>835.52</ele>
        <time>2014-05-09T15:19:23Z</time>
      </trkpt>
      <trkpt lat="42.57239" lon="2.25344">
        <ele>835.52</ele>
        <time>2014-05-09T15:19:31Z</time>
      </trkpt>
      <trkpt lat="42.57241" lon="2.25338">
        <ele>834.08</ele>
        <time>2014-05-09T15:19:39Z</time>
      </trkpt>
      <trkpt lat="42.57238" lon="2.25336">
        <ele>834.08</ele>
        <time>2014-05-09T15:19:45Z</time>
      </trkpt>
      <trkpt lat="42.57235" lon="2.25336">
        <ele>833.12</ele>
        <time>2014-05-09T15:19:49Z</time>
      </trkpt>
      <trkpt lat="42.57231" lon="2.25339">
        <ele>831.68</ele>
        <time>2014-05-09T15:19:56Z</time>
      </trkpt>
      <trkpt lat="42.57229" lon="2.2534">
        <ele>831.2</ele>
        <time>2014-05-09T15:20:04Z</time>
      </trkpt>
      <trkpt lat="42.57225" lon="2.25341">
        <ele>830.24</ele>
        <time>2014-05-09T15:20:11Z</time>
      </trkpt>
      <trkpt lat="42.5722" lon="2.25343">
        <ele>829.27</ele>
        <time>2014-05-09T15:20:19Z</time>
      </trkpt>
      <trkpt lat="42.57217" lon="2.25345">
        <ele>827.35</ele>
        <time>2014-05-09T15:20:25Z</time>
      </trkpt>
      <trkpt lat="42.57214" lon="2.25347">
        <ele>826.87</ele>
        <time>2014-05-09T15:20:32Z</time>
      </trkpt>
      <trkpt lat="42.57214" lon="2.25344">
        <ele>826.87</ele>
        <time>2014-05-09T15:20:41Z</time>
      </trkpt>
      <trkpt lat="42.5721" lon="2.2534">
        <ele>825.43</ele>
        <time>2014-05-09T15:20:47Z</time>
      </trkpt>
      <trkpt lat="42.57209" lon="2.25336">
        <ele>824.95</ele>
        <time>2014-05-09T15:20:53Z</time>
      </trkpt>
      <trkpt lat="42.57204" lon="2.25334">
        <ele>823.51</ele>
        <time>2014-05-09T15:21:00Z</time>
      </trkpt>
      <trkpt lat="42.57198" lon="2.25334">
        <ele>822.06</ele>
        <time>2014-05-09T15:21:07Z</time>
      </trkpt>
      <trkpt lat="42.57196" lon="2.25334">
        <ele>821.58</ele>
        <time>2014-05-09T15:21:09Z</time>
      </trkpt>
      <trkpt lat="42.57191" lon="2.25338">
        <ele>821.1</ele>
        <time>2014-05-09T15:21:19Z</time>
      </trkpt>
      <trkpt lat="42.57194" lon="2.2534">
        <ele>820.14</ele>
        <time>2014-05-09T15:21:37Z</time>
      </trkpt>
      <trkpt lat="42.57197" lon="2.25346">
        <ele>819.18</ele>
        <time>2014-05-09T15:21:44Z</time>
      </trkpt>
      <trkpt lat="42.57197" lon="2.25352">
        <ele>818.7</ele>
        <time>2014-05-09T15:21:49Z</time>
      </trkpt>
      <trkpt lat="42.572" lon="2.25361">
        <ele>816.78</ele>
        <time>2014-05-09T15:21:58Z</time>
      </trkpt>
      <trkpt lat="42.57201" lon="2.25365">
        <ele>816.3</ele>
        <time>2014-05-09T15:22:04Z</time>
      </trkpt>
      <trkpt lat="42.57204" lon="2.25369">
        <ele>815.34</ele>
        <time>2014-05-09T15:22:11Z</time>
      </trkpt>
      <trkpt lat="42.57205" lon="2.25371">
        <ele>814.85</ele>
        <time>2014-05-09T15:22:17Z</time>
      </trkpt>
      <trkpt lat="42.57208" lon="2.25376">
        <ele>812.93</ele>
        <time>2014-05-09T15:22:25Z</time>
      </trkpt>
      <trkpt lat="42.57213" lon="2.25382">
        <ele>811.01</ele>
        <time>2014-05-09T15:22:33Z</time>
      </trkpt>
      <trkpt lat="42.57216" lon="2.25389">
        <ele>810.05</ele>
        <time>2014-05-09T15:22:41Z</time>
      </trkpt>
      <trkpt lat="42.57219" lon="2.25395">
        <ele>809.09</ele>
        <time>2014-05-09T15:22:48Z</time>
      </trkpt>
      <trkpt lat="42.57221" lon="2.25401">
        <ele>808.13</ele>
        <time>2014-05-09T15:22:57Z</time>
      </trkpt>
      <trkpt lat="42.57221" lon="2.25403">
        <ele>807.64</ele>
        <time>2014-05-09T15:23:03Z</time>
      </trkpt>
      <trkpt lat="42.57221" lon="2.25405">
        <ele>807.64</ele>
        <time>2014-05-09T15:23:09Z</time>
      </trkpt>
      <trkpt lat="42.57216" lon="2.25401">
        <ele>806.68</ele>
        <time>2014-05-09T15:23:22Z</time>
      </trkpt>
      <trkpt lat="42.57211" lon="2.25401">
        <ele>806.2</ele>
        <time>2014-05-09T15:23:31Z</time>
      </trkpt>
      <trkpt lat="42.57208" lon="2.25406">
        <ele>805.72</ele>
        <time>2014-05-09T15:23:37Z</time>
      </trkpt>
      <trkpt lat="42.57204" lon="2.2541">
        <ele>805.72</ele>
        <time>2014-05-09T15:23:44Z</time>
      </trkpt>
      <trkpt lat="42.57201" lon="2.25415">
        <ele>805.24</ele>
        <time>2014-05-09T15:23:53Z</time>
      </trkpt>
      <trkpt lat="42.57197" lon="2.25421">
        <ele>805.72</ele>
        <time>2014-05-09T15:24:01Z</time>
      </trkpt>
      <trkpt lat="42.57196" lon="2.25422">
        <ele>805.24</ele>
        <time>2014-05-09T15:24:25Z</time>
      </trkpt>
      <trkpt lat="42.57196" lon="2.25422">
        <ele>805.72</ele>
        <time>2014-05-09T15:24:45Z</time>
      </trkpt>
      <trkpt lat="42.57196" lon="2.25422">
        <ele>805.24</ele>
        <time>2014-05-09T15:24:55Z</time>
      </trkpt>
      <trkpt lat="42.57193" lon="2.25424">
        <ele>804.28</ele>
        <time>2014-05-09T15:25:08Z</time>
      </trkpt>
      <trkpt lat="42.57191" lon="2.25425">
        <ele>803.32</ele>
        <time>2014-05-09T15:25:10Z</time>
      </trkpt>
      <trkpt lat="42.57182" lon="2.25424">
        <ele>803.8</ele>
        <time>2014-05-09T15:25:21Z</time>
      </trkpt>
      <trkpt lat="42.57181" lon="2.25424">
        <ele>803.8</ele>
        <time>2014-05-09T15:25:22Z</time>
      </trkpt>
      <trkpt lat="42.57171" lon="2.25422">
        <ele>802.84</ele>
        <time>2014-05-09T15:25:30Z</time>
      </trkpt>
      <trkpt lat="42.57165" lon="2.2542">
        <ele>802.36</ele>
        <time>2014-05-09T15:25:37Z</time>
      </trkpt>
      <trkpt lat="42.57156" lon="2.25417">
        <ele>802.36</ele>
        <time>2014-05-09T15:25:46Z</time>
      </trkpt>
      <trkpt lat="42.57147" lon="2.25415">
        <ele>801.88</ele>
        <time>2014-05-09T15:25:54Z</time>
      </trkpt>
      <trkpt lat="42.57138" lon="2.25412">
        <ele>800.92</ele>
        <time>2014-05-09T15:26:03Z</time>
      </trkpt>
      <trkpt lat="42.5713" lon="2.25408">
        <ele>799.95</ele>
        <time>2014-05-09T15:26:11Z</time>
      </trkpt>
      <trkpt lat="42.57123" lon="2.25406">
        <ele>799.95</ele>
        <time>2014-05-09T15:26:19Z</time>
      </trkpt>
      <trkpt lat="42.57115" lon="2.25402">
        <ele>799.47</ele>
        <time>2014-05-09T15:26:26Z</time>
      </trkpt>
      <trkpt lat="42.5711" lon="2.25398">
        <ele>798.99</ele>
        <time>2014-05-09T15:26:33Z</time>
      </trkpt>
      <trkpt lat="42.57104" lon="2.25394">
        <ele>798.51</ele>
        <time>2014-05-09T15:26:40Z</time>
      </trkpt>
      <trkpt lat="42.57107" lon="2.25385">
        <ele>797.55</ele>
        <time>2014-05-09T15:26:49Z</time>
      </trkpt>
      <trkpt lat="42.57104" lon="2.25383">
        <ele>798.03</ele>
        <time>2014-05-09T15:26:55Z</time>
      </trkpt>
      <trkpt lat="42.57101" lon="2.25381">
        <ele>797.55</ele>
        <time>2014-05-09T15:27:02Z</time>
      </trkpt>
      <trkpt lat="42.57094" lon="2.25376">
        <ele>797.07</ele>
        <time>2014-05-09T15:27:11Z</time>
      </trkpt>
      <trkpt lat="42.57091" lon="2.25372">
        <ele>797.07</ele>
        <time>2014-05-09T15:27:18Z</time>
      </trkpt>
      <trkpt lat="42.57091" lon="2.2537">
        <ele>797.07</ele>
        <time>2014-05-09T15:27:27Z</time>
      </trkpt>
      <trkpt lat="42.57091" lon="2.2537">
        <ele>796.59</ele>
        <time>2014-05-09T15:27:50Z</time>
      </trkpt>
      <trkpt lat="42.57091" lon="2.2537">
        <ele>796.11</ele>
        <time>2014-05-09T15:28:18Z</time>
      </trkpt>
      <trkpt lat="42.57091" lon="2.2537">
        <ele>796.11</ele>
        <time>2014-05-09T15:28:34Z</time>
      </trkpt>
      <trkpt lat="42.57091" lon="2.2537">
        <ele>796.11</ele>
        <time>2014-05-09T15:29:19Z</time>
      </trkpt>
      <trkpt lat="42.5709" lon="2.25369">
        <ele>795.63</ele>
        <time>2014-05-09T15:32:41Z</time>
      </trkpt>
    </trkseg>
  </trk>
</gpx>